<?xml version="1.0" encoding="UTF-8" standalone="no" ?>
<gpx xmlns="http://www.topografix.com/GPX/1/1" xmlns:xsi="http://www.w3.org/2001/XMLSchema-instance" xsi:schemaLocation="http://www.topografix.com/GPX/1/1 http://www.topografix.com/GPX/1/1/gpx.xsd" version="1.1" creator="VisuGPX - https://www.visugpx.com">
  <metadata>
    <name>VTT -Venelles Bibemus</name>
    <desc><![CDATA[Sortie sans difficulté avec comme invitée la neige !!!]]></desc>
  </metadata>
  <trk>
    <name><![CDATA[VTT - Venelles Bibemus]]></name>
    <trkseg>
      <trkpt lat="43.60057" lon="5.48717">
        <ele>364</ele>
        <time>2013-02-23T08:38:00.000Z</time>
      </trkpt>
      <trkpt lat="43.60059" lon="5.48717">
        <ele>364</ele>
        <time>2013-02-23T08:38:20.000Z</time>
      </trkpt>
      <trkpt lat="43.6006" lon="5.4872">
        <ele>364</ele>
        <time>2013-02-23T08:38:36.000Z</time>
      </trkpt>
      <trkpt lat="43.6006" lon="5.48721">
        <ele>364</ele>
        <time>2013-02-23T08:38:56.000Z</time>
      </trkpt>
      <trkpt lat="43.60061" lon="5.48722">
        <ele>364</ele>
        <time>2013-02-23T08:39:07.000Z</time>
      </trkpt>
      <trkpt lat="43.60065" lon="5.48731">
        <ele>364</ele>
        <time>2013-02-23T08:39:13.000Z</time>
      </trkpt>
      <trkpt lat="43.60068" lon="5.48742">
        <ele>364</ele>
        <time>2013-02-23T08:39:20.000Z</time>
      </trkpt>
      <trkpt lat="43.60074" lon="5.48755">
        <ele>364.20001220703</ele>
        <time>2013-02-23T08:39:29.000Z</time>
      </trkpt>
      <trkpt lat="43.60076" lon="5.48772">
        <ele>364.60000610352</ele>
        <time>2013-02-23T08:39:37.000Z</time>
      </trkpt>
      <trkpt lat="43.60064" lon="5.488">
        <ele>365.39999389648</ele>
        <time>2013-02-23T08:39:47.000Z</time>
      </trkpt>
      <trkpt lat="43.60047" lon="5.48825">
        <ele>366.20001220703</ele>
        <time>2013-02-23T08:39:57.000Z</time>
      </trkpt>
      <trkpt lat="43.60024" lon="5.48827">
        <ele>366.39999389648</ele>
        <time>2013-02-23T08:40:03.000Z</time>
      </trkpt>
      <trkpt lat="43.60018" lon="5.48829">
        <ele>366.60000610352</ele>
        <time>2013-02-23T08:40:04.000Z</time>
      </trkpt>
      <trkpt lat="43.60014" lon="5.48834">
        <ele>366.79998779297</ele>
        <time>2013-02-23T08:40:05.000Z</time>
      </trkpt>
      <trkpt lat="43.6001" lon="5.4884">
        <ele>367</ele>
        <time>2013-02-23T08:40:06.000Z</time>
      </trkpt>
      <trkpt lat="43.60006" lon="5.48847">
        <ele>367</ele>
        <time>2013-02-23T08:40:07.000Z</time>
      </trkpt>
      <trkpt lat="43.60002" lon="5.48853">
        <ele>367.39999389648</ele>
        <time>2013-02-23T08:40:08.000Z</time>
      </trkpt>
      <trkpt lat="43.59997" lon="5.48858">
        <ele>367.39999389648</ele>
        <time>2013-02-23T08:40:09.000Z</time>
      </trkpt>
      <trkpt lat="43.59992" lon="5.48861">
        <ele>367.39999389648</ele>
        <time>2013-02-23T08:40:10.000Z</time>
      </trkpt>
      <trkpt lat="43.59975" lon="5.48868">
        <ele>367.20001220703</ele>
        <time>2013-02-23T08:40:13.000Z</time>
      </trkpt>
      <trkpt lat="43.5997" lon="5.48868">
        <ele>367.20001220703</ele>
        <time>2013-02-23T08:40:14.000Z</time>
      </trkpt>
      <trkpt lat="43.59965" lon="5.48866">
        <ele>367</ele>
        <time>2013-02-23T08:40:15.000Z</time>
      </trkpt>
      <trkpt lat="43.59961" lon="5.48863">
        <ele>366.79998779297</ele>
        <time>2013-02-23T08:40:16.000Z</time>
      </trkpt>
      <trkpt lat="43.59956" lon="5.48859">
        <ele>366.60000610352</ele>
        <time>2013-02-23T08:40:17.000Z</time>
      </trkpt>
      <trkpt lat="43.59952" lon="5.48856">
        <ele>366.39999389648</ele>
        <time>2013-02-23T08:40:18.000Z</time>
      </trkpt>
      <trkpt lat="43.59947" lon="5.48854">
        <ele>366.20001220703</ele>
        <time>2013-02-23T08:40:19.000Z</time>
      </trkpt>
      <trkpt lat="43.59941" lon="5.48853">
        <ele>366.20001220703</ele>
        <time>2013-02-23T08:40:20.000Z</time>
      </trkpt>
      <trkpt lat="43.59923" lon="5.48849">
        <ele>365.60000610352</ele>
        <time>2013-02-23T08:40:23.000Z</time>
      </trkpt>
      <trkpt lat="43.59912" lon="5.48848">
        <ele>365.39999389648</ele>
        <time>2013-02-23T08:40:25.000Z</time>
      </trkpt>
      <trkpt lat="43.59908" lon="5.48849">
        <ele>365.20001220703</ele>
        <time>2013-02-23T08:40:26.000Z</time>
      </trkpt>
      <trkpt lat="43.59905" lon="5.4885">
        <ele>365.20001220703</ele>
        <time>2013-02-23T08:40:27.000Z</time>
      </trkpt>
      <trkpt lat="43.59904" lon="5.48852">
        <ele>365.20001220703</ele>
        <time>2013-02-23T08:40:28.000Z</time>
      </trkpt>
      <trkpt lat="43.59904" lon="5.48852">
        <ele>365.39999389648</ele>
        <time>2013-02-23T08:40:29.000Z</time>
      </trkpt>
      <trkpt lat="43.59906" lon="5.48853">
        <ele>365.39999389648</ele>
        <time>2013-02-23T08:40:40.000Z</time>
      </trkpt>
      <trkpt lat="43.5991" lon="5.48856">
        <ele>365.60000610352</ele>
        <time>2013-02-23T08:41:05.000Z</time>
      </trkpt>
      <trkpt lat="43.59912" lon="5.48857">
        <ele>365.60000610352</ele>
        <time>2013-02-23T08:41:24.000Z</time>
      </trkpt>
      <trkpt lat="43.59915" lon="5.48857">
        <ele>365.79998779297</ele>
        <time>2013-02-23T08:41:47.000Z</time>
      </trkpt>
      <trkpt lat="43.59915" lon="5.48858">
        <ele>365.79998779297</ele>
        <time>2013-02-23T08:42:02.000Z</time>
      </trkpt>
      <trkpt lat="43.59916" lon="5.48858">
        <ele>365.79998779297</ele>
        <time>2013-02-23T08:42:21.000Z</time>
      </trkpt>
      <trkpt lat="43.59915" lon="5.48862">
        <ele>365.79998779297</ele>
        <time>2013-02-23T08:42:36.000Z</time>
      </trkpt>
      <trkpt lat="43.59914" lon="5.48866">
        <ele>366</ele>
        <time>2013-02-23T08:42:41.000Z</time>
      </trkpt>
      <trkpt lat="43.59906" lon="5.48895">
        <ele>367</ele>
        <time>2013-02-23T08:42:52.000Z</time>
      </trkpt>
      <trkpt lat="43.59905" lon="5.48906">
        <ele>367.39999389648</ele>
        <time>2013-02-23T08:42:55.000Z</time>
      </trkpt>
      <trkpt lat="43.59907" lon="5.48909">
        <ele>367.60000610352</ele>
        <time>2013-02-23T08:42:56.000Z</time>
      </trkpt>
      <trkpt lat="43.59909" lon="5.48911">
        <ele>367.60000610352</ele>
        <time>2013-02-23T08:42:57.000Z</time>
      </trkpt>
      <trkpt lat="43.59912" lon="5.48912">
        <ele>367.60000610352</ele>
        <time>2013-02-23T08:42:58.000Z</time>
      </trkpt>
      <trkpt lat="43.59915" lon="5.48913">
        <ele>367.79998779297</ele>
        <time>2013-02-23T08:42:59.000Z</time>
      </trkpt>
      <trkpt lat="43.59939" lon="5.48916">
        <ele>368.20001220703</ele>
        <time>2013-02-23T08:43:08.000Z</time>
      </trkpt>
      <trkpt lat="43.59961" lon="5.48919">
        <ele>368.39999389648</ele>
        <time>2013-02-23T08:43:17.000Z</time>
      </trkpt>
      <trkpt lat="43.59965" lon="5.48921">
        <ele>368.60000610352</ele>
        <time>2013-02-23T08:43:19.000Z</time>
      </trkpt>
      <trkpt lat="43.59967" lon="5.48923">
        <ele>368.60000610352</ele>
        <time>2013-02-23T08:43:20.000Z</time>
      </trkpt>
      <trkpt lat="43.59969" lon="5.48927">
        <ele>368.79998779297</ele>
        <time>2013-02-23T08:43:21.000Z</time>
      </trkpt>
      <trkpt lat="43.59969" lon="5.48932">
        <ele>368.79998779297</ele>
        <time>2013-02-23T08:43:22.000Z</time>
      </trkpt>
      <trkpt lat="43.5997" lon="5.48936">
        <ele>369</ele>
        <time>2013-02-23T08:43:23.000Z</time>
      </trkpt>
      <trkpt lat="43.59969" lon="5.48941">
        <ele>369</ele>
        <time>2013-02-23T08:43:24.000Z</time>
      </trkpt>
      <trkpt lat="43.59968" lon="5.48945">
        <ele>369.20001220703</ele>
        <time>2013-02-23T08:43:25.000Z</time>
      </trkpt>
      <trkpt lat="43.59967" lon="5.48949">
        <ele>369.20001220703</ele>
        <time>2013-02-23T08:43:26.000Z</time>
      </trkpt>
      <trkpt lat="43.59953" lon="5.48992">
        <ele>370.20001220703</ele>
        <time>2013-02-23T08:43:37.000Z</time>
      </trkpt>
      <trkpt lat="43.59947" lon="5.49036">
        <ele>371.39999389648</ele>
        <time>2013-02-23T08:43:48.000Z</time>
      </trkpt>
      <trkpt lat="43.59957" lon="5.49051">
        <ele>371.39999389648</ele>
        <time>2013-02-23T08:43:54.000Z</time>
      </trkpt>
      <trkpt lat="43.59958" lon="5.49053">
        <ele>371.39999389648</ele>
        <time>2013-02-23T08:43:55.000Z</time>
      </trkpt>
      <trkpt lat="43.59959" lon="5.49054">
        <ele>371.39999389648</ele>
        <time>2013-02-23T08:43:56.000Z</time>
      </trkpt>
      <trkpt lat="43.59958" lon="5.49056">
        <ele>371.39999389648</ele>
        <time>2013-02-23T08:43:57.000Z</time>
      </trkpt>
      <trkpt lat="43.59957" lon="5.49058">
        <ele>371.39999389648</ele>
        <time>2013-02-23T08:43:58.000Z</time>
      </trkpt>
      <trkpt lat="43.59955" lon="5.49058">
        <ele>371.60000610352</ele>
        <time>2013-02-23T08:43:59.000Z</time>
      </trkpt>
      <trkpt lat="43.59921" lon="5.49063">
        <ele>373</ele>
        <time>2013-02-23T08:44:10.000Z</time>
      </trkpt>
      <trkpt lat="43.59878" lon="5.4905">
        <ele>372.39999389648</ele>
        <time>2013-02-23T08:44:22.000Z</time>
      </trkpt>
      <trkpt lat="43.59841" lon="5.49027">
        <ele>371.60000610352</ele>
        <time>2013-02-23T08:44:32.000Z</time>
      </trkpt>
      <trkpt lat="43.59803" lon="5.49023">
        <ele>371.39999389648</ele>
        <time>2013-02-23T08:44:44.000Z</time>
      </trkpt>
      <trkpt lat="43.59799" lon="5.49023">
        <ele>371.39999389648</ele>
        <time>2013-02-23T08:44:51.000Z</time>
      </trkpt>
      <trkpt lat="43.59795" lon="5.49022">
        <ele>371.39999389648</ele>
        <time>2013-02-23T08:45:02.000Z</time>
      </trkpt>
      <trkpt lat="43.59795" lon="5.49021">
        <ele>371.39999389648</ele>
        <time>2013-02-23T08:45:03.000Z</time>
      </trkpt>
      <trkpt lat="43.59794" lon="5.49019">
        <ele>371.39999389648</ele>
        <time>2013-02-23T08:45:04.000Z</time>
      </trkpt>
      <trkpt lat="43.59776" lon="5.48998">
        <ele>370.79998779297</ele>
        <time>2013-02-23T08:45:10.000Z</time>
      </trkpt>
      <trkpt lat="43.59773" lon="5.48994">
        <ele>370.79998779297</ele>
        <time>2013-02-23T08:45:11.000Z</time>
      </trkpt>
      <trkpt lat="43.59769" lon="5.4899">
        <ele>370.79998779297</ele>
        <time>2013-02-23T08:45:12.000Z</time>
      </trkpt>
      <trkpt lat="43.59748" lon="5.48966">
        <ele>370.39999389648</ele>
        <time>2013-02-23T08:45:19.000Z</time>
      </trkpt>
      <trkpt lat="43.59747" lon="5.48964">
        <ele>370.39999389648</ele>
        <time>2013-02-23T08:45:26.000Z</time>
      </trkpt>
      <trkpt lat="43.59743" lon="5.48959">
        <ele>370.20001220703</ele>
        <time>2013-02-23T08:45:33.000Z</time>
      </trkpt>
      <trkpt lat="43.59743" lon="5.48957">
        <ele>370.20001220703</ele>
        <time>2013-02-23T08:45:34.000Z</time>
      </trkpt>
      <trkpt lat="43.59742" lon="5.48955">
        <ele>370.20001220703</ele>
        <time>2013-02-23T08:45:35.000Z</time>
      </trkpt>
      <trkpt lat="43.59731" lon="5.48939">
        <ele>369.79998779297</ele>
        <time>2013-02-23T08:45:41.000Z</time>
      </trkpt>
      <trkpt lat="43.59728" lon="5.48941">
        <ele>369.60000610352</ele>
        <time>2013-02-23T08:45:42.000Z</time>
      </trkpt>
      <trkpt lat="43.59724" lon="5.48944">
        <ele>369.60000610352</ele>
        <time>2013-02-23T08:45:43.000Z</time>
      </trkpt>
      <trkpt lat="43.59719" lon="5.48945">
        <ele>369.39999389648</ele>
        <time>2013-02-23T08:45:44.000Z</time>
      </trkpt>
      <trkpt lat="43.59715" lon="5.48944">
        <ele>369.39999389648</ele>
        <time>2013-02-23T08:45:45.000Z</time>
      </trkpt>
      <trkpt lat="43.59712" lon="5.48943">
        <ele>369.39999389648</ele>
        <time>2013-02-23T08:45:46.000Z</time>
      </trkpt>
      <trkpt lat="43.5971" lon="5.48942">
        <ele>369.20001220703</ele>
        <time>2013-02-23T08:45:47.000Z</time>
      </trkpt>
      <trkpt lat="43.59708" lon="5.48943">
        <ele>369.20001220703</ele>
        <time>2013-02-23T08:45:48.000Z</time>
      </trkpt>
      <trkpt lat="43.59706" lon="5.48945">
        <ele>369.20001220703</ele>
        <time>2013-02-23T08:45:49.000Z</time>
      </trkpt>
      <trkpt lat="43.59704" lon="5.48948">
        <ele>369.20001220703</ele>
        <time>2013-02-23T08:45:50.000Z</time>
      </trkpt>
      <trkpt lat="43.59701" lon="5.4895">
        <ele>369.20001220703</ele>
        <time>2013-02-23T08:45:51.000Z</time>
      </trkpt>
      <trkpt lat="43.59697" lon="5.48953">
        <ele>369</ele>
        <time>2013-02-23T08:45:52.000Z</time>
      </trkpt>
      <trkpt lat="43.59695" lon="5.48956">
        <ele>369</ele>
        <time>2013-02-23T08:45:53.000Z</time>
      </trkpt>
      <trkpt lat="43.59692" lon="5.48958">
        <ele>369</ele>
        <time>2013-02-23T08:45:54.000Z</time>
      </trkpt>
      <trkpt lat="43.59669" lon="5.48981">
        <ele>368.79998779297</ele>
        <time>2013-02-23T08:46:04.000Z</time>
      </trkpt>
      <trkpt lat="43.59639" lon="5.48999">
        <ele>369.60000610352</ele>
        <time>2013-02-23T08:46:12.000Z</time>
      </trkpt>
      <trkpt lat="43.59635" lon="5.49002">
        <ele>369.79998779297</ele>
        <time>2013-02-23T08:46:13.000Z</time>
      </trkpt>
      <trkpt lat="43.59631" lon="5.49006">
        <ele>370.39999389648</ele>
        <time>2013-02-23T08:46:14.000Z</time>
      </trkpt>
      <trkpt lat="43.59628" lon="5.4901">
        <ele>370.79998779297</ele>
        <time>2013-02-23T08:46:15.000Z</time>
      </trkpt>
      <trkpt lat="43.59626" lon="5.49015">
        <ele>371.39999389648</ele>
        <time>2013-02-23T08:46:16.000Z</time>
      </trkpt>
      <trkpt lat="43.59624" lon="5.49019">
        <ele>371.79998779297</ele>
        <time>2013-02-23T08:46:17.000Z</time>
      </trkpt>
      <trkpt lat="43.59622" lon="5.49023">
        <ele>372.20001220703</ele>
        <time>2013-02-23T08:46:18.000Z</time>
      </trkpt>
      <trkpt lat="43.59607" lon="5.49059">
        <ele>376</ele>
        <time>2013-02-23T08:46:28.000Z</time>
      </trkpt>
      <trkpt lat="43.59605" lon="5.4906">
        <ele>376</ele>
        <time>2013-02-23T08:46:29.000Z</time>
      </trkpt>
      <trkpt lat="43.59596" lon="5.49058">
        <ele>375.79998779297</ele>
        <time>2013-02-23T08:46:32.000Z</time>
      </trkpt>
      <trkpt lat="43.59594" lon="5.49059">
        <ele>375.79998779297</ele>
        <time>2013-02-23T08:46:33.000Z</time>
      </trkpt>
      <trkpt lat="43.59593" lon="5.49062">
        <ele>376.20001220703</ele>
        <time>2013-02-23T08:46:34.000Z</time>
      </trkpt>
      <trkpt lat="43.59591" lon="5.49065">
        <ele>376.39999389648</ele>
        <time>2013-02-23T08:46:35.000Z</time>
      </trkpt>
      <trkpt lat="43.59578" lon="5.49097">
        <ele>379.20001220703</ele>
        <time>2013-02-23T08:46:44.000Z</time>
      </trkpt>
      <trkpt lat="43.59563" lon="5.49133">
        <ele>382.39999389648</ele>
        <time>2013-02-23T08:46:54.000Z</time>
      </trkpt>
      <trkpt lat="43.59543" lon="5.49169">
        <ele>385.39999389648</ele>
        <time>2013-02-23T08:47:05.000Z</time>
      </trkpt>
      <trkpt lat="43.59535" lon="5.49182">
        <ele>386</ele>
        <time>2013-02-23T08:47:09.000Z</time>
      </trkpt>
      <trkpt lat="43.59518" lon="5.49202">
        <ele>386.60000610352</ele>
        <time>2013-02-23T08:47:17.000Z</time>
      </trkpt>
      <trkpt lat="43.59491" lon="5.49222">
        <ele>386</ele>
        <time>2013-02-23T08:47:26.000Z</time>
      </trkpt>
      <trkpt lat="43.59483" lon="5.49228">
        <ele>385.60000610352</ele>
        <time>2013-02-23T08:47:28.000Z</time>
      </trkpt>
      <trkpt lat="43.59479" lon="5.49233">
        <ele>385.39999389648</ele>
        <time>2013-02-23T08:47:29.000Z</time>
      </trkpt>
      <trkpt lat="43.59476" lon="5.49238">
        <ele>385</ele>
        <time>2013-02-23T08:47:30.000Z</time>
      </trkpt>
      <trkpt lat="43.59461" lon="5.49267">
        <ele>384.20001220703</ele>
        <time>2013-02-23T08:47:35.000Z</time>
      </trkpt>
      <trkpt lat="43.59444" lon="5.49315">
        <ele>383.60000610352</ele>
        <time>2013-02-23T08:47:43.000Z</time>
      </trkpt>
      <trkpt lat="43.59424" lon="5.49382">
        <ele>384.60000610352</ele>
        <time>2013-02-23T08:47:55.000Z</time>
      </trkpt>
      <trkpt lat="43.59411" lon="5.49435">
        <ele>386.20001220703</ele>
        <time>2013-02-23T08:48:06.000Z</time>
      </trkpt>
      <trkpt lat="43.59406" lon="5.49451">
        <ele>386.20001220703</ele>
        <time>2013-02-23T08:48:09.000Z</time>
      </trkpt>
      <trkpt lat="43.59404" lon="5.49457">
        <ele>386.20001220703</ele>
        <time>2013-02-23T08:48:10.000Z</time>
      </trkpt>
      <trkpt lat="43.59402" lon="5.49462">
        <ele>386.39999389648</ele>
        <time>2013-02-23T08:48:11.000Z</time>
      </trkpt>
      <trkpt lat="43.59399" lon="5.49473">
        <ele>386.39999389648</ele>
        <time>2013-02-23T08:48:13.000Z</time>
      </trkpt>
      <trkpt lat="43.59385" lon="5.49505">
        <ele>386</ele>
        <time>2013-02-23T08:48:19.000Z</time>
      </trkpt>
      <trkpt lat="43.59382" lon="5.4951">
        <ele>385.79998779297</ele>
        <time>2013-02-23T08:48:20.000Z</time>
      </trkpt>
      <trkpt lat="43.5938" lon="5.49515">
        <ele>385.60000610352</ele>
        <time>2013-02-23T08:48:21.000Z</time>
      </trkpt>
      <trkpt lat="43.59336" lon="5.49572">
        <ele>382</ele>
        <time>2013-02-23T08:48:32.000Z</time>
      </trkpt>
      <trkpt lat="43.59306" lon="5.4961">
        <ele>379.20001220703</ele>
        <time>2013-02-23T08:48:38.000Z</time>
      </trkpt>
      <trkpt lat="43.59301" lon="5.49618">
        <ele>378.79998779297</ele>
        <time>2013-02-23T08:48:39.000Z</time>
      </trkpt>
      <trkpt lat="43.59297" lon="5.49626">
        <ele>378.39999389648</ele>
        <time>2013-02-23T08:48:40.000Z</time>
      </trkpt>
      <trkpt lat="43.59281" lon="5.49664">
        <ele>376.60000610352</ele>
        <time>2013-02-23T08:48:44.000Z</time>
      </trkpt>
      <trkpt lat="43.59278" lon="5.49674">
        <ele>376</ele>
        <time>2013-02-23T08:48:45.000Z</time>
      </trkpt>
      <trkpt lat="43.59275" lon="5.49684">
        <ele>375.39999389648</ele>
        <time>2013-02-23T08:48:46.000Z</time>
      </trkpt>
      <trkpt lat="43.59274" lon="5.49694">
        <ele>374.79998779297</ele>
        <time>2013-02-23T08:48:47.000Z</time>
      </trkpt>
      <trkpt lat="43.59273" lon="5.49704">
        <ele>374.39999389648</ele>
        <time>2013-02-23T08:48:48.000Z</time>
      </trkpt>
      <trkpt lat="43.59274" lon="5.49715">
        <ele>374.20001220703</ele>
        <time>2013-02-23T08:48:49.000Z</time>
      </trkpt>
      <trkpt lat="43.59276" lon="5.49725">
        <ele>374.20001220703</ele>
        <time>2013-02-23T08:48:50.000Z</time>
      </trkpt>
      <trkpt lat="43.59276" lon="5.49735">
        <ele>373.79998779297</ele>
        <time>2013-02-23T08:48:51.000Z</time>
      </trkpt>
      <trkpt lat="43.59275" lon="5.49745">
        <ele>373.39999389648</ele>
        <time>2013-02-23T08:48:52.000Z</time>
      </trkpt>
      <trkpt lat="43.59272" lon="5.49756">
        <ele>372.60000610352</ele>
        <time>2013-02-23T08:48:53.000Z</time>
      </trkpt>
      <trkpt lat="43.59268" lon="5.49765">
        <ele>372</ele>
        <time>2013-02-23T08:48:54.000Z</time>
      </trkpt>
      <trkpt lat="43.59263" lon="5.49775">
        <ele>371.20001220703</ele>
        <time>2013-02-23T08:48:55.000Z</time>
      </trkpt>
      <trkpt lat="43.5926" lon="5.49786">
        <ele>370.39999389648</ele>
        <time>2013-02-23T08:48:56.000Z</time>
      </trkpt>
      <trkpt lat="43.59257" lon="5.49796">
        <ele>369.79998779297</ele>
        <time>2013-02-23T08:48:57.000Z</time>
      </trkpt>
      <trkpt lat="43.59256" lon="5.49807">
        <ele>369.39999389648</ele>
        <time>2013-02-23T08:48:58.000Z</time>
      </trkpt>
      <trkpt lat="43.59255" lon="5.49817">
        <ele>369</ele>
        <time>2013-02-23T08:48:59.000Z</time>
      </trkpt>
      <trkpt lat="43.59256" lon="5.49826">
        <ele>368.79998779297</ele>
        <time>2013-02-23T08:49:00.000Z</time>
      </trkpt>
      <trkpt lat="43.59257" lon="5.49836">
        <ele>368.79998779297</ele>
        <time>2013-02-23T08:49:01.000Z</time>
      </trkpt>
      <trkpt lat="43.59259" lon="5.49845">
        <ele>369</ele>
        <time>2013-02-23T08:49:02.000Z</time>
      </trkpt>
      <trkpt lat="43.59261" lon="5.49854">
        <ele>369.20001220703</ele>
        <time>2013-02-23T08:49:03.000Z</time>
      </trkpt>
      <trkpt lat="43.59267" lon="5.49878">
        <ele>369.79998779297</ele>
        <time>2013-02-23T08:49:06.000Z</time>
      </trkpt>
      <trkpt lat="43.59272" lon="5.49916">
        <ele>369.79998779297</ele>
        <time>2013-02-23T08:49:11.000Z</time>
      </trkpt>
      <trkpt lat="43.59271" lon="5.49924">
        <ele>369.79998779297</ele>
        <time>2013-02-23T08:49:12.000Z</time>
      </trkpt>
      <trkpt lat="43.59269" lon="5.49994">
        <ele>371</ele>
        <time>2013-02-23T08:49:21.000Z</time>
      </trkpt>
      <trkpt lat="43.59269" lon="5.50002">
        <ele>371.20001220703</ele>
        <time>2013-02-23T08:49:22.000Z</time>
      </trkpt>
      <trkpt lat="43.59269" lon="5.50024">
        <ele>370.79998779297</ele>
        <time>2013-02-23T08:49:25.000Z</time>
      </trkpt>
      <trkpt lat="43.59267" lon="5.50029">
        <ele>370.60000610352</ele>
        <time>2013-02-23T08:49:26.000Z</time>
      </trkpt>
      <trkpt lat="43.59262" lon="5.50032">
        <ele>370</ele>
        <time>2013-02-23T08:49:27.000Z</time>
      </trkpt>
      <trkpt lat="43.59257" lon="5.50033">
        <ele>369.20001220703</ele>
        <time>2013-02-23T08:49:28.000Z</time>
      </trkpt>
      <trkpt lat="43.5925" lon="5.50032">
        <ele>368.60000610352</ele>
        <time>2013-02-23T08:49:29.000Z</time>
      </trkpt>
      <trkpt lat="43.59243" lon="5.50031">
        <ele>368</ele>
        <time>2013-02-23T08:49:30.000Z</time>
      </trkpt>
      <trkpt lat="43.59236" lon="5.5003">
        <ele>367.60000610352</ele>
        <time>2013-02-23T08:49:31.000Z</time>
      </trkpt>
      <trkpt lat="43.59207" lon="5.50029">
        <ele>365.60000610352</ele>
        <time>2013-02-23T08:49:35.000Z</time>
      </trkpt>
      <trkpt lat="43.59177" lon="5.50029">
        <ele>363.60000610352</ele>
        <time>2013-02-23T08:49:39.000Z</time>
      </trkpt>
      <trkpt lat="43.59101" lon="5.50026">
        <ele>363</ele>
        <time>2013-02-23T08:49:50.000Z</time>
      </trkpt>
      <trkpt lat="43.59095" lon="5.50025">
        <ele>363</ele>
        <time>2013-02-23T08:49:51.000Z</time>
      </trkpt>
      <trkpt lat="43.59089" lon="5.50023">
        <ele>362.79998779297</ele>
        <time>2013-02-23T08:49:52.000Z</time>
      </trkpt>
      <trkpt lat="43.59039" lon="5.49998">
        <ele>361.79998779297</ele>
        <time>2013-02-23T08:50:00.000Z</time>
      </trkpt>
      <trkpt lat="43.59034" lon="5.49994">
        <ele>361.39999389648</ele>
        <time>2013-02-23T08:50:01.000Z</time>
      </trkpt>
      <trkpt lat="43.59017" lon="5.49979">
        <ele>360.39999389648</ele>
        <time>2013-02-23T08:50:04.000Z</time>
      </trkpt>
      <trkpt lat="43.59011" lon="5.49976">
        <ele>360.20001220703</ele>
        <time>2013-02-23T08:50:05.000Z</time>
      </trkpt>
      <trkpt lat="43.59005" lon="5.49974">
        <ele>360</ele>
        <time>2013-02-23T08:50:06.000Z</time>
      </trkpt>
      <trkpt lat="43.58998" lon="5.49973">
        <ele>359.79998779297</ele>
        <time>2013-02-23T08:50:07.000Z</time>
      </trkpt>
      <trkpt lat="43.58991" lon="5.49973">
        <ele>359.60000610352</ele>
        <time>2013-02-23T08:50:08.000Z</time>
      </trkpt>
      <trkpt lat="43.58984" lon="5.49973">
        <ele>359.20001220703</ele>
        <time>2013-02-23T08:50:09.000Z</time>
      </trkpt>
      <trkpt lat="43.58935" lon="5.49979">
        <ele>357.39999389648</ele>
        <time>2013-02-23T08:50:16.000Z</time>
      </trkpt>
      <trkpt lat="43.5892" lon="5.49978">
        <ele>356.60000610352</ele>
        <time>2013-02-23T08:50:18.000Z</time>
      </trkpt>
      <trkpt lat="43.58913" lon="5.49976">
        <ele>356.20001220703</ele>
        <time>2013-02-23T08:50:19.000Z</time>
      </trkpt>
      <trkpt lat="43.58905" lon="5.49973">
        <ele>355.79998779297</ele>
        <time>2013-02-23T08:50:20.000Z</time>
      </trkpt>
      <trkpt lat="43.5889" lon="5.49965">
        <ele>354.79998779297</ele>
        <time>2013-02-23T08:50:22.000Z</time>
      </trkpt>
      <trkpt lat="43.58883" lon="5.4996">
        <ele>354.39999389648</ele>
        <time>2013-02-23T08:50:23.000Z</time>
      </trkpt>
      <trkpt lat="43.58876" lon="5.49953">
        <ele>353.79998779297</ele>
        <time>2013-02-23T08:50:24.000Z</time>
      </trkpt>
      <trkpt lat="43.58843" lon="5.49918">
        <ele>351</ele>
        <time>2013-02-23T08:50:29.000Z</time>
      </trkpt>
      <trkpt lat="43.58824" lon="5.49896">
        <ele>348.79998779297</ele>
        <time>2013-02-23T08:50:32.000Z</time>
      </trkpt>
      <trkpt lat="43.58806" lon="5.49877">
        <ele>346.79998779297</ele>
        <time>2013-02-23T08:50:35.000Z</time>
      </trkpt>
      <trkpt lat="43.58799" lon="5.49873">
        <ele>346.20001220703</ele>
        <time>2013-02-23T08:50:36.000Z</time>
      </trkpt>
      <trkpt lat="43.58792" lon="5.49871">
        <ele>345.79998779297</ele>
        <time>2013-02-23T08:50:37.000Z</time>
      </trkpt>
      <trkpt lat="43.58786" lon="5.49872">
        <ele>345.79998779297</ele>
        <time>2013-02-23T08:50:38.000Z</time>
      </trkpt>
      <trkpt lat="43.58779" lon="5.49875">
        <ele>345.79998779297</ele>
        <time>2013-02-23T08:50:39.000Z</time>
      </trkpt>
      <trkpt lat="43.58774" lon="5.49878">
        <ele>345.79998779297</ele>
        <time>2013-02-23T08:50:40.000Z</time>
      </trkpt>
      <trkpt lat="43.58769" lon="5.49881">
        <ele>345.79998779297</ele>
        <time>2013-02-23T08:50:41.000Z</time>
      </trkpt>
      <trkpt lat="43.58763" lon="5.49883">
        <ele>346</ele>
        <time>2013-02-23T08:50:42.000Z</time>
      </trkpt>
      <trkpt lat="43.58688" lon="5.49927">
        <ele>343.20001220703</ele>
        <time>2013-02-23T08:50:56.000Z</time>
      </trkpt>
      <trkpt lat="43.58663" lon="5.49937">
        <ele>341.60000610352</ele>
        <time>2013-02-23T08:51:00.000Z</time>
      </trkpt>
      <trkpt lat="43.58643" lon="5.49947">
        <ele>340.39999389648</ele>
        <time>2013-02-23T08:51:03.000Z</time>
      </trkpt>
      <trkpt lat="43.58625" lon="5.49956">
        <ele>339.39999389648</ele>
        <time>2013-02-23T08:51:06.000Z</time>
      </trkpt>
      <trkpt lat="43.58619" lon="5.49958">
        <ele>338.79998779297</ele>
        <time>2013-02-23T08:51:07.000Z</time>
      </trkpt>
      <trkpt lat="43.58614" lon="5.49958">
        <ele>338.39999389648</ele>
        <time>2013-02-23T08:51:08.000Z</time>
      </trkpt>
      <trkpt lat="43.58602" lon="5.4996">
        <ele>337.60000610352</ele>
        <time>2013-02-23T08:51:11.000Z</time>
      </trkpt>
      <trkpt lat="43.586" lon="5.49965">
        <ele>337.60000610352</ele>
        <time>2013-02-23T08:51:12.000Z</time>
      </trkpt>
      <trkpt lat="43.586" lon="5.49971">
        <ele>337.60000610352</ele>
        <time>2013-02-23T08:51:13.000Z</time>
      </trkpt>
      <trkpt lat="43.586" lon="5.49979">
        <ele>337.79998779297</ele>
        <time>2013-02-23T08:51:14.000Z</time>
      </trkpt>
      <trkpt lat="43.586" lon="5.49986">
        <ele>338.20001220703</ele>
        <time>2013-02-23T08:51:15.000Z</time>
      </trkpt>
      <trkpt lat="43.58599" lon="5.49993">
        <ele>338.20001220703</ele>
        <time>2013-02-23T08:51:16.000Z</time>
      </trkpt>
      <trkpt lat="43.58596" lon="5.5">
        <ele>338.20001220703</ele>
        <time>2013-02-23T08:51:17.000Z</time>
      </trkpt>
      <trkpt lat="43.58593" lon="5.50004">
        <ele>337.79998779297</ele>
        <time>2013-02-23T08:51:18.000Z</time>
      </trkpt>
      <trkpt lat="43.58588" lon="5.50005">
        <ele>337.39999389648</ele>
        <time>2013-02-23T08:51:19.000Z</time>
      </trkpt>
      <trkpt lat="43.58582" lon="5.50005">
        <ele>337</ele>
        <time>2013-02-23T08:51:20.000Z</time>
      </trkpt>
      <trkpt lat="43.58577" lon="5.50006">
        <ele>337.20001220703</ele>
        <time>2013-02-23T08:51:21.000Z</time>
      </trkpt>
      <trkpt lat="43.58572" lon="5.50008">
        <ele>337.20001220703</ele>
        <time>2013-02-23T08:51:22.000Z</time>
      </trkpt>
      <trkpt lat="43.58567" lon="5.5001">
        <ele>337.39999389648</ele>
        <time>2013-02-23T08:51:23.000Z</time>
      </trkpt>
      <trkpt lat="43.58541" lon="5.50025">
        <ele>338.79998779297</ele>
        <time>2013-02-23T08:51:29.000Z</time>
      </trkpt>
      <trkpt lat="43.58537" lon="5.50029">
        <ele>339.20001220703</ele>
        <time>2013-02-23T08:51:30.000Z</time>
      </trkpt>
      <trkpt lat="43.58534" lon="5.50034">
        <ele>339.60000610352</ele>
        <time>2013-02-23T08:51:31.000Z</time>
      </trkpt>
      <trkpt lat="43.58532" lon="5.50039">
        <ele>340</ele>
        <time>2013-02-23T08:51:32.000Z</time>
      </trkpt>
      <trkpt lat="43.58531" lon="5.50045">
        <ele>340.20001220703</ele>
        <time>2013-02-23T08:51:33.000Z</time>
      </trkpt>
      <trkpt lat="43.5853" lon="5.5005">
        <ele>340.60000610352</ele>
        <time>2013-02-23T08:51:34.000Z</time>
      </trkpt>
      <trkpt lat="43.58528" lon="5.50067">
        <ele>341.79998779297</ele>
        <time>2013-02-23T08:51:37.000Z</time>
      </trkpt>
      <trkpt lat="43.58523" lon="5.50105">
        <ele>343.39999389648</ele>
        <time>2013-02-23T08:51:44.000Z</time>
      </trkpt>
      <trkpt lat="43.58522" lon="5.5011">
        <ele>343.60000610352</ele>
        <time>2013-02-23T08:51:45.000Z</time>
      </trkpt>
      <trkpt lat="43.58517" lon="5.50126">
        <ele>344</ele>
        <time>2013-02-23T08:51:48.000Z</time>
      </trkpt>
      <trkpt lat="43.58486" lon="5.50181">
        <ele>345.20001220703</ele>
        <time>2013-02-23T08:52:00.000Z</time>
      </trkpt>
      <trkpt lat="43.58472" lon="5.50204">
        <ele>344</ele>
        <time>2013-02-23T08:52:05.000Z</time>
      </trkpt>
      <trkpt lat="43.58468" lon="5.50208">
        <ele>343.79998779297</ele>
        <time>2013-02-23T08:52:06.000Z</time>
      </trkpt>
      <trkpt lat="43.58464" lon="5.50211">
        <ele>343.60000610352</ele>
        <time>2013-02-23T08:52:07.000Z</time>
      </trkpt>
      <trkpt lat="43.58456" lon="5.50216">
        <ele>343.60000610352</ele>
        <time>2013-02-23T08:52:09.000Z</time>
      </trkpt>
      <trkpt lat="43.58451" lon="5.50217">
        <ele>343.60000610352</ele>
        <time>2013-02-23T08:52:10.000Z</time>
      </trkpt>
      <trkpt lat="43.58426" lon="5.50225">
        <ele>343.60000610352</ele>
        <time>2013-02-23T08:52:16.000Z</time>
      </trkpt>
      <trkpt lat="43.58422" lon="5.50227">
        <ele>343.60000610352</ele>
        <time>2013-02-23T08:52:17.000Z</time>
      </trkpt>
      <trkpt lat="43.58418" lon="5.5023">
        <ele>343.60000610352</ele>
        <time>2013-02-23T08:52:18.000Z</time>
      </trkpt>
      <trkpt lat="43.584" lon="5.50243">
        <ele>343.20001220703</ele>
        <time>2013-02-23T08:52:22.000Z</time>
      </trkpt>
      <trkpt lat="43.5839" lon="5.50249">
        <ele>343</ele>
        <time>2013-02-23T08:52:24.000Z</time>
      </trkpt>
      <trkpt lat="43.58379" lon="5.50252">
        <ele>342.79998779297</ele>
        <time>2013-02-23T08:52:26.000Z</time>
      </trkpt>
      <trkpt lat="43.58374" lon="5.50252">
        <ele>342.79998779297</ele>
        <time>2013-02-23T08:52:27.000Z</time>
      </trkpt>
      <trkpt lat="43.58358" lon="5.50251">
        <ele>342.79998779297</ele>
        <time>2013-02-23T08:52:30.000Z</time>
      </trkpt>
      <trkpt lat="43.58354" lon="5.5025">
        <ele>342.79998779297</ele>
        <time>2013-02-23T08:52:31.000Z</time>
      </trkpt>
      <trkpt lat="43.58351" lon="5.50249">
        <ele>343</ele>
        <time>2013-02-23T08:52:32.000Z</time>
      </trkpt>
      <trkpt lat="43.58339" lon="5.50248">
        <ele>343</ele>
        <time>2013-02-23T08:52:35.000Z</time>
      </trkpt>
      <trkpt lat="43.58335" lon="5.50245">
        <ele>343</ele>
        <time>2013-02-23T08:52:36.000Z</time>
      </trkpt>
      <trkpt lat="43.58332" lon="5.50242">
        <ele>343.20001220703</ele>
        <time>2013-02-23T08:52:37.000Z</time>
      </trkpt>
      <trkpt lat="43.58329" lon="5.50236">
        <ele>343.39999389648</ele>
        <time>2013-02-23T08:52:38.000Z</time>
      </trkpt>
      <trkpt lat="43.58327" lon="5.50231">
        <ele>343.60000610352</ele>
        <time>2013-02-23T08:52:39.000Z</time>
      </trkpt>
      <trkpt lat="43.58319" lon="5.50209">
        <ele>344.20001220703</ele>
        <time>2013-02-23T08:52:43.000Z</time>
      </trkpt>
      <trkpt lat="43.58295" lon="5.5013">
        <ele>345.20001220703</ele>
        <time>2013-02-23T08:52:58.000Z</time>
      </trkpt>
      <trkpt lat="43.58259" lon="5.50066">
        <ele>345</ele>
        <time>2013-02-23T08:53:10.000Z</time>
      </trkpt>
      <trkpt lat="43.5823" lon="5.50031">
        <ele>343.20001220703</ele>
        <time>2013-02-23T08:53:17.000Z</time>
      </trkpt>
      <trkpt lat="43.58226" lon="5.50026">
        <ele>342.79998779297</ele>
        <time>2013-02-23T08:53:18.000Z</time>
      </trkpt>
      <trkpt lat="43.58175" lon="5.49972">
        <ele>342.20001220703</ele>
        <time>2013-02-23T08:53:30.000Z</time>
      </trkpt>
      <trkpt lat="43.58108" lon="5.49921">
        <ele>346.39999389648</ele>
        <time>2013-02-23T08:53:45.000Z</time>
      </trkpt>
      <trkpt lat="43.58044" lon="5.49876">
        <ele>347.39999389648</ele>
        <time>2013-02-23T08:54:00.000Z</time>
      </trkpt>
      <trkpt lat="43.57999" lon="5.49833">
        <ele>347</ele>
        <time>2013-02-23T08:54:12.000Z</time>
      </trkpt>
      <trkpt lat="43.57956" lon="5.49774">
        <ele>347.79998779297</ele>
        <time>2013-02-23T08:54:26.000Z</time>
      </trkpt>
      <trkpt lat="43.57943" lon="5.4976">
        <ele>348.20001220703</ele>
        <time>2013-02-23T08:54:32.000Z</time>
      </trkpt>
      <trkpt lat="43.57941" lon="5.49761">
        <ele>348.20001220703</ele>
        <time>2013-02-23T08:54:33.000Z</time>
      </trkpt>
      <trkpt lat="43.5794" lon="5.49762">
        <ele>348.20001220703</ele>
        <time>2013-02-23T08:54:34.000Z</time>
      </trkpt>
      <trkpt lat="43.57939" lon="5.49765">
        <ele>348.20001220703</ele>
        <time>2013-02-23T08:54:35.000Z</time>
      </trkpt>
      <trkpt lat="43.57939" lon="5.49767">
        <ele>348.20001220703</ele>
        <time>2013-02-23T08:54:36.000Z</time>
      </trkpt>
      <trkpt lat="43.57925" lon="5.49792">
        <ele>348.20001220703</ele>
        <time>2013-02-23T08:54:46.000Z</time>
      </trkpt>
      <trkpt lat="43.57921" lon="5.49798">
        <ele>348.20001220703</ele>
        <time>2013-02-23T08:54:49.000Z</time>
      </trkpt>
      <trkpt lat="43.57919" lon="5.498">
        <ele>348.20001220703</ele>
        <time>2013-02-23T08:54:50.000Z</time>
      </trkpt>
      <trkpt lat="43.57917" lon="5.49802">
        <ele>348.20001220703</ele>
        <time>2013-02-23T08:54:51.000Z</time>
      </trkpt>
      <trkpt lat="43.57892" lon="5.49832">
        <ele>348.60000610352</ele>
        <time>2013-02-23T08:55:05.000Z</time>
      </trkpt>
      <trkpt lat="43.57887" lon="5.49839">
        <ele>348.60000610352</ele>
        <time>2013-02-23T08:55:09.000Z</time>
      </trkpt>
      <trkpt lat="43.57884" lon="5.4984">
        <ele>348.60000610352</ele>
        <time>2013-02-23T08:55:18.000Z</time>
      </trkpt>
      <trkpt lat="43.57882" lon="5.49843">
        <ele>348.79998779297</ele>
        <time>2013-02-23T08:55:22.000Z</time>
      </trkpt>
      <trkpt lat="43.57881" lon="5.49846">
        <ele>348.79998779297</ele>
        <time>2013-02-23T08:55:32.000Z</time>
      </trkpt>
      <trkpt lat="43.5788" lon="5.49846">
        <ele>348.79998779297</ele>
        <time>2013-02-23T08:55:33.000Z</time>
      </trkpt>
      <trkpt lat="43.57879" lon="5.49846">
        <ele>348.79998779297</ele>
        <time>2013-02-23T08:55:34.000Z</time>
      </trkpt>
      <trkpt lat="43.57877" lon="5.49847">
        <ele>348.79998779297</ele>
        <time>2013-02-23T08:55:35.000Z</time>
      </trkpt>
      <trkpt lat="43.57876" lon="5.49848">
        <ele>348.79998779297</ele>
        <time>2013-02-23T08:55:36.000Z</time>
      </trkpt>
      <trkpt lat="43.57876" lon="5.49849">
        <ele>348.79998779297</ele>
        <time>2013-02-23T08:55:45.000Z</time>
      </trkpt>
      <trkpt lat="43.57876" lon="5.4985">
        <ele>348.79998779297</ele>
        <time>2013-02-23T08:56:07.000Z</time>
      </trkpt>
      <trkpt lat="43.57877" lon="5.49848">
        <ele>348.79998779297</ele>
        <time>2013-02-23T08:56:26.000Z</time>
      </trkpt>
      <trkpt lat="43.57876" lon="5.49849">
        <ele>348.79998779297</ele>
        <time>2013-02-23T08:56:43.000Z</time>
      </trkpt>
      <trkpt lat="43.57866" lon="5.49869">
        <ele>349.20001220703</ele>
        <time>2013-02-23T08:56:53.000Z</time>
      </trkpt>
      <trkpt lat="43.57849" lon="5.49909">
        <ele>350</ele>
        <time>2013-02-23T08:57:02.000Z</time>
      </trkpt>
      <trkpt lat="43.57846" lon="5.49926">
        <ele>350.39999389648</ele>
        <time>2013-02-23T08:57:05.000Z</time>
      </trkpt>
      <trkpt lat="43.57847" lon="5.49981">
        <ele>351.20001220703</ele>
        <time>2013-02-23T08:57:14.000Z</time>
      </trkpt>
      <trkpt lat="43.57847" lon="5.49986">
        <ele>351.39999389648</ele>
        <time>2013-02-23T08:57:15.000Z</time>
      </trkpt>
      <trkpt lat="43.57846" lon="5.49992">
        <ele>351.39999389648</ele>
        <time>2013-02-23T08:57:16.000Z</time>
      </trkpt>
      <trkpt lat="43.57844" lon="5.49997">
        <ele>351.60000610352</ele>
        <time>2013-02-23T08:57:17.000Z</time>
      </trkpt>
      <trkpt lat="43.57841" lon="5.50001">
        <ele>351.79998779297</ele>
        <time>2013-02-23T08:57:18.000Z</time>
      </trkpt>
      <trkpt lat="43.57838" lon="5.50006">
        <ele>352</ele>
        <time>2013-02-23T08:57:19.000Z</time>
      </trkpt>
      <trkpt lat="43.57834" lon="5.5001">
        <ele>352.20001220703</ele>
        <time>2013-02-23T08:57:20.000Z</time>
      </trkpt>
      <trkpt lat="43.57831" lon="5.50014">
        <ele>352.39999389648</ele>
        <time>2013-02-23T08:57:21.000Z</time>
      </trkpt>
      <trkpt lat="43.57827" lon="5.50017">
        <ele>352.39999389648</ele>
        <time>2013-02-23T08:57:22.000Z</time>
      </trkpt>
      <trkpt lat="43.5778" lon="5.5006">
        <ele>353</ele>
        <time>2013-02-23T08:57:36.000Z</time>
      </trkpt>
      <trkpt lat="43.57748" lon="5.50093">
        <ele>353</ele>
        <time>2013-02-23T08:57:46.000Z</time>
      </trkpt>
      <trkpt lat="43.57699" lon="5.50136">
        <ele>353.20001220703</ele>
        <time>2013-02-23T08:58:00.000Z</time>
      </trkpt>
      <trkpt lat="43.57653" lon="5.50185">
        <ele>353.79998779297</ele>
        <time>2013-02-23T08:58:14.000Z</time>
      </trkpt>
      <trkpt lat="43.57607" lon="5.5023">
        <ele>356.60000610352</ele>
        <time>2013-02-23T08:58:29.000Z</time>
      </trkpt>
      <trkpt lat="43.57569" lon="5.50264">
        <ele>358.60000610352</ele>
        <time>2013-02-23T08:58:42.000Z</time>
      </trkpt>
      <trkpt lat="43.57533" lon="5.50304">
        <ele>360.39999389648</ele>
        <time>2013-02-23T08:58:56.000Z</time>
      </trkpt>
      <trkpt lat="43.57513" lon="5.50353">
        <ele>362.39999389648</ele>
        <time>2013-02-23T08:59:09.000Z</time>
      </trkpt>
      <trkpt lat="43.57493" lon="5.50406">
        <ele>364.39999389648</ele>
        <time>2013-02-23T08:59:23.000Z</time>
      </trkpt>
      <trkpt lat="43.57475" lon="5.50412">
        <ele>364.60000610352</ele>
        <time>2013-02-23T08:59:30.000Z</time>
      </trkpt>
      <trkpt lat="43.57435" lon="5.50374">
        <ele>362.60000610352</ele>
        <time>2013-02-23T08:59:42.000Z</time>
      </trkpt>
      <trkpt lat="43.57394" lon="5.50357">
        <ele>363</ele>
        <time>2013-02-23T08:59:52.000Z</time>
      </trkpt>
      <trkpt lat="43.5739" lon="5.50354">
        <ele>363.20001220703</ele>
        <time>2013-02-23T08:59:53.000Z</time>
      </trkpt>
      <trkpt lat="43.57386" lon="5.50352">
        <ele>363.20001220703</ele>
        <time>2013-02-23T08:59:54.000Z</time>
      </trkpt>
      <trkpt lat="43.57379" lon="5.50345">
        <ele>363.39999389648</ele>
        <time>2013-02-23T08:59:56.000Z</time>
      </trkpt>
      <trkpt lat="43.57335" lon="5.50293">
        <ele>364.39999389648</ele>
        <time>2013-02-23T09:00:10.000Z</time>
      </trkpt>
      <trkpt lat="43.57292" lon="5.50238">
        <ele>367.20001220703</ele>
        <time>2013-02-23T09:00:25.000Z</time>
      </trkpt>
      <trkpt lat="43.57264" lon="5.50201">
        <ele>368.60000610352</ele>
        <time>2013-02-23T09:00:36.000Z</time>
      </trkpt>
      <trkpt lat="43.57236" lon="5.50168">
        <ele>368</ele>
        <time>2013-02-23T09:00:46.000Z</time>
      </trkpt>
      <trkpt lat="43.57197" lon="5.50121">
        <ele>367</ele>
        <time>2013-02-23T09:00:58.000Z</time>
      </trkpt>
      <trkpt lat="43.57153" lon="5.50066">
        <ele>370.79998779297</ele>
        <time>2013-02-23T09:01:13.000Z</time>
      </trkpt>
      <trkpt lat="43.5713" lon="5.50017">
        <ele>375.60000610352</ele>
        <time>2013-02-23T09:01:25.000Z</time>
      </trkpt>
      <trkpt lat="43.57129" lon="5.50014">
        <ele>375.60000610352</ele>
        <time>2013-02-23T09:01:26.000Z</time>
      </trkpt>
      <trkpt lat="43.57126" lon="5.50012">
        <ele>375.79998779297</ele>
        <time>2013-02-23T09:01:27.000Z</time>
      </trkpt>
      <trkpt lat="43.57125" lon="5.50012">
        <ele>375.79998779297</ele>
        <time>2013-02-23T09:01:28.000Z</time>
      </trkpt>
      <trkpt lat="43.57123" lon="5.50012">
        <ele>375.79998779297</ele>
        <time>2013-02-23T09:01:29.000Z</time>
      </trkpt>
      <trkpt lat="43.57122" lon="5.50013">
        <ele>375.60000610352</ele>
        <time>2013-02-23T09:01:30.000Z</time>
      </trkpt>
      <trkpt lat="43.57121" lon="5.50015">
        <ele>375.60000610352</ele>
        <time>2013-02-23T09:01:31.000Z</time>
      </trkpt>
      <trkpt lat="43.5712" lon="5.50016">
        <ele>375.39999389648</ele>
        <time>2013-02-23T09:01:32.000Z</time>
      </trkpt>
      <trkpt lat="43.57119" lon="5.50017">
        <ele>375.39999389648</ele>
        <time>2013-02-23T09:01:33.000Z</time>
      </trkpt>
      <trkpt lat="43.57117" lon="5.50019">
        <ele>375.39999389648</ele>
        <time>2013-02-23T09:01:34.000Z</time>
      </trkpt>
      <trkpt lat="43.57116" lon="5.5002">
        <ele>375.20001220703</ele>
        <time>2013-02-23T09:01:35.000Z</time>
      </trkpt>
      <trkpt lat="43.57114" lon="5.50022">
        <ele>375.20001220703</ele>
        <time>2013-02-23T09:01:36.000Z</time>
      </trkpt>
      <trkpt lat="43.57113" lon="5.50024">
        <ele>375.20001220703</ele>
        <time>2013-02-23T09:01:37.000Z</time>
      </trkpt>
      <trkpt lat="43.57111" lon="5.50025">
        <ele>375</ele>
        <time>2013-02-23T09:01:38.000Z</time>
      </trkpt>
      <trkpt lat="43.57108" lon="5.50027">
        <ele>375</ele>
        <time>2013-02-23T09:01:39.000Z</time>
      </trkpt>
      <trkpt lat="43.57106" lon="5.50029">
        <ele>375</ele>
        <time>2013-02-23T09:01:40.000Z</time>
      </trkpt>
      <trkpt lat="43.57075" lon="5.50055">
        <ele>376.60000610352</ele>
        <time>2013-02-23T09:01:52.000Z</time>
      </trkpt>
      <trkpt lat="43.57054" lon="5.50046">
        <ele>378.79998779297</ele>
        <time>2013-02-23T09:01:59.000Z</time>
      </trkpt>
      <trkpt lat="43.57046" lon="5.50044">
        <ele>379.79998779297</ele>
        <time>2013-02-23T09:02:01.000Z</time>
      </trkpt>
      <trkpt lat="43.57042" lon="5.50045">
        <ele>380.20001220703</ele>
        <time>2013-02-23T09:02:02.000Z</time>
      </trkpt>
      <trkpt lat="43.57039" lon="5.50047">
        <ele>380.60000610352</ele>
        <time>2013-02-23T09:02:03.000Z</time>
      </trkpt>
      <trkpt lat="43.5703" lon="5.50054">
        <ele>381.60000610352</ele>
        <time>2013-02-23T09:02:07.000Z</time>
      </trkpt>
      <trkpt lat="43.57025" lon="5.5006">
        <ele>382</ele>
        <time>2013-02-23T09:02:10.000Z</time>
      </trkpt>
      <trkpt lat="43.57024" lon="5.50062">
        <ele>382</ele>
        <time>2013-02-23T09:02:11.000Z</time>
      </trkpt>
      <trkpt lat="43.57023" lon="5.50064">
        <ele>382.20001220703</ele>
        <time>2013-02-23T09:02:12.000Z</time>
      </trkpt>
      <trkpt lat="43.57012" lon="5.50085">
        <ele>382.60000610352</ele>
        <time>2013-02-23T09:02:19.000Z</time>
      </trkpt>
      <trkpt lat="43.5701" lon="5.50087">
        <ele>382.79998779297</ele>
        <time>2013-02-23T09:02:20.000Z</time>
      </trkpt>
      <trkpt lat="43.57001" lon="5.50087">
        <ele>383.60000610352</ele>
        <time>2013-02-23T09:02:24.000Z</time>
      </trkpt>
      <trkpt lat="43.57" lon="5.50086">
        <ele>383.79998779297</ele>
        <time>2013-02-23T09:02:25.000Z</time>
      </trkpt>
      <trkpt lat="43.56999" lon="5.50085">
        <ele>383.79998779297</ele>
        <time>2013-02-23T09:02:26.000Z</time>
      </trkpt>
      <trkpt lat="43.56987" lon="5.50082">
        <ele>384.20001220703</ele>
        <time>2013-02-23T09:02:35.000Z</time>
      </trkpt>
      <trkpt lat="43.56985" lon="5.50081">
        <ele>384.20001220703</ele>
        <time>2013-02-23T09:02:36.000Z</time>
      </trkpt>
      <trkpt lat="43.56984" lon="5.5008">
        <ele>384.20001220703</ele>
        <time>2013-02-23T09:02:37.000Z</time>
      </trkpt>
      <trkpt lat="43.56982" lon="5.50079">
        <ele>384.39999389648</ele>
        <time>2013-02-23T09:02:38.000Z</time>
      </trkpt>
      <trkpt lat="43.5698" lon="5.50079">
        <ele>384.39999389648</ele>
        <time>2013-02-23T09:02:39.000Z</time>
      </trkpt>
      <trkpt lat="43.56978" lon="5.50079">
        <ele>384.39999389648</ele>
        <time>2013-02-23T09:02:40.000Z</time>
      </trkpt>
      <trkpt lat="43.56976" lon="5.50079">
        <ele>384.39999389648</ele>
        <time>2013-02-23T09:02:41.000Z</time>
      </trkpt>
      <trkpt lat="43.56974" lon="5.50079">
        <ele>384.39999389648</ele>
        <time>2013-02-23T09:02:42.000Z</time>
      </trkpt>
      <trkpt lat="43.5695" lon="5.50076">
        <ele>385.20001220703</ele>
        <time>2013-02-23T09:02:54.000Z</time>
      </trkpt>
      <trkpt lat="43.56916" lon="5.5007">
        <ele>386.39999389648</ele>
        <time>2013-02-23T09:03:07.000Z</time>
      </trkpt>
      <trkpt lat="43.56883" lon="5.5007">
        <ele>387.39999389648</ele>
        <time>2013-02-23T09:03:18.000Z</time>
      </trkpt>
      <trkpt lat="43.56844" lon="5.50079">
        <ele>387.20001220703</ele>
        <time>2013-02-23T09:03:29.000Z</time>
      </trkpt>
      <trkpt lat="43.56808" lon="5.50078">
        <ele>387.60000610352</ele>
        <time>2013-02-23T09:03:40.000Z</time>
      </trkpt>
      <trkpt lat="43.56768" lon="5.50066">
        <ele>388.39999389648</ele>
        <time>2013-02-23T09:03:54.000Z</time>
      </trkpt>
      <trkpt lat="43.56735" lon="5.50051">
        <ele>388.79998779297</ele>
        <time>2013-02-23T09:04:04.000Z</time>
      </trkpt>
      <trkpt lat="43.56732" lon="5.50051">
        <ele>388.79998779297</ele>
        <time>2013-02-23T09:04:05.000Z</time>
      </trkpt>
      <trkpt lat="43.56729" lon="5.50052">
        <ele>388.60000610352</ele>
        <time>2013-02-23T09:04:06.000Z</time>
      </trkpt>
      <trkpt lat="43.56725" lon="5.50053">
        <ele>388.39999389648</ele>
        <time>2013-02-23T09:04:07.000Z</time>
      </trkpt>
      <trkpt lat="43.56721" lon="5.50054">
        <ele>388.20001220703</ele>
        <time>2013-02-23T09:04:08.000Z</time>
      </trkpt>
      <trkpt lat="43.56718" lon="5.50054">
        <ele>388.20001220703</ele>
        <time>2013-02-23T09:04:09.000Z</time>
      </trkpt>
      <trkpt lat="43.56681" lon="5.5006">
        <ele>387.20001220703</ele>
        <time>2013-02-23T09:04:20.000Z</time>
      </trkpt>
      <trkpt lat="43.56655" lon="5.50059">
        <ele>387.20001220703</ele>
        <time>2013-02-23T09:04:29.000Z</time>
      </trkpt>
      <trkpt lat="43.56625" lon="5.50052">
        <ele>387.79998779297</ele>
        <time>2013-02-23T09:04:39.000Z</time>
      </trkpt>
      <trkpt lat="43.56605" lon="5.50044">
        <ele>388</ele>
        <time>2013-02-23T09:04:47.000Z</time>
      </trkpt>
      <trkpt lat="43.56577" lon="5.50037">
        <ele>388.79998779297</ele>
        <time>2013-02-23T09:04:56.000Z</time>
      </trkpt>
      <trkpt lat="43.56548" lon="5.50032">
        <ele>390.60000610352</ele>
        <time>2013-02-23T09:05:04.000Z</time>
      </trkpt>
      <trkpt lat="43.56545" lon="5.50032">
        <ele>390.79998779297</ele>
        <time>2013-02-23T09:05:05.000Z</time>
      </trkpt>
      <trkpt lat="43.56542" lon="5.50031">
        <ele>391</ele>
        <time>2013-02-23T09:05:06.000Z</time>
      </trkpt>
      <trkpt lat="43.56539" lon="5.50029">
        <ele>391.20001220703</ele>
        <time>2013-02-23T09:05:07.000Z</time>
      </trkpt>
      <trkpt lat="43.56536" lon="5.50027">
        <ele>391.39999389648</ele>
        <time>2013-02-23T09:05:08.000Z</time>
      </trkpt>
      <trkpt lat="43.56532" lon="5.50027">
        <ele>391.79998779297</ele>
        <time>2013-02-23T09:05:09.000Z</time>
      </trkpt>
      <trkpt lat="43.56528" lon="5.50028">
        <ele>392</ele>
        <time>2013-02-23T09:05:10.000Z</time>
      </trkpt>
      <trkpt lat="43.56496" lon="5.50031">
        <ele>394</ele>
        <time>2013-02-23T09:05:19.000Z</time>
      </trkpt>
      <trkpt lat="43.56493" lon="5.50028">
        <ele>394.20001220703</ele>
        <time>2013-02-23T09:05:20.000Z</time>
      </trkpt>
      <trkpt lat="43.56491" lon="5.50026">
        <ele>394.20001220703</ele>
        <time>2013-02-23T09:05:21.000Z</time>
      </trkpt>
      <trkpt lat="43.56485" lon="5.50019">
        <ele>394.39999389648</ele>
        <time>2013-02-23T09:05:24.000Z</time>
      </trkpt>
      <trkpt lat="43.56476" lon="5.5001">
        <ele>394.79998779297</ele>
        <time>2013-02-23T09:05:29.000Z</time>
      </trkpt>
      <trkpt lat="43.56474" lon="5.50008">
        <ele>394.79998779297</ele>
        <time>2013-02-23T09:05:30.000Z</time>
      </trkpt>
      <trkpt lat="43.56472" lon="5.50007">
        <ele>395</ele>
        <time>2013-02-23T09:05:31.000Z</time>
      </trkpt>
      <trkpt lat="43.5647" lon="5.50006">
        <ele>395</ele>
        <time>2013-02-23T09:05:32.000Z</time>
      </trkpt>
      <trkpt lat="43.56468" lon="5.50005">
        <ele>395</ele>
        <time>2013-02-23T09:05:33.000Z</time>
      </trkpt>
      <trkpt lat="43.56465" lon="5.50004">
        <ele>395.20001220703</ele>
        <time>2013-02-23T09:05:34.000Z</time>
      </trkpt>
      <trkpt lat="43.56463" lon="5.50003">
        <ele>395.20001220703</ele>
        <time>2013-02-23T09:05:35.000Z</time>
      </trkpt>
      <trkpt lat="43.56441" lon="5.4999">
        <ele>396.79998779297</ele>
        <time>2013-02-23T09:05:45.000Z</time>
      </trkpt>
      <trkpt lat="43.5642" lon="5.49968">
        <ele>399.39999389648</ele>
        <time>2013-02-23T09:05:56.000Z</time>
      </trkpt>
      <trkpt lat="43.56422" lon="5.49939">
        <ele>401.79998779297</ele>
        <time>2013-02-23T09:06:04.000Z</time>
      </trkpt>
      <trkpt lat="43.56438" lon="5.4991">
        <ele>403.79998779297</ele>
        <time>2013-02-23T09:06:14.000Z</time>
      </trkpt>
      <trkpt lat="43.56459" lon="5.49879">
        <ele>406</ele>
        <time>2013-02-23T09:06:25.000Z</time>
      </trkpt>
      <trkpt lat="43.56465" lon="5.49869">
        <ele>406.39999389648</ele>
        <time>2013-02-23T09:06:29.000Z</time>
      </trkpt>
      <trkpt lat="43.56475" lon="5.4984">
        <ele>407.60000610352</ele>
        <time>2013-02-23T09:06:38.000Z</time>
      </trkpt>
      <trkpt lat="43.56474" lon="5.49801">
        <ele>409.60000610352</ele>
        <time>2013-02-23T09:06:49.000Z</time>
      </trkpt>
      <trkpt lat="43.56459" lon="5.49769">
        <ele>412.79998779297</ele>
        <time>2013-02-23T09:06:59.000Z</time>
      </trkpt>
      <trkpt lat="43.56443" lon="5.4973">
        <ele>416.79998779297</ele>
        <time>2013-02-23T09:07:11.000Z</time>
      </trkpt>
      <trkpt lat="43.56452" lon="5.49696">
        <ele>418.60000610352</ele>
        <time>2013-02-23T09:07:20.000Z</time>
      </trkpt>
      <trkpt lat="43.56462" lon="5.49673">
        <ele>420.20001220703</ele>
        <time>2013-02-23T09:07:28.000Z</time>
      </trkpt>
      <trkpt lat="43.56469" lon="5.49659">
        <ele>421.60000610352</ele>
        <time>2013-02-23T09:07:33.000Z</time>
      </trkpt>
      <trkpt lat="43.56471" lon="5.49657">
        <ele>421.79998779297</ele>
        <time>2013-02-23T09:07:34.000Z</time>
      </trkpt>
      <trkpt lat="43.56474" lon="5.49656">
        <ele>421.79998779297</ele>
        <time>2013-02-23T09:07:35.000Z</time>
      </trkpt>
      <trkpt lat="43.56476" lon="5.49656">
        <ele>422</ele>
        <time>2013-02-23T09:07:36.000Z</time>
      </trkpt>
      <trkpt lat="43.56479" lon="5.49656">
        <ele>421.79998779297</ele>
        <time>2013-02-23T09:07:37.000Z</time>
      </trkpt>
      <trkpt lat="43.56481" lon="5.49658">
        <ele>421.60000610352</ele>
        <time>2013-02-23T09:07:38.000Z</time>
      </trkpt>
      <trkpt lat="43.56484" lon="5.4966">
        <ele>421.60000610352</ele>
        <time>2013-02-23T09:07:39.000Z</time>
      </trkpt>
      <trkpt lat="43.56508" lon="5.49675">
        <ele>419.60000610352</ele>
        <time>2013-02-23T09:07:49.000Z</time>
      </trkpt>
      <trkpt lat="43.56531" lon="5.4967">
        <ele>420</ele>
        <time>2013-02-23T09:07:58.000Z</time>
      </trkpt>
      <trkpt lat="43.56545" lon="5.49652">
        <ele>421.39999389648</ele>
        <time>2013-02-23T09:08:05.000Z</time>
      </trkpt>
      <trkpt lat="43.56546" lon="5.49648">
        <ele>421.60000610352</ele>
        <time>2013-02-23T09:08:06.000Z</time>
      </trkpt>
      <trkpt lat="43.56559" lon="5.49616">
        <ele>423.20001220703</ele>
        <time>2013-02-23T09:08:18.000Z</time>
      </trkpt>
      <trkpt lat="43.56561" lon="5.49614">
        <ele>423.20001220703</ele>
        <time>2013-02-23T09:08:19.000Z</time>
      </trkpt>
      <trkpt lat="43.56565" lon="5.49608">
        <ele>423.39999389648</ele>
        <time>2013-02-23T09:08:22.000Z</time>
      </trkpt>
      <trkpt lat="43.56567" lon="5.49607">
        <ele>423.39999389648</ele>
        <time>2013-02-23T09:08:23.000Z</time>
      </trkpt>
      <trkpt lat="43.56569" lon="5.49605">
        <ele>423.39999389648</ele>
        <time>2013-02-23T09:08:24.000Z</time>
      </trkpt>
      <trkpt lat="43.5657" lon="5.49603">
        <ele>423.39999389648</ele>
        <time>2013-02-23T09:08:25.000Z</time>
      </trkpt>
      <trkpt lat="43.56571" lon="5.49601">
        <ele>423.60000610352</ele>
        <time>2013-02-23T09:08:26.000Z</time>
      </trkpt>
      <trkpt lat="43.5657" lon="5.49599">
        <ele>423.79998779297</ele>
        <time>2013-02-23T09:08:27.000Z</time>
      </trkpt>
      <trkpt lat="43.56569" lon="5.49597">
        <ele>423.79998779297</ele>
        <time>2013-02-23T09:08:28.000Z</time>
      </trkpt>
      <trkpt lat="43.56568" lon="5.49592">
        <ele>424.20001220703</ele>
        <time>2013-02-23T09:08:30.000Z</time>
      </trkpt>
      <trkpt lat="43.56567" lon="5.4959">
        <ele>424.39999389648</ele>
        <time>2013-02-23T09:08:31.000Z</time>
      </trkpt>
      <trkpt lat="43.56566" lon="5.49589">
        <ele>424.39999389648</ele>
        <time>2013-02-23T09:08:32.000Z</time>
      </trkpt>
      <trkpt lat="43.56548" lon="5.49581">
        <ele>425.60000610352</ele>
        <time>2013-02-23T09:08:43.000Z</time>
      </trkpt>
      <trkpt lat="43.56526" lon="5.49572">
        <ele>427</ele>
        <time>2013-02-23T09:08:54.000Z</time>
      </trkpt>
      <trkpt lat="43.56498" lon="5.49558">
        <ele>429.39999389648</ele>
        <time>2013-02-23T09:09:07.000Z</time>
      </trkpt>
      <trkpt lat="43.56469" lon="5.49563">
        <ele>430</ele>
        <time>2013-02-23T09:09:17.000Z</time>
      </trkpt>
      <trkpt lat="43.56431" lon="5.49575">
        <ele>430.20001220703</ele>
        <time>2013-02-23T09:09:27.000Z</time>
      </trkpt>
      <trkpt lat="43.56379" lon="5.49593">
        <ele>430</ele>
        <time>2013-02-23T09:09:37.000Z</time>
      </trkpt>
      <trkpt lat="43.56328" lon="5.49609">
        <ele>430</ele>
        <time>2013-02-23T09:09:48.000Z</time>
      </trkpt>
      <trkpt lat="43.56308" lon="5.4961">
        <ele>428</ele>
        <time>2013-02-23T09:09:52.000Z</time>
      </trkpt>
      <trkpt lat="43.563" lon="5.49613">
        <ele>427.20001220703</ele>
        <time>2013-02-23T09:09:54.000Z</time>
      </trkpt>
      <trkpt lat="43.56296" lon="5.49615">
        <ele>426.79998779297</ele>
        <time>2013-02-23T09:09:55.000Z</time>
      </trkpt>
      <trkpt lat="43.56292" lon="5.49618">
        <ele>426.60000610352</ele>
        <time>2013-02-23T09:09:56.000Z</time>
      </trkpt>
      <trkpt lat="43.5629" lon="5.49623">
        <ele>426.39999389648</ele>
        <time>2013-02-23T09:09:57.000Z</time>
      </trkpt>
      <trkpt lat="43.56288" lon="5.49628">
        <ele>426.39999389648</ele>
        <time>2013-02-23T09:09:58.000Z</time>
      </trkpt>
      <trkpt lat="43.56286" lon="5.49632">
        <ele>426.60000610352</ele>
        <time>2013-02-23T09:09:59.000Z</time>
      </trkpt>
      <trkpt lat="43.56285" lon="5.49638">
        <ele>426.60000610352</ele>
        <time>2013-02-23T09:10:00.000Z</time>
      </trkpt>
      <trkpt lat="43.56279" lon="5.49664">
        <ele>427.79998779297</ele>
        <time>2013-02-23T09:10:05.000Z</time>
      </trkpt>
      <trkpt lat="43.56278" lon="5.4967">
        <ele>428</ele>
        <time>2013-02-23T09:10:06.000Z</time>
      </trkpt>
      <trkpt lat="43.56277" lon="5.49675">
        <ele>428.20001220703</ele>
        <time>2013-02-23T09:10:07.000Z</time>
      </trkpt>
      <trkpt lat="43.56259" lon="5.49731">
        <ele>429.39999389648</ele>
        <time>2013-02-23T09:10:18.000Z</time>
      </trkpt>
      <trkpt lat="43.56236" lon="5.49781">
        <ele>428.39999389648</ele>
        <time>2013-02-23T09:10:29.000Z</time>
      </trkpt>
      <trkpt lat="43.56234" lon="5.49786">
        <ele>428.39999389648</ele>
        <time>2013-02-23T09:10:30.000Z</time>
      </trkpt>
      <trkpt lat="43.56233" lon="5.49792">
        <ele>428.39999389648</ele>
        <time>2013-02-23T09:10:31.000Z</time>
      </trkpt>
      <trkpt lat="43.56232" lon="5.49798">
        <ele>428.60000610352</ele>
        <time>2013-02-23T09:10:32.000Z</time>
      </trkpt>
      <trkpt lat="43.56229" lon="5.49803">
        <ele>428.60000610352</ele>
        <time>2013-02-23T09:10:33.000Z</time>
      </trkpt>
      <trkpt lat="43.56226" lon="5.49809">
        <ele>428.60000610352</ele>
        <time>2013-02-23T09:10:34.000Z</time>
      </trkpt>
      <trkpt lat="43.56222" lon="5.49814">
        <ele>428.39999389648</ele>
        <time>2013-02-23T09:10:35.000Z</time>
      </trkpt>
      <trkpt lat="43.56218" lon="5.49819">
        <ele>428.39999389648</ele>
        <time>2013-02-23T09:10:36.000Z</time>
      </trkpt>
      <trkpt lat="43.56213" lon="5.49824">
        <ele>428.39999389648</ele>
        <time>2013-02-23T09:10:37.000Z</time>
      </trkpt>
      <trkpt lat="43.56194" lon="5.49843">
        <ele>428.39999389648</ele>
        <time>2013-02-23T09:10:41.000Z</time>
      </trkpt>
      <trkpt lat="43.5619" lon="5.49847">
        <ele>428.20001220703</ele>
        <time>2013-02-23T09:10:42.000Z</time>
      </trkpt>
      <trkpt lat="43.56144" lon="5.49876">
        <ele>428.60000610352</ele>
        <time>2013-02-23T09:10:52.000Z</time>
      </trkpt>
      <trkpt lat="43.56137" lon="5.49883">
        <ele>428.79998779297</ele>
        <time>2013-02-23T09:10:54.000Z</time>
      </trkpt>
      <trkpt lat="43.56134" lon="5.49887">
        <ele>428.79998779297</ele>
        <time>2013-02-23T09:10:55.000Z</time>
      </trkpt>
      <trkpt lat="43.56121" lon="5.49903">
        <ele>429.20001220703</ele>
        <time>2013-02-23T09:10:59.000Z</time>
      </trkpt>
      <trkpt lat="43.56085" lon="5.49929">
        <ele>429.79998779297</ele>
        <time>2013-02-23T09:11:08.000Z</time>
      </trkpt>
      <trkpt lat="43.56081" lon="5.4993">
        <ele>430</ele>
        <time>2013-02-23T09:11:09.000Z</time>
      </trkpt>
      <trkpt lat="43.56073" lon="5.49933">
        <ele>430</ele>
        <time>2013-02-23T09:11:11.000Z</time>
      </trkpt>
      <trkpt lat="43.5606" lon="5.49933">
        <ele>430.20001220703</ele>
        <time>2013-02-23T09:11:14.000Z</time>
      </trkpt>
      <trkpt lat="43.56056" lon="5.49933">
        <ele>430.20001220703</ele>
        <time>2013-02-23T09:11:15.000Z</time>
      </trkpt>
      <trkpt lat="43.56052" lon="5.49934">
        <ele>430.39999389648</ele>
        <time>2013-02-23T09:11:16.000Z</time>
      </trkpt>
      <trkpt lat="43.56048" lon="5.49934">
        <ele>430.39999389648</ele>
        <time>2013-02-23T09:11:17.000Z</time>
      </trkpt>
      <trkpt lat="43.56044" lon="5.49934">
        <ele>430.39999389648</ele>
        <time>2013-02-23T09:11:18.000Z</time>
      </trkpt>
      <trkpt lat="43.5604" lon="5.49934">
        <ele>430.60000610352</ele>
        <time>2013-02-23T09:11:19.000Z</time>
      </trkpt>
      <trkpt lat="43.56027" lon="5.49936">
        <ele>430.79998779297</ele>
        <time>2013-02-23T09:11:22.000Z</time>
      </trkpt>
      <trkpt lat="43.56019" lon="5.49938">
        <ele>430.79998779297</ele>
        <time>2013-02-23T09:11:24.000Z</time>
      </trkpt>
      <trkpt lat="43.5601" lon="5.49942">
        <ele>431</ele>
        <time>2013-02-23T09:11:26.000Z</time>
      </trkpt>
      <trkpt lat="43.56005" lon="5.49943">
        <ele>431.20001220703</ele>
        <time>2013-02-23T09:11:27.000Z</time>
      </trkpt>
      <trkpt lat="43.55965" lon="5.49942">
        <ele>431</ele>
        <time>2013-02-23T09:11:36.000Z</time>
      </trkpt>
      <trkpt lat="43.55956" lon="5.4994">
        <ele>431</ele>
        <time>2013-02-23T09:11:38.000Z</time>
      </trkpt>
      <trkpt lat="43.55908" lon="5.49929">
        <ele>430.20001220703</ele>
        <time>2013-02-23T09:11:48.000Z</time>
      </trkpt>
      <trkpt lat="43.55904" lon="5.49926">
        <ele>430</ele>
        <time>2013-02-23T09:11:49.000Z</time>
      </trkpt>
      <trkpt lat="43.55893" lon="5.49915">
        <ele>429.20001220703</ele>
        <time>2013-02-23T09:11:52.000Z</time>
      </trkpt>
      <trkpt lat="43.55888" lon="5.49913">
        <ele>429</ele>
        <time>2013-02-23T09:11:53.000Z</time>
      </trkpt>
      <trkpt lat="43.55884" lon="5.49912">
        <ele>428.79998779297</ele>
        <time>2013-02-23T09:11:54.000Z</time>
      </trkpt>
      <trkpt lat="43.55879" lon="5.49912">
        <ele>428.79998779297</ele>
        <time>2013-02-23T09:11:55.000Z</time>
      </trkpt>
      <trkpt lat="43.55837" lon="5.49915">
        <ele>427.79998779297</ele>
        <time>2013-02-23T09:12:03.000Z</time>
      </trkpt>
      <trkpt lat="43.55831" lon="5.49916">
        <ele>427.79998779297</ele>
        <time>2013-02-23T09:12:04.000Z</time>
      </trkpt>
      <trkpt lat="43.55811" lon="5.49924">
        <ele>426.79998779297</ele>
        <time>2013-02-23T09:12:08.000Z</time>
      </trkpt>
      <trkpt lat="43.55806" lon="5.49928">
        <ele>426.60000610352</ele>
        <time>2013-02-23T09:12:09.000Z</time>
      </trkpt>
      <trkpt lat="43.55784" lon="5.49947">
        <ele>426</ele>
        <time>2013-02-23T09:12:14.000Z</time>
      </trkpt>
      <trkpt lat="43.55779" lon="5.49948">
        <ele>425.79998779297</ele>
        <time>2013-02-23T09:12:15.000Z</time>
      </trkpt>
      <trkpt lat="43.55762" lon="5.49952">
        <ele>424.60000610352</ele>
        <time>2013-02-23T09:12:18.000Z</time>
      </trkpt>
      <trkpt lat="43.55756" lon="5.49955">
        <ele>424.20001220703</ele>
        <time>2013-02-23T09:12:19.000Z</time>
      </trkpt>
      <trkpt lat="43.55751" lon="5.49959">
        <ele>424</ele>
        <time>2013-02-23T09:12:20.000Z</time>
      </trkpt>
      <trkpt lat="43.55747" lon="5.49964">
        <ele>424</ele>
        <time>2013-02-23T09:12:21.000Z</time>
      </trkpt>
      <trkpt lat="43.55745" lon="5.4997">
        <ele>424.20001220703</ele>
        <time>2013-02-23T09:12:22.000Z</time>
      </trkpt>
      <trkpt lat="43.55742" lon="5.49976">
        <ele>424.39999389648</ele>
        <time>2013-02-23T09:12:23.000Z</time>
      </trkpt>
      <trkpt lat="43.5574" lon="5.49982">
        <ele>424.39999389648</ele>
        <time>2013-02-23T09:12:24.000Z</time>
      </trkpt>
      <trkpt lat="43.55738" lon="5.49988">
        <ele>424.60000610352</ele>
        <time>2013-02-23T09:12:25.000Z</time>
      </trkpt>
      <trkpt lat="43.55732" lon="5.50013">
        <ele>425</ele>
        <time>2013-02-23T09:12:29.000Z</time>
      </trkpt>
      <trkpt lat="43.5573" lon="5.50018">
        <ele>425</ele>
        <time>2013-02-23T09:12:30.000Z</time>
      </trkpt>
      <trkpt lat="43.55728" lon="5.50024">
        <ele>425</ele>
        <time>2013-02-23T09:12:31.000Z</time>
      </trkpt>
      <trkpt lat="43.55726" lon="5.5003">
        <ele>424.79998779297</ele>
        <time>2013-02-23T09:12:32.000Z</time>
      </trkpt>
      <trkpt lat="43.55723" lon="5.50035">
        <ele>424.79998779297</ele>
        <time>2013-02-23T09:12:33.000Z</time>
      </trkpt>
      <trkpt lat="43.5572" lon="5.50039">
        <ele>424.79998779297</ele>
        <time>2013-02-23T09:12:34.000Z</time>
      </trkpt>
      <trkpt lat="43.55717" lon="5.50044">
        <ele>424.60000610352</ele>
        <time>2013-02-23T09:12:35.000Z</time>
      </trkpt>
      <trkpt lat="43.55692" lon="5.50068">
        <ele>423.79998779297</ele>
        <time>2013-02-23T09:12:41.000Z</time>
      </trkpt>
      <trkpt lat="43.55688" lon="5.50073">
        <ele>423.79998779297</ele>
        <time>2013-02-23T09:12:42.000Z</time>
      </trkpt>
      <trkpt lat="43.55685" lon="5.50079">
        <ele>423.79998779297</ele>
        <time>2013-02-23T09:12:43.000Z</time>
      </trkpt>
      <trkpt lat="43.55683" lon="5.50085">
        <ele>423.79998779297</ele>
        <time>2013-02-23T09:12:44.000Z</time>
      </trkpt>
      <trkpt lat="43.55681" lon="5.50091">
        <ele>423.79998779297</ele>
        <time>2013-02-23T09:12:45.000Z</time>
      </trkpt>
      <trkpt lat="43.55661" lon="5.50146">
        <ele>423.60000610352</ele>
        <time>2013-02-23T09:12:55.000Z</time>
      </trkpt>
      <trkpt lat="43.55659" lon="5.50151">
        <ele>423.60000610352</ele>
        <time>2013-02-23T09:12:56.000Z</time>
      </trkpt>
      <trkpt lat="43.55658" lon="5.50156">
        <ele>423.60000610352</ele>
        <time>2013-02-23T09:12:57.000Z</time>
      </trkpt>
      <trkpt lat="43.55657" lon="5.50161">
        <ele>423.79998779297</ele>
        <time>2013-02-23T09:12:58.000Z</time>
      </trkpt>
      <trkpt lat="43.55655" lon="5.50165">
        <ele>423.79998779297</ele>
        <time>2013-02-23T09:12:59.000Z</time>
      </trkpt>
      <trkpt lat="43.55638" lon="5.50219">
        <ele>424.39999389648</ele>
        <time>2013-02-23T09:13:10.000Z</time>
      </trkpt>
      <trkpt lat="43.55639" lon="5.50268">
        <ele>425</ele>
        <time>2013-02-23T09:13:20.000Z</time>
      </trkpt>
      <trkpt lat="43.55645" lon="5.5031">
        <ele>425.39999389648</ele>
        <time>2013-02-23T09:13:28.000Z</time>
      </trkpt>
      <trkpt lat="43.55644" lon="5.50316">
        <ele>425.39999389648</ele>
        <time>2013-02-23T09:13:29.000Z</time>
      </trkpt>
      <trkpt lat="43.55642" lon="5.50321">
        <ele>425.60000610352</ele>
        <time>2013-02-23T09:13:30.000Z</time>
      </trkpt>
      <trkpt lat="43.55641" lon="5.50326">
        <ele>425.60000610352</ele>
        <time>2013-02-23T09:13:31.000Z</time>
      </trkpt>
      <trkpt lat="43.55639" lon="5.50331">
        <ele>425.60000610352</ele>
        <time>2013-02-23T09:13:32.000Z</time>
      </trkpt>
      <trkpt lat="43.55636" lon="5.50336">
        <ele>425.60000610352</ele>
        <time>2013-02-23T09:13:33.000Z</time>
      </trkpt>
      <trkpt lat="43.55613" lon="5.50384">
        <ele>425.79998779297</ele>
        <time>2013-02-23T09:13:44.000Z</time>
      </trkpt>
      <trkpt lat="43.55586" lon="5.50431">
        <ele>426.20001220703</ele>
        <time>2013-02-23T09:13:55.000Z</time>
      </trkpt>
      <trkpt lat="43.55582" lon="5.50441">
        <ele>426.20001220703</ele>
        <time>2013-02-23T09:13:57.000Z</time>
      </trkpt>
      <trkpt lat="43.55574" lon="5.5046">
        <ele>426.39999389648</ele>
        <time>2013-02-23T09:14:01.000Z</time>
      </trkpt>
      <trkpt lat="43.55567" lon="5.50474">
        <ele>426.39999389648</ele>
        <time>2013-02-23T09:14:04.000Z</time>
      </trkpt>
      <trkpt lat="43.55564" lon="5.50479">
        <ele>426.39999389648</ele>
        <time>2013-02-23T09:14:05.000Z</time>
      </trkpt>
      <trkpt lat="43.55557" lon="5.50487">
        <ele>426.39999389648</ele>
        <time>2013-02-23T09:14:07.000Z</time>
      </trkpt>
      <trkpt lat="43.55553" lon="5.5049">
        <ele>426.39999389648</ele>
        <time>2013-02-23T09:14:08.000Z</time>
      </trkpt>
      <trkpt lat="43.55543" lon="5.50495">
        <ele>426.39999389648</ele>
        <time>2013-02-23T09:14:10.000Z</time>
      </trkpt>
      <trkpt lat="43.55539" lon="5.50495">
        <ele>426.39999389648</ele>
        <time>2013-02-23T09:14:11.000Z</time>
      </trkpt>
      <trkpt lat="43.55534" lon="5.50495">
        <ele>426.20001220703</ele>
        <time>2013-02-23T09:14:12.000Z</time>
      </trkpt>
      <trkpt lat="43.55504" lon="5.50495">
        <ele>425.79998779297</ele>
        <time>2013-02-23T09:14:21.000Z</time>
      </trkpt>
      <trkpt lat="43.55503" lon="5.50496">
        <ele>425.79998779297</ele>
        <time>2013-02-23T09:14:31.000Z</time>
      </trkpt>
      <trkpt lat="43.55501" lon="5.50497">
        <ele>425.79998779297</ele>
        <time>2013-02-23T09:14:52.000Z</time>
      </trkpt>
      <trkpt lat="43.55487" lon="5.50512">
        <ele>425.79998779297</ele>
        <time>2013-02-23T09:15:02.000Z</time>
      </trkpt>
      <trkpt lat="43.55472" lon="5.50527">
        <ele>425.60000610352</ele>
        <time>2013-02-23T09:15:07.000Z</time>
      </trkpt>
      <trkpt lat="43.5544" lon="5.50571">
        <ele>425.39999389648</ele>
        <time>2013-02-23T09:15:18.000Z</time>
      </trkpt>
      <trkpt lat="43.55428" lon="5.50588">
        <ele>425.39999389648</ele>
        <time>2013-02-23T09:15:22.000Z</time>
      </trkpt>
      <trkpt lat="43.55414" lon="5.5061">
        <ele>425.79998779297</ele>
        <time>2013-02-23T09:15:27.000Z</time>
      </trkpt>
      <trkpt lat="43.55409" lon="5.50631">
        <ele>426.60000610352</ele>
        <time>2013-02-23T09:15:31.000Z</time>
      </trkpt>
      <trkpt lat="43.55408" lon="5.50636">
        <ele>426.79998779297</ele>
        <time>2013-02-23T09:15:32.000Z</time>
      </trkpt>
      <trkpt lat="43.55398" lon="5.50694">
        <ele>428</ele>
        <time>2013-02-23T09:15:43.000Z</time>
      </trkpt>
      <trkpt lat="43.55392" lon="5.50714">
        <ele>428.39999389648</ele>
        <time>2013-02-23T09:15:47.000Z</time>
      </trkpt>
      <trkpt lat="43.55391" lon="5.50719">
        <ele>428.39999389648</ele>
        <time>2013-02-23T09:15:48.000Z</time>
      </trkpt>
      <trkpt lat="43.55366" lon="5.50773">
        <ele>429.20001220703</ele>
        <time>2013-02-23T09:16:00.000Z</time>
      </trkpt>
      <trkpt lat="43.55351" lon="5.50816">
        <ele>429.60000610352</ele>
        <time>2013-02-23T09:16:10.000Z</time>
      </trkpt>
      <trkpt lat="43.55341" lon="5.5087">
        <ele>430</ele>
        <time>2013-02-23T09:16:21.000Z</time>
      </trkpt>
      <trkpt lat="43.55335" lon="5.50921">
        <ele>430.20001220703</ele>
        <time>2013-02-23T09:16:31.000Z</time>
      </trkpt>
      <trkpt lat="43.55344" lon="5.50987">
        <ele>434.20001220703</ele>
        <time>2013-02-23T09:16:44.000Z</time>
      </trkpt>
      <trkpt lat="43.55351" lon="5.51044">
        <ele>435.39999389648</ele>
        <time>2013-02-23T09:16:55.000Z</time>
      </trkpt>
      <trkpt lat="43.55349" lon="5.51092">
        <ele>436</ele>
        <time>2013-02-23T09:17:04.000Z</time>
      </trkpt>
      <trkpt lat="43.55348" lon="5.51125">
        <ele>436.39999389648</ele>
        <time>2013-02-23T09:17:10.000Z</time>
      </trkpt>
      <trkpt lat="43.55348" lon="5.51142">
        <ele>436.39999389648</ele>
        <time>2013-02-23T09:17:13.000Z</time>
      </trkpt>
      <trkpt lat="43.55347" lon="5.51148">
        <ele>436.60000610352</ele>
        <time>2013-02-23T09:17:14.000Z</time>
      </trkpt>
      <trkpt lat="43.55343" lon="5.51173">
        <ele>436.79998779297</ele>
        <time>2013-02-23T09:17:18.000Z</time>
      </trkpt>
      <trkpt lat="43.55343" lon="5.51187">
        <ele>437</ele>
        <time>2013-02-23T09:17:20.000Z</time>
      </trkpt>
      <trkpt lat="43.55344" lon="5.51207">
        <ele>437.20001220703</ele>
        <time>2013-02-23T09:17:23.000Z</time>
      </trkpt>
      <trkpt lat="43.55353" lon="5.51241">
        <ele>437.60000610352</ele>
        <time>2013-02-23T09:17:29.000Z</time>
      </trkpt>
      <trkpt lat="43.55356" lon="5.51264">
        <ele>437.60000610352</ele>
        <time>2013-02-23T09:17:33.000Z</time>
      </trkpt>
      <trkpt lat="43.55357" lon="5.5127">
        <ele>437.60000610352</ele>
        <time>2013-02-23T09:17:34.000Z</time>
      </trkpt>
      <trkpt lat="43.55358" lon="5.51276">
        <ele>437.60000610352</ele>
        <time>2013-02-23T09:17:35.000Z</time>
      </trkpt>
      <trkpt lat="43.55371" lon="5.5133">
        <ele>437</ele>
        <time>2013-02-23T09:17:44.000Z</time>
      </trkpt>
      <trkpt lat="43.5537" lon="5.51336">
        <ele>437</ele>
        <time>2013-02-23T09:17:45.000Z</time>
      </trkpt>
      <trkpt lat="43.55371" lon="5.51373">
        <ele>437.20001220703</ele>
        <time>2013-02-23T09:17:51.000Z</time>
      </trkpt>
      <trkpt lat="43.55382" lon="5.51435">
        <ele>437.79998779297</ele>
        <time>2013-02-23T09:18:01.000Z</time>
      </trkpt>
      <trkpt lat="43.55385" lon="5.51448">
        <ele>438</ele>
        <time>2013-02-23T09:18:03.000Z</time>
      </trkpt>
      <trkpt lat="43.55391" lon="5.51478">
        <ele>438.60000610352</ele>
        <time>2013-02-23T09:18:08.000Z</time>
      </trkpt>
      <trkpt lat="43.55395" lon="5.51489">
        <ele>439</ele>
        <time>2013-02-23T09:18:10.000Z</time>
      </trkpt>
      <trkpt lat="43.55406" lon="5.51517">
        <ele>439.60000610352</ele>
        <time>2013-02-23T09:18:15.000Z</time>
      </trkpt>
      <trkpt lat="43.55407" lon="5.51523">
        <ele>439.79998779297</ele>
        <time>2013-02-23T09:18:16.000Z</time>
      </trkpt>
      <trkpt lat="43.55408" lon="5.51529">
        <ele>440</ele>
        <time>2013-02-23T09:18:17.000Z</time>
      </trkpt>
      <trkpt lat="43.55407" lon="5.51535">
        <ele>440.20001220703</ele>
        <time>2013-02-23T09:18:18.000Z</time>
      </trkpt>
      <trkpt lat="43.55405" lon="5.51541">
        <ele>440.39999389648</ele>
        <time>2013-02-23T09:18:19.000Z</time>
      </trkpt>
      <trkpt lat="43.55403" lon="5.51547">
        <ele>440.60000610352</ele>
        <time>2013-02-23T09:18:20.000Z</time>
      </trkpt>
      <trkpt lat="43.55401" lon="5.51552">
        <ele>440.79998779297</ele>
        <time>2013-02-23T09:18:21.000Z</time>
      </trkpt>
      <trkpt lat="43.55395" lon="5.51568">
        <ele>441.20001220703</ele>
        <time>2013-02-23T09:18:24.000Z</time>
      </trkpt>
      <trkpt lat="43.55373" lon="5.51636">
        <ele>441</ele>
        <time>2013-02-23T09:18:37.000Z</time>
      </trkpt>
      <trkpt lat="43.55349" lon="5.51685">
        <ele>440.60000610352</ele>
        <time>2013-02-23T09:18:48.000Z</time>
      </trkpt>
      <trkpt lat="43.55323" lon="5.51723">
        <ele>439.20001220703</ele>
        <time>2013-02-23T09:18:57.000Z</time>
      </trkpt>
      <trkpt lat="43.5532" lon="5.51728">
        <ele>438.79998779297</ele>
        <time>2013-02-23T09:18:58.000Z</time>
      </trkpt>
      <trkpt lat="43.55319" lon="5.51735">
        <ele>438.60000610352</ele>
        <time>2013-02-23T09:18:59.000Z</time>
      </trkpt>
      <trkpt lat="43.55317" lon="5.51741">
        <ele>438.39999389648</ele>
        <time>2013-02-23T09:19:00.000Z</time>
      </trkpt>
      <trkpt lat="43.55317" lon="5.51748">
        <ele>438.39999389648</ele>
        <time>2013-02-23T09:19:01.000Z</time>
      </trkpt>
      <trkpt lat="43.55316" lon="5.51755">
        <ele>438.60000610352</ele>
        <time>2013-02-23T09:19:02.000Z</time>
      </trkpt>
      <trkpt lat="43.55317" lon="5.51762">
        <ele>438.79998779297</ele>
        <time>2013-02-23T09:19:03.000Z</time>
      </trkpt>
      <trkpt lat="43.55318" lon="5.51768">
        <ele>439.20001220703</ele>
        <time>2013-02-23T09:19:04.000Z</time>
      </trkpt>
      <trkpt lat="43.5532" lon="5.51774">
        <ele>439.79998779297</ele>
        <time>2013-02-23T09:19:05.000Z</time>
      </trkpt>
      <trkpt lat="43.55322" lon="5.5178">
        <ele>440.20001220703</ele>
        <time>2013-02-23T09:19:06.000Z</time>
      </trkpt>
      <trkpt lat="43.55324" lon="5.51785">
        <ele>440.60000610352</ele>
        <time>2013-02-23T09:19:07.000Z</time>
      </trkpt>
      <trkpt lat="43.5533" lon="5.51801">
        <ele>442</ele>
        <time>2013-02-23T09:19:10.000Z</time>
      </trkpt>
      <trkpt lat="43.55331" lon="5.51807">
        <ele>442.20001220703</ele>
        <time>2013-02-23T09:19:11.000Z</time>
      </trkpt>
      <trkpt lat="43.55333" lon="5.51825">
        <ele>442.79998779297</ele>
        <time>2013-02-23T09:19:14.000Z</time>
      </trkpt>
      <trkpt lat="43.55333" lon="5.51831">
        <ele>442.79998779297</ele>
        <time>2013-02-23T09:19:15.000Z</time>
      </trkpt>
      <trkpt lat="43.55332" lon="5.51837">
        <ele>442.79998779297</ele>
        <time>2013-02-23T09:19:16.000Z</time>
      </trkpt>
      <trkpt lat="43.55332" lon="5.51843">
        <ele>442.79998779297</ele>
        <time>2013-02-23T09:19:17.000Z</time>
      </trkpt>
      <trkpt lat="43.55332" lon="5.51849">
        <ele>442.79998779297</ele>
        <time>2013-02-23T09:19:18.000Z</time>
      </trkpt>
      <trkpt lat="43.55334" lon="5.51861">
        <ele>443</ele>
        <time>2013-02-23T09:19:20.000Z</time>
      </trkpt>
      <trkpt lat="43.55335" lon="5.51867">
        <ele>443</ele>
        <time>2013-02-23T09:19:21.000Z</time>
      </trkpt>
      <trkpt lat="43.5534" lon="5.51885">
        <ele>443</ele>
        <time>2013-02-23T09:19:24.000Z</time>
      </trkpt>
      <trkpt lat="43.55342" lon="5.5189">
        <ele>443.20001220703</ele>
        <time>2013-02-23T09:19:25.000Z</time>
      </trkpt>
      <trkpt lat="43.55363" lon="5.51959">
        <ele>443.20001220703</ele>
        <time>2013-02-23T09:19:36.000Z</time>
      </trkpt>
      <trkpt lat="43.5539" lon="5.52018">
        <ele>443</ele>
        <time>2013-02-23T09:19:47.000Z</time>
      </trkpt>
      <trkpt lat="43.55418" lon="5.52065">
        <ele>444.20001220703</ele>
        <time>2013-02-23T09:19:58.000Z</time>
      </trkpt>
      <trkpt lat="43.55422" lon="5.52069">
        <ele>444.39999389648</ele>
        <time>2013-02-23T09:19:59.000Z</time>
      </trkpt>
      <trkpt lat="43.55425" lon="5.52072">
        <ele>444.60000610352</ele>
        <time>2013-02-23T09:20:00.000Z</time>
      </trkpt>
      <trkpt lat="43.55429" lon="5.52074">
        <ele>444.79998779297</ele>
        <time>2013-02-23T09:20:01.000Z</time>
      </trkpt>
      <trkpt lat="43.55433" lon="5.52076">
        <ele>445</ele>
        <time>2013-02-23T09:20:02.000Z</time>
      </trkpt>
      <trkpt lat="43.55437" lon="5.52078">
        <ele>445.20001220703</ele>
        <time>2013-02-23T09:20:03.000Z</time>
      </trkpt>
      <trkpt lat="43.55441" lon="5.52079">
        <ele>445.39999389648</ele>
        <time>2013-02-23T09:20:04.000Z</time>
      </trkpt>
      <trkpt lat="43.55448" lon="5.52084">
        <ele>445.79998779297</ele>
        <time>2013-02-23T09:20:06.000Z</time>
      </trkpt>
      <trkpt lat="43.55451" lon="5.52087">
        <ele>446</ele>
        <time>2013-02-23T09:20:07.000Z</time>
      </trkpt>
      <trkpt lat="43.55454" lon="5.52091">
        <ele>446.20001220703</ele>
        <time>2013-02-23T09:20:08.000Z</time>
      </trkpt>
      <trkpt lat="43.55456" lon="5.52096">
        <ele>446.39999389648</ele>
        <time>2013-02-23T09:20:09.000Z</time>
      </trkpt>
      <trkpt lat="43.55459" lon="5.52101">
        <ele>446.60000610352</ele>
        <time>2013-02-23T09:20:10.000Z</time>
      </trkpt>
      <trkpt lat="43.55461" lon="5.52106">
        <ele>446.79998779297</ele>
        <time>2013-02-23T09:20:11.000Z</time>
      </trkpt>
      <trkpt lat="43.55467" lon="5.52127">
        <ele>447.39999389648</ele>
        <time>2013-02-23T09:20:15.000Z</time>
      </trkpt>
      <trkpt lat="43.55479" lon="5.52149">
        <ele>448.39999389648</ele>
        <time>2013-02-23T09:20:20.000Z</time>
      </trkpt>
      <trkpt lat="43.55482" lon="5.52154">
        <ele>448.60000610352</ele>
        <time>2013-02-23T09:20:21.000Z</time>
      </trkpt>
      <trkpt lat="43.55484" lon="5.52158">
        <ele>448.79998779297</ele>
        <time>2013-02-23T09:20:22.000Z</time>
      </trkpt>
      <trkpt lat="43.55486" lon="5.52163">
        <ele>449</ele>
        <time>2013-02-23T09:20:23.000Z</time>
      </trkpt>
      <trkpt lat="43.55488" lon="5.52169">
        <ele>449.20001220703</ele>
        <time>2013-02-23T09:20:24.000Z</time>
      </trkpt>
      <trkpt lat="43.5549" lon="5.52174">
        <ele>449.39999389648</ele>
        <time>2013-02-23T09:20:25.000Z</time>
      </trkpt>
      <trkpt lat="43.55508" lon="5.52232">
        <ele>452</ele>
        <time>2013-02-23T09:20:37.000Z</time>
      </trkpt>
      <trkpt lat="43.55521" lon="5.52253">
        <ele>453.20001220703</ele>
        <time>2013-02-23T09:20:42.000Z</time>
      </trkpt>
      <trkpt lat="43.55523" lon="5.52258">
        <ele>453.60000610352</ele>
        <time>2013-02-23T09:20:43.000Z</time>
      </trkpt>
      <trkpt lat="43.55525" lon="5.52263">
        <ele>454</ele>
        <time>2013-02-23T09:20:44.000Z</time>
      </trkpt>
      <trkpt lat="43.55526" lon="5.52268">
        <ele>454.39999389648</ele>
        <time>2013-02-23T09:20:45.000Z</time>
      </trkpt>
      <trkpt lat="43.55528" lon="5.52273">
        <ele>454.60000610352</ele>
        <time>2013-02-23T09:20:46.000Z</time>
      </trkpt>
      <trkpt lat="43.55528" lon="5.52279">
        <ele>455</ele>
        <time>2013-02-23T09:20:47.000Z</time>
      </trkpt>
      <trkpt lat="43.55534" lon="5.52336">
        <ele>457.79998779297</ele>
        <time>2013-02-23T09:20:58.000Z</time>
      </trkpt>
      <trkpt lat="43.55553" lon="5.52381">
        <ele>459.79998779297</ele>
        <time>2013-02-23T09:21:08.000Z</time>
      </trkpt>
      <trkpt lat="43.55571" lon="5.52419">
        <ele>462.20001220703</ele>
        <time>2013-02-23T09:21:17.000Z</time>
      </trkpt>
      <trkpt lat="43.55581" lon="5.52473">
        <ele>464</ele>
        <time>2013-02-23T09:21:28.000Z</time>
      </trkpt>
      <trkpt lat="43.5559" lon="5.52525">
        <ele>465</ele>
        <time>2013-02-23T09:21:39.000Z</time>
      </trkpt>
      <trkpt lat="43.55615" lon="5.52562">
        <ele>465.20001220703</ele>
        <time>2013-02-23T09:21:49.000Z</time>
      </trkpt>
      <trkpt lat="43.55631" lon="5.5261">
        <ele>464.39999389648</ele>
        <time>2013-02-23T09:21:59.000Z</time>
      </trkpt>
      <trkpt lat="43.5564" lon="5.52652">
        <ele>462.79998779297</ele>
        <time>2013-02-23T09:22:07.000Z</time>
      </trkpt>
      <trkpt lat="43.55643" lon="5.52681">
        <ele>461.79998779297</ele>
        <time>2013-02-23T09:22:12.000Z</time>
      </trkpt>
      <trkpt lat="43.55649" lon="5.52711">
        <ele>461.20001220703</ele>
        <time>2013-02-23T09:22:17.000Z</time>
      </trkpt>
      <trkpt lat="43.55668" lon="5.52786">
        <ele>460.39999389648</ele>
        <time>2013-02-23T09:22:28.000Z</time>
      </trkpt>
      <trkpt lat="43.55671" lon="5.52809">
        <ele>460.39999389648</ele>
        <time>2013-02-23T09:22:31.000Z</time>
      </trkpt>
      <trkpt lat="43.55677" lon="5.52864">
        <ele>460.79998779297</ele>
        <time>2013-02-23T09:22:39.000Z</time>
      </trkpt>
      <trkpt lat="43.55698" lon="5.52927">
        <ele>460</ele>
        <time>2013-02-23T09:22:49.000Z</time>
      </trkpt>
      <trkpt lat="43.55706" lon="5.52985">
        <ele>460</ele>
        <time>2013-02-23T09:22:59.000Z</time>
      </trkpt>
      <trkpt lat="43.55707" lon="5.53003">
        <ele>460</ele>
        <time>2013-02-23T09:23:02.000Z</time>
      </trkpt>
      <trkpt lat="43.55709" lon="5.53026">
        <ele>460</ele>
        <time>2013-02-23T09:23:06.000Z</time>
      </trkpt>
      <trkpt lat="43.55722" lon="5.53101">
        <ele>459</ele>
        <time>2013-02-23T09:23:19.000Z</time>
      </trkpt>
      <trkpt lat="43.5573" lon="5.53136">
        <ele>457.79998779297</ele>
        <time>2013-02-23T09:23:27.000Z</time>
      </trkpt>
      <trkpt lat="43.55739" lon="5.53174">
        <ele>456.39999389648</ele>
        <time>2013-02-23T09:23:37.000Z</time>
      </trkpt>
      <trkpt lat="43.5574" lon="5.5318">
        <ele>456.20001220703</ele>
        <time>2013-02-23T09:23:38.000Z</time>
      </trkpt>
      <trkpt lat="43.5574" lon="5.53185">
        <ele>456.20001220703</ele>
        <time>2013-02-23T09:23:39.000Z</time>
      </trkpt>
      <trkpt lat="43.5574" lon="5.53189">
        <ele>456</ele>
        <time>2013-02-23T09:23:40.000Z</time>
      </trkpt>
      <trkpt lat="43.5574" lon="5.53194">
        <ele>456</ele>
        <time>2013-02-23T09:23:41.000Z</time>
      </trkpt>
      <trkpt lat="43.55738" lon="5.53197">
        <ele>456</ele>
        <time>2013-02-23T09:23:42.000Z</time>
      </trkpt>
      <trkpt lat="43.55737" lon="5.53199">
        <ele>456</ele>
        <time>2013-02-23T09:23:43.000Z</time>
      </trkpt>
      <trkpt lat="43.55736" lon="5.53201">
        <ele>456.20001220703</ele>
        <time>2013-02-23T09:23:44.000Z</time>
      </trkpt>
      <trkpt lat="43.55734" lon="5.532">
        <ele>456.20001220703</ele>
        <time>2013-02-23T09:23:53.000Z</time>
      </trkpt>
      <trkpt lat="43.55733" lon="5.53201">
        <ele>456.20001220703</ele>
        <time>2013-02-23T09:24:08.000Z</time>
      </trkpt>
      <trkpt lat="43.55732" lon="5.53207">
        <ele>456.20001220703</ele>
        <time>2013-02-23T09:24:13.000Z</time>
      </trkpt>
      <trkpt lat="43.55733" lon="5.53208">
        <ele>456.20001220703</ele>
        <time>2013-02-23T09:24:14.000Z</time>
      </trkpt>
      <trkpt lat="43.55734" lon="5.53207">
        <ele>456</ele>
        <time>2013-02-23T09:24:15.000Z</time>
      </trkpt>
      <trkpt lat="43.55735" lon="5.53209">
        <ele>456</ele>
        <time>2013-02-23T09:24:16.000Z</time>
      </trkpt>
      <trkpt lat="43.55734" lon="5.5321">
        <ele>456</ele>
        <time>2013-02-23T09:24:26.000Z</time>
      </trkpt>
      <trkpt lat="43.55735" lon="5.53208">
        <ele>456</ele>
        <time>2013-02-23T09:24:53.000Z</time>
      </trkpt>
      <trkpt lat="43.55735" lon="5.5321">
        <ele>456</ele>
        <time>2013-02-23T09:25:22.000Z</time>
      </trkpt>
      <trkpt lat="43.55734" lon="5.53211">
        <ele>456</ele>
        <time>2013-02-23T09:25:40.000Z</time>
      </trkpt>
      <trkpt lat="43.55732" lon="5.53211">
        <ele>456.20001220703</ele>
        <time>2013-02-23T09:25:48.000Z</time>
      </trkpt>
      <trkpt lat="43.55731" lon="5.53212">
        <ele>456.20001220703</ele>
        <time>2013-02-23T09:25:49.000Z</time>
      </trkpt>
      <trkpt lat="43.5573" lon="5.53213">
        <ele>456.20001220703</ele>
        <time>2013-02-23T09:25:50.000Z</time>
      </trkpt>
      <trkpt lat="43.55729" lon="5.53216">
        <ele>456.20001220703</ele>
        <time>2013-02-23T09:25:51.000Z</time>
      </trkpt>
      <trkpt lat="43.55728" lon="5.53218">
        <ele>456.20001220703</ele>
        <time>2013-02-23T09:25:52.000Z</time>
      </trkpt>
      <trkpt lat="43.55727" lon="5.5322">
        <ele>456.20001220703</ele>
        <time>2013-02-23T09:25:53.000Z</time>
      </trkpt>
      <trkpt lat="43.55725" lon="5.53223">
        <ele>456.20001220703</ele>
        <time>2013-02-23T09:25:54.000Z</time>
      </trkpt>
      <trkpt lat="43.55723" lon="5.53225">
        <ele>456.20001220703</ele>
        <time>2013-02-23T09:25:55.000Z</time>
      </trkpt>
      <trkpt lat="43.55722" lon="5.53227">
        <ele>456.20001220703</ele>
        <time>2013-02-23T09:25:56.000Z</time>
      </trkpt>
      <trkpt lat="43.55721" lon="5.53229">
        <ele>456.20001220703</ele>
        <time>2013-02-23T09:25:57.000Z</time>
      </trkpt>
      <trkpt lat="43.5572" lon="5.53231">
        <ele>456.20001220703</ele>
        <time>2013-02-23T09:25:58.000Z</time>
      </trkpt>
      <trkpt lat="43.55711" lon="5.53242">
        <ele>456.39999389648</ele>
        <time>2013-02-23T09:26:07.000Z</time>
      </trkpt>
      <trkpt lat="43.55707" lon="5.53248">
        <ele>456.60000610352</ele>
        <time>2013-02-23T09:26:14.000Z</time>
      </trkpt>
      <trkpt lat="43.55705" lon="5.53251">
        <ele>456.60000610352</ele>
        <time>2013-02-23T09:26:16.000Z</time>
      </trkpt>
      <trkpt lat="43.55704" lon="5.53252">
        <ele>456.60000610352</ele>
        <time>2013-02-23T09:26:17.000Z</time>
      </trkpt>
      <trkpt lat="43.55703" lon="5.53253">
        <ele>456.60000610352</ele>
        <time>2013-02-23T09:26:18.000Z</time>
      </trkpt>
      <trkpt lat="43.55702" lon="5.53255">
        <ele>456.79998779297</ele>
        <time>2013-02-23T09:26:19.000Z</time>
      </trkpt>
      <trkpt lat="43.55701" lon="5.53256">
        <ele>456.79998779297</ele>
        <time>2013-02-23T09:26:20.000Z</time>
      </trkpt>
      <trkpt lat="43.55685" lon="5.53287">
        <ele>458.20001220703</ele>
        <time>2013-02-23T09:26:30.000Z</time>
      </trkpt>
      <trkpt lat="43.55666" lon="5.53314">
        <ele>459.39999389648</ele>
        <time>2013-02-23T09:26:40.000Z</time>
      </trkpt>
      <trkpt lat="43.55664" lon="5.53317">
        <ele>459.39999389648</ele>
        <time>2013-02-23T09:26:52.000Z</time>
      </trkpt>
      <trkpt lat="43.55664" lon="5.53315">
        <ele>459.39999389648</ele>
        <time>2013-02-23T09:27:11.000Z</time>
      </trkpt>
      <trkpt lat="43.55664" lon="5.53317">
        <ele>459.39999389648</ele>
        <time>2013-02-23T09:27:33.000Z</time>
      </trkpt>
      <trkpt lat="43.55665" lon="5.53316">
        <ele>459.39999389648</ele>
        <time>2013-02-23T09:27:46.000Z</time>
      </trkpt>
      <trkpt lat="43.55655" lon="5.53333">
        <ele>459.39999389648</ele>
        <time>2013-02-23T09:27:54.000Z</time>
      </trkpt>
      <trkpt lat="43.55625" lon="5.53381">
        <ele>458.20001220703</ele>
        <time>2013-02-23T09:28:07.000Z</time>
      </trkpt>
      <trkpt lat="43.55609" lon="5.53411">
        <ele>457.79998779297</ele>
        <time>2013-02-23T09:28:14.000Z</time>
      </trkpt>
      <trkpt lat="43.5558" lon="5.5346">
        <ele>455.39999389648</ele>
        <time>2013-02-23T09:28:24.000Z</time>
      </trkpt>
      <trkpt lat="43.55569" lon="5.53471">
        <ele>453.79998779297</ele>
        <time>2013-02-23T09:28:27.000Z</time>
      </trkpt>
      <trkpt lat="43.55565" lon="5.53473">
        <ele>453.20001220703</ele>
        <time>2013-02-23T09:28:28.000Z</time>
      </trkpt>
      <trkpt lat="43.55561" lon="5.53473">
        <ele>452.79998779297</ele>
        <time>2013-02-23T09:28:29.000Z</time>
      </trkpt>
      <trkpt lat="43.55557" lon="5.53473">
        <ele>452.20001220703</ele>
        <time>2013-02-23T09:28:30.000Z</time>
      </trkpt>
      <trkpt lat="43.55553" lon="5.5347">
        <ele>451.79998779297</ele>
        <time>2013-02-23T09:28:31.000Z</time>
      </trkpt>
      <trkpt lat="43.55549" lon="5.53466">
        <ele>451.39999389648</ele>
        <time>2013-02-23T09:28:32.000Z</time>
      </trkpt>
      <trkpt lat="43.55546" lon="5.5346">
        <ele>451.20001220703</ele>
        <time>2013-02-23T09:28:33.000Z</time>
      </trkpt>
      <trkpt lat="43.55544" lon="5.53453">
        <ele>451</ele>
        <time>2013-02-23T09:28:34.000Z</time>
      </trkpt>
      <trkpt lat="43.55542" lon="5.53446">
        <ele>451</ele>
        <time>2013-02-23T09:28:35.000Z</time>
      </trkpt>
      <trkpt lat="43.5554" lon="5.53438">
        <ele>451</ele>
        <time>2013-02-23T09:28:36.000Z</time>
      </trkpt>
      <trkpt lat="43.55535" lon="5.53423">
        <ele>451</ele>
        <time>2013-02-23T09:28:38.000Z</time>
      </trkpt>
      <trkpt lat="43.55528" lon="5.53402">
        <ele>450.39999389648</ele>
        <time>2013-02-23T09:28:41.000Z</time>
      </trkpt>
      <trkpt lat="43.55525" lon="5.53389">
        <ele>450.39999389648</ele>
        <time>2013-02-23T09:28:43.000Z</time>
      </trkpt>
      <trkpt lat="43.55525" lon="5.53381">
        <ele>450.39999389648</ele>
        <time>2013-02-23T09:28:44.000Z</time>
      </trkpt>
      <trkpt lat="43.55525" lon="5.53373">
        <ele>450.39999389648</ele>
        <time>2013-02-23T09:28:45.000Z</time>
      </trkpt>
      <trkpt lat="43.55526" lon="5.53357">
        <ele>450.79998779297</ele>
        <time>2013-02-23T09:28:47.000Z</time>
      </trkpt>
      <trkpt lat="43.55524" lon="5.5335">
        <ele>450.60000610352</ele>
        <time>2013-02-23T09:28:48.000Z</time>
      </trkpt>
      <trkpt lat="43.55521" lon="5.53344">
        <ele>450.60000610352</ele>
        <time>2013-02-23T09:28:49.000Z</time>
      </trkpt>
      <trkpt lat="43.55517" lon="5.53339">
        <ele>450.20001220703</ele>
        <time>2013-02-23T09:28:50.000Z</time>
      </trkpt>
      <trkpt lat="43.55514" lon="5.53336">
        <ele>450</ele>
        <time>2013-02-23T09:28:51.000Z</time>
      </trkpt>
      <trkpt lat="43.55511" lon="5.53333">
        <ele>449.79998779297</ele>
        <time>2013-02-23T09:28:52.000Z</time>
      </trkpt>
      <trkpt lat="43.55508" lon="5.53331">
        <ele>449.79998779297</ele>
        <time>2013-02-23T09:28:53.000Z</time>
      </trkpt>
      <trkpt lat="43.55498" lon="5.53323">
        <ele>449.60000610352</ele>
        <time>2013-02-23T09:28:56.000Z</time>
      </trkpt>
      <trkpt lat="43.55495" lon="5.53319">
        <ele>449.79998779297</ele>
        <time>2013-02-23T09:28:57.000Z</time>
      </trkpt>
      <trkpt lat="43.55493" lon="5.53313">
        <ele>450</ele>
        <time>2013-02-23T09:28:58.000Z</time>
      </trkpt>
      <trkpt lat="43.55487" lon="5.53292">
        <ele>451</ele>
        <time>2013-02-23T09:29:02.000Z</time>
      </trkpt>
      <trkpt lat="43.55486" lon="5.53286">
        <ele>451.20001220703</ele>
        <time>2013-02-23T09:29:03.000Z</time>
      </trkpt>
      <trkpt lat="43.55486" lon="5.53281">
        <ele>451.60000610352</ele>
        <time>2013-02-23T09:29:04.000Z</time>
      </trkpt>
      <trkpt lat="43.55487" lon="5.53264">
        <ele>453</ele>
        <time>2013-02-23T09:29:07.000Z</time>
      </trkpt>
      <trkpt lat="43.55488" lon="5.53238">
        <ele>454.39999389648</ele>
        <time>2013-02-23T09:29:13.000Z</time>
      </trkpt>
      <trkpt lat="43.55481" lon="5.53205">
        <ele>453.60000610352</ele>
        <time>2013-02-23T09:29:18.000Z</time>
      </trkpt>
      <trkpt lat="43.5548" lon="5.53168">
        <ele>454</ele>
        <time>2013-02-23T09:29:22.000Z</time>
      </trkpt>
      <trkpt lat="43.5548" lon="5.53106">
        <ele>453.39999389648</ele>
        <time>2013-02-23T09:29:29.000Z</time>
      </trkpt>
      <trkpt lat="43.55479" lon="5.53055">
        <ele>454</ele>
        <time>2013-02-23T09:29:35.000Z</time>
      </trkpt>
      <trkpt lat="43.55473" lon="5.53022">
        <ele>454.20001220703</ele>
        <time>2013-02-23T09:29:40.000Z</time>
      </trkpt>
      <trkpt lat="43.55469" lon="5.53001">
        <ele>454.39999389648</ele>
        <time>2013-02-23T09:29:43.000Z</time>
      </trkpt>
      <trkpt lat="43.55464" lon="5.52972">
        <ele>453.79998779297</ele>
        <time>2013-02-23T09:29:48.000Z</time>
      </trkpt>
      <trkpt lat="43.55463" lon="5.52953">
        <ele>453.60000610352</ele>
        <time>2013-02-23T09:29:51.000Z</time>
      </trkpt>
      <trkpt lat="43.55447" lon="5.52925">
        <ele>451.39999389648</ele>
        <time>2013-02-23T09:29:56.000Z</time>
      </trkpt>
      <trkpt lat="43.55437" lon="5.529">
        <ele>449.39999389648</ele>
        <time>2013-02-23T09:29:59.000Z</time>
      </trkpt>
      <trkpt lat="43.55433" lon="5.52869">
        <ele>447.60000610352</ele>
        <time>2013-02-23T09:30:02.000Z</time>
      </trkpt>
      <trkpt lat="43.5543" lon="5.52819">
        <ele>445.20001220703</ele>
        <time>2013-02-23T09:30:07.000Z</time>
      </trkpt>
      <trkpt lat="43.55423" lon="5.52799">
        <ele>444</ele>
        <time>2013-02-23T09:30:09.000Z</time>
      </trkpt>
      <trkpt lat="43.55406" lon="5.52756">
        <ele>441</ele>
        <time>2013-02-23T09:30:14.000Z</time>
      </trkpt>
      <trkpt lat="43.55403" lon="5.52748">
        <ele>440.60000610352</ele>
        <time>2013-02-23T09:30:15.000Z</time>
      </trkpt>
      <trkpt lat="43.55402" lon="5.5274">
        <ele>440.39999389648</ele>
        <time>2013-02-23T09:30:16.000Z</time>
      </trkpt>
      <trkpt lat="43.55402" lon="5.52732">
        <ele>440.20001220703</ele>
        <time>2013-02-23T09:30:17.000Z</time>
      </trkpt>
      <trkpt lat="43.55402" lon="5.52723">
        <ele>440.20001220703</ele>
        <time>2013-02-23T09:30:18.000Z</time>
      </trkpt>
      <trkpt lat="43.55402" lon="5.52714">
        <ele>440</ele>
        <time>2013-02-23T09:30:19.000Z</time>
      </trkpt>
      <trkpt lat="43.55402" lon="5.52704">
        <ele>440</ele>
        <time>2013-02-23T09:30:20.000Z</time>
      </trkpt>
      <trkpt lat="43.55402" lon="5.52695">
        <ele>439.79998779297</ele>
        <time>2013-02-23T09:30:21.000Z</time>
      </trkpt>
      <trkpt lat="43.55401" lon="5.52686">
        <ele>439.60000610352</ele>
        <time>2013-02-23T09:30:22.000Z</time>
      </trkpt>
      <trkpt lat="43.55396" lon="5.52659">
        <ele>439.20001220703</ele>
        <time>2013-02-23T09:30:25.000Z</time>
      </trkpt>
      <trkpt lat="43.55384" lon="5.52603">
        <ele>439.39999389648</ele>
        <time>2013-02-23T09:30:31.000Z</time>
      </trkpt>
      <trkpt lat="43.55381" lon="5.52583">
        <ele>439.60000610352</ele>
        <time>2013-02-23T09:30:33.000Z</time>
      </trkpt>
      <trkpt lat="43.55379" lon="5.52559">
        <ele>439.20001220703</ele>
        <time>2013-02-23T09:30:35.000Z</time>
      </trkpt>
      <trkpt lat="43.55379" lon="5.52548">
        <ele>439.20001220703</ele>
        <time>2013-02-23T09:30:36.000Z</time>
      </trkpt>
      <trkpt lat="43.5538" lon="5.52514">
        <ele>439.20001220703</ele>
        <time>2013-02-23T09:30:39.000Z</time>
      </trkpt>
      <trkpt lat="43.55378" lon="5.52493">
        <ele>438.79998779297</ele>
        <time>2013-02-23T09:30:41.000Z</time>
      </trkpt>
      <trkpt lat="43.55375" lon="5.52484">
        <ele>438.20001220703</ele>
        <time>2013-02-23T09:30:42.000Z</time>
      </trkpt>
      <trkpt lat="43.55366" lon="5.52469">
        <ele>436.79998779297</ele>
        <time>2013-02-23T09:30:44.000Z</time>
      </trkpt>
      <trkpt lat="43.5535" lon="5.52449">
        <ele>434</ele>
        <time>2013-02-23T09:30:47.000Z</time>
      </trkpt>
      <trkpt lat="43.55344" lon="5.52441">
        <ele>433.20001220703</ele>
        <time>2013-02-23T09:30:48.000Z</time>
      </trkpt>
      <trkpt lat="43.55338" lon="5.52435">
        <ele>432</ele>
        <time>2013-02-23T09:30:49.000Z</time>
      </trkpt>
      <trkpt lat="43.55332" lon="5.52428">
        <ele>431</ele>
        <time>2013-02-23T09:30:50.000Z</time>
      </trkpt>
      <trkpt lat="43.55327" lon="5.52421">
        <ele>430.60000610352</ele>
        <time>2013-02-23T09:30:51.000Z</time>
      </trkpt>
      <trkpt lat="43.55323" lon="5.52412">
        <ele>430.20001220703</ele>
        <time>2013-02-23T09:30:52.000Z</time>
      </trkpt>
      <trkpt lat="43.55314" lon="5.52397">
        <ele>429.79998779297</ele>
        <time>2013-02-23T09:30:54.000Z</time>
      </trkpt>
      <trkpt lat="43.55308" lon="5.5239">
        <ele>429.39999389648</ele>
        <time>2013-02-23T09:30:55.000Z</time>
      </trkpt>
      <trkpt lat="43.55302" lon="5.52384">
        <ele>429</ele>
        <time>2013-02-23T09:30:56.000Z</time>
      </trkpt>
      <trkpt lat="43.55296" lon="5.52378">
        <ele>428.60000610352</ele>
        <time>2013-02-23T09:30:57.000Z</time>
      </trkpt>
      <trkpt lat="43.5529" lon="5.52373">
        <ele>428</ele>
        <time>2013-02-23T09:30:58.000Z</time>
      </trkpt>
      <trkpt lat="43.55284" lon="5.52367">
        <ele>427.39999389648</ele>
        <time>2013-02-23T09:30:59.000Z</time>
      </trkpt>
      <trkpt lat="43.55279" lon="5.5236">
        <ele>427</ele>
        <time>2013-02-23T09:31:00.000Z</time>
      </trkpt>
      <trkpt lat="43.55275" lon="5.52351">
        <ele>426.60000610352</ele>
        <time>2013-02-23T09:31:01.000Z</time>
      </trkpt>
      <trkpt lat="43.55272" lon="5.52342">
        <ele>426.20001220703</ele>
        <time>2013-02-23T09:31:02.000Z</time>
      </trkpt>
      <trkpt lat="43.55268" lon="5.52334">
        <ele>425.79998779297</ele>
        <time>2013-02-23T09:31:03.000Z</time>
      </trkpt>
      <trkpt lat="43.55264" lon="5.52326">
        <ele>425.39999389648</ele>
        <time>2013-02-23T09:31:04.000Z</time>
      </trkpt>
      <trkpt lat="43.55259" lon="5.52319">
        <ele>424.79998779297</ele>
        <time>2013-02-23T09:31:05.000Z</time>
      </trkpt>
      <trkpt lat="43.55254" lon="5.52313">
        <ele>424.20001220703</ele>
        <time>2013-02-23T09:31:06.000Z</time>
      </trkpt>
      <trkpt lat="43.55249" lon="5.52306">
        <ele>423.39999389648</ele>
        <time>2013-02-23T09:31:07.000Z</time>
      </trkpt>
      <trkpt lat="43.55225" lon="5.52279">
        <ele>421.39999389648</ele>
        <time>2013-02-23T09:31:11.000Z</time>
      </trkpt>
      <trkpt lat="43.55219" lon="5.52271">
        <ele>420.79998779297</ele>
        <time>2013-02-23T09:31:12.000Z</time>
      </trkpt>
      <trkpt lat="43.55213" lon="5.52262">
        <ele>420.39999389648</ele>
        <time>2013-02-23T09:31:13.000Z</time>
      </trkpt>
      <trkpt lat="43.55207" lon="5.52255">
        <ele>419.79998779297</ele>
        <time>2013-02-23T09:31:14.000Z</time>
      </trkpt>
      <trkpt lat="43.55201" lon="5.52249">
        <ele>419.39999389648</ele>
        <time>2013-02-23T09:31:15.000Z</time>
      </trkpt>
      <trkpt lat="43.55195" lon="5.52243">
        <ele>419</ele>
        <time>2013-02-23T09:31:16.000Z</time>
      </trkpt>
      <trkpt lat="43.5519" lon="5.52235">
        <ele>418.79998779297</ele>
        <time>2013-02-23T09:31:17.000Z</time>
      </trkpt>
      <trkpt lat="43.55186" lon="5.52227">
        <ele>418.79998779297</ele>
        <time>2013-02-23T09:31:18.000Z</time>
      </trkpt>
      <trkpt lat="43.55182" lon="5.52218">
        <ele>418.60000610352</ele>
        <time>2013-02-23T09:31:19.000Z</time>
      </trkpt>
      <trkpt lat="43.55178" lon="5.52208">
        <ele>418.60000610352</ele>
        <time>2013-02-23T09:31:20.000Z</time>
      </trkpt>
      <trkpt lat="43.55173" lon="5.52199">
        <ele>418.39999389648</ele>
        <time>2013-02-23T09:31:21.000Z</time>
      </trkpt>
      <trkpt lat="43.55133" lon="5.52135">
        <ele>418.20001220703</ele>
        <time>2013-02-23T09:31:30.000Z</time>
      </trkpt>
      <trkpt lat="43.55129" lon="5.52132">
        <ele>418.20001220703</ele>
        <time>2013-02-23T09:31:31.000Z</time>
      </trkpt>
      <trkpt lat="43.55126" lon="5.52132">
        <ele>418</ele>
        <time>2013-02-23T09:31:32.000Z</time>
      </trkpt>
      <trkpt lat="43.55123" lon="5.52133">
        <ele>417.79998779297</ele>
        <time>2013-02-23T09:31:33.000Z</time>
      </trkpt>
      <trkpt lat="43.5512" lon="5.52133">
        <ele>417.60000610352</ele>
        <time>2013-02-23T09:31:34.000Z</time>
      </trkpt>
      <trkpt lat="43.55117" lon="5.52131">
        <ele>417.60000610352</ele>
        <time>2013-02-23T09:31:35.000Z</time>
      </trkpt>
      <trkpt lat="43.55114" lon="5.52128">
        <ele>417.39999389648</ele>
        <time>2013-02-23T09:31:36.000Z</time>
      </trkpt>
      <trkpt lat="43.55111" lon="5.52124">
        <ele>417.39999389648</ele>
        <time>2013-02-23T09:31:37.000Z</time>
      </trkpt>
      <trkpt lat="43.55109" lon="5.52121">
        <ele>417.39999389648</ele>
        <time>2013-02-23T09:31:38.000Z</time>
      </trkpt>
      <trkpt lat="43.55107" lon="5.5212">
        <ele>417.39999389648</ele>
        <time>2013-02-23T09:31:39.000Z</time>
      </trkpt>
      <trkpt lat="43.55107" lon="5.5212">
        <ele>417.39999389648</ele>
        <time>2013-02-23T09:31:48.000Z</time>
      </trkpt>
      <trkpt lat="43.55106" lon="5.52119">
        <ele>417.20001220703</ele>
        <time>2013-02-23T09:32:05.000Z</time>
      </trkpt>
      <trkpt lat="43.55105" lon="5.52119">
        <ele>417.20001220703</ele>
        <time>2013-02-23T09:32:21.000Z</time>
      </trkpt>
      <trkpt lat="43.55104" lon="5.52119">
        <ele>417.20001220703</ele>
        <time>2013-02-23T09:32:22.000Z</time>
      </trkpt>
      <trkpt lat="43.55102" lon="5.52118">
        <ele>417</ele>
        <time>2013-02-23T09:32:23.000Z</time>
      </trkpt>
      <trkpt lat="43.55099" lon="5.52118">
        <ele>417</ele>
        <time>2013-02-23T09:32:24.000Z</time>
      </trkpt>
      <trkpt lat="43.55096" lon="5.52118">
        <ele>416.79998779297</ele>
        <time>2013-02-23T09:32:25.000Z</time>
      </trkpt>
      <trkpt lat="43.55092" lon="5.52119">
        <ele>416.39999389648</ele>
        <time>2013-02-23T09:32:26.000Z</time>
      </trkpt>
      <trkpt lat="43.55087" lon="5.52121">
        <ele>416.20001220703</ele>
        <time>2013-02-23T09:32:27.000Z</time>
      </trkpt>
      <trkpt lat="43.55082" lon="5.52123">
        <ele>415.79998779297</ele>
        <time>2013-02-23T09:32:28.000Z</time>
      </trkpt>
      <trkpt lat="43.55074" lon="5.52128">
        <ele>414.79998779297</ele>
        <time>2013-02-23T09:32:30.000Z</time>
      </trkpt>
      <trkpt lat="43.55069" lon="5.52129">
        <ele>414.20001220703</ele>
        <time>2013-02-23T09:32:31.000Z</time>
      </trkpt>
      <trkpt lat="43.55065" lon="5.52129">
        <ele>413.79998779297</ele>
        <time>2013-02-23T09:32:32.000Z</time>
      </trkpt>
      <trkpt lat="43.5506" lon="5.5213">
        <ele>413.20001220703</ele>
        <time>2013-02-23T09:32:33.000Z</time>
      </trkpt>
      <trkpt lat="43.55056" lon="5.52131">
        <ele>412.79998779297</ele>
        <time>2013-02-23T09:32:34.000Z</time>
      </trkpt>
      <trkpt lat="43.55053" lon="5.52132">
        <ele>412.39999389648</ele>
        <time>2013-02-23T09:32:35.000Z</time>
      </trkpt>
      <trkpt lat="43.5505" lon="5.52132">
        <ele>412</ele>
        <time>2013-02-23T09:32:36.000Z</time>
      </trkpt>
      <trkpt lat="43.55047" lon="5.52131">
        <ele>411.79998779297</ele>
        <time>2013-02-23T09:32:37.000Z</time>
      </trkpt>
      <trkpt lat="43.55046" lon="5.52129">
        <ele>411.60000610352</ele>
        <time>2013-02-23T09:32:38.000Z</time>
      </trkpt>
      <trkpt lat="43.55045" lon="5.52126">
        <ele>411.60000610352</ele>
        <time>2013-02-23T09:32:39.000Z</time>
      </trkpt>
      <trkpt lat="43.55045" lon="5.52123">
        <ele>411.60000610352</ele>
        <time>2013-02-23T09:32:40.000Z</time>
      </trkpt>
      <trkpt lat="43.55045" lon="5.52119">
        <ele>411.39999389648</ele>
        <time>2013-02-23T09:32:41.000Z</time>
      </trkpt>
      <trkpt lat="43.55045" lon="5.52116">
        <ele>411.39999389648</ele>
        <time>2013-02-23T09:32:42.000Z</time>
      </trkpt>
      <trkpt lat="43.55038" lon="5.5209">
        <ele>410.39999389648</ele>
        <time>2013-02-23T09:32:50.000Z</time>
      </trkpt>
      <trkpt lat="43.55036" lon="5.52056">
        <ele>410.20001220703</ele>
        <time>2013-02-23T09:32:57.000Z</time>
      </trkpt>
      <trkpt lat="43.55035" lon="5.52051">
        <ele>410.20001220703</ele>
        <time>2013-02-23T09:32:58.000Z</time>
      </trkpt>
      <trkpt lat="43.55034" lon="5.52045">
        <ele>410</ele>
        <time>2013-02-23T09:32:59.000Z</time>
      </trkpt>
      <trkpt lat="43.55035" lon="5.52038">
        <ele>410.20001220703</ele>
        <time>2013-02-23T09:33:00.000Z</time>
      </trkpt>
      <trkpt lat="43.55036" lon="5.52032">
        <ele>410.39999389648</ele>
        <time>2013-02-23T09:33:01.000Z</time>
      </trkpt>
      <trkpt lat="43.55037" lon="5.52026">
        <ele>410.60000610352</ele>
        <time>2013-02-23T09:33:02.000Z</time>
      </trkpt>
      <trkpt lat="43.55039" lon="5.5202">
        <ele>410.79998779297</ele>
        <time>2013-02-23T09:33:03.000Z</time>
      </trkpt>
      <trkpt lat="43.5504" lon="5.52013">
        <ele>411</ele>
        <time>2013-02-23T09:33:04.000Z</time>
      </trkpt>
      <trkpt lat="43.55041" lon="5.52007">
        <ele>411.20001220703</ele>
        <time>2013-02-23T09:33:05.000Z</time>
      </trkpt>
      <trkpt lat="43.55041" lon="5.52">
        <ele>411.20001220703</ele>
        <time>2013-02-23T09:33:06.000Z</time>
      </trkpt>
      <trkpt lat="43.5504" lon="5.51993">
        <ele>411.39999389648</ele>
        <time>2013-02-23T09:33:07.000Z</time>
      </trkpt>
      <trkpt lat="43.55039" lon="5.51987">
        <ele>411.60000610352</ele>
        <time>2013-02-23T09:33:08.000Z</time>
      </trkpt>
      <trkpt lat="43.55037" lon="5.51981">
        <ele>411.60000610352</ele>
        <time>2013-02-23T09:33:09.000Z</time>
      </trkpt>
      <trkpt lat="43.55035" lon="5.51975">
        <ele>411.39999389648</ele>
        <time>2013-02-23T09:33:10.000Z</time>
      </trkpt>
      <trkpt lat="43.55031" lon="5.5197">
        <ele>411.20001220703</ele>
        <time>2013-02-23T09:33:11.000Z</time>
      </trkpt>
      <trkpt lat="43.55028" lon="5.51966">
        <ele>411</ele>
        <time>2013-02-23T09:33:12.000Z</time>
      </trkpt>
      <trkpt lat="43.55018" lon="5.51958">
        <ele>410.20001220703</ele>
        <time>2013-02-23T09:33:15.000Z</time>
      </trkpt>
      <trkpt lat="43.55014" lon="5.51959">
        <ele>409.60000610352</ele>
        <time>2013-02-23T09:33:16.000Z</time>
      </trkpt>
      <trkpt lat="43.55009" lon="5.51958">
        <ele>409</ele>
        <time>2013-02-23T09:33:17.000Z</time>
      </trkpt>
      <trkpt lat="43.55006" lon="5.51954">
        <ele>408.79998779297</ele>
        <time>2013-02-23T09:33:18.000Z</time>
      </trkpt>
      <trkpt lat="43.55005" lon="5.51948">
        <ele>409</ele>
        <time>2013-02-23T09:33:19.000Z</time>
      </trkpt>
      <trkpt lat="43.55004" lon="5.51942">
        <ele>409.20001220703</ele>
        <time>2013-02-23T09:33:20.000Z</time>
      </trkpt>
      <trkpt lat="43.55005" lon="5.51909">
        <ele>410.39999389648</ele>
        <time>2013-02-23T09:33:25.000Z</time>
      </trkpt>
      <trkpt lat="43.55004" lon="5.51902">
        <ele>410.20001220703</ele>
        <time>2013-02-23T09:33:26.000Z</time>
      </trkpt>
      <trkpt lat="43.55002" lon="5.51895">
        <ele>409.79998779297</ele>
        <time>2013-02-23T09:33:27.000Z</time>
      </trkpt>
      <trkpt lat="43.5499" lon="5.51843">
        <ele>407.20001220703</ele>
        <time>2013-02-23T09:33:34.000Z</time>
      </trkpt>
      <trkpt lat="43.54989" lon="5.51837">
        <ele>407</ele>
        <time>2013-02-23T09:33:35.000Z</time>
      </trkpt>
      <trkpt lat="43.54986" lon="5.51831">
        <ele>406.60000610352</ele>
        <time>2013-02-23T09:33:36.000Z</time>
      </trkpt>
      <trkpt lat="43.54983" lon="5.51827">
        <ele>406</ele>
        <time>2013-02-23T09:33:37.000Z</time>
      </trkpt>
      <trkpt lat="43.54979" lon="5.51821">
        <ele>405.39999389648</ele>
        <time>2013-02-23T09:33:38.000Z</time>
      </trkpt>
      <trkpt lat="43.54976" lon="5.51816">
        <ele>404.79998779297</ele>
        <time>2013-02-23T09:33:39.000Z</time>
      </trkpt>
      <trkpt lat="43.54968" lon="5.51804">
        <ele>403.39999389648</ele>
        <time>2013-02-23T09:33:41.000Z</time>
      </trkpt>
      <trkpt lat="43.54965" lon="5.51798">
        <ele>403</ele>
        <time>2013-02-23T09:33:42.000Z</time>
      </trkpt>
      <trkpt lat="43.54949" lon="5.51736">
        <ele>400.20001220703</ele>
        <time>2013-02-23T09:33:50.000Z</time>
      </trkpt>
      <trkpt lat="43.54949" lon="5.51728">
        <ele>399.79998779297</ele>
        <time>2013-02-23T09:33:51.000Z</time>
      </trkpt>
      <trkpt lat="43.5495" lon="5.51719">
        <ele>399.60000610352</ele>
        <time>2013-02-23T09:33:52.000Z</time>
      </trkpt>
      <trkpt lat="43.54952" lon="5.5171">
        <ele>399.60000610352</ele>
        <time>2013-02-23T09:33:53.000Z</time>
      </trkpt>
      <trkpt lat="43.54956" lon="5.51703">
        <ele>400</ele>
        <time>2013-02-23T09:33:54.000Z</time>
      </trkpt>
      <trkpt lat="43.54961" lon="5.51698">
        <ele>400.39999389648</ele>
        <time>2013-02-23T09:33:55.000Z</time>
      </trkpt>
      <trkpt lat="43.54966" lon="5.51694">
        <ele>400.79998779297</ele>
        <time>2013-02-23T09:33:56.000Z</time>
      </trkpt>
      <trkpt lat="43.54971" lon="5.51694">
        <ele>401.60000610352</ele>
        <time>2013-02-23T09:33:57.000Z</time>
      </trkpt>
      <trkpt lat="43.54977" lon="5.51694">
        <ele>402.20001220703</ele>
        <time>2013-02-23T09:33:58.000Z</time>
      </trkpt>
      <trkpt lat="43.54981" lon="5.51694">
        <ele>402.79998779297</ele>
        <time>2013-02-23T09:33:59.000Z</time>
      </trkpt>
      <trkpt lat="43.54986" lon="5.51693">
        <ele>403.39999389648</ele>
        <time>2013-02-23T09:34:00.000Z</time>
      </trkpt>
      <trkpt lat="43.5499" lon="5.51693">
        <ele>404</ele>
        <time>2013-02-23T09:34:01.000Z</time>
      </trkpt>
      <trkpt lat="43.55" lon="5.51694">
        <ele>405.20001220703</ele>
        <time>2013-02-23T09:34:03.000Z</time>
      </trkpt>
      <trkpt lat="43.55005" lon="5.51694">
        <ele>405.60000610352</ele>
        <time>2013-02-23T09:34:04.000Z</time>
      </trkpt>
      <trkpt lat="43.55009" lon="5.51691">
        <ele>405.79998779297</ele>
        <time>2013-02-23T09:34:05.000Z</time>
      </trkpt>
      <trkpt lat="43.55013" lon="5.51687">
        <ele>405.79998779297</ele>
        <time>2013-02-23T09:34:06.000Z</time>
      </trkpt>
      <trkpt lat="43.55014" lon="5.51681">
        <ele>405.79998779297</ele>
        <time>2013-02-23T09:34:07.000Z</time>
      </trkpt>
      <trkpt lat="43.55016" lon="5.51673">
        <ele>405.60000610352</ele>
        <time>2013-02-23T09:34:08.000Z</time>
      </trkpt>
      <trkpt lat="43.55018" lon="5.51665">
        <ele>405.39999389648</ele>
        <time>2013-02-23T09:34:09.000Z</time>
      </trkpt>
      <trkpt lat="43.55021" lon="5.51658">
        <ele>405</ele>
        <time>2013-02-23T09:34:10.000Z</time>
      </trkpt>
      <trkpt lat="43.55025" lon="5.5165">
        <ele>404.60000610352</ele>
        <time>2013-02-23T09:34:11.000Z</time>
      </trkpt>
      <trkpt lat="43.55027" lon="5.51641">
        <ele>404.20001220703</ele>
        <time>2013-02-23T09:34:12.000Z</time>
      </trkpt>
      <trkpt lat="43.55028" lon="5.51631">
        <ele>403.39999389648</ele>
        <time>2013-02-23T09:34:13.000Z</time>
      </trkpt>
      <trkpt lat="43.55028" lon="5.51622">
        <ele>402.60000610352</ele>
        <time>2013-02-23T09:34:14.000Z</time>
      </trkpt>
      <trkpt lat="43.55028" lon="5.51612">
        <ele>402</ele>
        <time>2013-02-23T09:34:15.000Z</time>
      </trkpt>
      <trkpt lat="43.5503" lon="5.51604">
        <ele>401.39999389648</ele>
        <time>2013-02-23T09:34:16.000Z</time>
      </trkpt>
      <trkpt lat="43.55032" lon="5.51596">
        <ele>401</ele>
        <time>2013-02-23T09:34:17.000Z</time>
      </trkpt>
      <trkpt lat="43.55036" lon="5.51589">
        <ele>400.79998779297</ele>
        <time>2013-02-23T09:34:18.000Z</time>
      </trkpt>
      <trkpt lat="43.55039" lon="5.51584">
        <ele>400.79998779297</ele>
        <time>2013-02-23T09:34:19.000Z</time>
      </trkpt>
      <trkpt lat="43.55043" lon="5.51579">
        <ele>400.79998779297</ele>
        <time>2013-02-23T09:34:20.000Z</time>
      </trkpt>
      <trkpt lat="43.55047" lon="5.51574">
        <ele>400.79998779297</ele>
        <time>2013-02-23T09:34:21.000Z</time>
      </trkpt>
      <trkpt lat="43.55051" lon="5.51568">
        <ele>400.79998779297</ele>
        <time>2013-02-23T09:34:22.000Z</time>
      </trkpt>
      <trkpt lat="43.55053" lon="5.51562">
        <ele>400.39999389648</ele>
        <time>2013-02-23T09:34:23.000Z</time>
      </trkpt>
      <trkpt lat="43.55054" lon="5.51556">
        <ele>400</ele>
        <time>2013-02-23T09:34:24.000Z</time>
      </trkpt>
      <trkpt lat="43.55053" lon="5.51549">
        <ele>399.60000610352</ele>
        <time>2013-02-23T09:34:25.000Z</time>
      </trkpt>
      <trkpt lat="43.55052" lon="5.51543">
        <ele>399</ele>
        <time>2013-02-23T09:34:26.000Z</time>
      </trkpt>
      <trkpt lat="43.5505" lon="5.51538">
        <ele>398.60000610352</ele>
        <time>2013-02-23T09:34:27.000Z</time>
      </trkpt>
      <trkpt lat="43.55032" lon="5.51488">
        <ele>396.39999389648</ele>
        <time>2013-02-23T09:34:35.000Z</time>
      </trkpt>
      <trkpt lat="43.55029" lon="5.51484">
        <ele>396.60000610352</ele>
        <time>2013-02-23T09:34:36.000Z</time>
      </trkpt>
      <trkpt lat="43.55025" lon="5.51482">
        <ele>396.79998779297</ele>
        <time>2013-02-23T09:34:37.000Z</time>
      </trkpt>
      <trkpt lat="43.55021" lon="5.51481">
        <ele>396.79998779297</ele>
        <time>2013-02-23T09:34:38.000Z</time>
      </trkpt>
      <trkpt lat="43.55016" lon="5.51482">
        <ele>396.79998779297</ele>
        <time>2013-02-23T09:34:39.000Z</time>
      </trkpt>
      <trkpt lat="43.55011" lon="5.51483">
        <ele>396.60000610352</ele>
        <time>2013-02-23T09:34:40.000Z</time>
      </trkpt>
      <trkpt lat="43.55006" lon="5.51485">
        <ele>396.60000610352</ele>
        <time>2013-02-23T09:34:41.000Z</time>
      </trkpt>
      <trkpt lat="43.55" lon="5.51486">
        <ele>396.60000610352</ele>
        <time>2013-02-23T09:34:42.000Z</time>
      </trkpt>
      <trkpt lat="43.54995" lon="5.51486">
        <ele>396.60000610352</ele>
        <time>2013-02-23T09:34:43.000Z</time>
      </trkpt>
      <trkpt lat="43.54989" lon="5.51487">
        <ele>396.39999389648</ele>
        <time>2013-02-23T09:34:44.000Z</time>
      </trkpt>
      <trkpt lat="43.5493" lon="5.51498">
        <ele>395.20001220703</ele>
        <time>2013-02-23T09:34:55.000Z</time>
      </trkpt>
      <trkpt lat="43.54924" lon="5.51498">
        <ele>395.20001220703</ele>
        <time>2013-02-23T09:34:56.000Z</time>
      </trkpt>
      <trkpt lat="43.5488" lon="5.51484">
        <ele>395</ele>
        <time>2013-02-23T09:35:04.000Z</time>
      </trkpt>
      <trkpt lat="43.54876" lon="5.5148">
        <ele>395.20001220703</ele>
        <time>2013-02-23T09:35:05.000Z</time>
      </trkpt>
      <trkpt lat="43.54871" lon="5.51476">
        <ele>395.20001220703</ele>
        <time>2013-02-23T09:35:06.000Z</time>
      </trkpt>
      <trkpt lat="43.54863" lon="5.51467">
        <ele>395.60000610352</ele>
        <time>2013-02-23T09:35:08.000Z</time>
      </trkpt>
      <trkpt lat="43.5486" lon="5.51462">
        <ele>395.79998779297</ele>
        <time>2013-02-23T09:35:09.000Z</time>
      </trkpt>
      <trkpt lat="43.54857" lon="5.51455">
        <ele>396.20001220703</ele>
        <time>2013-02-23T09:35:10.000Z</time>
      </trkpt>
      <trkpt lat="43.54857" lon="5.51448">
        <ele>396.60000610352</ele>
        <time>2013-02-23T09:35:11.000Z</time>
      </trkpt>
      <trkpt lat="43.54857" lon="5.5144">
        <ele>397</ele>
        <time>2013-02-23T09:35:12.000Z</time>
      </trkpt>
      <trkpt lat="43.54861" lon="5.51373">
        <ele>400.79998779297</ele>
        <time>2013-02-23T09:35:23.000Z</time>
      </trkpt>
      <trkpt lat="43.54862" lon="5.51367">
        <ele>401.20001220703</ele>
        <time>2013-02-23T09:35:24.000Z</time>
      </trkpt>
      <trkpt lat="43.54862" lon="5.51361">
        <ele>401.60000610352</ele>
        <time>2013-02-23T09:35:25.000Z</time>
      </trkpt>
      <trkpt lat="43.54863" lon="5.51355">
        <ele>401.79998779297</ele>
        <time>2013-02-23T09:35:26.000Z</time>
      </trkpt>
      <trkpt lat="43.54863" lon="5.51349">
        <ele>402.20001220703</ele>
        <time>2013-02-23T09:35:27.000Z</time>
      </trkpt>
      <trkpt lat="43.54863" lon="5.51343">
        <ele>402.39999389648</ele>
        <time>2013-02-23T09:35:28.000Z</time>
      </trkpt>
      <trkpt lat="43.54862" lon="5.51338">
        <ele>402.60000610352</ele>
        <time>2013-02-23T09:35:29.000Z</time>
      </trkpt>
      <trkpt lat="43.5486" lon="5.51334">
        <ele>402.79998779297</ele>
        <time>2013-02-23T09:35:30.000Z</time>
      </trkpt>
      <trkpt lat="43.54857" lon="5.51331">
        <ele>402.79998779297</ele>
        <time>2013-02-23T09:35:31.000Z</time>
      </trkpt>
      <trkpt lat="43.54853" lon="5.51328">
        <ele>402.60000610352</ele>
        <time>2013-02-23T09:35:32.000Z</time>
      </trkpt>
      <trkpt lat="43.54849" lon="5.51326">
        <ele>402.39999389648</ele>
        <time>2013-02-23T09:35:33.000Z</time>
      </trkpt>
      <trkpt lat="43.54845" lon="5.51322">
        <ele>402</ele>
        <time>2013-02-23T09:35:34.000Z</time>
      </trkpt>
      <trkpt lat="43.54842" lon="5.51318">
        <ele>401.79998779297</ele>
        <time>2013-02-23T09:35:35.000Z</time>
      </trkpt>
      <trkpt lat="43.5484" lon="5.51311">
        <ele>401.39999389648</ele>
        <time>2013-02-23T09:35:36.000Z</time>
      </trkpt>
      <trkpt lat="43.5484" lon="5.51305">
        <ele>401.20001220703</ele>
        <time>2013-02-23T09:35:37.000Z</time>
      </trkpt>
      <trkpt lat="43.5484" lon="5.51298">
        <ele>401.20001220703</ele>
        <time>2013-02-23T09:35:38.000Z</time>
      </trkpt>
      <trkpt lat="43.54841" lon="5.51292">
        <ele>401</ele>
        <time>2013-02-23T09:35:39.000Z</time>
      </trkpt>
      <trkpt lat="43.54841" lon="5.51285">
        <ele>400.79998779297</ele>
        <time>2013-02-23T09:35:40.000Z</time>
      </trkpt>
      <trkpt lat="43.5484" lon="5.51279">
        <ele>400.60000610352</ele>
        <time>2013-02-23T09:35:41.000Z</time>
      </trkpt>
      <trkpt lat="43.5484" lon="5.51273">
        <ele>400.39999389648</ele>
        <time>2013-02-23T09:35:42.000Z</time>
      </trkpt>
      <trkpt lat="43.54838" lon="5.51268">
        <ele>400</ele>
        <time>2013-02-23T09:35:43.000Z</time>
      </trkpt>
      <trkpt lat="43.54837" lon="5.51262">
        <ele>399.79998779297</ele>
        <time>2013-02-23T09:35:44.000Z</time>
      </trkpt>
      <trkpt lat="43.54835" lon="5.51257">
        <ele>399.39999389648</ele>
        <time>2013-02-23T09:35:45.000Z</time>
      </trkpt>
      <trkpt lat="43.54833" lon="5.51252">
        <ele>399</ele>
        <time>2013-02-23T09:35:46.000Z</time>
      </trkpt>
      <trkpt lat="43.54814" lon="5.51206">
        <ele>397.39999389648</ele>
        <time>2013-02-23T09:35:54.000Z</time>
      </trkpt>
      <trkpt lat="43.5481" lon="5.51196">
        <ele>397</ele>
        <time>2013-02-23T09:35:56.000Z</time>
      </trkpt>
      <trkpt lat="43.54806" lon="5.51191">
        <ele>396.79998779297</ele>
        <time>2013-02-23T09:35:57.000Z</time>
      </trkpt>
      <trkpt lat="43.54802" lon="5.51188">
        <ele>396.60000610352</ele>
        <time>2013-02-23T09:35:58.000Z</time>
      </trkpt>
      <trkpt lat="43.54797" lon="5.51187">
        <ele>396.39999389648</ele>
        <time>2013-02-23T09:35:59.000Z</time>
      </trkpt>
      <trkpt lat="43.54792" lon="5.51188">
        <ele>396</ele>
        <time>2013-02-23T09:36:00.000Z</time>
      </trkpt>
      <trkpt lat="43.54787" lon="5.5119">
        <ele>395.79998779297</ele>
        <time>2013-02-23T09:36:01.000Z</time>
      </trkpt>
      <trkpt lat="43.54782" lon="5.51192">
        <ele>395.60000610352</ele>
        <time>2013-02-23T09:36:02.000Z</time>
      </trkpt>
      <trkpt lat="43.54764" lon="5.51202">
        <ele>394.60000610352</ele>
        <time>2013-02-23T09:36:05.000Z</time>
      </trkpt>
      <trkpt lat="43.54758" lon="5.51204">
        <ele>394.39999389648</ele>
        <time>2013-02-23T09:36:06.000Z</time>
      </trkpt>
      <trkpt lat="43.54751" lon="5.51205">
        <ele>394</ele>
        <time>2013-02-23T09:36:07.000Z</time>
      </trkpt>
      <trkpt lat="43.54717" lon="5.51206">
        <ele>392</ele>
        <time>2013-02-23T09:36:12.000Z</time>
      </trkpt>
      <trkpt lat="43.54711" lon="5.51206">
        <ele>391.60000610352</ele>
        <time>2013-02-23T09:36:13.000Z</time>
      </trkpt>
      <trkpt lat="43.54651" lon="5.5122">
        <ele>388</ele>
        <time>2013-02-23T09:36:22.000Z</time>
      </trkpt>
      <trkpt lat="43.54588" lon="5.51242">
        <ele>385</ele>
        <time>2013-02-23T09:36:31.000Z</time>
      </trkpt>
      <trkpt lat="43.54582" lon="5.51245">
        <ele>384.60000610352</ele>
        <time>2013-02-23T09:36:32.000Z</time>
      </trkpt>
      <trkpt lat="43.54563" lon="5.51254">
        <ele>382.39999389648</ele>
        <time>2013-02-23T09:36:35.000Z</time>
      </trkpt>
      <trkpt lat="43.54558" lon="5.5126">
        <ele>381.60000610352</ele>
        <time>2013-02-23T09:36:36.000Z</time>
      </trkpt>
      <trkpt lat="43.54554" lon="5.51267">
        <ele>381</ele>
        <time>2013-02-23T09:36:37.000Z</time>
      </trkpt>
      <trkpt lat="43.54553" lon="5.51277">
        <ele>380.79998779297</ele>
        <time>2013-02-23T09:36:38.000Z</time>
      </trkpt>
      <trkpt lat="43.54553" lon="5.51286">
        <ele>380.60000610352</ele>
        <time>2013-02-23T09:36:39.000Z</time>
      </trkpt>
      <trkpt lat="43.54551" lon="5.51364">
        <ele>378.20001220703</ele>
        <time>2013-02-23T09:36:47.000Z</time>
      </trkpt>
      <trkpt lat="43.54551" lon="5.51373">
        <ele>377.79998779297</ele>
        <time>2013-02-23T09:36:48.000Z</time>
      </trkpt>
      <trkpt lat="43.54549" lon="5.51386">
        <ele>377.20001220703</ele>
        <time>2013-02-23T09:36:50.000Z</time>
      </trkpt>
      <trkpt lat="43.54547" lon="5.5139">
        <ele>376.79998779297</ele>
        <time>2013-02-23T09:36:51.000Z</time>
      </trkpt>
      <trkpt lat="43.54543" lon="5.51393">
        <ele>376.39999389648</ele>
        <time>2013-02-23T09:36:52.000Z</time>
      </trkpt>
      <trkpt lat="43.54538" lon="5.51394">
        <ele>376</ele>
        <time>2013-02-23T09:36:53.000Z</time>
      </trkpt>
      <trkpt lat="43.54533" lon="5.51393">
        <ele>375.60000610352</ele>
        <time>2013-02-23T09:36:54.000Z</time>
      </trkpt>
      <trkpt lat="43.54529" lon="5.5139">
        <ele>375.39999389648</ele>
        <time>2013-02-23T09:36:55.000Z</time>
      </trkpt>
      <trkpt lat="43.54525" lon="5.51385">
        <ele>375.20001220703</ele>
        <time>2013-02-23T09:36:56.000Z</time>
      </trkpt>
      <trkpt lat="43.54522" lon="5.51378">
        <ele>375.20001220703</ele>
        <time>2013-02-23T09:36:57.000Z</time>
      </trkpt>
      <trkpt lat="43.54493" lon="5.51318">
        <ele>374</ele>
        <time>2013-02-23T09:37:05.000Z</time>
      </trkpt>
      <trkpt lat="43.54467" lon="5.51269">
        <ele>373.39999389648</ele>
        <time>2013-02-23T09:37:11.000Z</time>
      </trkpt>
      <trkpt lat="43.5443" lon="5.51206">
        <ele>372.79998779297</ele>
        <time>2013-02-23T09:37:19.000Z</time>
      </trkpt>
      <trkpt lat="43.54408" lon="5.51164">
        <ele>373.39999389648</ele>
        <time>2013-02-23T09:37:25.000Z</time>
      </trkpt>
      <trkpt lat="43.54405" lon="5.51158">
        <ele>373.39999389648</ele>
        <time>2013-02-23T09:37:26.000Z</time>
      </trkpt>
      <trkpt lat="43.54399" lon="5.51148">
        <ele>373.20001220703</ele>
        <time>2013-02-23T09:37:28.000Z</time>
      </trkpt>
      <trkpt lat="43.54395" lon="5.51145">
        <ele>373</ele>
        <time>2013-02-23T09:37:29.000Z</time>
      </trkpt>
      <trkpt lat="43.54392" lon="5.51146">
        <ele>372.60000610352</ele>
        <time>2013-02-23T09:37:30.000Z</time>
      </trkpt>
      <trkpt lat="43.54389" lon="5.51149">
        <ele>372.39999389648</ele>
        <time>2013-02-23T09:37:31.000Z</time>
      </trkpt>
      <trkpt lat="43.54386" lon="5.51153">
        <ele>372.20001220703</ele>
        <time>2013-02-23T09:37:32.000Z</time>
      </trkpt>
      <trkpt lat="43.54385" lon="5.51158">
        <ele>372</ele>
        <time>2013-02-23T09:37:33.000Z</time>
      </trkpt>
      <trkpt lat="43.54362" lon="5.51178">
        <ele>370.79998779297</ele>
        <time>2013-02-23T09:37:41.000Z</time>
      </trkpt>
      <trkpt lat="43.54347" lon="5.51171">
        <ele>370</ele>
        <time>2013-02-23T09:37:45.000Z</time>
      </trkpt>
      <trkpt lat="43.54333" lon="5.51165">
        <ele>368.79998779297</ele>
        <time>2013-02-23T09:37:48.000Z</time>
      </trkpt>
      <trkpt lat="43.54308" lon="5.51161">
        <ele>370.20001220703</ele>
        <time>2013-02-23T09:37:53.000Z</time>
      </trkpt>
      <trkpt lat="43.54277" lon="5.51156">
        <ele>371.79998779297</ele>
        <time>2013-02-23T09:38:00.000Z</time>
      </trkpt>
      <trkpt lat="43.54275" lon="5.51152">
        <ele>371.79998779297</ele>
        <time>2013-02-23T09:38:01.000Z</time>
      </trkpt>
      <trkpt lat="43.54273" lon="5.51147">
        <ele>371.79998779297</ele>
        <time>2013-02-23T09:38:02.000Z</time>
      </trkpt>
      <trkpt lat="43.54272" lon="5.51142">
        <ele>371.60000610352</ele>
        <time>2013-02-23T09:38:03.000Z</time>
      </trkpt>
      <trkpt lat="43.54271" lon="5.51137">
        <ele>371.60000610352</ele>
        <time>2013-02-23T09:38:04.000Z</time>
      </trkpt>
      <trkpt lat="43.54263" lon="5.51104">
        <ele>370.79998779297</ele>
        <time>2013-02-23T09:38:12.000Z</time>
      </trkpt>
      <trkpt lat="43.54245" lon="5.51082">
        <ele>371</ele>
        <time>2013-02-23T09:38:21.000Z</time>
      </trkpt>
      <trkpt lat="43.54244" lon="5.51079">
        <ele>370.79998779297</ele>
        <time>2013-02-23T09:38:22.000Z</time>
      </trkpt>
      <trkpt lat="43.54242" lon="5.51075">
        <ele>370.60000610352</ele>
        <time>2013-02-23T09:38:23.000Z</time>
      </trkpt>
      <trkpt lat="43.5424" lon="5.51071">
        <ele>370.39999389648</ele>
        <time>2013-02-23T09:38:24.000Z</time>
      </trkpt>
      <trkpt lat="43.54236" lon="5.51066">
        <ele>370.20001220703</ele>
        <time>2013-02-23T09:38:25.000Z</time>
      </trkpt>
      <trkpt lat="43.5423" lon="5.51058">
        <ele>369.79998779297</ele>
        <time>2013-02-23T09:38:27.000Z</time>
      </trkpt>
      <trkpt lat="43.54227" lon="5.51053">
        <ele>369.60000610352</ele>
        <time>2013-02-23T09:38:28.000Z</time>
      </trkpt>
      <trkpt lat="43.5422" lon="5.51043">
        <ele>369.39999389648</ele>
        <time>2013-02-23T09:38:30.000Z</time>
      </trkpt>
      <trkpt lat="43.54216" lon="5.51038">
        <ele>369.20001220703</ele>
        <time>2013-02-23T09:38:31.000Z</time>
      </trkpt>
      <trkpt lat="43.54191" lon="5.50998">
        <ele>368.79998779297</ele>
        <time>2013-02-23T09:38:38.000Z</time>
      </trkpt>
      <trkpt lat="43.54188" lon="5.50992">
        <ele>368.79998779297</ele>
        <time>2013-02-23T09:38:39.000Z</time>
      </trkpt>
      <trkpt lat="43.54161" lon="5.50926">
        <ele>371.20001220703</ele>
        <time>2013-02-23T09:38:50.000Z</time>
      </trkpt>
      <trkpt lat="43.54158" lon="5.50921">
        <ele>371.20001220703</ele>
        <time>2013-02-23T09:38:51.000Z</time>
      </trkpt>
      <trkpt lat="43.54154" lon="5.50917">
        <ele>371</ele>
        <time>2013-02-23T09:38:52.000Z</time>
      </trkpt>
      <trkpt lat="43.54149" lon="5.50914">
        <ele>370.60000610352</ele>
        <time>2013-02-23T09:38:53.000Z</time>
      </trkpt>
      <trkpt lat="43.54144" lon="5.50911">
        <ele>370.20001220703</ele>
        <time>2013-02-23T09:38:54.000Z</time>
      </trkpt>
      <trkpt lat="43.54139" lon="5.50909">
        <ele>370</ele>
        <time>2013-02-23T09:38:55.000Z</time>
      </trkpt>
      <trkpt lat="43.5413" lon="5.50903">
        <ele>369.20001220703</ele>
        <time>2013-02-23T09:38:57.000Z</time>
      </trkpt>
      <trkpt lat="43.54125" lon="5.50899">
        <ele>369</ele>
        <time>2013-02-23T09:38:58.000Z</time>
      </trkpt>
      <trkpt lat="43.54122" lon="5.50894">
        <ele>368.79998779297</ele>
        <time>2013-02-23T09:38:59.000Z</time>
      </trkpt>
      <trkpt lat="43.54119" lon="5.50888">
        <ele>368.60000610352</ele>
        <time>2013-02-23T09:39:00.000Z</time>
      </trkpt>
      <trkpt lat="43.54116" lon="5.50881">
        <ele>368.60000610352</ele>
        <time>2013-02-23T09:39:01.000Z</time>
      </trkpt>
      <trkpt lat="43.54114" lon="5.50874">
        <ele>368.60000610352</ele>
        <time>2013-02-23T09:39:02.000Z</time>
      </trkpt>
      <trkpt lat="43.54113" lon="5.50867">
        <ele>368.60000610352</ele>
        <time>2013-02-23T09:39:03.000Z</time>
      </trkpt>
      <trkpt lat="43.54111" lon="5.5086">
        <ele>368.60000610352</ele>
        <time>2013-02-23T09:39:04.000Z</time>
      </trkpt>
      <trkpt lat="43.54102" lon="5.50842">
        <ele>368.39999389648</ele>
        <time>2013-02-23T09:39:07.000Z</time>
      </trkpt>
      <trkpt lat="43.54098" lon="5.50837">
        <ele>368.39999389648</ele>
        <time>2013-02-23T09:39:08.000Z</time>
      </trkpt>
      <trkpt lat="43.54093" lon="5.50832">
        <ele>368.20001220703</ele>
        <time>2013-02-23T09:39:09.000Z</time>
      </trkpt>
      <trkpt lat="43.54064" lon="5.50805">
        <ele>367</ele>
        <time>2013-02-23T09:39:15.000Z</time>
      </trkpt>
      <trkpt lat="43.54048" lon="5.50788">
        <ele>366.39999389648</ele>
        <time>2013-02-23T09:39:19.000Z</time>
      </trkpt>
      <trkpt lat="43.54038" lon="5.50781">
        <ele>366.20001220703</ele>
        <time>2013-02-23T09:39:21.000Z</time>
      </trkpt>
      <trkpt lat="43.54003" lon="5.5076">
        <ele>365.60000610352</ele>
        <time>2013-02-23T09:39:28.000Z</time>
      </trkpt>
      <trkpt lat="43.53997" lon="5.50758">
        <ele>365.39999389648</ele>
        <time>2013-02-23T09:39:29.000Z</time>
      </trkpt>
      <trkpt lat="43.53979" lon="5.50756">
        <ele>364.39999389648</ele>
        <time>2013-02-23T09:39:32.000Z</time>
      </trkpt>
      <trkpt lat="43.53973" lon="5.50758">
        <ele>364</ele>
        <time>2013-02-23T09:39:33.000Z</time>
      </trkpt>
      <trkpt lat="43.53967" lon="5.50761">
        <ele>363.60000610352</ele>
        <time>2013-02-23T09:39:34.000Z</time>
      </trkpt>
      <trkpt lat="43.53961" lon="5.50764">
        <ele>363.20001220703</ele>
        <time>2013-02-23T09:39:35.000Z</time>
      </trkpt>
      <trkpt lat="43.53955" lon="5.50768">
        <ele>363</ele>
        <time>2013-02-23T09:39:36.000Z</time>
      </trkpt>
      <trkpt lat="43.53949" lon="5.50773">
        <ele>362.60000610352</ele>
        <time>2013-02-23T09:39:37.000Z</time>
      </trkpt>
      <trkpt lat="43.53944" lon="5.50778">
        <ele>362.20001220703</ele>
        <time>2013-02-23T09:39:38.000Z</time>
      </trkpt>
      <trkpt lat="43.53899" lon="5.50839">
        <ele>358.79998779297</ele>
        <time>2013-02-23T09:39:47.000Z</time>
      </trkpt>
      <trkpt lat="43.53894" lon="5.50845">
        <ele>358.20001220703</ele>
        <time>2013-02-23T09:39:48.000Z</time>
      </trkpt>
      <trkpt lat="43.53889" lon="5.5085">
        <ele>357.39999389648</ele>
        <time>2013-02-23T09:39:49.000Z</time>
      </trkpt>
      <trkpt lat="43.53883" lon="5.50854">
        <ele>356.79998779297</ele>
        <time>2013-02-23T09:39:50.000Z</time>
      </trkpt>
      <trkpt lat="43.53876" lon="5.50858">
        <ele>356</ele>
        <time>2013-02-23T09:39:51.000Z</time>
      </trkpt>
      <trkpt lat="43.5387" lon="5.50861">
        <ele>355.39999389648</ele>
        <time>2013-02-23T09:39:52.000Z</time>
      </trkpt>
      <trkpt lat="43.53863" lon="5.50864">
        <ele>354.79998779297</ele>
        <time>2013-02-23T09:39:53.000Z</time>
      </trkpt>
      <trkpt lat="43.5385" lon="5.5087">
        <ele>353.60000610352</ele>
        <time>2013-02-23T09:39:55.000Z</time>
      </trkpt>
      <trkpt lat="43.53842" lon="5.50871">
        <ele>353</ele>
        <time>2013-02-23T09:39:56.000Z</time>
      </trkpt>
      <trkpt lat="43.53835" lon="5.50872">
        <ele>352.39999389648</ele>
        <time>2013-02-23T09:39:57.000Z</time>
      </trkpt>
      <trkpt lat="43.53827" lon="5.50871">
        <ele>351.60000610352</ele>
        <time>2013-02-23T09:39:58.000Z</time>
      </trkpt>
      <trkpt lat="43.53819" lon="5.50868">
        <ele>350.60000610352</ele>
        <time>2013-02-23T09:39:59.000Z</time>
      </trkpt>
      <trkpt lat="43.53811" lon="5.50864">
        <ele>349.60000610352</ele>
        <time>2013-02-23T09:40:00.000Z</time>
      </trkpt>
      <trkpt lat="43.53803" lon="5.50859">
        <ele>348.79998779297</ele>
        <time>2013-02-23T09:40:01.000Z</time>
      </trkpt>
      <trkpt lat="43.53796" lon="5.50855">
        <ele>347.79998779297</ele>
        <time>2013-02-23T09:40:02.000Z</time>
      </trkpt>
      <trkpt lat="43.53773" lon="5.50842">
        <ele>345.39999389648</ele>
        <time>2013-02-23T09:40:05.000Z</time>
      </trkpt>
      <trkpt lat="43.53765" lon="5.5084">
        <ele>344.39999389648</ele>
        <time>2013-02-23T09:40:06.000Z</time>
      </trkpt>
      <trkpt lat="43.53756" lon="5.5084">
        <ele>343.60000610352</ele>
        <time>2013-02-23T09:40:07.000Z</time>
      </trkpt>
      <trkpt lat="43.53742" lon="5.5084">
        <ele>342.20001220703</ele>
        <time>2013-02-23T09:40:09.000Z</time>
      </trkpt>
      <trkpt lat="43.53736" lon="5.50838">
        <ele>341.60000610352</ele>
        <time>2013-02-23T09:40:10.000Z</time>
      </trkpt>
      <trkpt lat="43.5373" lon="5.50834">
        <ele>341.20001220703</ele>
        <time>2013-02-23T09:40:11.000Z</time>
      </trkpt>
      <trkpt lat="43.53726" lon="5.50827">
        <ele>341</ele>
        <time>2013-02-23T09:40:12.000Z</time>
      </trkpt>
      <trkpt lat="43.53721" lon="5.5082">
        <ele>340.60000610352</ele>
        <time>2013-02-23T09:40:13.000Z</time>
      </trkpt>
      <trkpt lat="43.53712" lon="5.50805">
        <ele>340.20001220703</ele>
        <time>2013-02-23T09:40:15.000Z</time>
      </trkpt>
      <trkpt lat="43.5368" lon="5.50759">
        <ele>338.60000610352</ele>
        <time>2013-02-23T09:40:22.000Z</time>
      </trkpt>
      <trkpt lat="43.53676" lon="5.50754">
        <ele>338.39999389648</ele>
        <time>2013-02-23T09:40:23.000Z</time>
      </trkpt>
      <trkpt lat="43.53657" lon="5.50733">
        <ele>337.20001220703</ele>
        <time>2013-02-23T09:40:28.000Z</time>
      </trkpt>
      <trkpt lat="43.53638" lon="5.50703">
        <ele>336.39999389648</ele>
        <time>2013-02-23T09:40:34.000Z</time>
      </trkpt>
      <trkpt lat="43.53626" lon="5.50686">
        <ele>335.79998779297</ele>
        <time>2013-02-23T09:40:38.000Z</time>
      </trkpt>
      <trkpt lat="43.53623" lon="5.50681">
        <ele>335.60000610352</ele>
        <time>2013-02-23T09:40:39.000Z</time>
      </trkpt>
      <trkpt lat="43.53621" lon="5.50675">
        <ele>335.79998779297</ele>
        <time>2013-02-23T09:40:40.000Z</time>
      </trkpt>
      <trkpt lat="43.5362" lon="5.50669">
        <ele>336</ele>
        <time>2013-02-23T09:40:41.000Z</time>
      </trkpt>
      <trkpt lat="43.5362" lon="5.50662">
        <ele>336.39999389648</ele>
        <time>2013-02-23T09:40:42.000Z</time>
      </trkpt>
      <trkpt lat="43.5362" lon="5.50656">
        <ele>337</ele>
        <time>2013-02-23T09:40:43.000Z</time>
      </trkpt>
      <trkpt lat="43.53621" lon="5.50651">
        <ele>337.60000610352</ele>
        <time>2013-02-23T09:40:44.000Z</time>
      </trkpt>
      <trkpt lat="43.53622" lon="5.50634">
        <ele>339</ele>
        <time>2013-02-23T09:40:47.000Z</time>
      </trkpt>
      <trkpt lat="43.53622" lon="5.50629">
        <ele>339.39999389648</ele>
        <time>2013-02-23T09:40:48.000Z</time>
      </trkpt>
      <trkpt lat="43.53617" lon="5.50576">
        <ele>343</ele>
        <time>2013-02-23T09:40:58.000Z</time>
      </trkpt>
      <trkpt lat="43.53618" lon="5.50564">
        <ele>344</ele>
        <time>2013-02-23T09:41:04.000Z</time>
      </trkpt>
      <trkpt lat="43.5362" lon="5.50561">
        <ele>344.39999389648</ele>
        <time>2013-02-23T09:41:05.000Z</time>
      </trkpt>
      <trkpt lat="43.5363" lon="5.50558">
        <ele>345.60000610352</ele>
        <time>2013-02-23T09:41:09.000Z</time>
      </trkpt>
      <trkpt lat="43.5365" lon="5.5056">
        <ele>347.39999389648</ele>
        <time>2013-02-23T09:41:17.000Z</time>
      </trkpt>
      <trkpt lat="43.53669" lon="5.50548">
        <ele>349.60000610352</ele>
        <time>2013-02-23T09:41:25.000Z</time>
      </trkpt>
      <trkpt lat="43.53687" lon="5.50526">
        <ele>351.20001220703</ele>
        <time>2013-02-23T09:41:33.000Z</time>
      </trkpt>
      <trkpt lat="43.53707" lon="5.50509">
        <ele>352.79998779297</ele>
        <time>2013-02-23T09:41:41.000Z</time>
      </trkpt>
      <trkpt lat="43.53727" lon="5.50495">
        <ele>354.39999389648</ele>
        <time>2013-02-23T09:41:49.000Z</time>
      </trkpt>
      <trkpt lat="43.53736" lon="5.50497">
        <ele>354.60000610352</ele>
        <time>2013-02-23T09:41:52.000Z</time>
      </trkpt>
      <trkpt lat="43.53738" lon="5.50496">
        <ele>354.79998779297</ele>
        <time>2013-02-23T09:41:53.000Z</time>
      </trkpt>
      <trkpt lat="43.53741" lon="5.50494">
        <ele>355</ele>
        <time>2013-02-23T09:41:54.000Z</time>
      </trkpt>
      <trkpt lat="43.53745" lon="5.50492">
        <ele>355.20001220703</ele>
        <time>2013-02-23T09:41:55.000Z</time>
      </trkpt>
      <trkpt lat="43.53748" lon="5.5049">
        <ele>355.39999389648</ele>
        <time>2013-02-23T09:41:56.000Z</time>
      </trkpt>
      <trkpt lat="43.53776" lon="5.50482">
        <ele>356.39999389648</ele>
        <time>2013-02-23T09:42:04.000Z</time>
      </trkpt>
      <trkpt lat="43.53793" lon="5.50479">
        <ele>356.60000610352</ele>
        <time>2013-02-23T09:42:09.000Z</time>
      </trkpt>
      <trkpt lat="43.53802" lon="5.50473">
        <ele>357</ele>
        <time>2013-02-23T09:42:12.000Z</time>
      </trkpt>
      <trkpt lat="43.53806" lon="5.50472">
        <ele>357</ele>
        <time>2013-02-23T09:42:13.000Z</time>
      </trkpt>
      <trkpt lat="43.53809" lon="5.5047">
        <ele>357.20001220703</ele>
        <time>2013-02-23T09:42:14.000Z</time>
      </trkpt>
      <trkpt lat="43.53813" lon="5.50468">
        <ele>357.20001220703</ele>
        <time>2013-02-23T09:42:15.000Z</time>
      </trkpt>
      <trkpt lat="43.53816" lon="5.50466">
        <ele>357.20001220703</ele>
        <time>2013-02-23T09:42:16.000Z</time>
      </trkpt>
      <trkpt lat="43.53845" lon="5.50453">
        <ele>357.79998779297</ele>
        <time>2013-02-23T09:42:24.000Z</time>
      </trkpt>
      <trkpt lat="43.53847" lon="5.5045">
        <ele>357.79998779297</ele>
        <time>2013-02-23T09:42:25.000Z</time>
      </trkpt>
      <trkpt lat="43.53864" lon="5.50438">
        <ele>358.39999389648</ele>
        <time>2013-02-23T09:42:31.000Z</time>
      </trkpt>
      <trkpt lat="43.53866" lon="5.50439">
        <ele>358.39999389648</ele>
        <time>2013-02-23T09:42:32.000Z</time>
      </trkpt>
      <trkpt lat="43.53894" lon="5.50441">
        <ele>359</ele>
        <time>2013-02-23T09:42:43.000Z</time>
      </trkpt>
      <trkpt lat="43.53917" lon="5.50427">
        <ele>359.79998779297</ele>
        <time>2013-02-23T09:42:51.000Z</time>
      </trkpt>
      <trkpt lat="43.53934" lon="5.50406">
        <ele>360.39999389648</ele>
        <time>2013-02-23T09:42:58.000Z</time>
      </trkpt>
      <trkpt lat="43.53933" lon="5.50402">
        <ele>360.39999389648</ele>
        <time>2013-02-23T09:42:59.000Z</time>
      </trkpt>
      <trkpt lat="43.53933" lon="5.50399">
        <ele>360.39999389648</ele>
        <time>2013-02-23T09:43:00.000Z</time>
      </trkpt>
      <trkpt lat="43.53935" lon="5.50398">
        <ele>360.39999389648</ele>
        <time>2013-02-23T09:43:01.000Z</time>
      </trkpt>
      <trkpt lat="43.53936" lon="5.50397">
        <ele>360.39999389648</ele>
        <time>2013-02-23T09:43:02.000Z</time>
      </trkpt>
      <trkpt lat="43.53938" lon="5.50395">
        <ele>360.39999389648</ele>
        <time>2013-02-23T09:43:03.000Z</time>
      </trkpt>
      <trkpt lat="43.53956" lon="5.50378">
        <ele>360.39999389648</ele>
        <time>2013-02-23T09:43:09.000Z</time>
      </trkpt>
      <trkpt lat="43.53957" lon="5.50374">
        <ele>360.39999389648</ele>
        <time>2013-02-23T09:43:10.000Z</time>
      </trkpt>
      <trkpt lat="43.53957" lon="5.5037">
        <ele>360.39999389648</ele>
        <time>2013-02-23T09:43:11.000Z</time>
      </trkpt>
      <trkpt lat="43.53958" lon="5.50365">
        <ele>360.20001220703</ele>
        <time>2013-02-23T09:43:12.000Z</time>
      </trkpt>
      <trkpt lat="43.53959" lon="5.50361">
        <ele>360.20001220703</ele>
        <time>2013-02-23T09:43:13.000Z</time>
      </trkpt>
      <trkpt lat="43.5396" lon="5.50357">
        <ele>360.20001220703</ele>
        <time>2013-02-23T09:43:14.000Z</time>
      </trkpt>
      <trkpt lat="43.53967" lon="5.50347">
        <ele>360</ele>
        <time>2013-02-23T09:43:17.000Z</time>
      </trkpt>
      <trkpt lat="43.5397" lon="5.50345">
        <ele>359.79998779297</ele>
        <time>2013-02-23T09:43:18.000Z</time>
      </trkpt>
      <trkpt lat="43.53972" lon="5.50343">
        <ele>359.79998779297</ele>
        <time>2013-02-23T09:43:19.000Z</time>
      </trkpt>
      <trkpt lat="43.53975" lon="5.50341">
        <ele>359.60000610352</ele>
        <time>2013-02-23T09:43:20.000Z</time>
      </trkpt>
      <trkpt lat="43.53978" lon="5.50339">
        <ele>359.60000610352</ele>
        <time>2013-02-23T09:43:21.000Z</time>
      </trkpt>
      <trkpt lat="43.5398" lon="5.50338">
        <ele>359.39999389648</ele>
        <time>2013-02-23T09:43:22.000Z</time>
      </trkpt>
      <trkpt lat="43.53983" lon="5.50337">
        <ele>359.39999389648</ele>
        <time>2013-02-23T09:43:23.000Z</time>
      </trkpt>
      <trkpt lat="43.53985" lon="5.50336">
        <ele>359.39999389648</ele>
        <time>2013-02-23T09:43:24.000Z</time>
      </trkpt>
      <trkpt lat="43.54008" lon="5.50325">
        <ele>358.39999389648</ele>
        <time>2013-02-23T09:43:31.000Z</time>
      </trkpt>
      <trkpt lat="43.54019" lon="5.50325">
        <ele>357.79998779297</ele>
        <time>2013-02-23T09:43:35.000Z</time>
      </trkpt>
      <trkpt lat="43.54021" lon="5.50323">
        <ele>357.79998779297</ele>
        <time>2013-02-23T09:43:36.000Z</time>
      </trkpt>
      <trkpt lat="43.54023" lon="5.50323">
        <ele>357.60000610352</ele>
        <time>2013-02-23T09:43:37.000Z</time>
      </trkpt>
      <trkpt lat="43.54026" lon="5.50323">
        <ele>357.60000610352</ele>
        <time>2013-02-23T09:43:38.000Z</time>
      </trkpt>
      <trkpt lat="43.5403" lon="5.50323">
        <ele>357.39999389648</ele>
        <time>2013-02-23T09:43:39.000Z</time>
      </trkpt>
      <trkpt lat="43.54034" lon="5.50323">
        <ele>357.20001220703</ele>
        <time>2013-02-23T09:43:40.000Z</time>
      </trkpt>
      <trkpt lat="43.54037" lon="5.50321">
        <ele>357</ele>
        <time>2013-02-23T09:43:41.000Z</time>
      </trkpt>
      <trkpt lat="43.54039" lon="5.5032">
        <ele>356.79998779297</ele>
        <time>2013-02-23T09:43:42.000Z</time>
      </trkpt>
      <trkpt lat="43.54042" lon="5.50316">
        <ele>356.60000610352</ele>
        <time>2013-02-23T09:43:44.000Z</time>
      </trkpt>
      <trkpt lat="43.54042" lon="5.50314">
        <ele>356.39999389648</ele>
        <time>2013-02-23T09:43:45.000Z</time>
      </trkpt>
      <trkpt lat="43.54042" lon="5.50311">
        <ele>356.39999389648</ele>
        <time>2013-02-23T09:43:54.000Z</time>
      </trkpt>
      <trkpt lat="43.54042" lon="5.50313">
        <ele>356.39999389648</ele>
        <time>2013-02-23T09:44:08.000Z</time>
      </trkpt>
      <trkpt lat="43.54043" lon="5.50312">
        <ele>356.39999389648</ele>
        <time>2013-02-23T09:44:30.000Z</time>
      </trkpt>
      <trkpt lat="43.54041" lon="5.50309">
        <ele>356.20001220703</ele>
        <time>2013-02-23T09:44:38.000Z</time>
      </trkpt>
      <trkpt lat="43.5404" lon="5.50307">
        <ele>356.20001220703</ele>
        <time>2013-02-23T09:44:39.000Z</time>
      </trkpt>
      <trkpt lat="43.54038" lon="5.50305">
        <ele>356.20001220703</ele>
        <time>2013-02-23T09:44:40.000Z</time>
      </trkpt>
      <trkpt lat="43.54037" lon="5.50303">
        <ele>356.20001220703</ele>
        <time>2013-02-23T09:44:41.000Z</time>
      </trkpt>
      <trkpt lat="43.54036" lon="5.50299">
        <ele>356</ele>
        <time>2013-02-23T09:44:42.000Z</time>
      </trkpt>
      <trkpt lat="43.54034" lon="5.50295">
        <ele>356</ele>
        <time>2013-02-23T09:44:43.000Z</time>
      </trkpt>
      <trkpt lat="43.54033" lon="5.5029">
        <ele>355.79998779297</ele>
        <time>2013-02-23T09:44:44.000Z</time>
      </trkpt>
      <trkpt lat="43.54031" lon="5.50285">
        <ele>355.79998779297</ele>
        <time>2013-02-23T09:44:45.000Z</time>
      </trkpt>
      <trkpt lat="43.54028" lon="5.50281">
        <ele>355.79998779297</ele>
        <time>2013-02-23T09:44:46.000Z</time>
      </trkpt>
      <trkpt lat="43.54025" lon="5.50277">
        <ele>355.79998779297</ele>
        <time>2013-02-23T09:44:47.000Z</time>
      </trkpt>
      <trkpt lat="43.54022" lon="5.50273">
        <ele>355.79998779297</ele>
        <time>2013-02-23T09:44:48.000Z</time>
      </trkpt>
      <trkpt lat="43.5402" lon="5.5027">
        <ele>356</ele>
        <time>2013-02-23T09:44:49.000Z</time>
      </trkpt>
      <trkpt lat="43.54017" lon="5.50266">
        <ele>356</ele>
        <time>2013-02-23T09:44:50.000Z</time>
      </trkpt>
      <trkpt lat="43.54014" lon="5.50263">
        <ele>356.20001220703</ele>
        <time>2013-02-23T09:44:51.000Z</time>
      </trkpt>
      <trkpt lat="43.54011" lon="5.5026">
        <ele>356.20001220703</ele>
        <time>2013-02-23T09:44:52.000Z</time>
      </trkpt>
      <trkpt lat="43.53985" lon="5.50238">
        <ele>357</ele>
        <time>2013-02-23T09:45:01.000Z</time>
      </trkpt>
      <trkpt lat="43.53958" lon="5.50209">
        <ele>357</ele>
        <time>2013-02-23T09:45:11.000Z</time>
      </trkpt>
      <trkpt lat="43.53934" lon="5.50189">
        <ele>357.60000610352</ele>
        <time>2013-02-23T09:45:19.000Z</time>
      </trkpt>
      <trkpt lat="43.53908" lon="5.50174">
        <ele>358.39999389648</ele>
        <time>2013-02-23T09:45:27.000Z</time>
      </trkpt>
      <trkpt lat="43.53904" lon="5.50176">
        <ele>358.39999389648</ele>
        <time>2013-02-23T09:45:28.000Z</time>
      </trkpt>
      <trkpt lat="43.539" lon="5.50177">
        <ele>358.60000610352</ele>
        <time>2013-02-23T09:45:29.000Z</time>
      </trkpt>
      <trkpt lat="43.53897" lon="5.50179">
        <ele>358.79998779297</ele>
        <time>2013-02-23T09:45:30.000Z</time>
      </trkpt>
      <trkpt lat="43.53893" lon="5.50178">
        <ele>358.79998779297</ele>
        <time>2013-02-23T09:45:31.000Z</time>
      </trkpt>
      <trkpt lat="43.5389" lon="5.50177">
        <ele>358.79998779297</ele>
        <time>2013-02-23T09:45:32.000Z</time>
      </trkpt>
      <trkpt lat="43.53887" lon="5.50175">
        <ele>358.79998779297</ele>
        <time>2013-02-23T09:45:33.000Z</time>
      </trkpt>
      <trkpt lat="43.53884" lon="5.50172">
        <ele>358.79998779297</ele>
        <time>2013-02-23T09:45:34.000Z</time>
      </trkpt>
      <trkpt lat="43.53882" lon="5.50168">
        <ele>358.79998779297</ele>
        <time>2013-02-23T09:45:35.000Z</time>
      </trkpt>
      <trkpt lat="43.53881" lon="5.50164">
        <ele>358.39999389648</ele>
        <time>2013-02-23T09:45:36.000Z</time>
      </trkpt>
      <trkpt lat="43.53879" lon="5.5016">
        <ele>358</ele>
        <time>2013-02-23T09:45:37.000Z</time>
      </trkpt>
      <trkpt lat="43.53876" lon="5.50155">
        <ele>357.60000610352</ele>
        <time>2013-02-23T09:45:38.000Z</time>
      </trkpt>
      <trkpt lat="43.53874" lon="5.50152">
        <ele>357.39999389648</ele>
        <time>2013-02-23T09:45:39.000Z</time>
      </trkpt>
      <trkpt lat="43.53871" lon="5.50148">
        <ele>357.20001220703</ele>
        <time>2013-02-23T09:45:40.000Z</time>
      </trkpt>
      <trkpt lat="43.53868" lon="5.50145">
        <ele>357</ele>
        <time>2013-02-23T09:45:41.000Z</time>
      </trkpt>
      <trkpt lat="43.53864" lon="5.50143">
        <ele>356.79998779297</ele>
        <time>2013-02-23T09:45:42.000Z</time>
      </trkpt>
      <trkpt lat="43.53861" lon="5.5014">
        <ele>356.79998779297</ele>
        <time>2013-02-23T09:45:43.000Z</time>
      </trkpt>
      <trkpt lat="43.53858" lon="5.50137">
        <ele>356.79998779297</ele>
        <time>2013-02-23T09:45:44.000Z</time>
      </trkpt>
      <trkpt lat="43.53826" lon="5.50096">
        <ele>355.79998779297</ele>
        <time>2013-02-23T09:45:55.000Z</time>
      </trkpt>
      <trkpt lat="43.5382" lon="5.50088">
        <ele>355.60000610352</ele>
        <time>2013-02-23T09:45:57.000Z</time>
      </trkpt>
      <trkpt lat="43.53816" lon="5.50084">
        <ele>355.60000610352</ele>
        <time>2013-02-23T09:45:58.000Z</time>
      </trkpt>
      <trkpt lat="43.53814" lon="5.50079">
        <ele>355.39999389648</ele>
        <time>2013-02-23T09:45:59.000Z</time>
      </trkpt>
      <trkpt lat="43.53811" lon="5.50074">
        <ele>355.20001220703</ele>
        <time>2013-02-23T09:46:00.000Z</time>
      </trkpt>
      <trkpt lat="43.53809" lon="5.50069">
        <ele>355.20001220703</ele>
        <time>2013-02-23T09:46:01.000Z</time>
      </trkpt>
      <trkpt lat="43.53806" lon="5.50064">
        <ele>355.20001220703</ele>
        <time>2013-02-23T09:46:02.000Z</time>
      </trkpt>
      <trkpt lat="43.53794" lon="5.50047">
        <ele>355.20001220703</ele>
        <time>2013-02-23T09:46:07.000Z</time>
      </trkpt>
      <trkpt lat="43.53791" lon="5.50046">
        <ele>355.20001220703</ele>
        <time>2013-02-23T09:46:08.000Z</time>
      </trkpt>
      <trkpt lat="43.53788" lon="5.50044">
        <ele>355.39999389648</ele>
        <time>2013-02-23T09:46:09.000Z</time>
      </trkpt>
      <trkpt lat="43.53785" lon="5.50041">
        <ele>355.60000610352</ele>
        <time>2013-02-23T09:46:10.000Z</time>
      </trkpt>
      <trkpt lat="43.53784" lon="5.50036">
        <ele>355.60000610352</ele>
        <time>2013-02-23T09:46:11.000Z</time>
      </trkpt>
      <trkpt lat="43.53783" lon="5.50031">
        <ele>355.39999389648</ele>
        <time>2013-02-23T09:46:12.000Z</time>
      </trkpt>
      <trkpt lat="43.53781" lon="5.50026">
        <ele>355.60000610352</ele>
        <time>2013-02-23T09:46:13.000Z</time>
      </trkpt>
      <trkpt lat="43.53778" lon="5.50022">
        <ele>355.60000610352</ele>
        <time>2013-02-23T09:46:14.000Z</time>
      </trkpt>
      <trkpt lat="43.53775" lon="5.50018">
        <ele>355.79998779297</ele>
        <time>2013-02-23T09:46:15.000Z</time>
      </trkpt>
      <trkpt lat="43.53759" lon="5.49995">
        <ele>357.20001220703</ele>
        <time>2013-02-23T09:46:24.000Z</time>
      </trkpt>
      <trkpt lat="43.53757" lon="5.49962">
        <ele>358</ele>
        <time>2013-02-23T09:46:32.000Z</time>
      </trkpt>
      <trkpt lat="43.53753" lon="5.49914">
        <ele>359.39999389648</ele>
        <time>2013-02-23T09:46:42.000Z</time>
      </trkpt>
      <trkpt lat="43.53749" lon="5.49906">
        <ele>359.79998779297</ele>
        <time>2013-02-23T09:46:44.000Z</time>
      </trkpt>
      <trkpt lat="43.53746" lon="5.49904">
        <ele>359.79998779297</ele>
        <time>2013-02-23T09:46:45.000Z</time>
      </trkpt>
      <trkpt lat="43.53743" lon="5.49904">
        <ele>359.60000610352</ele>
        <time>2013-02-23T09:46:46.000Z</time>
      </trkpt>
      <trkpt lat="43.53735" lon="5.49904">
        <ele>359.39999389648</ele>
        <time>2013-02-23T09:46:48.000Z</time>
      </trkpt>
      <trkpt lat="43.53731" lon="5.49902">
        <ele>359.20001220703</ele>
        <time>2013-02-23T09:46:49.000Z</time>
      </trkpt>
      <trkpt lat="43.53727" lon="5.499">
        <ele>359</ele>
        <time>2013-02-23T09:46:50.000Z</time>
      </trkpt>
      <trkpt lat="43.53724" lon="5.49896">
        <ele>358.79998779297</ele>
        <time>2013-02-23T09:46:51.000Z</time>
      </trkpt>
      <trkpt lat="43.53721" lon="5.49893">
        <ele>358.60000610352</ele>
        <time>2013-02-23T09:46:52.000Z</time>
      </trkpt>
      <trkpt lat="43.53702" lon="5.4988">
        <ele>357.60000610352</ele>
        <time>2013-02-23T09:46:58.000Z</time>
      </trkpt>
      <trkpt lat="43.53699" lon="5.49882">
        <ele>357.60000610352</ele>
        <time>2013-02-23T09:46:59.000Z</time>
      </trkpt>
      <trkpt lat="43.53698" lon="5.49885">
        <ele>357.60000610352</ele>
        <time>2013-02-23T09:47:00.000Z</time>
      </trkpt>
      <trkpt lat="43.53692" lon="5.49923">
        <ele>357.79998779297</ele>
        <time>2013-02-23T09:47:09.000Z</time>
      </trkpt>
      <trkpt lat="43.53676" lon="5.49986">
        <ele>357.79998779297</ele>
        <time>2013-02-23T09:47:20.000Z</time>
      </trkpt>
      <trkpt lat="43.53664" lon="5.50025">
        <ele>357.20001220703</ele>
        <time>2013-02-23T09:47:26.000Z</time>
      </trkpt>
      <trkpt lat="43.53661" lon="5.5003">
        <ele>357</ele>
        <time>2013-02-23T09:47:27.000Z</time>
      </trkpt>
      <trkpt lat="43.53657" lon="5.50036">
        <ele>356.79998779297</ele>
        <time>2013-02-23T09:47:28.000Z</time>
      </trkpt>
      <trkpt lat="43.53652" lon="5.50047">
        <ele>356.60000610352</ele>
        <time>2013-02-23T09:47:30.000Z</time>
      </trkpt>
      <trkpt lat="43.53651" lon="5.50053">
        <ele>356.39999389648</ele>
        <time>2013-02-23T09:47:31.000Z</time>
      </trkpt>
      <trkpt lat="43.53652" lon="5.50061">
        <ele>356.20001220703</ele>
        <time>2013-02-23T09:47:32.000Z</time>
      </trkpt>
      <trkpt lat="43.53653" lon="5.50087">
        <ele>356</ele>
        <time>2013-02-23T09:47:35.000Z</time>
      </trkpt>
      <trkpt lat="43.53653" lon="5.50096">
        <ele>356</ele>
        <time>2013-02-23T09:47:36.000Z</time>
      </trkpt>
      <trkpt lat="43.5365" lon="5.50104">
        <ele>356.20001220703</ele>
        <time>2013-02-23T09:47:37.000Z</time>
      </trkpt>
      <trkpt lat="43.53647" lon="5.50112">
        <ele>356.20001220703</ele>
        <time>2013-02-23T09:47:38.000Z</time>
      </trkpt>
      <trkpt lat="43.53642" lon="5.50118">
        <ele>356.20001220703</ele>
        <time>2013-02-23T09:47:39.000Z</time>
      </trkpt>
      <trkpt lat="43.53638" lon="5.50123">
        <ele>356.20001220703</ele>
        <time>2013-02-23T09:47:40.000Z</time>
      </trkpt>
      <trkpt lat="43.53634" lon="5.50128">
        <ele>356.20001220703</ele>
        <time>2013-02-23T09:47:41.000Z</time>
      </trkpt>
      <trkpt lat="43.5363" lon="5.50131">
        <ele>356.20001220703</ele>
        <time>2013-02-23T09:47:42.000Z</time>
      </trkpt>
      <trkpt lat="43.53625" lon="5.50134">
        <ele>356.20001220703</ele>
        <time>2013-02-23T09:47:43.000Z</time>
      </trkpt>
      <trkpt lat="43.53621" lon="5.50136">
        <ele>356.20001220703</ele>
        <time>2013-02-23T09:47:44.000Z</time>
      </trkpt>
      <trkpt lat="43.53616" lon="5.50136">
        <ele>356.20001220703</ele>
        <time>2013-02-23T09:47:45.000Z</time>
      </trkpt>
      <trkpt lat="43.53611" lon="5.50135">
        <ele>356.20001220703</ele>
        <time>2013-02-23T09:47:46.000Z</time>
      </trkpt>
      <trkpt lat="43.53607" lon="5.50134">
        <ele>356</ele>
        <time>2013-02-23T09:47:47.000Z</time>
      </trkpt>
      <trkpt lat="43.53583" lon="5.50122">
        <ele>355.79998779297</ele>
        <time>2013-02-23T09:47:53.000Z</time>
      </trkpt>
      <trkpt lat="43.53575" lon="5.50117">
        <ele>355.79998779297</ele>
        <time>2013-02-23T09:47:55.000Z</time>
      </trkpt>
      <trkpt lat="43.53526" lon="5.50106">
        <ele>355</ele>
        <time>2013-02-23T09:48:05.000Z</time>
      </trkpt>
      <trkpt lat="43.53491" lon="5.50098">
        <ele>354.60000610352</ele>
        <time>2013-02-23T09:48:12.000Z</time>
      </trkpt>
      <trkpt lat="43.53466" lon="5.50084">
        <ele>354.79998779297</ele>
        <time>2013-02-23T09:48:18.000Z</time>
      </trkpt>
      <trkpt lat="43.53461" lon="5.50083">
        <ele>354.79998779297</ele>
        <time>2013-02-23T09:48:19.000Z</time>
      </trkpt>
      <trkpt lat="43.53456" lon="5.50083">
        <ele>354.79998779297</ele>
        <time>2013-02-23T09:48:20.000Z</time>
      </trkpt>
      <trkpt lat="43.5345" lon="5.50083">
        <ele>354.79998779297</ele>
        <time>2013-02-23T09:48:21.000Z</time>
      </trkpt>
      <trkpt lat="43.53445" lon="5.50084">
        <ele>354.79998779297</ele>
        <time>2013-02-23T09:48:22.000Z</time>
      </trkpt>
      <trkpt lat="43.53408" lon="5.50091">
        <ele>354.39999389648</ele>
        <time>2013-02-23T09:48:29.000Z</time>
      </trkpt>
      <trkpt lat="43.53389" lon="5.501">
        <ele>353.60000610352</ele>
        <time>2013-02-23T09:48:33.000Z</time>
      </trkpt>
      <trkpt lat="43.53345" lon="5.50114">
        <ele>352.60000610352</ele>
        <time>2013-02-23T09:48:42.000Z</time>
      </trkpt>
      <trkpt lat="43.53326" lon="5.5012">
        <ele>352.60000610352</ele>
        <time>2013-02-23T09:48:46.000Z</time>
      </trkpt>
      <trkpt lat="43.53301" lon="5.50138">
        <ele>352.79998779297</ele>
        <time>2013-02-23T09:48:52.000Z</time>
      </trkpt>
      <trkpt lat="43.53265" lon="5.5018">
        <ele>352.79998779297</ele>
        <time>2013-02-23T09:49:03.000Z</time>
      </trkpt>
      <trkpt lat="43.53243" lon="5.50195">
        <ele>352.39999389648</ele>
        <time>2013-02-23T09:49:09.000Z</time>
      </trkpt>
      <trkpt lat="43.53239" lon="5.50198">
        <ele>352.20001220703</ele>
        <time>2013-02-23T09:49:10.000Z</time>
      </trkpt>
      <trkpt lat="43.53235" lon="5.50201">
        <ele>352.20001220703</ele>
        <time>2013-02-23T09:49:11.000Z</time>
      </trkpt>
      <trkpt lat="43.53228" lon="5.50205">
        <ele>352</ele>
        <time>2013-02-23T09:49:13.000Z</time>
      </trkpt>
      <trkpt lat="43.53219" lon="5.50206">
        <ele>351.79998779297</ele>
        <time>2013-02-23T09:49:15.000Z</time>
      </trkpt>
      <trkpt lat="43.5319" lon="5.50206">
        <ele>351.60000610352</ele>
        <time>2013-02-23T09:49:23.000Z</time>
      </trkpt>
      <trkpt lat="43.53187" lon="5.50203">
        <ele>351.60000610352</ele>
        <time>2013-02-23T09:49:24.000Z</time>
      </trkpt>
      <trkpt lat="43.53185" lon="5.50199">
        <ele>351.60000610352</ele>
        <time>2013-02-23T09:49:25.000Z</time>
      </trkpt>
      <trkpt lat="43.53162" lon="5.50152">
        <ele>351.20001220703</ele>
        <time>2013-02-23T09:49:36.000Z</time>
      </trkpt>
      <trkpt lat="43.53148" lon="5.50121">
        <ele>349.20001220703</ele>
        <time>2013-02-23T09:49:44.000Z</time>
      </trkpt>
      <trkpt lat="43.53148" lon="5.50116">
        <ele>349</ele>
        <time>2013-02-23T09:49:45.000Z</time>
      </trkpt>
      <trkpt lat="43.53147" lon="5.50111">
        <ele>348.79998779297</ele>
        <time>2013-02-23T09:49:46.000Z</time>
      </trkpt>
      <trkpt lat="43.53145" lon="5.50107">
        <ele>348.39999389648</ele>
        <time>2013-02-23T09:49:47.000Z</time>
      </trkpt>
      <trkpt lat="43.53143" lon="5.50102">
        <ele>348</ele>
        <time>2013-02-23T09:49:48.000Z</time>
      </trkpt>
      <trkpt lat="43.5314" lon="5.50098">
        <ele>347.79998779297</ele>
        <time>2013-02-23T09:49:49.000Z</time>
      </trkpt>
      <trkpt lat="43.53138" lon="5.50093">
        <ele>347.39999389648</ele>
        <time>2013-02-23T09:49:50.000Z</time>
      </trkpt>
      <trkpt lat="43.53116" lon="5.50058">
        <ele>345.79998779297</ele>
        <time>2013-02-23T09:49:58.000Z</time>
      </trkpt>
      <trkpt lat="43.53113" lon="5.50054">
        <ele>345.79998779297</ele>
        <time>2013-02-23T09:49:59.000Z</time>
      </trkpt>
      <trkpt lat="43.53088" lon="5.50007">
        <ele>347.39999389648</ele>
        <time>2013-02-23T09:50:10.000Z</time>
      </trkpt>
      <trkpt lat="43.53063" lon="5.49965">
        <ele>347.20001220703</ele>
        <time>2013-02-23T09:50:21.000Z</time>
      </trkpt>
      <trkpt lat="43.53055" lon="5.49917">
        <ele>347.79998779297</ele>
        <time>2013-02-23T09:50:30.000Z</time>
      </trkpt>
      <trkpt lat="43.53056" lon="5.49911">
        <ele>348</ele>
        <time>2013-02-23T09:50:31.000Z</time>
      </trkpt>
      <trkpt lat="43.53059" lon="5.49883">
        <ele>348.20001220703</ele>
        <time>2013-02-23T09:50:36.000Z</time>
      </trkpt>
      <trkpt lat="43.53058" lon="5.49877">
        <ele>348.20001220703</ele>
        <time>2013-02-23T09:50:37.000Z</time>
      </trkpt>
      <trkpt lat="43.53057" lon="5.49841">
        <ele>348.39999389648</ele>
        <time>2013-02-23T09:50:43.000Z</time>
      </trkpt>
      <trkpt lat="43.53057" lon="5.49835">
        <ele>348.60000610352</ele>
        <time>2013-02-23T09:50:44.000Z</time>
      </trkpt>
      <trkpt lat="43.53056" lon="5.49758">
        <ele>349.39999389648</ele>
        <time>2013-02-23T09:50:57.000Z</time>
      </trkpt>
      <trkpt lat="43.53065" lon="5.49704">
        <ele>348.20001220703</ele>
        <time>2013-02-23T09:51:08.000Z</time>
      </trkpt>
      <trkpt lat="43.53067" lon="5.49698">
        <ele>348</ele>
        <time>2013-02-23T09:51:11.000Z</time>
      </trkpt>
      <trkpt lat="43.53073" lon="5.49692">
        <ele>347.79998779297</ele>
        <time>2013-02-23T09:51:20.000Z</time>
      </trkpt>
      <trkpt lat="43.53074" lon="5.49686">
        <ele>347.60000610352</ele>
        <time>2013-02-23T09:51:24.000Z</time>
      </trkpt>
      <trkpt lat="43.53074" lon="5.49682">
        <ele>347.39999389648</ele>
        <time>2013-02-23T09:51:25.000Z</time>
      </trkpt>
      <trkpt lat="43.53075" lon="5.49678">
        <ele>347.39999389648</ele>
        <time>2013-02-23T09:51:26.000Z</time>
      </trkpt>
      <trkpt lat="43.53076" lon="5.49675">
        <ele>347.20001220703</ele>
        <time>2013-02-23T09:51:27.000Z</time>
      </trkpt>
      <trkpt lat="43.53076" lon="5.49671">
        <ele>347.20001220703</ele>
        <time>2013-02-23T09:51:28.000Z</time>
      </trkpt>
      <trkpt lat="43.53076" lon="5.49666">
        <ele>347</ele>
        <time>2013-02-23T09:51:29.000Z</time>
      </trkpt>
      <trkpt lat="43.53075" lon="5.49662">
        <ele>347</ele>
        <time>2013-02-23T09:51:30.000Z</time>
      </trkpt>
      <trkpt lat="43.53073" lon="5.49627">
        <ele>345.79998779297</ele>
        <time>2013-02-23T09:51:37.000Z</time>
      </trkpt>
      <trkpt lat="43.53071" lon="5.49622">
        <ele>345.60000610352</ele>
        <time>2013-02-23T09:51:38.000Z</time>
      </trkpt>
      <trkpt lat="43.53071" lon="5.49616">
        <ele>345.39999389648</ele>
        <time>2013-02-23T09:51:39.000Z</time>
      </trkpt>
      <trkpt lat="43.5307" lon="5.4961">
        <ele>345.20001220703</ele>
        <time>2013-02-23T09:51:40.000Z</time>
      </trkpt>
      <trkpt lat="43.5307" lon="5.49605">
        <ele>345</ele>
        <time>2013-02-23T09:51:41.000Z</time>
      </trkpt>
      <trkpt lat="43.53068" lon="5.49599">
        <ele>344.79998779297</ele>
        <time>2013-02-23T09:51:42.000Z</time>
      </trkpt>
      <trkpt lat="43.53066" lon="5.49594">
        <ele>344.79998779297</ele>
        <time>2013-02-23T09:51:43.000Z</time>
      </trkpt>
      <trkpt lat="43.53064" lon="5.4959">
        <ele>344.60000610352</ele>
        <time>2013-02-23T09:51:44.000Z</time>
      </trkpt>
      <trkpt lat="43.53052" lon="5.49545">
        <ele>344.60000610352</ele>
        <time>2013-02-23T09:51:53.000Z</time>
      </trkpt>
      <trkpt lat="43.53051" lon="5.4954">
        <ele>344.60000610352</ele>
        <time>2013-02-23T09:51:54.000Z</time>
      </trkpt>
      <trkpt lat="43.5305" lon="5.49533">
        <ele>344.60000610352</ele>
        <time>2013-02-23T09:51:55.000Z</time>
      </trkpt>
      <trkpt lat="43.5305" lon="5.49527">
        <ele>344.60000610352</ele>
        <time>2013-02-23T09:51:56.000Z</time>
      </trkpt>
      <trkpt lat="43.53051" lon="5.49521">
        <ele>344.60000610352</ele>
        <time>2013-02-23T09:51:57.000Z</time>
      </trkpt>
      <trkpt lat="43.53052" lon="5.49514">
        <ele>344.39999389648</ele>
        <time>2013-02-23T09:51:58.000Z</time>
      </trkpt>
      <trkpt lat="43.53053" lon="5.49507">
        <ele>344.39999389648</ele>
        <time>2013-02-23T09:51:59.000Z</time>
      </trkpt>
      <trkpt lat="43.53053" lon="5.495">
        <ele>344.39999389648</ele>
        <time>2013-02-23T09:52:00.000Z</time>
      </trkpt>
      <trkpt lat="43.53051" lon="5.49494">
        <ele>344.39999389648</ele>
        <time>2013-02-23T09:52:01.000Z</time>
      </trkpt>
      <trkpt lat="43.53051" lon="5.49488">
        <ele>344.39999389648</ele>
        <time>2013-02-23T09:52:02.000Z</time>
      </trkpt>
      <trkpt lat="43.5305" lon="5.49482">
        <ele>344.39999389648</ele>
        <time>2013-02-23T09:52:03.000Z</time>
      </trkpt>
      <trkpt lat="43.53047" lon="5.49473">
        <ele>344.60000610352</ele>
        <time>2013-02-23T09:52:05.000Z</time>
      </trkpt>
      <trkpt lat="43.53044" lon="5.4947">
        <ele>344.60000610352</ele>
        <time>2013-02-23T09:52:06.000Z</time>
      </trkpt>
      <trkpt lat="43.53041" lon="5.49468">
        <ele>344.79998779297</ele>
        <time>2013-02-23T09:52:07.000Z</time>
      </trkpt>
      <trkpt lat="43.53038" lon="5.49466">
        <ele>344.79998779297</ele>
        <time>2013-02-23T09:52:08.000Z</time>
      </trkpt>
      <trkpt lat="43.53038" lon="5.49463">
        <ele>344.79998779297</ele>
        <time>2013-02-23T09:52:09.000Z</time>
      </trkpt>
      <trkpt lat="43.53038" lon="5.49461">
        <ele>344.79998779297</ele>
        <time>2013-02-23T09:52:10.000Z</time>
      </trkpt>
      <trkpt lat="43.53038" lon="5.49458">
        <ele>344.79998779297</ele>
        <time>2013-02-23T09:52:11.000Z</time>
      </trkpt>
      <trkpt lat="43.53038" lon="5.49453">
        <ele>344.79998779297</ele>
        <time>2013-02-23T09:52:12.000Z</time>
      </trkpt>
      <trkpt lat="43.53036" lon="5.49445">
        <ele>344.79998779297</ele>
        <time>2013-02-23T09:52:14.000Z</time>
      </trkpt>
      <trkpt lat="43.53035" lon="5.49441">
        <ele>344.79998779297</ele>
        <time>2013-02-23T09:52:15.000Z</time>
      </trkpt>
      <trkpt lat="43.53034" lon="5.49437">
        <ele>344.79998779297</ele>
        <time>2013-02-23T09:52:16.000Z</time>
      </trkpt>
      <trkpt lat="43.53032" lon="5.49433">
        <ele>344.79998779297</ele>
        <time>2013-02-23T09:52:17.000Z</time>
      </trkpt>
      <trkpt lat="43.53031" lon="5.49428">
        <ele>344.79998779297</ele>
        <time>2013-02-23T09:52:18.000Z</time>
      </trkpt>
      <trkpt lat="43.53028" lon="5.49412">
        <ele>344.79998779297</ele>
        <time>2013-02-23T09:52:22.000Z</time>
      </trkpt>
      <trkpt lat="43.53044" lon="5.49404">
        <ele>344.39999389648</ele>
        <time>2013-02-23T09:52:27.000Z</time>
      </trkpt>
      <trkpt lat="43.53055" lon="5.49414">
        <ele>344</ele>
        <time>2013-02-23T09:52:30.000Z</time>
      </trkpt>
      <trkpt lat="43.53071" lon="5.49425">
        <ele>343.39999389648</ele>
        <time>2013-02-23T09:52:34.000Z</time>
      </trkpt>
      <trkpt lat="43.53091" lon="5.49456">
        <ele>342.79998779297</ele>
        <time>2013-02-23T09:52:42.000Z</time>
      </trkpt>
      <trkpt lat="43.531" lon="5.49469">
        <ele>342.60000610352</ele>
        <time>2013-02-23T09:52:45.000Z</time>
      </trkpt>
      <trkpt lat="43.53127" lon="5.49497">
        <ele>342.39999389648</ele>
        <time>2013-02-23T09:52:54.000Z</time>
      </trkpt>
      <trkpt lat="43.53153" lon="5.49515">
        <ele>342</ele>
        <time>2013-02-23T09:53:02.000Z</time>
      </trkpt>
      <trkpt lat="43.53182" lon="5.49515">
        <ele>341.60000610352</ele>
        <time>2013-02-23T09:53:10.000Z</time>
      </trkpt>
      <trkpt lat="43.53194" lon="5.49517">
        <ele>341.60000610352</ele>
        <time>2013-02-23T09:53:13.000Z</time>
      </trkpt>
      <trkpt lat="43.53197" lon="5.49519">
        <ele>341.39999389648</ele>
        <time>2013-02-23T09:53:14.000Z</time>
      </trkpt>
      <trkpt lat="43.532" lon="5.49519">
        <ele>341.39999389648</ele>
        <time>2013-02-23T09:53:15.000Z</time>
      </trkpt>
      <trkpt lat="43.53202" lon="5.49517">
        <ele>341.39999389648</ele>
        <time>2013-02-23T09:53:16.000Z</time>
      </trkpt>
      <trkpt lat="43.53205" lon="5.49515">
        <ele>341.39999389648</ele>
        <time>2013-02-23T09:53:17.000Z</time>
      </trkpt>
      <trkpt lat="43.53209" lon="5.4951">
        <ele>341.39999389648</ele>
        <time>2013-02-23T09:53:18.000Z</time>
      </trkpt>
      <trkpt lat="43.53213" lon="5.49507">
        <ele>341.20001220703</ele>
        <time>2013-02-23T09:53:19.000Z</time>
      </trkpt>
      <trkpt lat="43.53218" lon="5.49505">
        <ele>341.20001220703</ele>
        <time>2013-02-23T09:53:20.000Z</time>
      </trkpt>
      <trkpt lat="43.53222" lon="5.49502">
        <ele>341.20001220703</ele>
        <time>2013-02-23T09:53:21.000Z</time>
      </trkpt>
      <trkpt lat="43.53241" lon="5.49491">
        <ele>340.79998779297</ele>
        <time>2013-02-23T09:53:25.000Z</time>
      </trkpt>
      <trkpt lat="43.53244" lon="5.49487">
        <ele>340.60000610352</ele>
        <time>2013-02-23T09:53:26.000Z</time>
      </trkpt>
      <trkpt lat="43.53247" lon="5.49482">
        <ele>340.60000610352</ele>
        <time>2013-02-23T09:53:27.000Z</time>
      </trkpt>
      <trkpt lat="43.53251" lon="5.49472">
        <ele>340.20001220703</ele>
        <time>2013-02-23T09:53:29.000Z</time>
      </trkpt>
      <trkpt lat="43.53251" lon="5.49466">
        <ele>340</ele>
        <time>2013-02-23T09:53:30.000Z</time>
      </trkpt>
      <trkpt lat="43.5325" lon="5.49461">
        <ele>340</ele>
        <time>2013-02-23T09:53:31.000Z</time>
      </trkpt>
      <trkpt lat="43.53249" lon="5.49456">
        <ele>339.79998779297</ele>
        <time>2013-02-23T09:53:32.000Z</time>
      </trkpt>
      <trkpt lat="43.53247" lon="5.49451">
        <ele>339.79998779297</ele>
        <time>2013-02-23T09:53:33.000Z</time>
      </trkpt>
      <trkpt lat="43.53244" lon="5.49447">
        <ele>339.79998779297</ele>
        <time>2013-02-23T09:53:34.000Z</time>
      </trkpt>
      <trkpt lat="43.5324" lon="5.49444">
        <ele>339.60000610352</ele>
        <time>2013-02-23T09:53:35.000Z</time>
      </trkpt>
      <trkpt lat="43.53237" lon="5.49441">
        <ele>339.60000610352</ele>
        <time>2013-02-23T09:53:36.000Z</time>
      </trkpt>
      <trkpt lat="43.53236" lon="5.49437">
        <ele>339.60000610352</ele>
        <time>2013-02-23T09:53:37.000Z</time>
      </trkpt>
      <trkpt lat="43.53235" lon="5.49432">
        <ele>339.39999389648</ele>
        <time>2013-02-23T09:53:38.000Z</time>
      </trkpt>
      <trkpt lat="43.53236" lon="5.49427">
        <ele>339.39999389648</ele>
        <time>2013-02-23T09:53:39.000Z</time>
      </trkpt>
      <trkpt lat="43.53237" lon="5.49422">
        <ele>339.20001220703</ele>
        <time>2013-02-23T09:53:40.000Z</time>
      </trkpt>
      <trkpt lat="43.53239" lon="5.49417">
        <ele>339</ele>
        <time>2013-02-23T09:53:41.000Z</time>
      </trkpt>
      <trkpt lat="43.53242" lon="5.49413">
        <ele>339</ele>
        <time>2013-02-23T09:53:42.000Z</time>
      </trkpt>
      <trkpt lat="43.53266" lon="5.49394">
        <ele>338</ele>
        <time>2013-02-23T09:53:50.000Z</time>
      </trkpt>
      <trkpt lat="43.53284" lon="5.49386">
        <ele>337.20001220703</ele>
        <time>2013-02-23T09:53:57.000Z</time>
      </trkpt>
      <trkpt lat="43.53285" lon="5.49388">
        <ele>337.20001220703</ele>
        <time>2013-02-23T09:53:58.000Z</time>
      </trkpt>
      <trkpt lat="43.53287" lon="5.49391">
        <ele>337.20001220703</ele>
        <time>2013-02-23T09:53:59.000Z</time>
      </trkpt>
      <trkpt lat="43.53289" lon="5.49394">
        <ele>337.20001220703</ele>
        <time>2013-02-23T09:54:00.000Z</time>
      </trkpt>
      <trkpt lat="43.53291" lon="5.49397">
        <ele>337.39999389648</ele>
        <time>2013-02-23T09:54:01.000Z</time>
      </trkpt>
      <trkpt lat="43.53292" lon="5.49401">
        <ele>337.39999389648</ele>
        <time>2013-02-23T09:54:02.000Z</time>
      </trkpt>
      <trkpt lat="43.53293" lon="5.49406">
        <ele>337.60000610352</ele>
        <time>2013-02-23T09:54:03.000Z</time>
      </trkpt>
      <trkpt lat="43.53294" lon="5.49411">
        <ele>337.60000610352</ele>
        <time>2013-02-23T09:54:04.000Z</time>
      </trkpt>
      <trkpt lat="43.53296" lon="5.49414">
        <ele>337.79998779297</ele>
        <time>2013-02-23T09:54:05.000Z</time>
      </trkpt>
      <trkpt lat="43.53298" lon="5.49416">
        <ele>337.79998779297</ele>
        <time>2013-02-23T09:54:06.000Z</time>
      </trkpt>
      <trkpt lat="43.53301" lon="5.49419">
        <ele>337.79998779297</ele>
        <time>2013-02-23T09:54:07.000Z</time>
      </trkpt>
      <trkpt lat="43.53304" lon="5.49422">
        <ele>337.60000610352</ele>
        <time>2013-02-23T09:54:08.000Z</time>
      </trkpt>
      <trkpt lat="43.53317" lon="5.49434">
        <ele>337.60000610352</ele>
        <time>2013-02-23T09:54:12.000Z</time>
      </trkpt>
      <trkpt lat="43.53324" lon="5.49442">
        <ele>337.39999389648</ele>
        <time>2013-02-23T09:54:14.000Z</time>
      </trkpt>
      <trkpt lat="43.53332" lon="5.4945">
        <ele>337.39999389648</ele>
        <time>2013-02-23T09:54:16.000Z</time>
      </trkpt>
      <trkpt lat="43.53351" lon="5.49486">
        <ele>337.39999389648</ele>
        <time>2013-02-23T09:54:25.000Z</time>
      </trkpt>
      <trkpt lat="43.53352" lon="5.49489">
        <ele>337.39999389648</ele>
        <time>2013-02-23T09:54:32.000Z</time>
      </trkpt>
      <trkpt lat="43.53353" lon="5.49493">
        <ele>337.60000610352</ele>
        <time>2013-02-23T09:54:39.000Z</time>
      </trkpt>
      <trkpt lat="43.53353" lon="5.49494">
        <ele>337.60000610352</ele>
        <time>2013-02-23T09:54:40.000Z</time>
      </trkpt>
      <trkpt lat="43.53353" lon="5.49496">
        <ele>337.60000610352</ele>
        <time>2013-02-23T09:54:41.000Z</time>
      </trkpt>
      <trkpt lat="43.53355" lon="5.495">
        <ele>337.60000610352</ele>
        <time>2013-02-23T09:54:42.000Z</time>
      </trkpt>
      <trkpt lat="43.53356" lon="5.49503">
        <ele>337.60000610352</ele>
        <time>2013-02-23T09:54:43.000Z</time>
      </trkpt>
      <trkpt lat="43.53359" lon="5.49506">
        <ele>337.60000610352</ele>
        <time>2013-02-23T09:54:44.000Z</time>
      </trkpt>
      <trkpt lat="43.53361" lon="5.49509">
        <ele>337.60000610352</ele>
        <time>2013-02-23T09:54:45.000Z</time>
      </trkpt>
      <trkpt lat="43.53364" lon="5.49511">
        <ele>337.60000610352</ele>
        <time>2013-02-23T09:54:46.000Z</time>
      </trkpt>
      <trkpt lat="43.53367" lon="5.49513">
        <ele>337.79998779297</ele>
        <time>2013-02-23T09:54:47.000Z</time>
      </trkpt>
      <trkpt lat="43.53376" lon="5.49519">
        <ele>337.79998779297</ele>
        <time>2013-02-23T09:54:51.000Z</time>
      </trkpt>
      <trkpt lat="43.5338" lon="5.4952">
        <ele>338</ele>
        <time>2013-02-23T09:54:53.000Z</time>
      </trkpt>
      <trkpt lat="43.53407" lon="5.49534">
        <ele>338.79998779297</ele>
        <time>2013-02-23T09:55:02.000Z</time>
      </trkpt>
      <trkpt lat="43.53436" lon="5.49545">
        <ele>340</ele>
        <time>2013-02-23T09:55:11.000Z</time>
      </trkpt>
      <trkpt lat="43.53466" lon="5.49562">
        <ele>341.60000610352</ele>
        <time>2013-02-23T09:55:20.000Z</time>
      </trkpt>
      <trkpt lat="43.5347" lon="5.49565">
        <ele>341.79998779297</ele>
        <time>2013-02-23T09:55:21.000Z</time>
      </trkpt>
      <trkpt lat="43.53477" lon="5.49573">
        <ele>342.20001220703</ele>
        <time>2013-02-23T09:55:23.000Z</time>
      </trkpt>
      <trkpt lat="43.53514" lon="5.49608">
        <ele>344.79998779297</ele>
        <time>2013-02-23T09:55:32.000Z</time>
      </trkpt>
      <trkpt lat="43.53547" lon="5.49619">
        <ele>347.79998779297</ele>
        <time>2013-02-23T09:55:41.000Z</time>
      </trkpt>
      <trkpt lat="43.53567" lon="5.49623">
        <ele>349.39999389648</ele>
        <time>2013-02-23T09:55:46.000Z</time>
      </trkpt>
      <trkpt lat="43.5357" lon="5.49626">
        <ele>349.79998779297</ele>
        <time>2013-02-23T09:55:47.000Z</time>
      </trkpt>
      <trkpt lat="43.53573" lon="5.4963">
        <ele>350</ele>
        <time>2013-02-23T09:55:48.000Z</time>
      </trkpt>
      <trkpt lat="43.53575" lon="5.49634">
        <ele>350.20001220703</ele>
        <time>2013-02-23T09:55:49.000Z</time>
      </trkpt>
      <trkpt lat="43.53577" lon="5.49638">
        <ele>350.39999389648</ele>
        <time>2013-02-23T09:55:50.000Z</time>
      </trkpt>
      <trkpt lat="43.53578" lon="5.49641">
        <ele>350.60000610352</ele>
        <time>2013-02-23T09:55:51.000Z</time>
      </trkpt>
      <trkpt lat="43.5358" lon="5.49643">
        <ele>350.60000610352</ele>
        <time>2013-02-23T09:55:52.000Z</time>
      </trkpt>
      <trkpt lat="43.53583" lon="5.49644">
        <ele>350.79998779297</ele>
        <time>2013-02-23T09:55:53.000Z</time>
      </trkpt>
      <trkpt lat="43.53585" lon="5.49643">
        <ele>351</ele>
        <time>2013-02-23T09:55:54.000Z</time>
      </trkpt>
      <trkpt lat="43.53586" lon="5.49643">
        <ele>351</ele>
        <time>2013-02-23T09:55:55.000Z</time>
      </trkpt>
      <trkpt lat="43.53588" lon="5.49641">
        <ele>351.20001220703</ele>
        <time>2013-02-23T09:55:56.000Z</time>
      </trkpt>
      <trkpt lat="43.5359" lon="5.4964">
        <ele>351.20001220703</ele>
        <time>2013-02-23T09:55:57.000Z</time>
      </trkpt>
      <trkpt lat="43.53591" lon="5.49637">
        <ele>351.20001220703</ele>
        <time>2013-02-23T09:55:58.000Z</time>
      </trkpt>
      <trkpt lat="43.53592" lon="5.49635">
        <ele>351.39999389648</ele>
        <time>2013-02-23T09:55:59.000Z</time>
      </trkpt>
      <trkpt lat="43.53594" lon="5.49633">
        <ele>351.39999389648</ele>
        <time>2013-02-23T09:56:00.000Z</time>
      </trkpt>
      <trkpt lat="43.53595" lon="5.49631">
        <ele>351.39999389648</ele>
        <time>2013-02-23T09:56:01.000Z</time>
      </trkpt>
      <trkpt lat="43.53614" lon="5.49611">
        <ele>352.39999389648</ele>
        <time>2013-02-23T09:56:11.000Z</time>
      </trkpt>
      <trkpt lat="43.53636" lon="5.49594">
        <ele>353.39999389648</ele>
        <time>2013-02-23T09:56:21.000Z</time>
      </trkpt>
      <trkpt lat="43.53633" lon="5.49563">
        <ele>353</ele>
        <time>2013-02-23T09:56:28.000Z</time>
      </trkpt>
      <trkpt lat="43.53622" lon="5.49516">
        <ele>352</ele>
        <time>2013-02-23T09:56:38.000Z</time>
      </trkpt>
      <trkpt lat="43.53616" lon="5.49466">
        <ele>351.39999389648</ele>
        <time>2013-02-23T09:56:48.000Z</time>
      </trkpt>
      <trkpt lat="43.53602" lon="5.49435">
        <ele>351</ele>
        <time>2013-02-23T09:56:57.000Z</time>
      </trkpt>
      <trkpt lat="43.53592" lon="5.49404">
        <ele>350.60000610352</ele>
        <time>2013-02-23T09:57:04.000Z</time>
      </trkpt>
      <trkpt lat="43.53585" lon="5.49387">
        <ele>349.79998779297</ele>
        <time>2013-02-23T09:57:07.000Z</time>
      </trkpt>
      <trkpt lat="43.53582" lon="5.49381">
        <ele>349.39999389648</ele>
        <time>2013-02-23T09:57:08.000Z</time>
      </trkpt>
      <trkpt lat="43.53575" lon="5.49369">
        <ele>348.20001220703</ele>
        <time>2013-02-23T09:57:10.000Z</time>
      </trkpt>
      <trkpt lat="43.53572" lon="5.49362">
        <ele>347.60000610352</ele>
        <time>2013-02-23T09:57:11.000Z</time>
      </trkpt>
      <trkpt lat="43.53571" lon="5.49354">
        <ele>347.20001220703</ele>
        <time>2013-02-23T09:57:12.000Z</time>
      </trkpt>
      <trkpt lat="43.53568" lon="5.49337">
        <ele>346.39999389648</ele>
        <time>2013-02-23T09:57:14.000Z</time>
      </trkpt>
      <trkpt lat="43.53564" lon="5.49287">
        <ele>344.60000610352</ele>
        <time>2013-02-23T09:57:20.000Z</time>
      </trkpt>
      <trkpt lat="43.53563" lon="5.49279">
        <ele>344.39999389648</ele>
        <time>2013-02-23T09:57:21.000Z</time>
      </trkpt>
      <trkpt lat="43.5355" lon="5.49193">
        <ele>340.79998779297</ele>
        <time>2013-02-23T09:57:31.000Z</time>
      </trkpt>
      <trkpt lat="43.53547" lon="5.49187">
        <ele>340.39999389648</ele>
        <time>2013-02-23T09:57:32.000Z</time>
      </trkpt>
      <trkpt lat="43.53545" lon="5.49181">
        <ele>340</ele>
        <time>2013-02-23T09:57:33.000Z</time>
      </trkpt>
      <trkpt lat="43.53543" lon="5.49175">
        <ele>339.79998779297</ele>
        <time>2013-02-23T09:57:34.000Z</time>
      </trkpt>
      <trkpt lat="43.53544" lon="5.49169">
        <ele>339.60000610352</ele>
        <time>2013-02-23T09:57:35.000Z</time>
      </trkpt>
      <trkpt lat="43.53546" lon="5.49163">
        <ele>339.79998779297</ele>
        <time>2013-02-23T09:57:36.000Z</time>
      </trkpt>
      <trkpt lat="43.53549" lon="5.49158">
        <ele>340.20001220703</ele>
        <time>2013-02-23T09:57:37.000Z</time>
      </trkpt>
      <trkpt lat="43.53555" lon="5.49147">
        <ele>340.79998779297</ele>
        <time>2013-02-23T09:57:39.000Z</time>
      </trkpt>
      <trkpt lat="43.53556" lon="5.49141">
        <ele>341</ele>
        <time>2013-02-23T09:57:40.000Z</time>
      </trkpt>
      <trkpt lat="43.53555" lon="5.49135">
        <ele>340.79998779297</ele>
        <time>2013-02-23T09:57:41.000Z</time>
      </trkpt>
      <trkpt lat="43.53552" lon="5.49131">
        <ele>340.79998779297</ele>
        <time>2013-02-23T09:57:42.000Z</time>
      </trkpt>
      <trkpt lat="43.53548" lon="5.49129">
        <ele>340.60000610352</ele>
        <time>2013-02-23T09:57:43.000Z</time>
      </trkpt>
      <trkpt lat="43.53544" lon="5.49126">
        <ele>340.20001220703</ele>
        <time>2013-02-23T09:57:44.000Z</time>
      </trkpt>
      <trkpt lat="43.53539" lon="5.49124">
        <ele>340</ele>
        <time>2013-02-23T09:57:45.000Z</time>
      </trkpt>
      <trkpt lat="43.53507" lon="5.49115">
        <ele>338.20001220703</ele>
        <time>2013-02-23T09:57:51.000Z</time>
      </trkpt>
      <trkpt lat="43.53502" lon="5.49112">
        <ele>338</ele>
        <time>2013-02-23T09:57:52.000Z</time>
      </trkpt>
      <trkpt lat="43.53497" lon="5.49109">
        <ele>337.79998779297</ele>
        <time>2013-02-23T09:57:53.000Z</time>
      </trkpt>
      <trkpt lat="43.53483" lon="5.49098">
        <ele>337</ele>
        <time>2013-02-23T09:57:56.000Z</time>
      </trkpt>
      <trkpt lat="43.53478" lon="5.49097">
        <ele>336.60000610352</ele>
        <time>2013-02-23T09:57:57.000Z</time>
      </trkpt>
      <trkpt lat="43.53473" lon="5.49096">
        <ele>336.20001220703</ele>
        <time>2013-02-23T09:57:58.000Z</time>
      </trkpt>
      <trkpt lat="43.53468" lon="5.49095">
        <ele>335.79998779297</ele>
        <time>2013-02-23T09:57:59.000Z</time>
      </trkpt>
      <trkpt lat="43.53463" lon="5.49093">
        <ele>335.39999389648</ele>
        <time>2013-02-23T09:58:00.000Z</time>
      </trkpt>
      <trkpt lat="43.53458" lon="5.49089">
        <ele>335.20001220703</ele>
        <time>2013-02-23T09:58:01.000Z</time>
      </trkpt>
      <trkpt lat="43.53454" lon="5.49083">
        <ele>335</ele>
        <time>2013-02-23T09:58:02.000Z</time>
      </trkpt>
      <trkpt lat="43.53452" lon="5.49075">
        <ele>334.79998779297</ele>
        <time>2013-02-23T09:58:03.000Z</time>
      </trkpt>
      <trkpt lat="43.5345" lon="5.49067">
        <ele>334.60000610352</ele>
        <time>2013-02-23T09:58:04.000Z</time>
      </trkpt>
      <trkpt lat="43.5345" lon="5.4906">
        <ele>334.60000610352</ele>
        <time>2013-02-23T09:58:05.000Z</time>
      </trkpt>
      <trkpt lat="43.53449" lon="5.49052">
        <ele>334.39999389648</ele>
        <time>2013-02-23T09:58:06.000Z</time>
      </trkpt>
      <trkpt lat="43.53448" lon="5.49045">
        <ele>334.39999389648</ele>
        <time>2013-02-23T09:58:07.000Z</time>
      </trkpt>
      <trkpt lat="43.53446" lon="5.49031">
        <ele>334.20001220703</ele>
        <time>2013-02-23T09:58:09.000Z</time>
      </trkpt>
      <trkpt lat="43.53445" lon="5.49024">
        <ele>334</ele>
        <time>2013-02-23T09:58:10.000Z</time>
      </trkpt>
      <trkpt lat="43.53445" lon="5.49016">
        <ele>334</ele>
        <time>2013-02-23T09:58:11.000Z</time>
      </trkpt>
      <trkpt lat="43.53446" lon="5.49009">
        <ele>334</ele>
        <time>2013-02-23T09:58:12.000Z</time>
      </trkpt>
      <trkpt lat="43.53447" lon="5.49001">
        <ele>334.20001220703</ele>
        <time>2013-02-23T09:58:13.000Z</time>
      </trkpt>
      <trkpt lat="43.53449" lon="5.48994">
        <ele>334</ele>
        <time>2013-02-23T09:58:14.000Z</time>
      </trkpt>
      <trkpt lat="43.53449" lon="5.48987">
        <ele>333.79998779297</ele>
        <time>2013-02-23T09:58:15.000Z</time>
      </trkpt>
      <trkpt lat="43.53447" lon="5.4898">
        <ele>333.39999389648</ele>
        <time>2013-02-23T09:58:16.000Z</time>
      </trkpt>
      <trkpt lat="43.53445" lon="5.48973">
        <ele>333</ele>
        <time>2013-02-23T09:58:17.000Z</time>
      </trkpt>
      <trkpt lat="43.53445" lon="5.48965">
        <ele>332.60000610352</ele>
        <time>2013-02-23T09:58:18.000Z</time>
      </trkpt>
      <trkpt lat="43.53445" lon="5.48957">
        <ele>332.39999389648</ele>
        <time>2013-02-23T09:58:19.000Z</time>
      </trkpt>
      <trkpt lat="43.53447" lon="5.4895">
        <ele>332.39999389648</ele>
        <time>2013-02-23T09:58:20.000Z</time>
      </trkpt>
      <trkpt lat="43.5345" lon="5.48943">
        <ele>332.39999389648</ele>
        <time>2013-02-23T09:58:21.000Z</time>
      </trkpt>
      <trkpt lat="43.53453" lon="5.48937">
        <ele>332.39999389648</ele>
        <time>2013-02-23T09:58:22.000Z</time>
      </trkpt>
      <trkpt lat="43.53455" lon="5.4893">
        <ele>332.39999389648</ele>
        <time>2013-02-23T09:58:23.000Z</time>
      </trkpt>
      <trkpt lat="43.53458" lon="5.48924">
        <ele>332.60000610352</ele>
        <time>2013-02-23T09:58:24.000Z</time>
      </trkpt>
      <trkpt lat="43.53464" lon="5.48914">
        <ele>332.79998779297</ele>
        <time>2013-02-23T09:58:26.000Z</time>
      </trkpt>
      <trkpt lat="43.53484" lon="5.48891">
        <ele>334.20001220703</ele>
        <time>2013-02-23T09:58:34.000Z</time>
      </trkpt>
      <trkpt lat="43.53486" lon="5.48888">
        <ele>334.39999389648</ele>
        <time>2013-02-23T09:58:38.000Z</time>
      </trkpt>
      <trkpt lat="43.53492" lon="5.48879">
        <ele>335</ele>
        <time>2013-02-23T09:58:41.000Z</time>
      </trkpt>
      <trkpt lat="43.53493" lon="5.48873">
        <ele>334.79998779297</ele>
        <time>2013-02-23T09:58:42.000Z</time>
      </trkpt>
      <trkpt lat="43.53494" lon="5.48867">
        <ele>334.79998779297</ele>
        <time>2013-02-23T09:58:43.000Z</time>
      </trkpt>
      <trkpt lat="43.53501" lon="5.48821">
        <ele>334.60000610352</ele>
        <time>2013-02-23T09:58:49.000Z</time>
      </trkpt>
      <trkpt lat="43.535" lon="5.48814">
        <ele>334.39999389648</ele>
        <time>2013-02-23T09:58:50.000Z</time>
      </trkpt>
      <trkpt lat="43.53498" lon="5.48807">
        <ele>334</ele>
        <time>2013-02-23T09:58:51.000Z</time>
      </trkpt>
      <trkpt lat="43.53495" lon="5.48792">
        <ele>333</ele>
        <time>2013-02-23T09:58:53.000Z</time>
      </trkpt>
      <trkpt lat="43.53494" lon="5.48784">
        <ele>332.60000610352</ele>
        <time>2013-02-23T09:58:54.000Z</time>
      </trkpt>
      <trkpt lat="43.53493" lon="5.48754">
        <ele>331.39999389648</ele>
        <time>2013-02-23T09:58:58.000Z</time>
      </trkpt>
      <trkpt lat="43.53493" lon="5.48747">
        <ele>331.39999389648</ele>
        <time>2013-02-23T09:58:59.000Z</time>
      </trkpt>
      <trkpt lat="43.53494" lon="5.4874">
        <ele>331.60000610352</ele>
        <time>2013-02-23T09:59:00.000Z</time>
      </trkpt>
      <trkpt lat="43.53496" lon="5.48734">
        <ele>331.79998779297</ele>
        <time>2013-02-23T09:59:01.000Z</time>
      </trkpt>
      <trkpt lat="43.53498" lon="5.48728">
        <ele>332.20001220703</ele>
        <time>2013-02-23T09:59:02.000Z</time>
      </trkpt>
      <trkpt lat="43.53501" lon="5.48723">
        <ele>332.60000610352</ele>
        <time>2013-02-23T09:59:03.000Z</time>
      </trkpt>
      <trkpt lat="43.53504" lon="5.48718">
        <ele>332.60000610352</ele>
        <time>2013-02-23T09:59:04.000Z</time>
      </trkpt>
      <trkpt lat="43.53515" lon="5.4871">
        <ele>332.60000610352</ele>
        <time>2013-02-23T09:59:07.000Z</time>
      </trkpt>
      <trkpt lat="43.53523" lon="5.48709">
        <ele>332.60000610352</ele>
        <time>2013-02-23T09:59:09.000Z</time>
      </trkpt>
      <trkpt lat="43.53533" lon="5.48708">
        <ele>332.79998779297</ele>
        <time>2013-02-23T09:59:11.000Z</time>
      </trkpt>
      <trkpt lat="43.53544" lon="5.48707">
        <ele>332.79998779297</ele>
        <time>2013-02-23T09:59:13.000Z</time>
      </trkpt>
      <trkpt lat="43.53549" lon="5.48706">
        <ele>332.79998779297</ele>
        <time>2013-02-23T09:59:14.000Z</time>
      </trkpt>
      <trkpt lat="43.53553" lon="5.48705">
        <ele>332.79998779297</ele>
        <time>2013-02-23T09:59:15.000Z</time>
      </trkpt>
      <trkpt lat="43.53558" lon="5.48704">
        <ele>332.79998779297</ele>
        <time>2013-02-23T09:59:16.000Z</time>
      </trkpt>
      <trkpt lat="43.53563" lon="5.48704">
        <ele>332.79998779297</ele>
        <time>2013-02-23T09:59:17.000Z</time>
      </trkpt>
      <trkpt lat="43.53567" lon="5.48704">
        <ele>332.79998779297</ele>
        <time>2013-02-23T09:59:18.000Z</time>
      </trkpt>
      <trkpt lat="43.53572" lon="5.48704">
        <ele>332.79998779297</ele>
        <time>2013-02-23T09:59:19.000Z</time>
      </trkpt>
      <trkpt lat="43.53577" lon="5.48706">
        <ele>333</ele>
        <time>2013-02-23T09:59:20.000Z</time>
      </trkpt>
      <trkpt lat="43.53582" lon="5.48709">
        <ele>333.39999389648</ele>
        <time>2013-02-23T09:59:21.000Z</time>
      </trkpt>
      <trkpt lat="43.5359" lon="5.48716">
        <ele>332.79998779297</ele>
        <time>2013-02-23T09:59:23.000Z</time>
      </trkpt>
      <trkpt lat="43.53594" lon="5.48721">
        <ele>332.60000610352</ele>
        <time>2013-02-23T09:59:24.000Z</time>
      </trkpt>
      <trkpt lat="43.53597" lon="5.48727">
        <ele>332.60000610352</ele>
        <time>2013-02-23T09:59:25.000Z</time>
      </trkpt>
      <trkpt lat="43.536" lon="5.48733">
        <ele>332.79998779297</ele>
        <time>2013-02-23T09:59:26.000Z</time>
      </trkpt>
      <trkpt lat="43.53602" lon="5.4874">
        <ele>333.20001220703</ele>
        <time>2013-02-23T09:59:27.000Z</time>
      </trkpt>
      <trkpt lat="43.53606" lon="5.48752">
        <ele>333.79998779297</ele>
        <time>2013-02-23T09:59:29.000Z</time>
      </trkpt>
      <trkpt lat="43.53609" lon="5.48758">
        <ele>333.60000610352</ele>
        <time>2013-02-23T09:59:30.000Z</time>
      </trkpt>
      <trkpt lat="43.53611" lon="5.48764">
        <ele>333.60000610352</ele>
        <time>2013-02-23T09:59:31.000Z</time>
      </trkpt>
      <trkpt lat="43.53612" lon="5.4877">
        <ele>333.79998779297</ele>
        <time>2013-02-23T09:59:32.000Z</time>
      </trkpt>
      <trkpt lat="43.53612" lon="5.48776">
        <ele>334.20001220703</ele>
        <time>2013-02-23T09:59:33.000Z</time>
      </trkpt>
      <trkpt lat="43.53612" lon="5.48782">
        <ele>334.39999389648</ele>
        <time>2013-02-23T09:59:34.000Z</time>
      </trkpt>
      <trkpt lat="43.53612" lon="5.48789">
        <ele>334.79998779297</ele>
        <time>2013-02-23T09:59:35.000Z</time>
      </trkpt>
      <trkpt lat="43.53609" lon="5.48801">
        <ele>335.79998779297</ele>
        <time>2013-02-23T09:59:37.000Z</time>
      </trkpt>
      <trkpt lat="43.53607" lon="5.48812">
        <ele>336.60000610352</ele>
        <time>2013-02-23T09:59:39.000Z</time>
      </trkpt>
      <trkpt lat="43.53608" lon="5.48817">
        <ele>336.79998779297</ele>
        <time>2013-02-23T09:59:40.000Z</time>
      </trkpt>
      <trkpt lat="43.5361" lon="5.48821">
        <ele>336.79998779297</ele>
        <time>2013-02-23T09:59:41.000Z</time>
      </trkpt>
      <trkpt lat="43.53612" lon="5.48826">
        <ele>336.79998779297</ele>
        <time>2013-02-23T09:59:42.000Z</time>
      </trkpt>
      <trkpt lat="43.53615" lon="5.4883">
        <ele>336.79998779297</ele>
        <time>2013-02-23T09:59:43.000Z</time>
      </trkpt>
      <trkpt lat="43.53624" lon="5.48846">
        <ele>336.39999389648</ele>
        <time>2013-02-23T09:59:46.000Z</time>
      </trkpt>
      <trkpt lat="43.53626" lon="5.48851">
        <ele>336.39999389648</ele>
        <time>2013-02-23T09:59:47.000Z</time>
      </trkpt>
      <trkpt lat="43.53627" lon="5.48858">
        <ele>336.60000610352</ele>
        <time>2013-02-23T09:59:48.000Z</time>
      </trkpt>
      <trkpt lat="43.53627" lon="5.48864">
        <ele>336.79998779297</ele>
        <time>2013-02-23T09:59:49.000Z</time>
      </trkpt>
      <trkpt lat="43.53626" lon="5.48871">
        <ele>337.20001220703</ele>
        <time>2013-02-23T09:59:50.000Z</time>
      </trkpt>
      <trkpt lat="43.53625" lon="5.48877">
        <ele>337.39999389648</ele>
        <time>2013-02-23T09:59:51.000Z</time>
      </trkpt>
      <trkpt lat="43.53623" lon="5.48883">
        <ele>337.79998779297</ele>
        <time>2013-02-23T09:59:52.000Z</time>
      </trkpt>
      <trkpt lat="43.53622" lon="5.48889">
        <ele>338.20001220703</ele>
        <time>2013-02-23T09:59:53.000Z</time>
      </trkpt>
      <trkpt lat="43.53622" lon="5.48894">
        <ele>338.20001220703</ele>
        <time>2013-02-23T09:59:54.000Z</time>
      </trkpt>
      <trkpt lat="43.53624" lon="5.48899">
        <ele>338.39999389648</ele>
        <time>2013-02-23T09:59:55.000Z</time>
      </trkpt>
      <trkpt lat="43.53629" lon="5.48908">
        <ele>338.39999389648</ele>
        <time>2013-02-23T09:59:57.000Z</time>
      </trkpt>
      <trkpt lat="43.53631" lon="5.48913">
        <ele>338.39999389648</ele>
        <time>2013-02-23T09:59:58.000Z</time>
      </trkpt>
      <trkpt lat="43.53632" lon="5.48918">
        <ele>338.60000610352</ele>
        <time>2013-02-23T09:59:59.000Z</time>
      </trkpt>
      <trkpt lat="43.53651" lon="5.48951">
        <ele>339</ele>
        <time>2013-02-23T10:00:07.000Z</time>
      </trkpt>
      <trkpt lat="43.53654" lon="5.4895">
        <ele>338.79998779297</ele>
        <time>2013-02-23T10:00:08.000Z</time>
      </trkpt>
      <trkpt lat="43.53657" lon="5.48948">
        <ele>338.60000610352</ele>
        <time>2013-02-23T10:00:09.000Z</time>
      </trkpt>
      <trkpt lat="43.53665" lon="5.4894">
        <ele>338</ele>
        <time>2013-02-23T10:00:11.000Z</time>
      </trkpt>
      <trkpt lat="43.53669" lon="5.48936">
        <ele>338</ele>
        <time>2013-02-23T10:00:12.000Z</time>
      </trkpt>
      <trkpt lat="43.53682" lon="5.48927">
        <ele>338</ele>
        <time>2013-02-23T10:00:15.000Z</time>
      </trkpt>
      <trkpt lat="43.53686" lon="5.48924">
        <ele>338</ele>
        <time>2013-02-23T10:00:16.000Z</time>
      </trkpt>
      <trkpt lat="43.53691" lon="5.48922">
        <ele>338</ele>
        <time>2013-02-23T10:00:17.000Z</time>
      </trkpt>
      <trkpt lat="43.53695" lon="5.4892">
        <ele>338</ele>
        <time>2013-02-23T10:00:18.000Z</time>
      </trkpt>
      <trkpt lat="43.53698" lon="5.48916">
        <ele>338</ele>
        <time>2013-02-23T10:00:19.000Z</time>
      </trkpt>
      <trkpt lat="43.537" lon="5.48911">
        <ele>337.79998779297</ele>
        <time>2013-02-23T10:00:20.000Z</time>
      </trkpt>
      <trkpt lat="43.53702" lon="5.48906">
        <ele>337.39999389648</ele>
        <time>2013-02-23T10:00:21.000Z</time>
      </trkpt>
      <trkpt lat="43.53704" lon="5.48901">
        <ele>337.20001220703</ele>
        <time>2013-02-23T10:00:22.000Z</time>
      </trkpt>
      <trkpt lat="43.53705" lon="5.48895">
        <ele>336.79998779297</ele>
        <time>2013-02-23T10:00:23.000Z</time>
      </trkpt>
      <trkpt lat="43.53706" lon="5.48888">
        <ele>336.39999389648</ele>
        <time>2013-02-23T10:00:24.000Z</time>
      </trkpt>
      <trkpt lat="43.5371" lon="5.48869">
        <ele>335.20001220703</ele>
        <time>2013-02-23T10:00:27.000Z</time>
      </trkpt>
      <trkpt lat="43.53713" lon="5.48863">
        <ele>335</ele>
        <time>2013-02-23T10:00:28.000Z</time>
      </trkpt>
      <trkpt lat="43.5372" lon="5.48854">
        <ele>334.60000610352</ele>
        <time>2013-02-23T10:00:30.000Z</time>
      </trkpt>
      <trkpt lat="43.53727" lon="5.48846">
        <ele>334.20001220703</ele>
        <time>2013-02-23T10:00:32.000Z</time>
      </trkpt>
      <trkpt lat="43.53735" lon="5.4884">
        <ele>334</ele>
        <time>2013-02-23T10:00:34.000Z</time>
      </trkpt>
      <trkpt lat="43.53763" lon="5.48825">
        <ele>333.20001220703</ele>
        <time>2013-02-23T10:00:40.000Z</time>
      </trkpt>
      <trkpt lat="43.53767" lon="5.48823">
        <ele>333.20001220703</ele>
        <time>2013-02-23T10:00:41.000Z</time>
      </trkpt>
      <trkpt lat="43.53776" lon="5.4882">
        <ele>333.39999389648</ele>
        <time>2013-02-23T10:00:43.000Z</time>
      </trkpt>
      <trkpt lat="43.53781" lon="5.4882">
        <ele>333.79998779297</ele>
        <time>2013-02-23T10:00:44.000Z</time>
      </trkpt>
      <trkpt lat="43.53785" lon="5.48821">
        <ele>334.39999389648</ele>
        <time>2013-02-23T10:00:45.000Z</time>
      </trkpt>
      <trkpt lat="43.5379" lon="5.48823">
        <ele>335</ele>
        <time>2013-02-23T10:00:46.000Z</time>
      </trkpt>
      <trkpt lat="43.53794" lon="5.48824">
        <ele>335.60000610352</ele>
        <time>2013-02-23T10:00:47.000Z</time>
      </trkpt>
      <trkpt lat="43.53798" lon="5.48824">
        <ele>335.79998779297</ele>
        <time>2013-02-23T10:00:48.000Z</time>
      </trkpt>
      <trkpt lat="43.53802" lon="5.48822">
        <ele>336</ele>
        <time>2013-02-23T10:00:49.000Z</time>
      </trkpt>
      <trkpt lat="43.53805" lon="5.4882">
        <ele>335.79998779297</ele>
        <time>2013-02-23T10:00:50.000Z</time>
      </trkpt>
      <trkpt lat="43.53809" lon="5.48817">
        <ele>335.79998779297</ele>
        <time>2013-02-23T10:00:51.000Z</time>
      </trkpt>
      <trkpt lat="43.53813" lon="5.48815">
        <ele>335.79998779297</ele>
        <time>2013-02-23T10:00:52.000Z</time>
      </trkpt>
      <trkpt lat="43.53817" lon="5.48814">
        <ele>336</ele>
        <time>2013-02-23T10:00:53.000Z</time>
      </trkpt>
      <trkpt lat="43.53822" lon="5.48813">
        <ele>336.39999389648</ele>
        <time>2013-02-23T10:00:54.000Z</time>
      </trkpt>
      <trkpt lat="43.53826" lon="5.48814">
        <ele>336.79998779297</ele>
        <time>2013-02-23T10:00:55.000Z</time>
      </trkpt>
      <trkpt lat="43.5383" lon="5.48814">
        <ele>337.20001220703</ele>
        <time>2013-02-23T10:00:56.000Z</time>
      </trkpt>
      <trkpt lat="43.53838" lon="5.48814">
        <ele>337.20001220703</ele>
        <time>2013-02-23T10:00:58.000Z</time>
      </trkpt>
      <trkpt lat="43.53846" lon="5.48814">
        <ele>336.39999389648</ele>
        <time>2013-02-23T10:01:00.000Z</time>
      </trkpt>
      <trkpt lat="43.5385" lon="5.48816">
        <ele>336.39999389648</ele>
        <time>2013-02-23T10:01:01.000Z</time>
      </trkpt>
      <trkpt lat="43.53854" lon="5.48819">
        <ele>336.39999389648</ele>
        <time>2013-02-23T10:01:02.000Z</time>
      </trkpt>
      <trkpt lat="43.53856" lon="5.48824">
        <ele>336.79998779297</ele>
        <time>2013-02-23T10:01:03.000Z</time>
      </trkpt>
      <trkpt lat="43.53859" lon="5.48829">
        <ele>337.20001220703</ele>
        <time>2013-02-23T10:01:04.000Z</time>
      </trkpt>
      <trkpt lat="43.5386" lon="5.48835">
        <ele>337.79998779297</ele>
        <time>2013-02-23T10:01:05.000Z</time>
      </trkpt>
      <trkpt lat="43.53861" lon="5.4884">
        <ele>338</ele>
        <time>2013-02-23T10:01:06.000Z</time>
      </trkpt>
      <trkpt lat="43.53861" lon="5.48846">
        <ele>338.39999389648</ele>
        <time>2013-02-23T10:01:07.000Z</time>
      </trkpt>
      <trkpt lat="43.53861" lon="5.48852">
        <ele>338.79998779297</ele>
        <time>2013-02-23T10:01:08.000Z</time>
      </trkpt>
      <trkpt lat="43.5386" lon="5.48857">
        <ele>339.20001220703</ele>
        <time>2013-02-23T10:01:09.000Z</time>
      </trkpt>
      <trkpt lat="43.53867" lon="5.48877">
        <ele>340.20001220703</ele>
        <time>2013-02-23T10:01:14.000Z</time>
      </trkpt>
      <trkpt lat="43.53888" lon="5.4891">
        <ele>341.20001220703</ele>
        <time>2013-02-23T10:01:23.000Z</time>
      </trkpt>
      <trkpt lat="43.53876" lon="5.48945">
        <ele>343</ele>
        <time>2013-02-23T10:01:31.000Z</time>
      </trkpt>
      <trkpt lat="43.53862" lon="5.4896">
        <ele>344.20001220703</ele>
        <time>2013-02-23T10:01:36.000Z</time>
      </trkpt>
      <trkpt lat="43.53859" lon="5.48963">
        <ele>344.39999389648</ele>
        <time>2013-02-23T10:01:37.000Z</time>
      </trkpt>
      <trkpt lat="43.53825" lon="5.48984">
        <ele>346.39999389648</ele>
        <time>2013-02-23T10:01:46.000Z</time>
      </trkpt>
      <trkpt lat="43.53822" lon="5.48988">
        <ele>346.39999389648</ele>
        <time>2013-02-23T10:01:47.000Z</time>
      </trkpt>
      <trkpt lat="43.53811" lon="5.49002">
        <ele>346.60000610352</ele>
        <time>2013-02-23T10:01:50.000Z</time>
      </trkpt>
      <trkpt lat="43.53801" lon="5.49023">
        <ele>347</ele>
        <time>2013-02-23T10:01:54.000Z</time>
      </trkpt>
      <trkpt lat="43.53799" lon="5.49034">
        <ele>347.20001220703</ele>
        <time>2013-02-23T10:01:56.000Z</time>
      </trkpt>
      <trkpt lat="43.53798" lon="5.4904">
        <ele>347.20001220703</ele>
        <time>2013-02-23T10:01:57.000Z</time>
      </trkpt>
      <trkpt lat="43.53798" lon="5.49045">
        <ele>347.39999389648</ele>
        <time>2013-02-23T10:01:58.000Z</time>
      </trkpt>
      <trkpt lat="43.53798" lon="5.49051">
        <ele>347.60000610352</ele>
        <time>2013-02-23T10:01:59.000Z</time>
      </trkpt>
      <trkpt lat="43.53797" lon="5.49056">
        <ele>347.60000610352</ele>
        <time>2013-02-23T10:02:00.000Z</time>
      </trkpt>
      <trkpt lat="43.53796" lon="5.4906">
        <ele>347.79998779297</ele>
        <time>2013-02-23T10:02:01.000Z</time>
      </trkpt>
      <trkpt lat="43.53797" lon="5.49063">
        <ele>347.79998779297</ele>
        <time>2013-02-23T10:02:02.000Z</time>
      </trkpt>
      <trkpt lat="43.53797" lon="5.49065">
        <ele>347.79998779297</ele>
        <time>2013-02-23T10:02:03.000Z</time>
      </trkpt>
      <trkpt lat="43.53798" lon="5.49067">
        <ele>347.79998779297</ele>
        <time>2013-02-23T10:02:04.000Z</time>
      </trkpt>
      <trkpt lat="43.53798" lon="5.49069">
        <ele>347.79998779297</ele>
        <time>2013-02-23T10:02:05.000Z</time>
      </trkpt>
      <trkpt lat="43.53799" lon="5.4907">
        <ele>347.79998779297</ele>
        <time>2013-02-23T10:02:06.000Z</time>
      </trkpt>
      <trkpt lat="43.538" lon="5.49073">
        <ele>348</ele>
        <time>2013-02-23T10:02:16.000Z</time>
      </trkpt>
      <trkpt lat="43.538" lon="5.49072">
        <ele>348</ele>
        <time>2013-02-23T10:02:32.000Z</time>
      </trkpt>
      <trkpt lat="43.53799" lon="5.49072">
        <ele>348</ele>
        <time>2013-02-23T10:02:50.000Z</time>
      </trkpt>
      <trkpt lat="43.538" lon="5.49075">
        <ele>348</ele>
        <time>2013-02-23T10:02:57.000Z</time>
      </trkpt>
      <trkpt lat="43.53801" lon="5.49079">
        <ele>348</ele>
        <time>2013-02-23T10:03:04.000Z</time>
      </trkpt>
      <trkpt lat="43.53799" lon="5.49078">
        <ele>348</ele>
        <time>2013-02-23T10:03:27.000Z</time>
      </trkpt>
      <trkpt lat="43.53798" lon="5.49078">
        <ele>348</ele>
        <time>2013-02-23T10:03:56.000Z</time>
      </trkpt>
      <trkpt lat="43.53799" lon="5.49078">
        <ele>348</ele>
        <time>2013-02-23T10:04:21.000Z</time>
      </trkpt>
      <trkpt lat="43.53802" lon="5.4908">
        <ele>348</ele>
        <time>2013-02-23T10:04:34.000Z</time>
      </trkpt>
      <trkpt lat="43.53802" lon="5.49083">
        <ele>348</ele>
        <time>2013-02-23T10:04:51.000Z</time>
      </trkpt>
      <trkpt lat="43.53802" lon="5.49079">
        <ele>348</ele>
        <time>2013-02-23T10:05:02.000Z</time>
      </trkpt>
      <trkpt lat="43.53803" lon="5.4908">
        <ele>348</ele>
        <time>2013-02-23T10:05:31.000Z</time>
      </trkpt>
      <trkpt lat="43.53804" lon="5.49081">
        <ele>348</ele>
        <time>2013-02-23T10:05:46.000Z</time>
      </trkpt>
      <trkpt lat="43.53804" lon="5.49082">
        <ele>348</ele>
        <time>2013-02-23T10:05:56.000Z</time>
      </trkpt>
      <trkpt lat="43.53806" lon="5.49081">
        <ele>347.79998779297</ele>
        <time>2013-02-23T10:06:15.000Z</time>
      </trkpt>
      <trkpt lat="43.53806" lon="5.4908">
        <ele>347.79998779297</ele>
        <time>2013-02-23T10:06:36.000Z</time>
      </trkpt>
      <trkpt lat="43.53811" lon="5.49087">
        <ele>347.79998779297</ele>
        <time>2013-02-23T10:06:52.000Z</time>
      </trkpt>
      <trkpt lat="43.53827" lon="5.49109">
        <ele>347.39999389648</ele>
        <time>2013-02-23T10:07:00.000Z</time>
      </trkpt>
      <trkpt lat="43.53831" lon="5.49136">
        <ele>347.60000610352</ele>
        <time>2013-02-23T10:07:05.000Z</time>
      </trkpt>
      <trkpt lat="43.53832" lon="5.49142">
        <ele>347.60000610352</ele>
        <time>2013-02-23T10:07:06.000Z</time>
      </trkpt>
      <trkpt lat="43.53831" lon="5.49148">
        <ele>347.79998779297</ele>
        <time>2013-02-23T10:07:07.000Z</time>
      </trkpt>
      <trkpt lat="43.5383" lon="5.49154">
        <ele>347.79998779297</ele>
        <time>2013-02-23T10:07:08.000Z</time>
      </trkpt>
      <trkpt lat="43.53828" lon="5.49159">
        <ele>348</ele>
        <time>2013-02-23T10:07:09.000Z</time>
      </trkpt>
      <trkpt lat="43.53826" lon="5.49164">
        <ele>348</ele>
        <time>2013-02-23T10:07:10.000Z</time>
      </trkpt>
      <trkpt lat="43.53823" lon="5.49169">
        <ele>348.20001220703</ele>
        <time>2013-02-23T10:07:11.000Z</time>
      </trkpt>
      <trkpt lat="43.53821" lon="5.49173">
        <ele>348.20001220703</ele>
        <time>2013-02-23T10:07:12.000Z</time>
      </trkpt>
      <trkpt lat="43.5381" lon="5.49192">
        <ele>348.60000610352</ele>
        <time>2013-02-23T10:07:17.000Z</time>
      </trkpt>
      <trkpt lat="43.5381" lon="5.49197">
        <ele>348.60000610352</ele>
        <time>2013-02-23T10:07:18.000Z</time>
      </trkpt>
      <trkpt lat="43.5381" lon="5.49201">
        <ele>348.60000610352</ele>
        <time>2013-02-23T10:07:19.000Z</time>
      </trkpt>
      <trkpt lat="43.53811" lon="5.49205">
        <ele>348.60000610352</ele>
        <time>2013-02-23T10:07:20.000Z</time>
      </trkpt>
      <trkpt lat="43.53813" lon="5.49209">
        <ele>348.60000610352</ele>
        <time>2013-02-23T10:07:21.000Z</time>
      </trkpt>
      <trkpt lat="43.53814" lon="5.49213">
        <ele>348.39999389648</ele>
        <time>2013-02-23T10:07:22.000Z</time>
      </trkpt>
      <trkpt lat="43.53817" lon="5.49216">
        <ele>348.39999389648</ele>
        <time>2013-02-23T10:07:23.000Z</time>
      </trkpt>
      <trkpt lat="43.53818" lon="5.49221">
        <ele>348.39999389648</ele>
        <time>2013-02-23T10:07:24.000Z</time>
      </trkpt>
      <trkpt lat="43.5382" lon="5.49225">
        <ele>348.39999389648</ele>
        <time>2013-02-23T10:07:25.000Z</time>
      </trkpt>
      <trkpt lat="43.53821" lon="5.49266">
        <ele>349</ele>
        <time>2013-02-23T10:07:33.000Z</time>
      </trkpt>
      <trkpt lat="43.53828" lon="5.49317">
        <ele>350.39999389648</ele>
        <time>2013-02-23T10:07:43.000Z</time>
      </trkpt>
      <trkpt lat="43.53851" lon="5.49354">
        <ele>349.39999389648</ele>
        <time>2013-02-23T10:07:51.000Z</time>
      </trkpt>
      <trkpt lat="43.53853" lon="5.49359">
        <ele>349.20001220703</ele>
        <time>2013-02-23T10:07:52.000Z</time>
      </trkpt>
      <trkpt lat="43.53854" lon="5.49364">
        <ele>349.20001220703</ele>
        <time>2013-02-23T10:07:53.000Z</time>
      </trkpt>
      <trkpt lat="43.53854" lon="5.49369">
        <ele>349.20001220703</ele>
        <time>2013-02-23T10:07:54.000Z</time>
      </trkpt>
      <trkpt lat="43.53853" lon="5.49374">
        <ele>349.39999389648</ele>
        <time>2013-02-23T10:07:55.000Z</time>
      </trkpt>
      <trkpt lat="43.53851" lon="5.49379">
        <ele>349.60000610352</ele>
        <time>2013-02-23T10:07:56.000Z</time>
      </trkpt>
      <trkpt lat="43.53849" lon="5.49383">
        <ele>349.79998779297</ele>
        <time>2013-02-23T10:07:57.000Z</time>
      </trkpt>
      <trkpt lat="43.53847" lon="5.49387">
        <ele>350</ele>
        <time>2013-02-23T10:07:58.000Z</time>
      </trkpt>
      <trkpt lat="43.53845" lon="5.49391">
        <ele>350.39999389648</ele>
        <time>2013-02-23T10:07:59.000Z</time>
      </trkpt>
      <trkpt lat="43.53842" lon="5.49394">
        <ele>350.60000610352</ele>
        <time>2013-02-23T10:08:00.000Z</time>
      </trkpt>
      <trkpt lat="43.53824" lon="5.4942">
        <ele>352.20001220703</ele>
        <time>2013-02-23T10:08:07.000Z</time>
      </trkpt>
      <trkpt lat="43.53824" lon="5.49425">
        <ele>352.20001220703</ele>
        <time>2013-02-23T10:08:08.000Z</time>
      </trkpt>
      <trkpt lat="43.53825" lon="5.4943">
        <ele>352.20001220703</ele>
        <time>2013-02-23T10:08:09.000Z</time>
      </trkpt>
      <trkpt lat="43.53827" lon="5.49434">
        <ele>352.20001220703</ele>
        <time>2013-02-23T10:08:10.000Z</time>
      </trkpt>
      <trkpt lat="43.53829" lon="5.49437">
        <ele>352.20001220703</ele>
        <time>2013-02-23T10:08:11.000Z</time>
      </trkpt>
      <trkpt lat="43.53836" lon="5.49473">
        <ele>352</ele>
        <time>2013-02-23T10:08:19.000Z</time>
      </trkpt>
      <trkpt lat="43.5382" lon="5.49505">
        <ele>353.60000610352</ele>
        <time>2013-02-23T10:08:26.000Z</time>
      </trkpt>
      <trkpt lat="43.53817" lon="5.49508">
        <ele>353.79998779297</ele>
        <time>2013-02-23T10:08:27.000Z</time>
      </trkpt>
      <trkpt lat="43.53813" lon="5.49511">
        <ele>354</ele>
        <time>2013-02-23T10:08:28.000Z</time>
      </trkpt>
      <trkpt lat="43.53809" lon="5.49513">
        <ele>354.20001220703</ele>
        <time>2013-02-23T10:08:29.000Z</time>
      </trkpt>
      <trkpt lat="43.53806" lon="5.49515">
        <ele>354.39999389648</ele>
        <time>2013-02-23T10:08:30.000Z</time>
      </trkpt>
      <trkpt lat="43.53775" lon="5.49541">
        <ele>356.60000610352</ele>
        <time>2013-02-23T10:08:39.000Z</time>
      </trkpt>
      <trkpt lat="43.53734" lon="5.49571">
        <ele>357.79998779297</ele>
        <time>2013-02-23T10:08:51.000Z</time>
      </trkpt>
      <trkpt lat="43.53697" lon="5.4962">
        <ele>356</ele>
        <time>2013-02-23T10:09:03.000Z</time>
      </trkpt>
      <trkpt lat="43.5367" lon="5.49668">
        <ele>355</ele>
        <time>2013-02-23T10:09:12.000Z</time>
      </trkpt>
      <trkpt lat="43.53668" lon="5.49674">
        <ele>355</ele>
        <time>2013-02-23T10:09:13.000Z</time>
      </trkpt>
      <trkpt lat="43.53669" lon="5.4968">
        <ele>355</ele>
        <time>2013-02-23T10:09:14.000Z</time>
      </trkpt>
      <trkpt lat="43.53672" lon="5.49686">
        <ele>355</ele>
        <time>2013-02-23T10:09:15.000Z</time>
      </trkpt>
      <trkpt lat="43.53676" lon="5.4969">
        <ele>355.20001220703</ele>
        <time>2013-02-23T10:09:16.000Z</time>
      </trkpt>
      <trkpt lat="43.5368" lon="5.49693">
        <ele>355.39999389648</ele>
        <time>2013-02-23T10:09:17.000Z</time>
      </trkpt>
      <trkpt lat="43.53684" lon="5.49696">
        <ele>355.39999389648</ele>
        <time>2013-02-23T10:09:18.000Z</time>
      </trkpt>
      <trkpt lat="43.53688" lon="5.49697">
        <ele>355.60000610352</ele>
        <time>2013-02-23T10:09:19.000Z</time>
      </trkpt>
      <trkpt lat="43.53692" lon="5.497">
        <ele>355.79998779297</ele>
        <time>2013-02-23T10:09:20.000Z</time>
      </trkpt>
      <trkpt lat="43.53694" lon="5.49702">
        <ele>355.79998779297</ele>
        <time>2013-02-23T10:09:21.000Z</time>
      </trkpt>
      <trkpt lat="43.53704" lon="5.49714">
        <ele>356.20001220703</ele>
        <time>2013-02-23T10:09:28.000Z</time>
      </trkpt>
      <trkpt lat="43.53705" lon="5.49714">
        <ele>356.39999389648</ele>
        <time>2013-02-23T10:09:29.000Z</time>
      </trkpt>
      <trkpt lat="43.53707" lon="5.49715">
        <ele>356.39999389648</ele>
        <time>2013-02-23T10:09:30.000Z</time>
      </trkpt>
      <trkpt lat="43.53708" lon="5.49715">
        <ele>356.39999389648</ele>
        <time>2013-02-23T10:09:31.000Z</time>
      </trkpt>
      <trkpt lat="43.5371" lon="5.49715">
        <ele>356.60000610352</ele>
        <time>2013-02-23T10:09:32.000Z</time>
      </trkpt>
      <trkpt lat="43.53722" lon="5.49711">
        <ele>357</ele>
        <time>2013-02-23T10:09:42.000Z</time>
      </trkpt>
      <trkpt lat="43.53728" lon="5.49708">
        <ele>357</ele>
        <time>2013-02-23T10:09:48.000Z</time>
      </trkpt>
      <trkpt lat="43.53729" lon="5.49707">
        <ele>357.20001220703</ele>
        <time>2013-02-23T10:09:49.000Z</time>
      </trkpt>
      <trkpt lat="43.5373" lon="5.49707">
        <ele>357.20001220703</ele>
        <time>2013-02-23T10:09:50.000Z</time>
      </trkpt>
      <trkpt lat="43.53749" lon="5.49683">
        <ele>357.20001220703</ele>
        <time>2013-02-23T10:10:00.000Z</time>
      </trkpt>
      <trkpt lat="43.5377" lon="5.49649">
        <ele>356.39999389648</ele>
        <time>2013-02-23T10:10:11.000Z</time>
      </trkpt>
      <trkpt lat="43.53795" lon="5.49626">
        <ele>355.39999389648</ele>
        <time>2013-02-23T10:10:20.000Z</time>
      </trkpt>
      <trkpt lat="43.53819" lon="5.49615">
        <ele>354.20001220703</ele>
        <time>2013-02-23T10:10:29.000Z</time>
      </trkpt>
      <trkpt lat="43.5383" lon="5.49621">
        <ele>353.60000610352</ele>
        <time>2013-02-23T10:10:34.000Z</time>
      </trkpt>
      <trkpt lat="43.53831" lon="5.49622">
        <ele>353.60000610352</ele>
        <time>2013-02-23T10:10:35.000Z</time>
      </trkpt>
      <trkpt lat="43.53832" lon="5.49624">
        <ele>353.60000610352</ele>
        <time>2013-02-23T10:10:36.000Z</time>
      </trkpt>
      <trkpt lat="43.53831" lon="5.49626">
        <ele>353.60000610352</ele>
        <time>2013-02-23T10:10:37.000Z</time>
      </trkpt>
      <trkpt lat="43.53829" lon="5.49628">
        <ele>353.60000610352</ele>
        <time>2013-02-23T10:10:38.000Z</time>
      </trkpt>
      <trkpt lat="43.53827" lon="5.49634">
        <ele>353.60000610352</ele>
        <time>2013-02-23T10:10:41.000Z</time>
      </trkpt>
      <trkpt lat="43.53825" lon="5.49636">
        <ele>353.60000610352</ele>
        <time>2013-02-23T10:10:42.000Z</time>
      </trkpt>
      <trkpt lat="43.53822" lon="5.49642">
        <ele>353.79998779297</ele>
        <time>2013-02-23T10:10:44.000Z</time>
      </trkpt>
      <trkpt lat="43.53821" lon="5.49645">
        <ele>353.79998779297</ele>
        <time>2013-02-23T10:10:45.000Z</time>
      </trkpt>
      <trkpt lat="43.53815" lon="5.49682">
        <ele>354</ele>
        <time>2013-02-23T10:10:53.000Z</time>
      </trkpt>
      <trkpt lat="43.53809" lon="5.49706">
        <ele>354.60000610352</ele>
        <time>2013-02-23T10:10:58.000Z</time>
      </trkpt>
      <trkpt lat="43.53808" lon="5.49712">
        <ele>354.79998779297</ele>
        <time>2013-02-23T10:10:59.000Z</time>
      </trkpt>
      <trkpt lat="43.53809" lon="5.49753">
        <ele>355.20001220703</ele>
        <time>2013-02-23T10:11:08.000Z</time>
      </trkpt>
      <trkpt lat="43.538" lon="5.49798">
        <ele>354.39999389648</ele>
        <time>2013-02-23T10:11:19.000Z</time>
      </trkpt>
      <trkpt lat="43.53789" lon="5.49836">
        <ele>354.79998779297</ele>
        <time>2013-02-23T10:11:29.000Z</time>
      </trkpt>
      <trkpt lat="43.53765" lon="5.49876">
        <ele>357.79998779297</ele>
        <time>2013-02-23T10:11:41.000Z</time>
      </trkpt>
      <trkpt lat="43.53747" lon="5.499">
        <ele>359.79998779297</ele>
        <time>2013-02-23T10:11:51.000Z</time>
      </trkpt>
      <trkpt lat="43.53746" lon="5.49902">
        <ele>359.79998779297</ele>
        <time>2013-02-23T10:11:52.000Z</time>
      </trkpt>
      <trkpt lat="43.53747" lon="5.49904">
        <ele>359.79998779297</ele>
        <time>2013-02-23T10:11:53.000Z</time>
      </trkpt>
      <trkpt lat="43.53748" lon="5.49905">
        <ele>359.79998779297</ele>
        <time>2013-02-23T10:11:54.000Z</time>
      </trkpt>
      <trkpt lat="43.5375" lon="5.49908">
        <ele>359.79998779297</ele>
        <time>2013-02-23T10:11:55.000Z</time>
      </trkpt>
      <trkpt lat="43.53752" lon="5.49912">
        <ele>359.60000610352</ele>
        <time>2013-02-23T10:11:56.000Z</time>
      </trkpt>
      <trkpt lat="43.53753" lon="5.49916">
        <ele>359.39999389648</ele>
        <time>2013-02-23T10:11:57.000Z</time>
      </trkpt>
      <trkpt lat="43.53754" lon="5.49921">
        <ele>359.20001220703</ele>
        <time>2013-02-23T10:11:58.000Z</time>
      </trkpt>
      <trkpt lat="43.53755" lon="5.49926">
        <ele>359</ele>
        <time>2013-02-23T10:11:59.000Z</time>
      </trkpt>
      <trkpt lat="43.53755" lon="5.49931">
        <ele>358.79998779297</ele>
        <time>2013-02-23T10:12:00.000Z</time>
      </trkpt>
      <trkpt lat="43.53756" lon="5.49936">
        <ele>358.60000610352</ele>
        <time>2013-02-23T10:12:01.000Z</time>
      </trkpt>
      <trkpt lat="43.53757" lon="5.49947">
        <ele>358.20001220703</ele>
        <time>2013-02-23T10:12:03.000Z</time>
      </trkpt>
      <trkpt lat="43.53757" lon="5.49991">
        <ele>357.39999389648</ele>
        <time>2013-02-23T10:12:12.000Z</time>
      </trkpt>
      <trkpt lat="43.53758" lon="5.49994">
        <ele>357.20001220703</ele>
        <time>2013-02-23T10:12:14.000Z</time>
      </trkpt>
      <trkpt lat="43.5376" lon="5.49997">
        <ele>357</ele>
        <time>2013-02-23T10:12:15.000Z</time>
      </trkpt>
      <trkpt lat="43.53763" lon="5.49999">
        <ele>356.79998779297</ele>
        <time>2013-02-23T10:12:16.000Z</time>
      </trkpt>
      <trkpt lat="43.53765" lon="5.50003">
        <ele>356.39999389648</ele>
        <time>2013-02-23T10:12:17.000Z</time>
      </trkpt>
      <trkpt lat="43.53768" lon="5.50007">
        <ele>356.20001220703</ele>
        <time>2013-02-23T10:12:18.000Z</time>
      </trkpt>
      <trkpt lat="43.53781" lon="5.50023">
        <ele>355.39999389648</ele>
        <time>2013-02-23T10:12:22.000Z</time>
      </trkpt>
      <trkpt lat="43.53783" lon="5.50027">
        <ele>355.39999389648</ele>
        <time>2013-02-23T10:12:23.000Z</time>
      </trkpt>
      <trkpt lat="43.53786" lon="5.50031">
        <ele>355.20001220703</ele>
        <time>2013-02-23T10:12:24.000Z</time>
      </trkpt>
      <trkpt lat="43.53814" lon="5.50078">
        <ele>355.39999389648</ele>
        <time>2013-02-23T10:12:34.000Z</time>
      </trkpt>
      <trkpt lat="43.53819" lon="5.50088">
        <ele>355.60000610352</ele>
        <time>2013-02-23T10:12:36.000Z</time>
      </trkpt>
      <trkpt lat="43.53823" lon="5.50092">
        <ele>355.79998779297</ele>
        <time>2013-02-23T10:12:37.000Z</time>
      </trkpt>
      <trkpt lat="43.53829" lon="5.501">
        <ele>356</ele>
        <time>2013-02-23T10:12:39.000Z</time>
      </trkpt>
      <trkpt lat="43.53832" lon="5.50105">
        <ele>356.20001220703</ele>
        <time>2013-02-23T10:12:40.000Z</time>
      </trkpt>
      <trkpt lat="43.53843" lon="5.50123">
        <ele>356.60000610352</ele>
        <time>2013-02-23T10:12:44.000Z</time>
      </trkpt>
      <trkpt lat="43.53847" lon="5.50127">
        <ele>356.60000610352</ele>
        <time>2013-02-23T10:12:45.000Z</time>
      </trkpt>
      <trkpt lat="43.53851" lon="5.50131">
        <ele>356.60000610352</ele>
        <time>2013-02-23T10:12:46.000Z</time>
      </trkpt>
      <trkpt lat="43.53855" lon="5.50134">
        <ele>356.60000610352</ele>
        <time>2013-02-23T10:12:47.000Z</time>
      </trkpt>
      <trkpt lat="43.53859" lon="5.50138">
        <ele>356.79998779297</ele>
        <time>2013-02-23T10:12:48.000Z</time>
      </trkpt>
      <trkpt lat="43.53875" lon="5.50152">
        <ele>357.39999389648</ele>
        <time>2013-02-23T10:12:52.000Z</time>
      </trkpt>
      <trkpt lat="43.53878" lon="5.50156">
        <ele>357.60000610352</ele>
        <time>2013-02-23T10:12:53.000Z</time>
      </trkpt>
      <trkpt lat="43.53881" lon="5.5016">
        <ele>358</ele>
        <time>2013-02-23T10:12:54.000Z</time>
      </trkpt>
      <trkpt lat="43.53883" lon="5.50165">
        <ele>358.39999389648</ele>
        <time>2013-02-23T10:12:55.000Z</time>
      </trkpt>
      <trkpt lat="43.53885" lon="5.50169">
        <ele>358.79998779297</ele>
        <time>2013-02-23T10:12:56.000Z</time>
      </trkpt>
      <trkpt lat="43.53887" lon="5.50173">
        <ele>358.79998779297</ele>
        <time>2013-02-23T10:12:57.000Z</time>
      </trkpt>
      <trkpt lat="43.5389" lon="5.50176">
        <ele>358.79998779297</ele>
        <time>2013-02-23T10:12:58.000Z</time>
      </trkpt>
      <trkpt lat="43.53893" lon="5.50177">
        <ele>358.79998779297</ele>
        <time>2013-02-23T10:12:59.000Z</time>
      </trkpt>
      <trkpt lat="43.53897" lon="5.50178">
        <ele>358.79998779297</ele>
        <time>2013-02-23T10:13:00.000Z</time>
      </trkpt>
      <trkpt lat="43.53901" lon="5.50177">
        <ele>358.60000610352</ele>
        <time>2013-02-23T10:13:01.000Z</time>
      </trkpt>
      <trkpt lat="43.53909" lon="5.50174">
        <ele>358.39999389648</ele>
        <time>2013-02-23T10:13:03.000Z</time>
      </trkpt>
      <trkpt lat="43.53913" lon="5.50173">
        <ele>358.20001220703</ele>
        <time>2013-02-23T10:13:04.000Z</time>
      </trkpt>
      <trkpt lat="43.53934" lon="5.50186">
        <ele>357.39999389648</ele>
        <time>2013-02-23T10:13:11.000Z</time>
      </trkpt>
      <trkpt lat="43.53948" lon="5.50199">
        <ele>357.20001220703</ele>
        <time>2013-02-23T10:13:15.000Z</time>
      </trkpt>
      <trkpt lat="43.53951" lon="5.50202">
        <ele>357</ele>
        <time>2013-02-23T10:13:16.000Z</time>
      </trkpt>
      <trkpt lat="43.53985" lon="5.50233">
        <ele>356.60000610352</ele>
        <time>2013-02-23T10:13:26.000Z</time>
      </trkpt>
      <trkpt lat="43.5401" lon="5.50257">
        <ele>356.39999389648</ele>
        <time>2013-02-23T10:13:35.000Z</time>
      </trkpt>
      <trkpt lat="43.54013" lon="5.5026">
        <ele>356</ele>
        <time>2013-02-23T10:13:36.000Z</time>
      </trkpt>
      <trkpt lat="43.54017" lon="5.50264">
        <ele>356</ele>
        <time>2013-02-23T10:13:37.000Z</time>
      </trkpt>
      <trkpt lat="43.54023" lon="5.50274">
        <ele>355.79998779297</ele>
        <time>2013-02-23T10:13:39.000Z</time>
      </trkpt>
      <trkpt lat="43.54026" lon="5.50279">
        <ele>355.79998779297</ele>
        <time>2013-02-23T10:13:40.000Z</time>
      </trkpt>
      <trkpt lat="43.54029" lon="5.50284">
        <ele>355.79998779297</ele>
        <time>2013-02-23T10:13:41.000Z</time>
      </trkpt>
      <trkpt lat="43.54034" lon="5.50294">
        <ele>356</ele>
        <time>2013-02-23T10:13:43.000Z</time>
      </trkpt>
      <trkpt lat="43.54036" lon="5.50299">
        <ele>356</ele>
        <time>2013-02-23T10:13:44.000Z</time>
      </trkpt>
      <trkpt lat="43.54042" lon="5.50313">
        <ele>356.39999389648</ele>
        <time>2013-02-23T10:13:50.000Z</time>
      </trkpt>
      <trkpt lat="43.54042" lon="5.50315">
        <ele>356.39999389648</ele>
        <time>2013-02-23T10:13:51.000Z</time>
      </trkpt>
      <trkpt lat="43.54042" lon="5.50317">
        <ele>356.60000610352</ele>
        <time>2013-02-23T10:13:52.000Z</time>
      </trkpt>
      <trkpt lat="43.54041" lon="5.50319">
        <ele>356.79998779297</ele>
        <time>2013-02-23T10:13:53.000Z</time>
      </trkpt>
      <trkpt lat="43.54039" lon="5.50319">
        <ele>356.79998779297</ele>
        <time>2013-02-23T10:13:54.000Z</time>
      </trkpt>
      <trkpt lat="43.54037" lon="5.50319">
        <ele>357</ele>
        <time>2013-02-23T10:13:55.000Z</time>
      </trkpt>
      <trkpt lat="43.54035" lon="5.5032">
        <ele>357</ele>
        <time>2013-02-23T10:13:56.000Z</time>
      </trkpt>
      <trkpt lat="43.54032" lon="5.50321">
        <ele>357.20001220703</ele>
        <time>2013-02-23T10:13:57.000Z</time>
      </trkpt>
      <trkpt lat="43.54029" lon="5.50321">
        <ele>357.39999389648</ele>
        <time>2013-02-23T10:13:58.000Z</time>
      </trkpt>
      <trkpt lat="43.54026" lon="5.50322">
        <ele>357.39999389648</ele>
        <time>2013-02-23T10:13:59.000Z</time>
      </trkpt>
      <trkpt lat="43.54024" lon="5.50322">
        <ele>357.60000610352</ele>
        <time>2013-02-23T10:14:00.000Z</time>
      </trkpt>
      <trkpt lat="43.54022" lon="5.50322">
        <ele>357.79998779297</ele>
        <time>2013-02-23T10:14:01.000Z</time>
      </trkpt>
      <trkpt lat="43.5402" lon="5.50324">
        <ele>357.79998779297</ele>
        <time>2013-02-23T10:14:02.000Z</time>
      </trkpt>
      <trkpt lat="43.54018" lon="5.50325">
        <ele>358</ele>
        <time>2013-02-23T10:14:03.000Z</time>
      </trkpt>
      <trkpt lat="43.53999" lon="5.50326">
        <ele>358.79998779297</ele>
        <time>2013-02-23T10:14:10.000Z</time>
      </trkpt>
      <trkpt lat="43.53977" lon="5.50336">
        <ele>359.60000610352</ele>
        <time>2013-02-23T10:14:17.000Z</time>
      </trkpt>
      <trkpt lat="43.53974" lon="5.50338">
        <ele>359.60000610352</ele>
        <time>2013-02-23T10:14:18.000Z</time>
      </trkpt>
      <trkpt lat="43.53972" lon="5.5034">
        <ele>359.79998779297</ele>
        <time>2013-02-23T10:14:19.000Z</time>
      </trkpt>
      <trkpt lat="43.53969" lon="5.50342">
        <ele>359.79998779297</ele>
        <time>2013-02-23T10:14:20.000Z</time>
      </trkpt>
      <trkpt lat="43.53966" lon="5.50344">
        <ele>359.79998779297</ele>
        <time>2013-02-23T10:14:21.000Z</time>
      </trkpt>
      <trkpt lat="43.53964" lon="5.50346">
        <ele>360</ele>
        <time>2013-02-23T10:14:22.000Z</time>
      </trkpt>
      <trkpt lat="43.53962" lon="5.50348">
        <ele>360</ele>
        <time>2013-02-23T10:14:23.000Z</time>
      </trkpt>
      <trkpt lat="43.5396" lon="5.50351">
        <ele>360</ele>
        <time>2013-02-23T10:14:24.000Z</time>
      </trkpt>
      <trkpt lat="43.53958" lon="5.50355">
        <ele>360.20001220703</ele>
        <time>2013-02-23T10:14:25.000Z</time>
      </trkpt>
      <trkpt lat="43.53957" lon="5.50359">
        <ele>360.20001220703</ele>
        <time>2013-02-23T10:14:26.000Z</time>
      </trkpt>
      <trkpt lat="43.53956" lon="5.50362">
        <ele>360.20001220703</ele>
        <time>2013-02-23T10:14:27.000Z</time>
      </trkpt>
      <trkpt lat="43.53956" lon="5.50365">
        <ele>360.20001220703</ele>
        <time>2013-02-23T10:14:28.000Z</time>
      </trkpt>
      <trkpt lat="43.53956" lon="5.50368">
        <ele>360.39999389648</ele>
        <time>2013-02-23T10:14:29.000Z</time>
      </trkpt>
      <trkpt lat="43.53956" lon="5.50371">
        <ele>360.39999389648</ele>
        <time>2013-02-23T10:14:30.000Z</time>
      </trkpt>
      <trkpt lat="43.53955" lon="5.50374">
        <ele>360.39999389648</ele>
        <time>2013-02-23T10:14:31.000Z</time>
      </trkpt>
      <trkpt lat="43.53953" lon="5.50376">
        <ele>360.39999389648</ele>
        <time>2013-02-23T10:14:32.000Z</time>
      </trkpt>
      <trkpt lat="43.53951" lon="5.50377">
        <ele>360.39999389648</ele>
        <time>2013-02-23T10:14:33.000Z</time>
      </trkpt>
      <trkpt lat="43.53948" lon="5.50379">
        <ele>360.39999389648</ele>
        <time>2013-02-23T10:14:34.000Z</time>
      </trkpt>
      <trkpt lat="43.53946" lon="5.50382">
        <ele>360.39999389648</ele>
        <time>2013-02-23T10:14:35.000Z</time>
      </trkpt>
      <trkpt lat="43.53934" lon="5.50394">
        <ele>360.39999389648</ele>
        <time>2013-02-23T10:14:41.000Z</time>
      </trkpt>
      <trkpt lat="43.53934" lon="5.50396">
        <ele>360.39999389648</ele>
        <time>2013-02-23T10:14:42.000Z</time>
      </trkpt>
      <trkpt lat="43.53934" lon="5.50399">
        <ele>360.39999389648</ele>
        <time>2013-02-23T10:14:43.000Z</time>
      </trkpt>
      <trkpt lat="43.53934" lon="5.50402">
        <ele>360.39999389648</ele>
        <time>2013-02-23T10:14:44.000Z</time>
      </trkpt>
      <trkpt lat="43.53934" lon="5.50404">
        <ele>360.39999389648</ele>
        <time>2013-02-23T10:14:45.000Z</time>
      </trkpt>
      <trkpt lat="43.53933" lon="5.50407">
        <ele>360.39999389648</ele>
        <time>2013-02-23T10:14:46.000Z</time>
      </trkpt>
      <trkpt lat="43.53908" lon="5.50431">
        <ele>359.60000610352</ele>
        <time>2013-02-23T10:14:54.000Z</time>
      </trkpt>
      <trkpt lat="43.53879" lon="5.50439">
        <ele>358.79998779297</ele>
        <time>2013-02-23T10:15:02.000Z</time>
      </trkpt>
      <trkpt lat="43.53859" lon="5.50436">
        <ele>358.20001220703</ele>
        <time>2013-02-23T10:15:08.000Z</time>
      </trkpt>
      <trkpt lat="43.53842" lon="5.50455">
        <ele>357.60000610352</ele>
        <time>2013-02-23T10:15:14.000Z</time>
      </trkpt>
      <trkpt lat="43.53839" lon="5.50457">
        <ele>357.60000610352</ele>
        <time>2013-02-23T10:15:15.000Z</time>
      </trkpt>
      <trkpt lat="43.53835" lon="5.50458">
        <ele>357.39999389648</ele>
        <time>2013-02-23T10:15:16.000Z</time>
      </trkpt>
      <trkpt lat="43.53832" lon="5.50459">
        <ele>357.39999389648</ele>
        <time>2013-02-23T10:15:17.000Z</time>
      </trkpt>
      <trkpt lat="43.53828" lon="5.50459">
        <ele>357.39999389648</ele>
        <time>2013-02-23T10:15:18.000Z</time>
      </trkpt>
      <trkpt lat="43.53824" lon="5.5046">
        <ele>357.39999389648</ele>
        <time>2013-02-23T10:15:19.000Z</time>
      </trkpt>
      <trkpt lat="43.5382" lon="5.50461">
        <ele>357.39999389648</ele>
        <time>2013-02-23T10:15:20.000Z</time>
      </trkpt>
      <trkpt lat="43.53816" lon="5.50464">
        <ele>357.20001220703</ele>
        <time>2013-02-23T10:15:21.000Z</time>
      </trkpt>
      <trkpt lat="43.53803" lon="5.5047">
        <ele>357</ele>
        <time>2013-02-23T10:15:24.000Z</time>
      </trkpt>
      <trkpt lat="43.53798" lon="5.50472">
        <ele>357</ele>
        <time>2013-02-23T10:15:25.000Z</time>
      </trkpt>
      <trkpt lat="43.53794" lon="5.50475">
        <ele>356.79998779297</ele>
        <time>2013-02-23T10:15:26.000Z</time>
      </trkpt>
      <trkpt lat="43.5379" lon="5.50477">
        <ele>356.79998779297</ele>
        <time>2013-02-23T10:15:27.000Z</time>
      </trkpt>
      <trkpt lat="43.53785" lon="5.50477">
        <ele>356.60000610352</ele>
        <time>2013-02-23T10:15:28.000Z</time>
      </trkpt>
      <trkpt lat="43.53756" lon="5.50484">
        <ele>356</ele>
        <time>2013-02-23T10:15:34.000Z</time>
      </trkpt>
      <trkpt lat="43.53751" lon="5.50485">
        <ele>355.79998779297</ele>
        <time>2013-02-23T10:15:35.000Z</time>
      </trkpt>
      <trkpt lat="43.53747" lon="5.50488">
        <ele>355.60000610352</ele>
        <time>2013-02-23T10:15:36.000Z</time>
      </trkpt>
      <trkpt lat="43.53742" lon="5.5049">
        <ele>355.20001220703</ele>
        <time>2013-02-23T10:15:37.000Z</time>
      </trkpt>
      <trkpt lat="43.53734" lon="5.50492">
        <ele>354.79998779297</ele>
        <time>2013-02-23T10:15:39.000Z</time>
      </trkpt>
      <trkpt lat="43.5373" lon="5.50491">
        <ele>354.79998779297</ele>
        <time>2013-02-23T10:15:40.000Z</time>
      </trkpt>
      <trkpt lat="43.53727" lon="5.50491">
        <ele>354.60000610352</ele>
        <time>2013-02-23T10:15:41.000Z</time>
      </trkpt>
      <trkpt lat="43.53723" lon="5.50492">
        <ele>354.39999389648</ele>
        <time>2013-02-23T10:15:42.000Z</time>
      </trkpt>
      <trkpt lat="43.53719" lon="5.50494">
        <ele>354.20001220703</ele>
        <time>2013-02-23T10:15:43.000Z</time>
      </trkpt>
      <trkpt lat="43.53715" lon="5.50497">
        <ele>353.79998779297</ele>
        <time>2013-02-23T10:15:44.000Z</time>
      </trkpt>
      <trkpt lat="43.53712" lon="5.50501">
        <ele>353.39999389648</ele>
        <time>2013-02-23T10:15:45.000Z</time>
      </trkpt>
      <trkpt lat="43.53709" lon="5.50506">
        <ele>353</ele>
        <time>2013-02-23T10:15:46.000Z</time>
      </trkpt>
      <trkpt lat="43.53705" lon="5.50511">
        <ele>352.60000610352</ele>
        <time>2013-02-23T10:15:47.000Z</time>
      </trkpt>
      <trkpt lat="43.53701" lon="5.50515">
        <ele>352.20001220703</ele>
        <time>2013-02-23T10:15:48.000Z</time>
      </trkpt>
      <trkpt lat="43.53696" lon="5.50519">
        <ele>351.79998779297</ele>
        <time>2013-02-23T10:15:49.000Z</time>
      </trkpt>
      <trkpt lat="43.53691" lon="5.50522">
        <ele>351.60000610352</ele>
        <time>2013-02-23T10:15:50.000Z</time>
      </trkpt>
      <trkpt lat="43.53687" lon="5.50526">
        <ele>351.20001220703</ele>
        <time>2013-02-23T10:15:51.000Z</time>
      </trkpt>
      <trkpt lat="43.53683" lon="5.50531">
        <ele>350.79998779297</ele>
        <time>2013-02-23T10:15:52.000Z</time>
      </trkpt>
      <trkpt lat="43.5368" lon="5.50535">
        <ele>350.60000610352</ele>
        <time>2013-02-23T10:15:53.000Z</time>
      </trkpt>
      <trkpt lat="43.53676" lon="5.5054">
        <ele>350.20001220703</ele>
        <time>2013-02-23T10:15:54.000Z</time>
      </trkpt>
      <trkpt lat="43.53672" lon="5.50544">
        <ele>350</ele>
        <time>2013-02-23T10:15:55.000Z</time>
      </trkpt>
      <trkpt lat="43.53667" lon="5.50548">
        <ele>349.60000610352</ele>
        <time>2013-02-23T10:15:56.000Z</time>
      </trkpt>
      <trkpt lat="43.53662" lon="5.50551">
        <ele>349</ele>
        <time>2013-02-23T10:15:57.000Z</time>
      </trkpt>
      <trkpt lat="43.53657" lon="5.50553">
        <ele>348.39999389648</ele>
        <time>2013-02-23T10:15:58.000Z</time>
      </trkpt>
      <trkpt lat="43.53643" lon="5.5056">
        <ele>346.79998779297</ele>
        <time>2013-02-23T10:16:01.000Z</time>
      </trkpt>
      <trkpt lat="43.53638" lon="5.50559">
        <ele>346.20001220703</ele>
        <time>2013-02-23T10:16:02.000Z</time>
      </trkpt>
      <trkpt lat="43.53634" lon="5.50558">
        <ele>346</ele>
        <time>2013-02-23T10:16:03.000Z</time>
      </trkpt>
      <trkpt lat="43.53623" lon="5.50558">
        <ele>344.79998779297</ele>
        <time>2013-02-23T10:16:06.000Z</time>
      </trkpt>
      <trkpt lat="43.53619" lon="5.50562">
        <ele>344.20001220703</ele>
        <time>2013-02-23T10:16:07.000Z</time>
      </trkpt>
      <trkpt lat="43.53617" lon="5.50567">
        <ele>343.60000610352</ele>
        <time>2013-02-23T10:16:08.000Z</time>
      </trkpt>
      <trkpt lat="43.53616" lon="5.50573">
        <ele>343.20001220703</ele>
        <time>2013-02-23T10:16:09.000Z</time>
      </trkpt>
      <trkpt lat="43.53617" lon="5.50579">
        <ele>342.79998779297</ele>
        <time>2013-02-23T10:16:10.000Z</time>
      </trkpt>
      <trkpt lat="43.53618" lon="5.50585">
        <ele>342.60000610352</ele>
        <time>2013-02-23T10:16:11.000Z</time>
      </trkpt>
      <trkpt lat="43.5362" lon="5.50592">
        <ele>342.20001220703</ele>
        <time>2013-02-23T10:16:12.000Z</time>
      </trkpt>
      <trkpt lat="43.53621" lon="5.50599">
        <ele>341.60000610352</ele>
        <time>2013-02-23T10:16:13.000Z</time>
      </trkpt>
      <trkpt lat="43.53622" lon="5.50606">
        <ele>341.20001220703</ele>
        <time>2013-02-23T10:16:14.000Z</time>
      </trkpt>
      <trkpt lat="43.53622" lon="5.50647">
        <ele>338</ele>
        <time>2013-02-23T10:16:20.000Z</time>
      </trkpt>
      <trkpt lat="43.53621" lon="5.50654">
        <ele>337.39999389648</ele>
        <time>2013-02-23T10:16:21.000Z</time>
      </trkpt>
      <trkpt lat="43.5362" lon="5.50661">
        <ele>336.60000610352</ele>
        <time>2013-02-23T10:16:22.000Z</time>
      </trkpt>
      <trkpt lat="43.5362" lon="5.50668">
        <ele>336</ele>
        <time>2013-02-23T10:16:23.000Z</time>
      </trkpt>
      <trkpt lat="43.5362" lon="5.50674">
        <ele>335.60000610352</ele>
        <time>2013-02-23T10:16:24.000Z</time>
      </trkpt>
      <trkpt lat="43.53621" lon="5.5068">
        <ele>335.39999389648</ele>
        <time>2013-02-23T10:16:25.000Z</time>
      </trkpt>
      <trkpt lat="43.53623" lon="5.50684">
        <ele>335.39999389648</ele>
        <time>2013-02-23T10:16:26.000Z</time>
      </trkpt>
      <trkpt lat="43.53625" lon="5.50687">
        <ele>335.39999389648</ele>
        <time>2013-02-23T10:16:27.000Z</time>
      </trkpt>
      <trkpt lat="43.53627" lon="5.5069">
        <ele>335.60000610352</ele>
        <time>2013-02-23T10:16:28.000Z</time>
      </trkpt>
      <trkpt lat="43.53648" lon="5.50719">
        <ele>336.79998779297</ele>
        <time>2013-02-23T10:16:39.000Z</time>
      </trkpt>
      <trkpt lat="43.53675" lon="5.50751">
        <ele>338.39999389648</ele>
        <time>2013-02-23T10:16:49.000Z</time>
      </trkpt>
      <trkpt lat="43.53697" lon="5.50784">
        <ele>339.39999389648</ele>
        <time>2013-02-23T10:16:58.000Z</time>
      </trkpt>
      <trkpt lat="43.5371" lon="5.50849">
        <ele>339.60000610352</ele>
        <time>2013-02-23T10:17:11.000Z</time>
      </trkpt>
      <trkpt lat="43.53705" lon="5.50902">
        <ele>339.20001220703</ele>
        <time>2013-02-23T10:17:23.000Z</time>
      </trkpt>
      <trkpt lat="43.53698" lon="5.50936">
        <ele>338.39999389648</ele>
        <time>2013-02-23T10:17:32.000Z</time>
      </trkpt>
      <trkpt lat="43.53693" lon="5.50972">
        <ele>337.20001220703</ele>
        <time>2013-02-23T10:17:40.000Z</time>
      </trkpt>
      <trkpt lat="43.537" lon="5.50988">
        <ele>337.39999389648</ele>
        <time>2013-02-23T10:17:44.000Z</time>
      </trkpt>
      <trkpt lat="43.53701" lon="5.50992">
        <ele>337.39999389648</ele>
        <time>2013-02-23T10:17:45.000Z</time>
      </trkpt>
      <trkpt lat="43.53701" lon="5.50997">
        <ele>337.20001220703</ele>
        <time>2013-02-23T10:17:46.000Z</time>
      </trkpt>
      <trkpt lat="43.53701" lon="5.51002">
        <ele>337</ele>
        <time>2013-02-23T10:17:47.000Z</time>
      </trkpt>
      <trkpt lat="43.53702" lon="5.51007">
        <ele>336.39999389648</ele>
        <time>2013-02-23T10:17:48.000Z</time>
      </trkpt>
      <trkpt lat="43.53704" lon="5.51012">
        <ele>336</ele>
        <time>2013-02-23T10:17:49.000Z</time>
      </trkpt>
      <trkpt lat="43.53705" lon="5.51016">
        <ele>335.60000610352</ele>
        <time>2013-02-23T10:17:50.000Z</time>
      </trkpt>
      <trkpt lat="43.53712" lon="5.5103">
        <ele>335</ele>
        <time>2013-02-23T10:17:58.000Z</time>
      </trkpt>
      <trkpt lat="43.53712" lon="5.51032">
        <ele>334.79998779297</ele>
        <time>2013-02-23T10:17:59.000Z</time>
      </trkpt>
      <trkpt lat="43.53712" lon="5.51035">
        <ele>334.39999389648</ele>
        <time>2013-02-23T10:18:00.000Z</time>
      </trkpt>
      <trkpt lat="43.53712" lon="5.51038">
        <ele>334.20001220703</ele>
        <time>2013-02-23T10:18:01.000Z</time>
      </trkpt>
      <trkpt lat="43.53716" lon="5.5104">
        <ele>334.60000610352</ele>
        <time>2013-02-23T10:18:03.000Z</time>
      </trkpt>
      <trkpt lat="43.53725" lon="5.51044">
        <ele>335.79998779297</ele>
        <time>2013-02-23T10:18:07.000Z</time>
      </trkpt>
      <trkpt lat="43.5372" lon="5.51048">
        <ele>334.60000610352</ele>
        <time>2013-02-23T10:18:11.000Z</time>
      </trkpt>
      <trkpt lat="43.53717" lon="5.51052">
        <ele>333.39999389648</ele>
        <time>2013-02-23T10:18:14.000Z</time>
      </trkpt>
      <trkpt lat="43.53712" lon="5.51057">
        <ele>332.20001220703</ele>
        <time>2013-02-23T10:18:17.000Z</time>
      </trkpt>
      <trkpt lat="43.53712" lon="5.5106">
        <ele>331.79998779297</ele>
        <time>2013-02-23T10:18:19.000Z</time>
      </trkpt>
      <trkpt lat="43.53716" lon="5.51068">
        <ele>331.79998779297</ele>
        <time>2013-02-23T10:18:23.000Z</time>
      </trkpt>
      <trkpt lat="43.53715" lon="5.51071">
        <ele>331.20001220703</ele>
        <time>2013-02-23T10:18:24.000Z</time>
      </trkpt>
      <trkpt lat="43.53711" lon="5.51079">
        <ele>329.60000610352</ele>
        <time>2013-02-23T10:18:26.000Z</time>
      </trkpt>
      <trkpt lat="43.53709" lon="5.51083">
        <ele>328.60000610352</ele>
        <time>2013-02-23T10:18:27.000Z</time>
      </trkpt>
      <trkpt lat="43.53707" lon="5.51092">
        <ele>327.39999389648</ele>
        <time>2013-02-23T10:18:30.000Z</time>
      </trkpt>
      <trkpt lat="43.53707" lon="5.51095">
        <ele>327.60000610352</ele>
        <time>2013-02-23T10:18:31.000Z</time>
      </trkpt>
      <trkpt lat="43.53709" lon="5.51097">
        <ele>327.60000610352</ele>
        <time>2013-02-23T10:18:32.000Z</time>
      </trkpt>
      <trkpt lat="43.5371" lon="5.511">
        <ele>327.79998779297</ele>
        <time>2013-02-23T10:18:33.000Z</time>
      </trkpt>
      <trkpt lat="43.53711" lon="5.51103">
        <ele>327.79998779297</ele>
        <time>2013-02-23T10:18:34.000Z</time>
      </trkpt>
      <trkpt lat="43.53712" lon="5.51106">
        <ele>328</ele>
        <time>2013-02-23T10:18:35.000Z</time>
      </trkpt>
      <trkpt lat="43.53713" lon="5.51108">
        <ele>328.20001220703</ele>
        <time>2013-02-23T10:18:36.000Z</time>
      </trkpt>
      <trkpt lat="43.53715" lon="5.5111">
        <ele>328.39999389648</ele>
        <time>2013-02-23T10:18:37.000Z</time>
      </trkpt>
      <trkpt lat="43.53724" lon="5.51123">
        <ele>330</ele>
        <time>2013-02-23T10:18:42.000Z</time>
      </trkpt>
      <trkpt lat="43.53726" lon="5.51124">
        <ele>330.39999389648</ele>
        <time>2013-02-23T10:18:43.000Z</time>
      </trkpt>
      <trkpt lat="43.53727" lon="5.51125">
        <ele>330.60000610352</ele>
        <time>2013-02-23T10:18:44.000Z</time>
      </trkpt>
      <trkpt lat="43.53729" lon="5.51128">
        <ele>331</ele>
        <time>2013-02-23T10:18:46.000Z</time>
      </trkpt>
      <trkpt lat="43.53731" lon="5.51129">
        <ele>331.39999389648</ele>
        <time>2013-02-23T10:18:47.000Z</time>
      </trkpt>
      <trkpt lat="43.53743" lon="5.51151">
        <ele>333.39999389648</ele>
        <time>2013-02-23T10:18:56.000Z</time>
      </trkpt>
      <trkpt lat="43.53729" lon="5.51175">
        <ele>329.60000610352</ele>
        <time>2013-02-23T10:19:05.000Z</time>
      </trkpt>
      <trkpt lat="43.53703" lon="5.51187">
        <ele>323.39999389648</ele>
        <time>2013-02-23T10:19:15.000Z</time>
      </trkpt>
      <trkpt lat="43.53681" lon="5.51214">
        <ele>319.79998779297</ele>
        <time>2013-02-23T10:19:24.000Z</time>
      </trkpt>
      <trkpt lat="43.53673" lon="5.51259">
        <ele>320.39999389648</ele>
        <time>2013-02-23T10:19:34.000Z</time>
      </trkpt>
      <trkpt lat="43.53672" lon="5.51305">
        <ele>320.39999389648</ele>
        <time>2013-02-23T10:19:44.000Z</time>
      </trkpt>
      <trkpt lat="43.53674" lon="5.51309">
        <ele>320.60000610352</ele>
        <time>2013-02-23T10:19:45.000Z</time>
      </trkpt>
      <trkpt lat="43.53684" lon="5.51341">
        <ele>323</ele>
        <time>2013-02-23T10:19:53.000Z</time>
      </trkpt>
      <trkpt lat="43.5369" lon="5.5135">
        <ele>324</ele>
        <time>2013-02-23T10:20:01.000Z</time>
      </trkpt>
      <trkpt lat="43.53697" lon="5.51356">
        <ele>325.39999389648</ele>
        <time>2013-02-23T10:20:12.000Z</time>
      </trkpt>
      <trkpt lat="43.53713" lon="5.51371">
        <ele>329</ele>
        <time>2013-02-23T10:20:20.000Z</time>
      </trkpt>
      <trkpt lat="43.53734" lon="5.51397">
        <ele>333.39999389648</ele>
        <time>2013-02-23T10:20:31.000Z</time>
      </trkpt>
      <trkpt lat="43.53737" lon="5.51412">
        <ele>333.60000610352</ele>
        <time>2013-02-23T10:20:35.000Z</time>
      </trkpt>
      <trkpt lat="43.53736" lon="5.51414">
        <ele>333.39999389648</ele>
        <time>2013-02-23T10:20:36.000Z</time>
      </trkpt>
      <trkpt lat="43.53725" lon="5.51423">
        <ele>330.20001220703</ele>
        <time>2013-02-23T10:20:43.000Z</time>
      </trkpt>
      <trkpt lat="43.53711" lon="5.51444">
        <ele>326</ele>
        <time>2013-02-23T10:20:51.000Z</time>
      </trkpt>
      <trkpt lat="43.5371" lon="5.5146">
        <ele>325.39999389648</ele>
        <time>2013-02-23T10:20:55.000Z</time>
      </trkpt>
      <trkpt lat="43.53732" lon="5.51507">
        <ele>330</ele>
        <time>2013-02-23T10:21:06.000Z</time>
      </trkpt>
      <trkpt lat="43.53754" lon="5.5155">
        <ele>330.60000610352</ele>
        <time>2013-02-23T10:21:16.000Z</time>
      </trkpt>
      <trkpt lat="43.53784" lon="5.51589">
        <ele>331.79998779297</ele>
        <time>2013-02-23T10:21:27.000Z</time>
      </trkpt>
      <trkpt lat="43.53788" lon="5.51605">
        <ele>330.60000610352</ele>
        <time>2013-02-23T10:21:30.000Z</time>
      </trkpt>
      <trkpt lat="43.53792" lon="5.51616">
        <ele>330</ele>
        <time>2013-02-23T10:21:32.000Z</time>
      </trkpt>
      <trkpt lat="43.53793" lon="5.51621">
        <ele>329.60000610352</ele>
        <time>2013-02-23T10:21:33.000Z</time>
      </trkpt>
      <trkpt lat="43.53798" lon="5.51656">
        <ele>326</ele>
        <time>2013-02-23T10:21:40.000Z</time>
      </trkpt>
      <trkpt lat="43.53801" lon="5.51661">
        <ele>326.20001220703</ele>
        <time>2013-02-23T10:21:41.000Z</time>
      </trkpt>
      <trkpt lat="43.53804" lon="5.51664">
        <ele>326.60000610352</ele>
        <time>2013-02-23T10:21:42.000Z</time>
      </trkpt>
      <trkpt lat="43.53811" lon="5.5167">
        <ele>327.79998779297</ele>
        <time>2013-02-23T10:21:44.000Z</time>
      </trkpt>
      <trkpt lat="43.53815" lon="5.51671">
        <ele>328.60000610352</ele>
        <time>2013-02-23T10:21:45.000Z</time>
      </trkpt>
      <trkpt lat="43.53828" lon="5.51674">
        <ele>331.39999389648</ele>
        <time>2013-02-23T10:21:48.000Z</time>
      </trkpt>
      <trkpt lat="43.53855" lon="5.51687">
        <ele>332.79998779297</ele>
        <time>2013-02-23T10:21:54.000Z</time>
      </trkpt>
      <trkpt lat="43.5387" lon="5.51699">
        <ele>332.20001220703</ele>
        <time>2013-02-23T10:21:58.000Z</time>
      </trkpt>
      <trkpt lat="43.53883" lon="5.51706">
        <ele>332.79998779297</ele>
        <time>2013-02-23T10:22:01.000Z</time>
      </trkpt>
      <trkpt lat="43.53893" lon="5.5171">
        <ele>333.60000610352</ele>
        <time>2013-02-23T10:22:03.000Z</time>
      </trkpt>
      <trkpt lat="43.53902" lon="5.51713">
        <ele>334.79998779297</ele>
        <time>2013-02-23T10:22:05.000Z</time>
      </trkpt>
      <trkpt lat="43.53916" lon="5.51719">
        <ele>336</ele>
        <time>2013-02-23T10:22:08.000Z</time>
      </trkpt>
      <trkpt lat="43.5392" lon="5.51723">
        <ele>335.79998779297</ele>
        <time>2013-02-23T10:22:09.000Z</time>
      </trkpt>
      <trkpt lat="43.53932" lon="5.51741">
        <ele>334.20001220703</ele>
        <time>2013-02-23T10:22:13.000Z</time>
      </trkpt>
      <trkpt lat="43.53936" lon="5.51751">
        <ele>333.20001220703</ele>
        <time>2013-02-23T10:22:15.000Z</time>
      </trkpt>
      <trkpt lat="43.53947" lon="5.51771">
        <ele>333.20001220703</ele>
        <time>2013-02-23T10:22:19.000Z</time>
      </trkpt>
      <trkpt lat="43.53949" lon="5.51776">
        <ele>333.20001220703</ele>
        <time>2013-02-23T10:22:20.000Z</time>
      </trkpt>
      <trkpt lat="43.5395" lon="5.51782">
        <ele>333</ele>
        <time>2013-02-23T10:22:21.000Z</time>
      </trkpt>
      <trkpt lat="43.53952" lon="5.51787">
        <ele>332.79998779297</ele>
        <time>2013-02-23T10:22:22.000Z</time>
      </trkpt>
      <trkpt lat="43.53953" lon="5.51793">
        <ele>332.39999389648</ele>
        <time>2013-02-23T10:22:23.000Z</time>
      </trkpt>
      <trkpt lat="43.53957" lon="5.51811">
        <ele>331.60000610352</ele>
        <time>2013-02-23T10:22:26.000Z</time>
      </trkpt>
      <trkpt lat="43.53959" lon="5.51817">
        <ele>331.39999389648</ele>
        <time>2013-02-23T10:22:27.000Z</time>
      </trkpt>
      <trkpt lat="43.53961" lon="5.51822">
        <ele>331.20001220703</ele>
        <time>2013-02-23T10:22:28.000Z</time>
      </trkpt>
      <trkpt lat="43.53963" lon="5.51825">
        <ele>331.39999389648</ele>
        <time>2013-02-23T10:22:29.000Z</time>
      </trkpt>
      <trkpt lat="43.53966" lon="5.51827">
        <ele>331.39999389648</ele>
        <time>2013-02-23T10:22:36.000Z</time>
      </trkpt>
      <trkpt lat="43.53967" lon="5.51829">
        <ele>331.60000610352</ele>
        <time>2013-02-23T10:22:38.000Z</time>
      </trkpt>
      <trkpt lat="43.5398" lon="5.51838">
        <ele>333.20001220703</ele>
        <time>2013-02-23T10:22:47.000Z</time>
      </trkpt>
      <trkpt lat="43.54004" lon="5.5185">
        <ele>336.20001220703</ele>
        <time>2013-02-23T10:22:54.000Z</time>
      </trkpt>
      <trkpt lat="43.5401" lon="5.5185">
        <ele>336.60000610352</ele>
        <time>2013-02-23T10:22:55.000Z</time>
      </trkpt>
      <trkpt lat="43.54016" lon="5.5185">
        <ele>337</ele>
        <time>2013-02-23T10:22:56.000Z</time>
      </trkpt>
      <trkpt lat="43.54021" lon="5.5185">
        <ele>337.39999389648</ele>
        <time>2013-02-23T10:22:57.000Z</time>
      </trkpt>
      <trkpt lat="43.54026" lon="5.5185">
        <ele>337.79998779297</ele>
        <time>2013-02-23T10:22:58.000Z</time>
      </trkpt>
      <trkpt lat="43.54031" lon="5.51852">
        <ele>338.20001220703</ele>
        <time>2013-02-23T10:22:59.000Z</time>
      </trkpt>
      <trkpt lat="43.54035" lon="5.51856">
        <ele>338.60000610352</ele>
        <time>2013-02-23T10:23:00.000Z</time>
      </trkpt>
      <trkpt lat="43.54038" lon="5.51861">
        <ele>338.79998779297</ele>
        <time>2013-02-23T10:23:01.000Z</time>
      </trkpt>
      <trkpt lat="43.5404" lon="5.51867">
        <ele>339</ele>
        <time>2013-02-23T10:23:02.000Z</time>
      </trkpt>
      <trkpt lat="43.54042" lon="5.51872">
        <ele>339.20001220703</ele>
        <time>2013-02-23T10:23:03.000Z</time>
      </trkpt>
      <trkpt lat="43.54043" lon="5.51876">
        <ele>339.39999389648</ele>
        <time>2013-02-23T10:23:04.000Z</time>
      </trkpt>
      <trkpt lat="43.54045" lon="5.5188">
        <ele>339.39999389648</ele>
        <time>2013-02-23T10:23:05.000Z</time>
      </trkpt>
      <trkpt lat="43.54045" lon="5.51883">
        <ele>339.39999389648</ele>
        <time>2013-02-23T10:23:06.000Z</time>
      </trkpt>
      <trkpt lat="43.54044" lon="5.51887">
        <ele>339.39999389648</ele>
        <time>2013-02-23T10:23:07.000Z</time>
      </trkpt>
      <trkpt lat="43.54042" lon="5.51889">
        <ele>339.20001220703</ele>
        <time>2013-02-23T10:23:08.000Z</time>
      </trkpt>
      <trkpt lat="43.54041" lon="5.51892">
        <ele>339.20001220703</ele>
        <time>2013-02-23T10:23:09.000Z</time>
      </trkpt>
      <trkpt lat="43.5404" lon="5.51894">
        <ele>339.20001220703</ele>
        <time>2013-02-23T10:23:10.000Z</time>
      </trkpt>
      <trkpt lat="43.5404" lon="5.51897">
        <ele>339.20001220703</ele>
        <time>2013-02-23T10:23:11.000Z</time>
      </trkpt>
      <trkpt lat="43.54038" lon="5.51901">
        <ele>339</ele>
        <time>2013-02-23T10:23:12.000Z</time>
      </trkpt>
      <trkpt lat="43.54036" lon="5.51903">
        <ele>338.79998779297</ele>
        <time>2013-02-23T10:23:13.000Z</time>
      </trkpt>
      <trkpt lat="43.54034" lon="5.51907">
        <ele>338.60000610352</ele>
        <time>2013-02-23T10:23:14.000Z</time>
      </trkpt>
      <trkpt lat="43.54032" lon="5.5191">
        <ele>338.60000610352</ele>
        <time>2013-02-23T10:23:15.000Z</time>
      </trkpt>
      <trkpt lat="43.54031" lon="5.51913">
        <ele>338.60000610352</ele>
        <time>2013-02-23T10:23:16.000Z</time>
      </trkpt>
      <trkpt lat="43.5403" lon="5.51917">
        <ele>338.39999389648</ele>
        <time>2013-02-23T10:23:17.000Z</time>
      </trkpt>
      <trkpt lat="43.54009" lon="5.51942">
        <ele>339.39999389648</ele>
        <time>2013-02-23T10:23:25.000Z</time>
      </trkpt>
      <trkpt lat="43.53983" lon="5.5196">
        <ele>339.60000610352</ele>
        <time>2013-02-23T10:23:34.000Z</time>
      </trkpt>
      <trkpt lat="43.53952" lon="5.51976">
        <ele>339</ele>
        <time>2013-02-23T10:23:43.000Z</time>
      </trkpt>
      <trkpt lat="43.53931" lon="5.51991">
        <ele>338.60000610352</ele>
        <time>2013-02-23T10:23:50.000Z</time>
      </trkpt>
      <trkpt lat="43.53925" lon="5.51999">
        <ele>338.60000610352</ele>
        <time>2013-02-23T10:23:52.000Z</time>
      </trkpt>
      <trkpt lat="43.53923" lon="5.52004">
        <ele>338.39999389648</ele>
        <time>2013-02-23T10:23:53.000Z</time>
      </trkpt>
      <trkpt lat="43.53923" lon="5.5201">
        <ele>338</ele>
        <time>2013-02-23T10:23:54.000Z</time>
      </trkpt>
      <trkpt lat="43.53923" lon="5.52017">
        <ele>337.79998779297</ele>
        <time>2013-02-23T10:23:55.000Z</time>
      </trkpt>
      <trkpt lat="43.53923" lon="5.52023">
        <ele>337.79998779297</ele>
        <time>2013-02-23T10:23:56.000Z</time>
      </trkpt>
      <trkpt lat="43.53925" lon="5.52029">
        <ele>337.79998779297</ele>
        <time>2013-02-23T10:23:57.000Z</time>
      </trkpt>
      <trkpt lat="43.53928" lon="5.52033">
        <ele>338</ele>
        <time>2013-02-23T10:23:58.000Z</time>
      </trkpt>
      <trkpt lat="43.53932" lon="5.52036">
        <ele>338.20001220703</ele>
        <time>2013-02-23T10:23:59.000Z</time>
      </trkpt>
      <trkpt lat="43.53939" lon="5.52044">
        <ele>338.79998779297</ele>
        <time>2013-02-23T10:24:01.000Z</time>
      </trkpt>
      <trkpt lat="43.53942" lon="5.52049">
        <ele>339</ele>
        <time>2013-02-23T10:24:02.000Z</time>
      </trkpt>
      <trkpt lat="43.53945" lon="5.52054">
        <ele>339.20001220703</ele>
        <time>2013-02-23T10:24:03.000Z</time>
      </trkpt>
      <trkpt lat="43.53953" lon="5.52073">
        <ele>339.79998779297</ele>
        <time>2013-02-23T10:24:06.000Z</time>
      </trkpt>
      <trkpt lat="43.53956" lon="5.52079">
        <ele>340.20001220703</ele>
        <time>2013-02-23T10:24:07.000Z</time>
      </trkpt>
      <trkpt lat="43.5396" lon="5.52084">
        <ele>340.60000610352</ele>
        <time>2013-02-23T10:24:08.000Z</time>
      </trkpt>
      <trkpt lat="43.53965" lon="5.52087">
        <ele>341.39999389648</ele>
        <time>2013-02-23T10:24:09.000Z</time>
      </trkpt>
      <trkpt lat="43.53968" lon="5.52091">
        <ele>342</ele>
        <time>2013-02-23T10:24:10.000Z</time>
      </trkpt>
      <trkpt lat="43.53971" lon="5.52095">
        <ele>342.39999389648</ele>
        <time>2013-02-23T10:24:11.000Z</time>
      </trkpt>
      <trkpt lat="43.53972" lon="5.52099">
        <ele>342.60000610352</ele>
        <time>2013-02-23T10:24:12.000Z</time>
      </trkpt>
      <trkpt lat="43.53972" lon="5.52104">
        <ele>342.79998779297</ele>
        <time>2013-02-23T10:24:13.000Z</time>
      </trkpt>
      <trkpt lat="43.53971" lon="5.5211">
        <ele>342.79998779297</ele>
        <time>2013-02-23T10:24:14.000Z</time>
      </trkpt>
      <trkpt lat="43.53969" lon="5.52115">
        <ele>342.79998779297</ele>
        <time>2013-02-23T10:24:15.000Z</time>
      </trkpt>
      <trkpt lat="43.53965" lon="5.52119">
        <ele>342.39999389648</ele>
        <time>2013-02-23T10:24:16.000Z</time>
      </trkpt>
      <trkpt lat="43.53963" lon="5.52125">
        <ele>342.39999389648</ele>
        <time>2013-02-23T10:24:17.000Z</time>
      </trkpt>
      <trkpt lat="43.5396" lon="5.52129">
        <ele>342.20001220703</ele>
        <time>2013-02-23T10:24:18.000Z</time>
      </trkpt>
      <trkpt lat="43.53957" lon="5.52132">
        <ele>342</ele>
        <time>2013-02-23T10:24:19.000Z</time>
      </trkpt>
      <trkpt lat="43.53953" lon="5.52134">
        <ele>341.60000610352</ele>
        <time>2013-02-23T10:24:20.000Z</time>
      </trkpt>
      <trkpt lat="43.53936" lon="5.52148">
        <ele>340.60000610352</ele>
        <time>2013-02-23T10:24:25.000Z</time>
      </trkpt>
      <trkpt lat="43.53932" lon="5.5215">
        <ele>340.39999389648</ele>
        <time>2013-02-23T10:24:26.000Z</time>
      </trkpt>
      <trkpt lat="43.53929" lon="5.52153">
        <ele>340.20001220703</ele>
        <time>2013-02-23T10:24:27.000Z</time>
      </trkpt>
      <trkpt lat="43.53925" lon="5.52156">
        <ele>340</ele>
        <time>2013-02-23T10:24:28.000Z</time>
      </trkpt>
      <trkpt lat="43.5392" lon="5.52158">
        <ele>339.60000610352</ele>
        <time>2013-02-23T10:24:29.000Z</time>
      </trkpt>
      <trkpt lat="43.53915" lon="5.5216">
        <ele>339.39999389648</ele>
        <time>2013-02-23T10:24:30.000Z</time>
      </trkpt>
      <trkpt lat="43.5391" lon="5.52162">
        <ele>339.60000610352</ele>
        <time>2013-02-23T10:24:31.000Z</time>
      </trkpt>
      <trkpt lat="43.53906" lon="5.52165">
        <ele>339.60000610352</ele>
        <time>2013-02-23T10:24:32.000Z</time>
      </trkpt>
      <trkpt lat="43.53901" lon="5.52167">
        <ele>339.79998779297</ele>
        <time>2013-02-23T10:24:33.000Z</time>
      </trkpt>
      <trkpt lat="43.53896" lon="5.5217">
        <ele>340</ele>
        <time>2013-02-23T10:24:34.000Z</time>
      </trkpt>
      <trkpt lat="43.53892" lon="5.52173">
        <ele>340</ele>
        <time>2013-02-23T10:24:35.000Z</time>
      </trkpt>
      <trkpt lat="43.53882" lon="5.52176">
        <ele>340</ele>
        <time>2013-02-23T10:24:37.000Z</time>
      </trkpt>
      <trkpt lat="43.53878" lon="5.52176">
        <ele>340</ele>
        <time>2013-02-23T10:24:38.000Z</time>
      </trkpt>
      <trkpt lat="43.53874" lon="5.52175">
        <ele>339.79998779297</ele>
        <time>2013-02-23T10:24:39.000Z</time>
      </trkpt>
      <trkpt lat="43.53866" lon="5.52172">
        <ele>339.39999389648</ele>
        <time>2013-02-23T10:24:41.000Z</time>
      </trkpt>
      <trkpt lat="43.53862" lon="5.52169">
        <ele>339.39999389648</ele>
        <time>2013-02-23T10:24:42.000Z</time>
      </trkpt>
      <trkpt lat="43.53858" lon="5.52166">
        <ele>339.20001220703</ele>
        <time>2013-02-23T10:24:43.000Z</time>
      </trkpt>
      <trkpt lat="43.53854" lon="5.52164">
        <ele>338.79998779297</ele>
        <time>2013-02-23T10:24:44.000Z</time>
      </trkpt>
      <trkpt lat="43.5385" lon="5.5216">
        <ele>338.20001220703</ele>
        <time>2013-02-23T10:24:45.000Z</time>
      </trkpt>
      <trkpt lat="43.53842" lon="5.52154">
        <ele>337.20001220703</ele>
        <time>2013-02-23T10:24:47.000Z</time>
      </trkpt>
      <trkpt lat="43.53837" lon="5.52152">
        <ele>336.79998779297</ele>
        <time>2013-02-23T10:24:48.000Z</time>
      </trkpt>
      <trkpt lat="43.53833" lon="5.5215">
        <ele>336.20001220703</ele>
        <time>2013-02-23T10:24:49.000Z</time>
      </trkpt>
      <trkpt lat="43.53829" lon="5.52147">
        <ele>334.79998779297</ele>
        <time>2013-02-23T10:24:50.000Z</time>
      </trkpt>
      <trkpt lat="43.53824" lon="5.52147">
        <ele>333.79998779297</ele>
        <time>2013-02-23T10:24:51.000Z</time>
      </trkpt>
      <trkpt lat="43.53821" lon="5.52148">
        <ele>333</ele>
        <time>2013-02-23T10:24:52.000Z</time>
      </trkpt>
      <trkpt lat="43.53818" lon="5.5215">
        <ele>332.60000610352</ele>
        <time>2013-02-23T10:24:53.000Z</time>
      </trkpt>
      <trkpt lat="43.53814" lon="5.5215">
        <ele>331.79998779297</ele>
        <time>2013-02-23T10:24:54.000Z</time>
      </trkpt>
      <trkpt lat="43.5381" lon="5.5215">
        <ele>330.79998779297</ele>
        <time>2013-02-23T10:24:55.000Z</time>
      </trkpt>
      <trkpt lat="43.53807" lon="5.5215">
        <ele>330</ele>
        <time>2013-02-23T10:24:56.000Z</time>
      </trkpt>
      <trkpt lat="43.53803" lon="5.52152">
        <ele>329.39999389648</ele>
        <time>2013-02-23T10:24:57.000Z</time>
      </trkpt>
      <trkpt lat="43.53801" lon="5.52155">
        <ele>329.20001220703</ele>
        <time>2013-02-23T10:24:58.000Z</time>
      </trkpt>
      <trkpt lat="43.538" lon="5.52159">
        <ele>329.20001220703</ele>
        <time>2013-02-23T10:24:59.000Z</time>
      </trkpt>
      <trkpt lat="43.53797" lon="5.52163">
        <ele>329</ele>
        <time>2013-02-23T10:25:00.000Z</time>
      </trkpt>
      <trkpt lat="43.53795" lon="5.52167">
        <ele>328.79998779297</ele>
        <time>2013-02-23T10:25:01.000Z</time>
      </trkpt>
      <trkpt lat="43.53794" lon="5.52171">
        <ele>328.39999389648</ele>
        <time>2013-02-23T10:25:02.000Z</time>
      </trkpt>
      <trkpt lat="43.53794" lon="5.52176">
        <ele>328.20001220703</ele>
        <time>2013-02-23T10:25:03.000Z</time>
      </trkpt>
      <trkpt lat="43.53795" lon="5.5218">
        <ele>328</ele>
        <time>2013-02-23T10:25:04.000Z</time>
      </trkpt>
      <trkpt lat="43.53796" lon="5.52185">
        <ele>328</ele>
        <time>2013-02-23T10:25:05.000Z</time>
      </trkpt>
      <trkpt lat="43.53797" lon="5.5219">
        <ele>328.20001220703</ele>
        <time>2013-02-23T10:25:06.000Z</time>
      </trkpt>
      <trkpt lat="43.53799" lon="5.52195">
        <ele>328.39999389648</ele>
        <time>2013-02-23T10:25:07.000Z</time>
      </trkpt>
      <trkpt lat="43.53801" lon="5.522">
        <ele>329</ele>
        <time>2013-02-23T10:25:08.000Z</time>
      </trkpt>
      <trkpt lat="43.53804" lon="5.52206">
        <ele>329.20001220703</ele>
        <time>2013-02-23T10:25:09.000Z</time>
      </trkpt>
      <trkpt lat="43.53805" lon="5.52212">
        <ele>329.39999389648</ele>
        <time>2013-02-23T10:25:10.000Z</time>
      </trkpt>
      <trkpt lat="43.53817" lon="5.52229">
        <ele>332.39999389648</ele>
        <time>2013-02-23T10:25:15.000Z</time>
      </trkpt>
      <trkpt lat="43.5382" lon="5.52227">
        <ele>333.39999389648</ele>
        <time>2013-02-23T10:25:16.000Z</time>
      </trkpt>
      <trkpt lat="43.53822" lon="5.52227">
        <ele>334</ele>
        <time>2013-02-23T10:25:17.000Z</time>
      </trkpt>
      <trkpt lat="43.53825" lon="5.52229">
        <ele>334.79998779297</ele>
        <time>2013-02-23T10:25:18.000Z</time>
      </trkpt>
      <trkpt lat="43.53827" lon="5.52233">
        <ele>335.39999389648</ele>
        <time>2013-02-23T10:25:19.000Z</time>
      </trkpt>
      <trkpt lat="43.5383" lon="5.52238">
        <ele>336.20001220703</ele>
        <time>2013-02-23T10:25:20.000Z</time>
      </trkpt>
      <trkpt lat="43.53834" lon="5.52241">
        <ele>337.20001220703</ele>
        <time>2013-02-23T10:25:21.000Z</time>
      </trkpt>
      <trkpt lat="43.53843" lon="5.52249">
        <ele>338.39999389648</ele>
        <time>2013-02-23T10:25:23.000Z</time>
      </trkpt>
      <trkpt lat="43.53846" lon="5.52254">
        <ele>338.39999389648</ele>
        <time>2013-02-23T10:25:24.000Z</time>
      </trkpt>
      <trkpt lat="43.53849" lon="5.52259">
        <ele>338.20001220703</ele>
        <time>2013-02-23T10:25:25.000Z</time>
      </trkpt>
      <trkpt lat="43.53856" lon="5.52269">
        <ele>338</ele>
        <time>2013-02-23T10:25:27.000Z</time>
      </trkpt>
      <trkpt lat="43.53859" lon="5.52274">
        <ele>338</ele>
        <time>2013-02-23T10:25:28.000Z</time>
      </trkpt>
      <trkpt lat="43.53869" lon="5.5229">
        <ele>338.39999389648</ele>
        <time>2013-02-23T10:25:31.000Z</time>
      </trkpt>
      <trkpt lat="43.53871" lon="5.52295">
        <ele>338.39999389648</ele>
        <time>2013-02-23T10:25:32.000Z</time>
      </trkpt>
      <trkpt lat="43.53873" lon="5.52301">
        <ele>338.20001220703</ele>
        <time>2013-02-23T10:25:33.000Z</time>
      </trkpt>
      <trkpt lat="43.53879" lon="5.52341">
        <ele>337</ele>
        <time>2013-02-23T10:25:41.000Z</time>
      </trkpt>
      <trkpt lat="43.5388" lon="5.52344">
        <ele>337.39999389648</ele>
        <time>2013-02-23T10:25:42.000Z</time>
      </trkpt>
      <trkpt lat="43.53881" lon="5.52347">
        <ele>337.79998779297</ele>
        <time>2013-02-23T10:25:43.000Z</time>
      </trkpt>
      <trkpt lat="43.53883" lon="5.5235">
        <ele>338.39999389648</ele>
        <time>2013-02-23T10:25:44.000Z</time>
      </trkpt>
      <trkpt lat="43.53885" lon="5.52353">
        <ele>339</ele>
        <time>2013-02-23T10:25:45.000Z</time>
      </trkpt>
      <trkpt lat="43.53887" lon="5.52357">
        <ele>339.60000610352</ele>
        <time>2013-02-23T10:25:46.000Z</time>
      </trkpt>
      <trkpt lat="43.53888" lon="5.52362">
        <ele>339.79998779297</ele>
        <time>2013-02-23T10:25:47.000Z</time>
      </trkpt>
      <trkpt lat="43.53888" lon="5.52368">
        <ele>339.79998779297</ele>
        <time>2013-02-23T10:25:48.000Z</time>
      </trkpt>
      <trkpt lat="43.53888" lon="5.52374">
        <ele>339.79998779297</ele>
        <time>2013-02-23T10:25:49.000Z</time>
      </trkpt>
      <trkpt lat="43.53888" lon="5.52382">
        <ele>339.60000610352</ele>
        <time>2013-02-23T10:25:50.000Z</time>
      </trkpt>
      <trkpt lat="43.53888" lon="5.52389">
        <ele>339.79998779297</ele>
        <time>2013-02-23T10:25:51.000Z</time>
      </trkpt>
      <trkpt lat="43.53888" lon="5.52397">
        <ele>339.79998779297</ele>
        <time>2013-02-23T10:25:52.000Z</time>
      </trkpt>
      <trkpt lat="43.53889" lon="5.52405">
        <ele>339.79998779297</ele>
        <time>2013-02-23T10:25:53.000Z</time>
      </trkpt>
      <trkpt lat="43.53889" lon="5.52412">
        <ele>340.20001220703</ele>
        <time>2013-02-23T10:25:54.000Z</time>
      </trkpt>
      <trkpt lat="43.53891" lon="5.52419">
        <ele>340.39999389648</ele>
        <time>2013-02-23T10:25:55.000Z</time>
      </trkpt>
      <trkpt lat="43.53893" lon="5.52426">
        <ele>340.20001220703</ele>
        <time>2013-02-23T10:25:56.000Z</time>
      </trkpt>
      <trkpt lat="43.53894" lon="5.52432">
        <ele>339.60000610352</ele>
        <time>2013-02-23T10:25:57.000Z</time>
      </trkpt>
      <trkpt lat="43.53895" lon="5.52437">
        <ele>339.20001220703</ele>
        <time>2013-02-23T10:25:58.000Z</time>
      </trkpt>
      <trkpt lat="43.53895" lon="5.52442">
        <ele>338.60000610352</ele>
        <time>2013-02-23T10:25:59.000Z</time>
      </trkpt>
      <trkpt lat="43.53896" lon="5.52447">
        <ele>338.39999389648</ele>
        <time>2013-02-23T10:26:00.000Z</time>
      </trkpt>
      <trkpt lat="43.53898" lon="5.52452">
        <ele>338.39999389648</ele>
        <time>2013-02-23T10:26:01.000Z</time>
      </trkpt>
      <trkpt lat="43.53901" lon="5.52456">
        <ele>338.79998779297</ele>
        <time>2013-02-23T10:26:02.000Z</time>
      </trkpt>
      <trkpt lat="43.53904" lon="5.52462">
        <ele>339.20001220703</ele>
        <time>2013-02-23T10:26:03.000Z</time>
      </trkpt>
      <trkpt lat="43.53907" lon="5.52468">
        <ele>339.60000610352</ele>
        <time>2013-02-23T10:26:04.000Z</time>
      </trkpt>
      <trkpt lat="43.53911" lon="5.52474">
        <ele>340.60000610352</ele>
        <time>2013-02-23T10:26:05.000Z</time>
      </trkpt>
      <trkpt lat="43.53915" lon="5.52478">
        <ele>341.60000610352</ele>
        <time>2013-02-23T10:26:06.000Z</time>
      </trkpt>
      <trkpt lat="43.5392" lon="5.52483">
        <ele>342.60000610352</ele>
        <time>2013-02-23T10:26:07.000Z</time>
      </trkpt>
      <trkpt lat="43.53925" lon="5.52484">
        <ele>343.39999389648</ele>
        <time>2013-02-23T10:26:08.000Z</time>
      </trkpt>
      <trkpt lat="43.53931" lon="5.52485">
        <ele>344.60000610352</ele>
        <time>2013-02-23T10:26:09.000Z</time>
      </trkpt>
      <trkpt lat="43.53936" lon="5.52486">
        <ele>345.39999389648</ele>
        <time>2013-02-23T10:26:10.000Z</time>
      </trkpt>
      <trkpt lat="43.5394" lon="5.5249">
        <ele>345.79998779297</ele>
        <time>2013-02-23T10:26:11.000Z</time>
      </trkpt>
      <trkpt lat="43.53944" lon="5.52495">
        <ele>346.20001220703</ele>
        <time>2013-02-23T10:26:12.000Z</time>
      </trkpt>
      <trkpt lat="43.53947" lon="5.525">
        <ele>346.60000610352</ele>
        <time>2013-02-23T10:26:13.000Z</time>
      </trkpt>
      <trkpt lat="43.5395" lon="5.52505">
        <ele>346.20001220703</ele>
        <time>2013-02-23T10:26:14.000Z</time>
      </trkpt>
      <trkpt lat="43.53951" lon="5.5251">
        <ele>345.60000610352</ele>
        <time>2013-02-23T10:26:15.000Z</time>
      </trkpt>
      <trkpt lat="43.53952" lon="5.52515">
        <ele>345</ele>
        <time>2013-02-23T10:26:16.000Z</time>
      </trkpt>
      <trkpt lat="43.53953" lon="5.52521">
        <ele>344.39999389648</ele>
        <time>2013-02-23T10:26:17.000Z</time>
      </trkpt>
      <trkpt lat="43.53953" lon="5.52527">
        <ele>343.39999389648</ele>
        <time>2013-02-23T10:26:18.000Z</time>
      </trkpt>
      <trkpt lat="43.53952" lon="5.52534">
        <ele>341.79998779297</ele>
        <time>2013-02-23T10:26:19.000Z</time>
      </trkpt>
      <trkpt lat="43.5395" lon="5.52541">
        <ele>340</ele>
        <time>2013-02-23T10:26:20.000Z</time>
      </trkpt>
      <trkpt lat="43.53948" lon="5.52552">
        <ele>337.20001220703</ele>
        <time>2013-02-23T10:26:22.000Z</time>
      </trkpt>
      <trkpt lat="43.53948" lon="5.52559">
        <ele>336.20001220703</ele>
        <time>2013-02-23T10:26:23.000Z</time>
      </trkpt>
      <trkpt lat="43.5395" lon="5.52567">
        <ele>335.60000610352</ele>
        <time>2013-02-23T10:26:24.000Z</time>
      </trkpt>
      <trkpt lat="43.53952" lon="5.52575">
        <ele>335</ele>
        <time>2013-02-23T10:26:25.000Z</time>
      </trkpt>
      <trkpt lat="43.53953" lon="5.52583">
        <ele>334.20001220703</ele>
        <time>2013-02-23T10:26:26.000Z</time>
      </trkpt>
      <trkpt lat="43.53955" lon="5.52591">
        <ele>334.39999389648</ele>
        <time>2013-02-23T10:26:27.000Z</time>
      </trkpt>
      <trkpt lat="43.53958" lon="5.52599">
        <ele>335</ele>
        <time>2013-02-23T10:26:28.000Z</time>
      </trkpt>
      <trkpt lat="43.53961" lon="5.52605">
        <ele>335.60000610352</ele>
        <time>2013-02-23T10:26:29.000Z</time>
      </trkpt>
      <trkpt lat="43.53966" lon="5.52619">
        <ele>336.79998779297</ele>
        <time>2013-02-23T10:26:31.000Z</time>
      </trkpt>
      <trkpt lat="43.53967" lon="5.52627">
        <ele>336.60000610352</ele>
        <time>2013-02-23T10:26:32.000Z</time>
      </trkpt>
      <trkpt lat="43.53966" lon="5.52636">
        <ele>335.60000610352</ele>
        <time>2013-02-23T10:26:33.000Z</time>
      </trkpt>
      <trkpt lat="43.53964" lon="5.52653">
        <ele>333.39999389648</ele>
        <time>2013-02-23T10:26:35.000Z</time>
      </trkpt>
      <trkpt lat="43.53966" lon="5.5266">
        <ele>333.39999389648</ele>
        <time>2013-02-23T10:26:36.000Z</time>
      </trkpt>
      <trkpt lat="43.53968" lon="5.52667">
        <ele>334.20001220703</ele>
        <time>2013-02-23T10:26:37.000Z</time>
      </trkpt>
      <trkpt lat="43.5397" lon="5.52674">
        <ele>335.60000610352</ele>
        <time>2013-02-23T10:26:38.000Z</time>
      </trkpt>
      <trkpt lat="43.53973" lon="5.52681">
        <ele>337.20001220703</ele>
        <time>2013-02-23T10:26:39.000Z</time>
      </trkpt>
      <trkpt lat="43.53976" lon="5.52688">
        <ele>338.79998779297</ele>
        <time>2013-02-23T10:26:40.000Z</time>
      </trkpt>
      <trkpt lat="43.53981" lon="5.52702">
        <ele>341.79998779297</ele>
        <time>2013-02-23T10:26:42.000Z</time>
      </trkpt>
      <trkpt lat="43.53982" lon="5.52709">
        <ele>342.79998779297</ele>
        <time>2013-02-23T10:26:43.000Z</time>
      </trkpt>
      <trkpt lat="43.53984" lon="5.52723">
        <ele>344</ele>
        <time>2013-02-23T10:26:45.000Z</time>
      </trkpt>
      <trkpt lat="43.53984" lon="5.5273">
        <ele>344.39999389648</ele>
        <time>2013-02-23T10:26:46.000Z</time>
      </trkpt>
      <trkpt lat="43.53985" lon="5.52736">
        <ele>344.60000610352</ele>
        <time>2013-02-23T10:26:47.000Z</time>
      </trkpt>
      <trkpt lat="43.53986" lon="5.52741">
        <ele>345.39999389648</ele>
        <time>2013-02-23T10:26:48.000Z</time>
      </trkpt>
      <trkpt lat="43.53987" lon="5.52745">
        <ele>346</ele>
        <time>2013-02-23T10:26:49.000Z</time>
      </trkpt>
      <trkpt lat="43.53987" lon="5.52749">
        <ele>346</ele>
        <time>2013-02-23T10:26:50.000Z</time>
      </trkpt>
      <trkpt lat="43.53986" lon="5.52754">
        <ele>345.79998779297</ele>
        <time>2013-02-23T10:26:51.000Z</time>
      </trkpt>
      <trkpt lat="43.53986" lon="5.5276">
        <ele>345.60000610352</ele>
        <time>2013-02-23T10:26:52.000Z</time>
      </trkpt>
      <trkpt lat="43.53985" lon="5.52765">
        <ele>345.20001220703</ele>
        <time>2013-02-23T10:26:53.000Z</time>
      </trkpt>
      <trkpt lat="43.53984" lon="5.52769">
        <ele>345</ele>
        <time>2013-02-23T10:26:54.000Z</time>
      </trkpt>
      <trkpt lat="43.53984" lon="5.52774">
        <ele>345.20001220703</ele>
        <time>2013-02-23T10:26:55.000Z</time>
      </trkpt>
      <trkpt lat="43.53985" lon="5.52778">
        <ele>345.39999389648</ele>
        <time>2013-02-23T10:26:56.000Z</time>
      </trkpt>
      <trkpt lat="43.53986" lon="5.52783">
        <ele>345.60000610352</ele>
        <time>2013-02-23T10:26:57.000Z</time>
      </trkpt>
      <trkpt lat="43.53986" lon="5.52789">
        <ele>345.79998779297</ele>
        <time>2013-02-23T10:26:58.000Z</time>
      </trkpt>
      <trkpt lat="43.53987" lon="5.52795">
        <ele>345.79998779297</ele>
        <time>2013-02-23T10:26:59.000Z</time>
      </trkpt>
      <trkpt lat="43.53989" lon="5.52807">
        <ele>346.20001220703</ele>
        <time>2013-02-23T10:27:01.000Z</time>
      </trkpt>
      <trkpt lat="43.53991" lon="5.52813">
        <ele>346.60000610352</ele>
        <time>2013-02-23T10:27:02.000Z</time>
      </trkpt>
      <trkpt lat="43.53994" lon="5.52817">
        <ele>347.20001220703</ele>
        <time>2013-02-23T10:27:03.000Z</time>
      </trkpt>
      <trkpt lat="43.53999" lon="5.52819">
        <ele>348.20001220703</ele>
        <time>2013-02-23T10:27:04.000Z</time>
      </trkpt>
      <trkpt lat="43.54004" lon="5.52821">
        <ele>348.60000610352</ele>
        <time>2013-02-23T10:27:05.000Z</time>
      </trkpt>
      <trkpt lat="43.54009" lon="5.52824">
        <ele>349</ele>
        <time>2013-02-23T10:27:06.000Z</time>
      </trkpt>
      <trkpt lat="43.54019" lon="5.52831">
        <ele>349.39999389648</ele>
        <time>2013-02-23T10:27:08.000Z</time>
      </trkpt>
      <trkpt lat="43.54032" lon="5.52845">
        <ele>349.60000610352</ele>
        <time>2013-02-23T10:27:11.000Z</time>
      </trkpt>
      <trkpt lat="43.54036" lon="5.52851">
        <ele>349.60000610352</ele>
        <time>2013-02-23T10:27:12.000Z</time>
      </trkpt>
      <trkpt lat="43.54047" lon="5.52867">
        <ele>349.79998779297</ele>
        <time>2013-02-23T10:27:15.000Z</time>
      </trkpt>
      <trkpt lat="43.54052" lon="5.52871">
        <ele>350</ele>
        <time>2013-02-23T10:27:16.000Z</time>
      </trkpt>
      <trkpt lat="43.54061" lon="5.5288">
        <ele>350.60000610352</ele>
        <time>2013-02-23T10:27:18.000Z</time>
      </trkpt>
      <trkpt lat="43.54065" lon="5.52886">
        <ele>350.79998779297</ele>
        <time>2013-02-23T10:27:19.000Z</time>
      </trkpt>
      <trkpt lat="43.54069" lon="5.52893">
        <ele>351</ele>
        <time>2013-02-23T10:27:20.000Z</time>
      </trkpt>
      <trkpt lat="43.54072" lon="5.52901">
        <ele>351</ele>
        <time>2013-02-23T10:27:21.000Z</time>
      </trkpt>
      <trkpt lat="43.54075" lon="5.52909">
        <ele>351</ele>
        <time>2013-02-23T10:27:22.000Z</time>
      </trkpt>
      <trkpt lat="43.54078" lon="5.52917">
        <ele>351.20001220703</ele>
        <time>2013-02-23T10:27:23.000Z</time>
      </trkpt>
      <trkpt lat="43.541" lon="5.52955">
        <ele>353</ele>
        <time>2013-02-23T10:27:29.000Z</time>
      </trkpt>
      <trkpt lat="43.54105" lon="5.5296">
        <ele>353.20001220703</ele>
        <time>2013-02-23T10:27:30.000Z</time>
      </trkpt>
      <trkpt lat="43.54109" lon="5.52965">
        <ele>353.60000610352</ele>
        <time>2013-02-23T10:27:31.000Z</time>
      </trkpt>
      <trkpt lat="43.54128" lon="5.52981">
        <ele>354.79998779297</ele>
        <time>2013-02-23T10:27:35.000Z</time>
      </trkpt>
      <trkpt lat="43.54131" lon="5.52986">
        <ele>354.79998779297</ele>
        <time>2013-02-23T10:27:36.000Z</time>
      </trkpt>
      <trkpt lat="43.54133" lon="5.52992">
        <ele>354.79998779297</ele>
        <time>2013-02-23T10:27:37.000Z</time>
      </trkpt>
      <trkpt lat="43.54134" lon="5.52999">
        <ele>354.60000610352</ele>
        <time>2013-02-23T10:27:38.000Z</time>
      </trkpt>
      <trkpt lat="43.54134" lon="5.53005">
        <ele>354.60000610352</ele>
        <time>2013-02-23T10:27:39.000Z</time>
      </trkpt>
      <trkpt lat="43.54131" lon="5.53011">
        <ele>354.39999389648</ele>
        <time>2013-02-23T10:27:40.000Z</time>
      </trkpt>
      <trkpt lat="43.54127" lon="5.53016">
        <ele>354.20001220703</ele>
        <time>2013-02-23T10:27:41.000Z</time>
      </trkpt>
      <trkpt lat="43.5411" lon="5.53053">
        <ele>353.39999389648</ele>
        <time>2013-02-23T10:27:50.000Z</time>
      </trkpt>
      <trkpt lat="43.54104" lon="5.53055">
        <ele>353.20001220703</ele>
        <time>2013-02-23T10:27:58.000Z</time>
      </trkpt>
      <trkpt lat="43.54103" lon="5.53053">
        <ele>353.20001220703</ele>
        <time>2013-02-23T10:28:12.000Z</time>
      </trkpt>
      <trkpt lat="43.54103" lon="5.53051">
        <ele>353</ele>
        <time>2013-02-23T10:28:35.000Z</time>
      </trkpt>
      <trkpt lat="43.54103" lon="5.53051">
        <ele>353.20001220703</ele>
        <time>2013-02-23T10:28:58.000Z</time>
      </trkpt>
      <trkpt lat="43.54102" lon="5.53052">
        <ele>353</ele>
        <time>2013-02-23T10:29:43.000Z</time>
      </trkpt>
      <trkpt lat="43.541" lon="5.53053">
        <ele>353</ele>
        <time>2013-02-23T10:30:17.000Z</time>
      </trkpt>
      <trkpt lat="43.541" lon="5.53054">
        <ele>353</ele>
        <time>2013-02-23T10:30:48.000Z</time>
      </trkpt>
      <trkpt lat="43.54099" lon="5.53053">
        <ele>353</ele>
        <time>2013-02-23T10:31:11.000Z</time>
      </trkpt>
      <trkpt lat="43.54103" lon="5.53053">
        <ele>353.20001220703</ele>
        <time>2013-02-23T10:31:42.000Z</time>
      </trkpt>
      <trkpt lat="43.54103" lon="5.53052">
        <ele>353.20001220703</ele>
        <time>2013-02-23T10:32:12.000Z</time>
      </trkpt>
      <trkpt lat="43.54104" lon="5.53052">
        <ele>353.20001220703</ele>
        <time>2013-02-23T10:32:37.000Z</time>
      </trkpt>
      <trkpt lat="43.54103" lon="5.53052">
        <ele>353.20001220703</ele>
        <time>2013-02-23T10:33:09.000Z</time>
      </trkpt>
      <trkpt lat="43.54103" lon="5.53053">
        <ele>353.20001220703</ele>
        <time>2013-02-23T10:33:32.000Z</time>
      </trkpt>
      <trkpt lat="43.54103" lon="5.53055">
        <ele>353.20001220703</ele>
        <time>2013-02-23T10:33:52.000Z</time>
      </trkpt>
      <trkpt lat="43.54102" lon="5.53059">
        <ele>353.20001220703</ele>
        <time>2013-02-23T10:33:57.000Z</time>
      </trkpt>
      <trkpt lat="43.54101" lon="5.53069">
        <ele>353.20001220703</ele>
        <time>2013-02-23T10:34:06.000Z</time>
      </trkpt>
      <trkpt lat="43.541" lon="5.53074">
        <ele>353.39999389648</ele>
        <time>2013-02-23T10:34:10.000Z</time>
      </trkpt>
      <trkpt lat="43.541" lon="5.53079">
        <ele>353.39999389648</ele>
        <time>2013-02-23T10:34:20.000Z</time>
      </trkpt>
      <trkpt lat="43.541" lon="5.53078">
        <ele>353.39999389648</ele>
        <time>2013-02-23T10:34:38.000Z</time>
      </trkpt>
      <trkpt lat="43.541" lon="5.5308">
        <ele>353.39999389648</ele>
        <time>2013-02-23T10:34:56.000Z</time>
      </trkpt>
      <trkpt lat="43.54093" lon="5.53102">
        <ele>352.79998779297</ele>
        <time>2013-02-23T10:35:06.000Z</time>
      </trkpt>
      <trkpt lat="43.54098" lon="5.53138">
        <ele>352.39999389648</ele>
        <time>2013-02-23T10:35:15.000Z</time>
      </trkpt>
      <trkpt lat="43.5412" lon="5.53185">
        <ele>351.39999389648</ele>
        <time>2013-02-23T10:35:26.000Z</time>
      </trkpt>
      <trkpt lat="43.54146" lon="5.53233">
        <ele>351.20001220703</ele>
        <time>2013-02-23T10:35:39.000Z</time>
      </trkpt>
      <trkpt lat="43.54159" lon="5.53278">
        <ele>352.20001220703</ele>
        <time>2013-02-23T10:35:49.000Z</time>
      </trkpt>
      <trkpt lat="43.54172" lon="5.53314">
        <ele>354</ele>
        <time>2013-02-23T10:35:58.000Z</time>
      </trkpt>
      <trkpt lat="43.54195" lon="5.53321">
        <ele>357.79998779297</ele>
        <time>2013-02-23T10:36:06.000Z</time>
      </trkpt>
      <trkpt lat="43.54216" lon="5.5333">
        <ele>361.39999389648</ele>
        <time>2013-02-23T10:36:13.000Z</time>
      </trkpt>
      <trkpt lat="43.54236" lon="5.53339">
        <ele>364.39999389648</ele>
        <time>2013-02-23T10:36:20.000Z</time>
      </trkpt>
      <trkpt lat="43.54265" lon="5.53335">
        <ele>369.60000610352</ele>
        <time>2013-02-23T10:36:30.000Z</time>
      </trkpt>
      <trkpt lat="43.54288" lon="5.53324">
        <ele>373</ele>
        <time>2013-02-23T10:36:40.000Z</time>
      </trkpt>
      <trkpt lat="43.54292" lon="5.53323">
        <ele>373.39999389648</ele>
        <time>2013-02-23T10:36:42.000Z</time>
      </trkpt>
      <trkpt lat="43.54294" lon="5.53323">
        <ele>373.60000610352</ele>
        <time>2013-02-23T10:36:43.000Z</time>
      </trkpt>
      <trkpt lat="43.54295" lon="5.53324">
        <ele>373.79998779297</ele>
        <time>2013-02-23T10:36:44.000Z</time>
      </trkpt>
      <trkpt lat="43.54296" lon="5.53325">
        <ele>374</ele>
        <time>2013-02-23T10:36:45.000Z</time>
      </trkpt>
      <trkpt lat="43.54297" lon="5.53327">
        <ele>374.20001220703</ele>
        <time>2013-02-23T10:36:46.000Z</time>
      </trkpt>
      <trkpt lat="43.54299" lon="5.53329">
        <ele>374.39999389648</ele>
        <time>2013-02-23T10:36:47.000Z</time>
      </trkpt>
      <trkpt lat="43.543" lon="5.53331">
        <ele>374.60000610352</ele>
        <time>2013-02-23T10:36:48.000Z</time>
      </trkpt>
      <trkpt lat="43.54322" lon="5.53352">
        <ele>373.79998779297</ele>
        <time>2013-02-23T10:37:00.000Z</time>
      </trkpt>
      <trkpt lat="43.54347" lon="5.53357">
        <ele>375.79998779297</ele>
        <time>2013-02-23T10:37:11.000Z</time>
      </trkpt>
      <trkpt lat="43.54373" lon="5.53366">
        <ele>377.20001220703</ele>
        <time>2013-02-23T10:37:20.000Z</time>
      </trkpt>
      <trkpt lat="43.54385" lon="5.53385">
        <ele>376.79998779297</ele>
        <time>2013-02-23T10:37:25.000Z</time>
      </trkpt>
      <trkpt lat="43.54387" lon="5.5339">
        <ele>376.79998779297</ele>
        <time>2013-02-23T10:37:26.000Z</time>
      </trkpt>
      <trkpt lat="43.54405" lon="5.53415">
        <ele>378.60000610352</ele>
        <time>2013-02-23T10:37:32.000Z</time>
      </trkpt>
      <trkpt lat="43.5442" lon="5.53424">
        <ele>380.39999389648</ele>
        <time>2013-02-23T10:37:36.000Z</time>
      </trkpt>
      <trkpt lat="43.54424" lon="5.53427">
        <ele>380.39999389648</ele>
        <time>2013-02-23T10:37:37.000Z</time>
      </trkpt>
      <trkpt lat="43.54428" lon="5.5343">
        <ele>380.20001220703</ele>
        <time>2013-02-23T10:37:38.000Z</time>
      </trkpt>
      <trkpt lat="43.54431" lon="5.53434">
        <ele>380</ele>
        <time>2013-02-23T10:37:39.000Z</time>
      </trkpt>
      <trkpt lat="43.54434" lon="5.53438">
        <ele>379.79998779297</ele>
        <time>2013-02-23T10:37:40.000Z</time>
      </trkpt>
      <trkpt lat="43.54441" lon="5.53445">
        <ele>379.60000610352</ele>
        <time>2013-02-23T10:37:42.000Z</time>
      </trkpt>
      <trkpt lat="43.54445" lon="5.53447">
        <ele>379.60000610352</ele>
        <time>2013-02-23T10:37:43.000Z</time>
      </trkpt>
      <trkpt lat="43.54459" lon="5.53458">
        <ele>379.20001220703</ele>
        <time>2013-02-23T10:37:47.000Z</time>
      </trkpt>
      <trkpt lat="43.54463" lon="5.5346">
        <ele>379.20001220703</ele>
        <time>2013-02-23T10:37:48.000Z</time>
      </trkpt>
      <trkpt lat="43.54468" lon="5.53461">
        <ele>379.39999389648</ele>
        <time>2013-02-23T10:37:49.000Z</time>
      </trkpt>
      <trkpt lat="43.54488" lon="5.53462">
        <ele>380.39999389648</ele>
        <time>2013-02-23T10:37:53.000Z</time>
      </trkpt>
      <trkpt lat="43.54493" lon="5.53463">
        <ele>380.60000610352</ele>
        <time>2013-02-23T10:37:54.000Z</time>
      </trkpt>
      <trkpt lat="43.54498" lon="5.53464">
        <ele>380.79998779297</ele>
        <time>2013-02-23T10:37:55.000Z</time>
      </trkpt>
      <trkpt lat="43.54502" lon="5.53464">
        <ele>380.79998779297</ele>
        <time>2013-02-23T10:37:56.000Z</time>
      </trkpt>
      <trkpt lat="43.54506" lon="5.53463">
        <ele>381</ele>
        <time>2013-02-23T10:37:57.000Z</time>
      </trkpt>
      <trkpt lat="43.54545" lon="5.53466">
        <ele>382.20001220703</ele>
        <time>2013-02-23T10:38:06.000Z</time>
      </trkpt>
      <trkpt lat="43.54571" lon="5.53471">
        <ele>382.60000610352</ele>
        <time>2013-02-23T10:38:12.000Z</time>
      </trkpt>
      <trkpt lat="43.54575" lon="5.53474">
        <ele>382.39999389648</ele>
        <time>2013-02-23T10:38:13.000Z</time>
      </trkpt>
      <trkpt lat="43.54602" lon="5.53499">
        <ele>381.20001220703</ele>
        <time>2013-02-23T10:38:21.000Z</time>
      </trkpt>
      <trkpt lat="43.54607" lon="5.53501">
        <ele>381.20001220703</ele>
        <time>2013-02-23T10:38:22.000Z</time>
      </trkpt>
      <trkpt lat="43.54613" lon="5.53501">
        <ele>381.60000610352</ele>
        <time>2013-02-23T10:38:23.000Z</time>
      </trkpt>
      <trkpt lat="43.54618" lon="5.53501">
        <ele>381.79998779297</ele>
        <time>2013-02-23T10:38:24.000Z</time>
      </trkpt>
      <trkpt lat="43.54624" lon="5.53501">
        <ele>382.20001220703</ele>
        <time>2013-02-23T10:38:25.000Z</time>
      </trkpt>
      <trkpt lat="43.5463" lon="5.53501">
        <ele>382.60000610352</ele>
        <time>2013-02-23T10:38:26.000Z</time>
      </trkpt>
      <trkpt lat="43.54642" lon="5.53503">
        <ele>383.20001220703</ele>
        <time>2013-02-23T10:38:28.000Z</time>
      </trkpt>
      <trkpt lat="43.54648" lon="5.53504">
        <ele>383.60000610352</ele>
        <time>2013-02-23T10:38:29.000Z</time>
      </trkpt>
      <trkpt lat="43.54653" lon="5.53505">
        <ele>383.79998779297</ele>
        <time>2013-02-23T10:38:30.000Z</time>
      </trkpt>
      <trkpt lat="43.54657" lon="5.53506">
        <ele>384</ele>
        <time>2013-02-23T10:38:31.000Z</time>
      </trkpt>
      <trkpt lat="43.54662" lon="5.53508">
        <ele>384.20001220703</ele>
        <time>2013-02-23T10:38:32.000Z</time>
      </trkpt>
      <trkpt lat="43.54667" lon="5.53509">
        <ele>384.60000610352</ele>
        <time>2013-02-23T10:38:33.000Z</time>
      </trkpt>
      <trkpt lat="43.54671" lon="5.5351">
        <ele>384.39999389648</ele>
        <time>2013-02-23T10:38:34.000Z</time>
      </trkpt>
      <trkpt lat="43.54676" lon="5.53511">
        <ele>384.20001220703</ele>
        <time>2013-02-23T10:38:35.000Z</time>
      </trkpt>
      <trkpt lat="43.54685" lon="5.53514">
        <ele>383.60000610352</ele>
        <time>2013-02-23T10:38:37.000Z</time>
      </trkpt>
      <trkpt lat="43.54718" lon="5.53523">
        <ele>381.79998779297</ele>
        <time>2013-02-23T10:38:45.000Z</time>
      </trkpt>
      <trkpt lat="43.54733" lon="5.53525">
        <ele>381.20001220703</ele>
        <time>2013-02-23T10:38:49.000Z</time>
      </trkpt>
      <trkpt lat="43.54737" lon="5.53526">
        <ele>381</ele>
        <time>2013-02-23T10:38:50.000Z</time>
      </trkpt>
      <trkpt lat="43.54741" lon="5.53526">
        <ele>380.79998779297</ele>
        <time>2013-02-23T10:38:51.000Z</time>
      </trkpt>
      <trkpt lat="43.54745" lon="5.53525">
        <ele>380.60000610352</ele>
        <time>2013-02-23T10:38:52.000Z</time>
      </trkpt>
      <trkpt lat="43.54748" lon="5.53524">
        <ele>380.60000610352</ele>
        <time>2013-02-23T10:38:53.000Z</time>
      </trkpt>
      <trkpt lat="43.5475" lon="5.53523">
        <ele>380.60000610352</ele>
        <time>2013-02-23T10:38:54.000Z</time>
      </trkpt>
      <trkpt lat="43.54752" lon="5.53521">
        <ele>380.20001220703</ele>
        <time>2013-02-23T10:38:55.000Z</time>
      </trkpt>
      <trkpt lat="43.54754" lon="5.53519">
        <ele>379.79998779297</ele>
        <time>2013-02-23T10:38:56.000Z</time>
      </trkpt>
      <trkpt lat="43.54756" lon="5.53516">
        <ele>379.39999389648</ele>
        <time>2013-02-23T10:38:57.000Z</time>
      </trkpt>
      <trkpt lat="43.54759" lon="5.53515">
        <ele>379</ele>
        <time>2013-02-23T10:38:58.000Z</time>
      </trkpt>
      <trkpt lat="43.54761" lon="5.53514">
        <ele>378.39999389648</ele>
        <time>2013-02-23T10:38:59.000Z</time>
      </trkpt>
      <trkpt lat="43.54763" lon="5.53513">
        <ele>378</ele>
        <time>2013-02-23T10:39:00.000Z</time>
      </trkpt>
      <trkpt lat="43.54765" lon="5.53513">
        <ele>377.39999389648</ele>
        <time>2013-02-23T10:39:01.000Z</time>
      </trkpt>
      <trkpt lat="43.54778" lon="5.53511">
        <ele>374.39999389648</ele>
        <time>2013-02-23T10:39:08.000Z</time>
      </trkpt>
      <trkpt lat="43.54781" lon="5.53508">
        <ele>374</ele>
        <time>2013-02-23T10:39:09.000Z</time>
      </trkpt>
      <trkpt lat="43.54783" lon="5.53506">
        <ele>373.60000610352</ele>
        <time>2013-02-23T10:39:10.000Z</time>
      </trkpt>
      <trkpt lat="43.54785" lon="5.53503">
        <ele>373.20001220703</ele>
        <time>2013-02-23T10:39:11.000Z</time>
      </trkpt>
      <trkpt lat="43.54788" lon="5.53499">
        <ele>373</ele>
        <time>2013-02-23T10:39:12.000Z</time>
      </trkpt>
      <trkpt lat="43.54791" lon="5.53495">
        <ele>372.79998779297</ele>
        <time>2013-02-23T10:39:13.000Z</time>
      </trkpt>
      <trkpt lat="43.54804" lon="5.53473">
        <ele>373.60000610352</ele>
        <time>2013-02-23T10:39:20.000Z</time>
      </trkpt>
      <trkpt lat="43.54805" lon="5.53468">
        <ele>374</ele>
        <time>2013-02-23T10:39:22.000Z</time>
      </trkpt>
      <trkpt lat="43.5481" lon="5.53463">
        <ele>374</ele>
        <time>2013-02-23T10:39:25.000Z</time>
      </trkpt>
      <trkpt lat="43.54813" lon="5.53461">
        <ele>373.79998779297</ele>
        <time>2013-02-23T10:39:26.000Z</time>
      </trkpt>
      <trkpt lat="43.54815" lon="5.53458">
        <ele>373.60000610352</ele>
        <time>2013-02-23T10:39:27.000Z</time>
      </trkpt>
      <trkpt lat="43.54817" lon="5.53455">
        <ele>373.60000610352</ele>
        <time>2013-02-23T10:39:28.000Z</time>
      </trkpt>
      <trkpt lat="43.54819" lon="5.53453">
        <ele>373.60000610352</ele>
        <time>2013-02-23T10:39:29.000Z</time>
      </trkpt>
      <trkpt lat="43.5482" lon="5.53452">
        <ele>373.60000610352</ele>
        <time>2013-02-23T10:39:30.000Z</time>
      </trkpt>
      <trkpt lat="43.54822" lon="5.53449">
        <ele>373.60000610352</ele>
        <time>2013-02-23T10:39:31.000Z</time>
      </trkpt>
      <trkpt lat="43.54829" lon="5.53438">
        <ele>374</ele>
        <time>2013-02-23T10:39:35.000Z</time>
      </trkpt>
      <trkpt lat="43.54832" lon="5.53436">
        <ele>373.60000610352</ele>
        <time>2013-02-23T10:39:36.000Z</time>
      </trkpt>
      <trkpt lat="43.54834" lon="5.53436">
        <ele>373.39999389648</ele>
        <time>2013-02-23T10:39:37.000Z</time>
      </trkpt>
      <trkpt lat="43.54837" lon="5.53433">
        <ele>373.39999389648</ele>
        <time>2013-02-23T10:39:38.000Z</time>
      </trkpt>
      <trkpt lat="43.54839" lon="5.53432">
        <ele>373.39999389648</ele>
        <time>2013-02-23T10:39:39.000Z</time>
      </trkpt>
      <trkpt lat="43.5484" lon="5.53429">
        <ele>373.60000610352</ele>
        <time>2013-02-23T10:39:40.000Z</time>
      </trkpt>
      <trkpt lat="43.54842" lon="5.53425">
        <ele>373.79998779297</ele>
        <time>2013-02-23T10:39:41.000Z</time>
      </trkpt>
      <trkpt lat="43.54847" lon="5.53418">
        <ele>374.20001220703</ele>
        <time>2013-02-23T10:39:43.000Z</time>
      </trkpt>
      <trkpt lat="43.54849" lon="5.53415">
        <ele>374.20001220703</ele>
        <time>2013-02-23T10:39:44.000Z</time>
      </trkpt>
      <trkpt lat="43.54851" lon="5.53411">
        <ele>374.39999389648</ele>
        <time>2013-02-23T10:39:45.000Z</time>
      </trkpt>
      <trkpt lat="43.54852" lon="5.53408">
        <ele>374.60000610352</ele>
        <time>2013-02-23T10:39:46.000Z</time>
      </trkpt>
      <trkpt lat="43.54854" lon="5.53405">
        <ele>374.79998779297</ele>
        <time>2013-02-23T10:39:47.000Z</time>
      </trkpt>
      <trkpt lat="43.54855" lon="5.53402">
        <ele>374.79998779297</ele>
        <time>2013-02-23T10:39:48.000Z</time>
      </trkpt>
      <trkpt lat="43.54857" lon="5.53399">
        <ele>374.79998779297</ele>
        <time>2013-02-23T10:39:49.000Z</time>
      </trkpt>
      <trkpt lat="43.54859" lon="5.53396">
        <ele>374.79998779297</ele>
        <time>2013-02-23T10:39:50.000Z</time>
      </trkpt>
      <trkpt lat="43.54861" lon="5.53393">
        <ele>374.79998779297</ele>
        <time>2013-02-23T10:39:51.000Z</time>
      </trkpt>
      <trkpt lat="43.54862" lon="5.53389">
        <ele>374.79998779297</ele>
        <time>2013-02-23T10:39:52.000Z</time>
      </trkpt>
      <trkpt lat="43.54864" lon="5.53386">
        <ele>374.79998779297</ele>
        <time>2013-02-23T10:39:53.000Z</time>
      </trkpt>
      <trkpt lat="43.54864" lon="5.53383">
        <ele>375</ele>
        <time>2013-02-23T10:39:54.000Z</time>
      </trkpt>
      <trkpt lat="43.54868" lon="5.53366">
        <ele>375.79998779297</ele>
        <time>2013-02-23T10:39:59.000Z</time>
      </trkpt>
      <trkpt lat="43.54868" lon="5.53363">
        <ele>376.20001220703</ele>
        <time>2013-02-23T10:40:00.000Z</time>
      </trkpt>
      <trkpt lat="43.54872" lon="5.53335">
        <ele>377.60000610352</ele>
        <time>2013-02-23T10:40:08.000Z</time>
      </trkpt>
      <trkpt lat="43.54877" lon="5.53316">
        <ele>377.79998779297</ele>
        <time>2013-02-23T10:40:13.000Z</time>
      </trkpt>
      <trkpt lat="43.54877" lon="5.53313">
        <ele>377.79998779297</ele>
        <time>2013-02-23T10:40:14.000Z</time>
      </trkpt>
      <trkpt lat="43.54879" lon="5.53308">
        <ele>378</ele>
        <time>2013-02-23T10:40:17.000Z</time>
      </trkpt>
      <trkpt lat="43.5488" lon="5.53306">
        <ele>377.60000610352</ele>
        <time>2013-02-23T10:40:18.000Z</time>
      </trkpt>
      <trkpt lat="43.54887" lon="5.53293">
        <ele>376.60000610352</ele>
        <time>2013-02-23T10:40:22.000Z</time>
      </trkpt>
      <trkpt lat="43.54889" lon="5.53291">
        <ele>376</ele>
        <time>2013-02-23T10:40:23.000Z</time>
      </trkpt>
      <trkpt lat="43.54891" lon="5.53289">
        <ele>375.60000610352</ele>
        <time>2013-02-23T10:40:24.000Z</time>
      </trkpt>
      <trkpt lat="43.54893" lon="5.53286">
        <ele>375.20001220703</ele>
        <time>2013-02-23T10:40:25.000Z</time>
      </trkpt>
      <trkpt lat="43.54894" lon="5.53283">
        <ele>374.79998779297</ele>
        <time>2013-02-23T10:40:26.000Z</time>
      </trkpt>
      <trkpt lat="43.54896" lon="5.53279">
        <ele>374.60000610352</ele>
        <time>2013-02-23T10:40:27.000Z</time>
      </trkpt>
      <trkpt lat="43.54898" lon="5.53275">
        <ele>374.20001220703</ele>
        <time>2013-02-23T10:40:28.000Z</time>
      </trkpt>
      <trkpt lat="43.54913" lon="5.53241">
        <ele>372.60000610352</ele>
        <time>2013-02-23T10:40:36.000Z</time>
      </trkpt>
      <trkpt lat="43.54914" lon="5.53231">
        <ele>373.60000610352</ele>
        <time>2013-02-23T10:40:43.000Z</time>
      </trkpt>
      <trkpt lat="43.54914" lon="5.53226">
        <ele>374.39999389648</ele>
        <time>2013-02-23T10:40:54.000Z</time>
      </trkpt>
      <trkpt lat="43.54924" lon="5.53204">
        <ele>376.20001220703</ele>
        <time>2013-02-23T10:41:01.000Z</time>
      </trkpt>
      <trkpt lat="43.54937" lon="5.53166">
        <ele>378.79998779297</ele>
        <time>2013-02-23T10:41:09.000Z</time>
      </trkpt>
      <trkpt lat="43.54942" lon="5.5315">
        <ele>378.20001220703</ele>
        <time>2013-02-23T10:41:12.000Z</time>
      </trkpt>
      <trkpt lat="43.54944" lon="5.53138">
        <ele>378</ele>
        <time>2013-02-23T10:41:14.000Z</time>
      </trkpt>
      <trkpt lat="43.54954" lon="5.53052">
        <ele>377.20001220703</ele>
        <time>2013-02-23T10:41:27.000Z</time>
      </trkpt>
      <trkpt lat="43.54955" lon="5.53038">
        <ele>376.79998779297</ele>
        <time>2013-02-23T10:41:29.000Z</time>
      </trkpt>
      <trkpt lat="43.54955" lon="5.53032">
        <ele>376.79998779297</ele>
        <time>2013-02-23T10:41:30.000Z</time>
      </trkpt>
      <trkpt lat="43.54954" lon="5.53025">
        <ele>376.79998779297</ele>
        <time>2013-02-23T10:41:31.000Z</time>
      </trkpt>
      <trkpt lat="43.54953" lon="5.53018">
        <ele>377</ele>
        <time>2013-02-23T10:41:32.000Z</time>
      </trkpt>
      <trkpt lat="43.54952" lon="5.53011">
        <ele>377</ele>
        <time>2013-02-23T10:41:33.000Z</time>
      </trkpt>
      <trkpt lat="43.5495" lon="5.53004">
        <ele>377.20001220703</ele>
        <time>2013-02-23T10:41:34.000Z</time>
      </trkpt>
      <trkpt lat="43.54946" lon="5.52991">
        <ele>377.20001220703</ele>
        <time>2013-02-23T10:41:36.000Z</time>
      </trkpt>
      <trkpt lat="43.54937" lon="5.52939">
        <ele>377</ele>
        <time>2013-02-23T10:41:46.000Z</time>
      </trkpt>
      <trkpt lat="43.54924" lon="5.52871">
        <ele>376.60000610352</ele>
        <time>2013-02-23T10:42:00.000Z</time>
      </trkpt>
      <trkpt lat="43.54915" lon="5.5282">
        <ele>376.39999389648</ele>
        <time>2013-02-23T10:42:11.000Z</time>
      </trkpt>
      <trkpt lat="43.549" lon="5.52742">
        <ele>380</ele>
        <time>2013-02-23T10:42:27.000Z</time>
      </trkpt>
      <trkpt lat="43.54886" lon="5.52672">
        <ele>382.79998779297</ele>
        <time>2013-02-23T10:42:41.000Z</time>
      </trkpt>
      <trkpt lat="43.54872" lon="5.52595">
        <ele>388.39999389648</ele>
        <time>2013-02-23T10:42:56.000Z</time>
      </trkpt>
      <trkpt lat="43.54868" lon="5.52575">
        <ele>389.60000610352</ele>
        <time>2013-02-23T10:43:00.000Z</time>
      </trkpt>
      <trkpt lat="43.54867" lon="5.52568">
        <ele>389.60000610352</ele>
        <time>2013-02-23T10:43:01.000Z</time>
      </trkpt>
      <trkpt lat="43.54867" lon="5.52561">
        <ele>389.79998779297</ele>
        <time>2013-02-23T10:43:02.000Z</time>
      </trkpt>
      <trkpt lat="43.54866" lon="5.52555">
        <ele>390</ele>
        <time>2013-02-23T10:43:03.000Z</time>
      </trkpt>
      <trkpt lat="43.54864" lon="5.52548">
        <ele>390</ele>
        <time>2013-02-23T10:43:04.000Z</time>
      </trkpt>
      <trkpt lat="43.54851" lon="5.5248">
        <ele>390.79998779297</ele>
        <time>2013-02-23T10:43:17.000Z</time>
      </trkpt>
      <trkpt lat="43.54845" lon="5.5243">
        <ele>391</ele>
        <time>2013-02-23T10:43:27.000Z</time>
      </trkpt>
      <trkpt lat="43.54846" lon="5.52426">
        <ele>391</ele>
        <time>2013-02-23T10:43:28.000Z</time>
      </trkpt>
      <trkpt lat="43.54848" lon="5.52423">
        <ele>391</ele>
        <time>2013-02-23T10:43:29.000Z</time>
      </trkpt>
      <trkpt lat="43.54851" lon="5.5242">
        <ele>390.79998779297</ele>
        <time>2013-02-23T10:43:30.000Z</time>
      </trkpt>
      <trkpt lat="43.54854" lon="5.52418">
        <ele>390.79998779297</ele>
        <time>2013-02-23T10:43:31.000Z</time>
      </trkpt>
      <trkpt lat="43.54857" lon="5.52416">
        <ele>391</ele>
        <time>2013-02-23T10:43:32.000Z</time>
      </trkpt>
      <trkpt lat="43.54859" lon="5.52415">
        <ele>391</ele>
        <time>2013-02-23T10:43:33.000Z</time>
      </trkpt>
      <trkpt lat="43.54866" lon="5.52412">
        <ele>391</ele>
        <time>2013-02-23T10:43:36.000Z</time>
      </trkpt>
      <trkpt lat="43.54881" lon="5.52405">
        <ele>391.20001220703</ele>
        <time>2013-02-23T10:43:42.000Z</time>
      </trkpt>
      <trkpt lat="43.54896" lon="5.52383">
        <ele>391.60000610352</ele>
        <time>2013-02-23T10:43:51.000Z</time>
      </trkpt>
      <trkpt lat="43.54906" lon="5.52349">
        <ele>392.39999389648</ele>
        <time>2013-02-23T10:44:01.000Z</time>
      </trkpt>
      <trkpt lat="43.54925" lon="5.52332">
        <ele>393.79998779297</ele>
        <time>2013-02-23T10:44:09.000Z</time>
      </trkpt>
      <trkpt lat="43.54946" lon="5.5233">
        <ele>396</ele>
        <time>2013-02-23T10:44:16.000Z</time>
      </trkpt>
      <trkpt lat="43.54966" lon="5.52353">
        <ele>397.39999389648</ele>
        <time>2013-02-23T10:44:25.000Z</time>
      </trkpt>
      <trkpt lat="43.54975" lon="5.52366">
        <ele>398.20001220703</ele>
        <time>2013-02-23T10:44:30.000Z</time>
      </trkpt>
      <trkpt lat="43.54977" lon="5.52367">
        <ele>398.60000610352</ele>
        <time>2013-02-23T10:44:31.000Z</time>
      </trkpt>
      <trkpt lat="43.55012" lon="5.52361">
        <ele>402</ele>
        <time>2013-02-23T10:44:42.000Z</time>
      </trkpt>
      <trkpt lat="43.55051" lon="5.52355">
        <ele>405.60000610352</ele>
        <time>2013-02-23T10:44:53.000Z</time>
      </trkpt>
      <trkpt lat="43.55083" lon="5.52373">
        <ele>407.39999389648</ele>
        <time>2013-02-23T10:45:03.000Z</time>
      </trkpt>
      <trkpt lat="43.55089" lon="5.52382">
        <ele>407.79998779297</ele>
        <time>2013-02-23T10:45:06.000Z</time>
      </trkpt>
      <trkpt lat="43.55106" lon="5.52403">
        <ele>408.79998779297</ele>
        <time>2013-02-23T10:45:13.000Z</time>
      </trkpt>
      <trkpt lat="43.55119" lon="5.52405">
        <ele>410.39999389648</ele>
        <time>2013-02-23T10:45:19.000Z</time>
      </trkpt>
      <trkpt lat="43.55128" lon="5.52384">
        <ele>412.39999389648</ele>
        <time>2013-02-23T10:45:27.000Z</time>
      </trkpt>
      <trkpt lat="43.55133" lon="5.52365">
        <ele>413.60000610352</ele>
        <time>2013-02-23T10:45:34.000Z</time>
      </trkpt>
      <trkpt lat="43.55132" lon="5.52362">
        <ele>413.60000610352</ele>
        <time>2013-02-23T10:45:35.000Z</time>
      </trkpt>
      <trkpt lat="43.55131" lon="5.52359">
        <ele>413.60000610352</ele>
        <time>2013-02-23T10:45:36.000Z</time>
      </trkpt>
      <trkpt lat="43.55121" lon="5.52329">
        <ele>413.60000610352</ele>
        <time>2013-02-23T10:45:47.000Z</time>
      </trkpt>
      <trkpt lat="43.55119" lon="5.52323">
        <ele>413.60000610352</ele>
        <time>2013-02-23T10:45:50.000Z</time>
      </trkpt>
      <trkpt lat="43.5512" lon="5.52321">
        <ele>413.60000610352</ele>
        <time>2013-02-23T10:45:51.000Z</time>
      </trkpt>
      <trkpt lat="43.5512" lon="5.52319">
        <ele>413.79998779297</ele>
        <time>2013-02-23T10:45:52.000Z</time>
      </trkpt>
      <trkpt lat="43.55119" lon="5.52286">
        <ele>414.39999389648</ele>
        <time>2013-02-23T10:46:01.000Z</time>
      </trkpt>
      <trkpt lat="43.55116" lon="5.52276">
        <ele>414.39999389648</ele>
        <time>2013-02-23T10:46:05.000Z</time>
      </trkpt>
      <trkpt lat="43.55115" lon="5.52276">
        <ele>414.39999389648</ele>
        <time>2013-02-23T10:46:06.000Z</time>
      </trkpt>
      <trkpt lat="43.55106" lon="5.52269">
        <ele>414.20001220703</ele>
        <time>2013-02-23T10:46:16.000Z</time>
      </trkpt>
      <trkpt lat="43.55093" lon="5.52253">
        <ele>414.20001220703</ele>
        <time>2013-02-23T10:46:26.000Z</time>
      </trkpt>
      <trkpt lat="43.55093" lon="5.5225">
        <ele>414.20001220703</ele>
        <time>2013-02-23T10:46:27.000Z</time>
      </trkpt>
      <trkpt lat="43.55106" lon="5.52247">
        <ele>414.79998779297</ele>
        <time>2013-02-23T10:46:34.000Z</time>
      </trkpt>
      <trkpt lat="43.55108" lon="5.52248">
        <ele>414.79998779297</ele>
        <time>2013-02-23T10:46:35.000Z</time>
      </trkpt>
      <trkpt lat="43.55109" lon="5.5225">
        <ele>414.79998779297</ele>
        <time>2013-02-23T10:46:36.000Z</time>
      </trkpt>
      <trkpt lat="43.55116" lon="5.52257">
        <ele>414.79998779297</ele>
        <time>2013-02-23T10:46:40.000Z</time>
      </trkpt>
      <trkpt lat="43.5511" lon="5.52273">
        <ele>414.20001220703</ele>
        <time>2013-02-23T10:46:48.000Z</time>
      </trkpt>
      <trkpt lat="43.55109" lon="5.52272">
        <ele>414.20001220703</ele>
        <time>2013-02-23T10:46:50.000Z</time>
      </trkpt>
      <trkpt lat="43.55092" lon="5.52256">
        <ele>414</ele>
        <time>2013-02-23T10:47:00.000Z</time>
      </trkpt>
      <trkpt lat="43.55091" lon="5.52253">
        <ele>414</ele>
        <time>2013-02-23T10:47:01.000Z</time>
      </trkpt>
      <trkpt lat="43.55091" lon="5.5225">
        <ele>414.20001220703</ele>
        <time>2013-02-23T10:47:02.000Z</time>
      </trkpt>
      <trkpt lat="43.55091" lon="5.52247">
        <ele>414.20001220703</ele>
        <time>2013-02-23T10:47:03.000Z</time>
      </trkpt>
      <trkpt lat="43.55097" lon="5.52241">
        <ele>414.60000610352</ele>
        <time>2013-02-23T10:47:06.000Z</time>
      </trkpt>
      <trkpt lat="43.5511" lon="5.5223">
        <ele>415.20001220703</ele>
        <time>2013-02-23T10:47:12.000Z</time>
      </trkpt>
      <trkpt lat="43.551" lon="5.52201">
        <ele>415.20001220703</ele>
        <time>2013-02-23T10:47:21.000Z</time>
      </trkpt>
      <trkpt lat="43.55099" lon="5.52182">
        <ele>415.39999389648</ele>
        <time>2013-02-23T10:47:26.000Z</time>
      </trkpt>
      <trkpt lat="43.55114" lon="5.52151">
        <ele>416.79998779297</ele>
        <time>2013-02-23T10:47:35.000Z</time>
      </trkpt>
      <trkpt lat="43.55123" lon="5.52138">
        <ele>417.60000610352</ele>
        <time>2013-02-23T10:47:40.000Z</time>
      </trkpt>
      <trkpt lat="43.55125" lon="5.52137">
        <ele>417.79998779297</ele>
        <time>2013-02-23T10:47:41.000Z</time>
      </trkpt>
      <trkpt lat="43.55126" lon="5.52135">
        <ele>418</ele>
        <time>2013-02-23T10:47:42.000Z</time>
      </trkpt>
      <trkpt lat="43.55128" lon="5.52134">
        <ele>418</ele>
        <time>2013-02-23T10:47:43.000Z</time>
      </trkpt>
      <trkpt lat="43.5513" lon="5.52134">
        <ele>418.20001220703</ele>
        <time>2013-02-23T10:47:44.000Z</time>
      </trkpt>
      <trkpt lat="43.55132" lon="5.52135">
        <ele>418.20001220703</ele>
        <time>2013-02-23T10:47:45.000Z</time>
      </trkpt>
      <trkpt lat="43.55134" lon="5.52135">
        <ele>418.20001220703</ele>
        <time>2013-02-23T10:47:46.000Z</time>
      </trkpt>
      <trkpt lat="43.55135" lon="5.52137">
        <ele>418.39999389648</ele>
        <time>2013-02-23T10:47:47.000Z</time>
      </trkpt>
      <trkpt lat="43.55137" lon="5.5214">
        <ele>418.39999389648</ele>
        <time>2013-02-23T10:47:48.000Z</time>
      </trkpt>
      <trkpt lat="43.55139" lon="5.52143">
        <ele>418.39999389648</ele>
        <time>2013-02-23T10:47:49.000Z</time>
      </trkpt>
      <trkpt lat="43.55141" lon="5.52147">
        <ele>418.39999389648</ele>
        <time>2013-02-23T10:47:50.000Z</time>
      </trkpt>
      <trkpt lat="43.55163" lon="5.52182">
        <ele>418.39999389648</ele>
        <time>2013-02-23T10:48:00.000Z</time>
      </trkpt>
      <trkpt lat="43.55184" lon="5.52222">
        <ele>418.79998779297</ele>
        <time>2013-02-23T10:48:11.000Z</time>
      </trkpt>
      <trkpt lat="43.55207" lon="5.52257">
        <ele>419.79998779297</ele>
        <time>2013-02-23T10:48:21.000Z</time>
      </trkpt>
      <trkpt lat="43.55229" lon="5.52285">
        <ele>421.79998779297</ele>
        <time>2013-02-23T10:48:30.000Z</time>
      </trkpt>
      <trkpt lat="43.55249" lon="5.52309">
        <ele>423.60000610352</ele>
        <time>2013-02-23T10:48:39.000Z</time>
      </trkpt>
      <trkpt lat="43.55271" lon="5.52342">
        <ele>426.20001220703</ele>
        <time>2013-02-23T10:48:49.000Z</time>
      </trkpt>
      <trkpt lat="43.55283" lon="5.52367">
        <ele>427.39999389648</ele>
        <time>2013-02-23T10:48:56.000Z</time>
      </trkpt>
      <trkpt lat="43.55286" lon="5.5237">
        <ele>427.60000610352</ele>
        <time>2013-02-23T10:48:57.000Z</time>
      </trkpt>
      <trkpt lat="43.55317" lon="5.52403">
        <ele>430</ele>
        <time>2013-02-23T10:49:07.000Z</time>
      </trkpt>
      <trkpt lat="43.55337" lon="5.52436">
        <ele>432</ele>
        <time>2013-02-23T10:49:15.000Z</time>
      </trkpt>
      <trkpt lat="43.5534" lon="5.52439">
        <ele>432.39999389648</ele>
        <time>2013-02-23T10:49:16.000Z</time>
      </trkpt>
      <trkpt lat="43.55362" lon="5.52469">
        <ele>436.20001220703</ele>
        <time>2013-02-23T10:49:25.000Z</time>
      </trkpt>
      <trkpt lat="43.55376" lon="5.52498">
        <ele>438.60000610352</ele>
        <time>2013-02-23T10:49:33.000Z</time>
      </trkpt>
      <trkpt lat="43.55376" lon="5.52556">
        <ele>439</ele>
        <time>2013-02-23T10:49:46.000Z</time>
      </trkpt>
      <trkpt lat="43.55381" lon="5.52601">
        <ele>439.20001220703</ele>
        <time>2013-02-23T10:49:56.000Z</time>
      </trkpt>
      <trkpt lat="43.55394" lon="5.52658">
        <ele>439</ele>
        <time>2013-02-23T10:50:08.000Z</time>
      </trkpt>
      <trkpt lat="43.55401" lon="5.527">
        <ele>439.79998779297</ele>
        <time>2013-02-23T10:50:17.000Z</time>
      </trkpt>
      <trkpt lat="43.55401" lon="5.52738">
        <ele>440.20001220703</ele>
        <time>2013-02-23T10:50:25.000Z</time>
      </trkpt>
      <trkpt lat="43.5541" lon="5.52764">
        <ele>441.60000610352</ele>
        <time>2013-02-23T10:50:32.000Z</time>
      </trkpt>
      <trkpt lat="43.55421" lon="5.52798">
        <ele>443.60000610352</ele>
        <time>2013-02-23T10:50:41.000Z</time>
      </trkpt>
      <trkpt lat="43.55431" lon="5.52828">
        <ele>445.60000610352</ele>
        <time>2013-02-23T10:50:49.000Z</time>
      </trkpt>
      <trkpt lat="43.55432" lon="5.5286">
        <ele>447</ele>
        <time>2013-02-23T10:50:58.000Z</time>
      </trkpt>
      <trkpt lat="43.55437" lon="5.52899">
        <ele>449.39999389648</ele>
        <time>2013-02-23T10:51:08.000Z</time>
      </trkpt>
      <trkpt lat="43.55438" lon="5.52904">
        <ele>449.79998779297</ele>
        <time>2013-02-23T10:51:10.000Z</time>
      </trkpt>
      <trkpt lat="43.55444" lon="5.52922">
        <ele>451.20001220703</ele>
        <time>2013-02-23T10:51:20.000Z</time>
      </trkpt>
      <trkpt lat="43.55456" lon="5.52937">
        <ele>452.79998779297</ele>
        <time>2013-02-23T10:51:28.000Z</time>
      </trkpt>
      <trkpt lat="43.55462" lon="5.52965">
        <ele>453.39999389648</ele>
        <time>2013-02-23T10:51:38.000Z</time>
      </trkpt>
      <trkpt lat="43.55465" lon="5.52986">
        <ele>453.79998779297</ele>
        <time>2013-02-23T10:51:44.000Z</time>
      </trkpt>
      <trkpt lat="43.55466" lon="5.52996">
        <ele>453.79998779297</ele>
        <time>2013-02-23T10:51:46.000Z</time>
      </trkpt>
      <trkpt lat="43.55468" lon="5.53008">
        <ele>453.79998779297</ele>
        <time>2013-02-23T10:51:48.000Z</time>
      </trkpt>
      <trkpt lat="43.5547" lon="5.53026">
        <ele>453.60000610352</ele>
        <time>2013-02-23T10:51:51.000Z</time>
      </trkpt>
      <trkpt lat="43.55475" lon="5.53046">
        <ele>453.60000610352</ele>
        <time>2013-02-23T10:51:55.000Z</time>
      </trkpt>
      <trkpt lat="43.55479" lon="5.53074">
        <ele>453.20001220703</ele>
        <time>2013-02-23T10:51:59.000Z</time>
      </trkpt>
      <trkpt lat="43.55478" lon="5.53094">
        <ele>452.79998779297</ele>
        <time>2013-02-23T10:52:02.000Z</time>
      </trkpt>
      <trkpt lat="43.55477" lon="5.53112">
        <ele>452.79998779297</ele>
        <time>2013-02-23T10:52:05.000Z</time>
      </trkpt>
      <trkpt lat="43.55479" lon="5.53136">
        <ele>453.39999389648</ele>
        <time>2013-02-23T10:52:09.000Z</time>
      </trkpt>
      <trkpt lat="43.55477" lon="5.53171">
        <ele>453.60000610352</ele>
        <time>2013-02-23T10:52:14.000Z</time>
      </trkpt>
      <trkpt lat="43.55478" lon="5.5319">
        <ele>453.39999389648</ele>
        <time>2013-02-23T10:52:17.000Z</time>
      </trkpt>
      <trkpt lat="43.55479" lon="5.53202">
        <ele>453.39999389648</ele>
        <time>2013-02-23T10:52:19.000Z</time>
      </trkpt>
      <trkpt lat="43.55486" lon="5.53242">
        <ele>454</ele>
        <time>2013-02-23T10:52:27.000Z</time>
      </trkpt>
      <trkpt lat="43.55486" lon="5.53277">
        <ele>451.79998779297</ele>
        <time>2013-02-23T10:52:35.000Z</time>
      </trkpt>
      <trkpt lat="43.55487" lon="5.53299">
        <ele>450.39999389648</ele>
        <time>2013-02-23T10:52:39.000Z</time>
      </trkpt>
      <trkpt lat="43.55493" lon="5.53317">
        <ele>449.60000610352</ele>
        <time>2013-02-23T10:52:42.000Z</time>
      </trkpt>
      <trkpt lat="43.55496" lon="5.53322">
        <ele>449.60000610352</ele>
        <time>2013-02-23T10:52:43.000Z</time>
      </trkpt>
      <trkpt lat="43.555" lon="5.53327">
        <ele>449.39999389648</ele>
        <time>2013-02-23T10:52:44.000Z</time>
      </trkpt>
      <trkpt lat="43.55504" lon="5.53331">
        <ele>449.39999389648</ele>
        <time>2013-02-23T10:52:45.000Z</time>
      </trkpt>
      <trkpt lat="43.55508" lon="5.53335">
        <ele>449.60000610352</ele>
        <time>2013-02-23T10:52:46.000Z</time>
      </trkpt>
      <trkpt lat="43.55516" lon="5.53343">
        <ele>450</ele>
        <time>2013-02-23T10:52:48.000Z</time>
      </trkpt>
      <trkpt lat="43.55519" lon="5.53347">
        <ele>450.39999389648</ele>
        <time>2013-02-23T10:52:49.000Z</time>
      </trkpt>
      <trkpt lat="43.55522" lon="5.53353">
        <ele>450.39999389648</ele>
        <time>2013-02-23T10:52:50.000Z</time>
      </trkpt>
      <trkpt lat="43.55523" lon="5.53358">
        <ele>450.60000610352</ele>
        <time>2013-02-23T10:52:51.000Z</time>
      </trkpt>
      <trkpt lat="43.55525" lon="5.53363">
        <ele>450.60000610352</ele>
        <time>2013-02-23T10:52:52.000Z</time>
      </trkpt>
      <trkpt lat="43.55527" lon="5.53398">
        <ele>450.39999389648</ele>
        <time>2013-02-23T10:53:01.000Z</time>
      </trkpt>
      <trkpt lat="43.5554" lon="5.53437">
        <ele>451</ele>
        <time>2013-02-23T10:53:10.000Z</time>
      </trkpt>
      <trkpt lat="43.5556" lon="5.53472">
        <ele>452.60000610352</ele>
        <time>2013-02-23T10:53:20.000Z</time>
      </trkpt>
      <trkpt lat="43.55567" lon="5.53474">
        <ele>453.39999389648</ele>
        <time>2013-02-23T10:53:22.000Z</time>
      </trkpt>
      <trkpt lat="43.55603" lon="5.53472">
        <ele>456.20001220703</ele>
        <time>2013-02-23T10:53:32.000Z</time>
      </trkpt>
      <trkpt lat="43.55643" lon="5.53462">
        <ele>457.60000610352</ele>
        <time>2013-02-23T10:53:43.000Z</time>
      </trkpt>
      <trkpt lat="43.5568" lon="5.53472">
        <ele>458.39999389648</ele>
        <time>2013-02-23T10:53:54.000Z</time>
      </trkpt>
      <trkpt lat="43.55711" lon="5.53499">
        <ele>459</ele>
        <time>2013-02-23T10:54:05.000Z</time>
      </trkpt>
      <trkpt lat="43.55732" lon="5.53537">
        <ele>460.79998779297</ele>
        <time>2013-02-23T10:54:15.000Z</time>
      </trkpt>
      <trkpt lat="43.55752" lon="5.53592">
        <ele>463.20001220703</ele>
        <time>2013-02-23T10:54:27.000Z</time>
      </trkpt>
      <trkpt lat="43.55772" lon="5.53662">
        <ele>465.79998779297</ele>
        <time>2013-02-23T10:54:42.000Z</time>
      </trkpt>
      <trkpt lat="43.55784" lon="5.53717">
        <ele>467.39999389648</ele>
        <time>2013-02-23T10:54:53.000Z</time>
      </trkpt>
      <trkpt lat="43.55799" lon="5.53778">
        <ele>468.79998779297</ele>
        <time>2013-02-23T10:55:05.000Z</time>
      </trkpt>
      <trkpt lat="43.55813" lon="5.53821">
        <ele>469.79998779297</ele>
        <time>2013-02-23T10:55:14.000Z</time>
      </trkpt>
      <trkpt lat="43.55843" lon="5.53868">
        <ele>472.39999389648</ele>
        <time>2013-02-23T10:55:26.000Z</time>
      </trkpt>
      <trkpt lat="43.55876" lon="5.53918">
        <ele>474.39999389648</ele>
        <time>2013-02-23T10:55:40.000Z</time>
      </trkpt>
      <trkpt lat="43.55881" lon="5.53927">
        <ele>474.20001220703</ele>
        <time>2013-02-23T10:55:44.000Z</time>
      </trkpt>
      <trkpt lat="43.55883" lon="5.53928">
        <ele>474</ele>
        <time>2013-02-23T10:55:45.000Z</time>
      </trkpt>
      <trkpt lat="43.55884" lon="5.5393">
        <ele>474</ele>
        <time>2013-02-23T10:55:46.000Z</time>
      </trkpt>
      <trkpt lat="43.55886" lon="5.53931">
        <ele>474</ele>
        <time>2013-02-23T10:55:47.000Z</time>
      </trkpt>
      <trkpt lat="43.55887" lon="5.53933">
        <ele>474</ele>
        <time>2013-02-23T10:55:48.000Z</time>
      </trkpt>
      <trkpt lat="43.55888" lon="5.53935">
        <ele>474</ele>
        <time>2013-02-23T10:55:49.000Z</time>
      </trkpt>
      <trkpt lat="43.5589" lon="5.53936">
        <ele>473.79998779297</ele>
        <time>2013-02-23T10:55:50.000Z</time>
      </trkpt>
      <trkpt lat="43.55891" lon="5.53936">
        <ele>473.79998779297</ele>
        <time>2013-02-23T10:55:51.000Z</time>
      </trkpt>
      <trkpt lat="43.55893" lon="5.53937">
        <ele>473.79998779297</ele>
        <time>2013-02-23T10:55:52.000Z</time>
      </trkpt>
      <trkpt lat="43.55894" lon="5.53938">
        <ele>473.79998779297</ele>
        <time>2013-02-23T10:55:53.000Z</time>
      </trkpt>
      <trkpt lat="43.55895" lon="5.53939">
        <ele>473.79998779297</ele>
        <time>2013-02-23T10:55:54.000Z</time>
      </trkpt>
      <trkpt lat="43.55897" lon="5.5394">
        <ele>473.79998779297</ele>
        <time>2013-02-23T10:55:55.000Z</time>
      </trkpt>
      <trkpt lat="43.55898" lon="5.53941">
        <ele>473.79998779297</ele>
        <time>2013-02-23T10:55:56.000Z</time>
      </trkpt>
      <trkpt lat="43.55899" lon="5.53942">
        <ele>473.79998779297</ele>
        <time>2013-02-23T10:55:57.000Z</time>
      </trkpt>
      <trkpt lat="43.559" lon="5.53943">
        <ele>473.79998779297</ele>
        <time>2013-02-23T10:55:58.000Z</time>
      </trkpt>
      <trkpt lat="43.55901" lon="5.53945">
        <ele>473.60000610352</ele>
        <time>2013-02-23T10:56:06.000Z</time>
      </trkpt>
      <trkpt lat="43.55903" lon="5.53945">
        <ele>473.79998779297</ele>
        <time>2013-02-23T10:56:18.000Z</time>
      </trkpt>
      <trkpt lat="43.55903" lon="5.53944">
        <ele>473.79998779297</ele>
        <time>2013-02-23T10:56:33.000Z</time>
      </trkpt>
      <trkpt lat="43.55902" lon="5.53945">
        <ele>473.79998779297</ele>
        <time>2013-02-23T10:56:46.000Z</time>
      </trkpt>
      <trkpt lat="43.55901" lon="5.53944">
        <ele>473.79998779297</ele>
        <time>2013-02-23T10:56:58.000Z</time>
      </trkpt>
      <trkpt lat="43.55901" lon="5.53944">
        <ele>473.79998779297</ele>
        <time>2013-02-23T10:57:23.000Z</time>
      </trkpt>
      <trkpt lat="43.55901" lon="5.53943">
        <ele>473.79998779297</ele>
        <time>2013-02-23T10:57:41.000Z</time>
      </trkpt>
      <trkpt lat="43.55902" lon="5.53946">
        <ele>473.60000610352</ele>
        <time>2013-02-23T10:57:58.000Z</time>
      </trkpt>
      <trkpt lat="43.55907" lon="5.53954">
        <ele>473.39999389648</ele>
        <time>2013-02-23T10:58:05.000Z</time>
      </trkpt>
      <trkpt lat="43.55926" lon="5.53986">
        <ele>472.60000610352</ele>
        <time>2013-02-23T10:58:15.000Z</time>
      </trkpt>
      <trkpt lat="43.55937" lon="5.54007">
        <ele>472</ele>
        <time>2013-02-23T10:58:20.000Z</time>
      </trkpt>
      <trkpt lat="43.55975" lon="5.54066">
        <ele>470</ele>
        <time>2013-02-23T10:58:32.000Z</time>
      </trkpt>
      <trkpt lat="43.55998" lon="5.541">
        <ele>470</ele>
        <time>2013-02-23T10:58:38.000Z</time>
      </trkpt>
      <trkpt lat="43.56001" lon="5.54107">
        <ele>470.20001220703</ele>
        <time>2013-02-23T10:58:39.000Z</time>
      </trkpt>
      <trkpt lat="43.56038" lon="5.54207">
        <ele>471.79998779297</ele>
        <time>2013-02-23T10:58:53.000Z</time>
      </trkpt>
      <trkpt lat="43.5605" lon="5.54235">
        <ele>471.79998779297</ele>
        <time>2013-02-23T10:58:57.000Z</time>
      </trkpt>
      <trkpt lat="43.56088" lon="5.54296">
        <ele>469.79998779297</ele>
        <time>2013-02-23T10:59:06.000Z</time>
      </trkpt>
      <trkpt lat="43.56092" lon="5.54302">
        <ele>469.60000610352</ele>
        <time>2013-02-23T10:59:07.000Z</time>
      </trkpt>
      <trkpt lat="43.56141" lon="5.54353">
        <ele>470.20001220703</ele>
        <time>2013-02-23T10:59:17.000Z</time>
      </trkpt>
      <trkpt lat="43.56186" lon="5.54418">
        <ele>471.79998779297</ele>
        <time>2013-02-23T10:59:28.000Z</time>
      </trkpt>
      <trkpt lat="43.56238" lon="5.54469">
        <ele>473</ele>
        <time>2013-02-23T10:59:39.000Z</time>
      </trkpt>
      <trkpt lat="43.56243" lon="5.54472">
        <ele>473.20001220703</ele>
        <time>2013-02-23T10:59:40.000Z</time>
      </trkpt>
      <trkpt lat="43.56249" lon="5.54474">
        <ele>473.39999389648</ele>
        <time>2013-02-23T10:59:41.000Z</time>
      </trkpt>
      <trkpt lat="43.56255" lon="5.54476">
        <ele>473.79998779297</ele>
        <time>2013-02-23T10:59:42.000Z</time>
      </trkpt>
      <trkpt lat="43.5626" lon="5.54476">
        <ele>474</ele>
        <time>2013-02-23T10:59:43.000Z</time>
      </trkpt>
      <trkpt lat="43.56265" lon="5.54476">
        <ele>474.39999389648</ele>
        <time>2013-02-23T10:59:44.000Z</time>
      </trkpt>
      <trkpt lat="43.56271" lon="5.54475">
        <ele>474.60000610352</ele>
        <time>2013-02-23T10:59:45.000Z</time>
      </trkpt>
      <trkpt lat="43.56276" lon="5.54474">
        <ele>475</ele>
        <time>2013-02-23T10:59:46.000Z</time>
      </trkpt>
      <trkpt lat="43.56281" lon="5.54472">
        <ele>475.39999389648</ele>
        <time>2013-02-23T10:59:47.000Z</time>
      </trkpt>
      <trkpt lat="43.56286" lon="5.54471">
        <ele>475.60000610352</ele>
        <time>2013-02-23T10:59:48.000Z</time>
      </trkpt>
      <trkpt lat="43.56312" lon="5.54463">
        <ele>477</ele>
        <time>2013-02-23T10:59:53.000Z</time>
      </trkpt>
      <trkpt lat="43.56317" lon="5.54461">
        <ele>477.20001220703</ele>
        <time>2013-02-23T10:59:54.000Z</time>
      </trkpt>
      <trkpt lat="43.56323" lon="5.5446">
        <ele>477.39999389648</ele>
        <time>2013-02-23T10:59:55.000Z</time>
      </trkpt>
      <trkpt lat="43.56365" lon="5.54464">
        <ele>479.60000610352</ele>
        <time>2013-02-23T11:00:06.000Z</time>
      </trkpt>
      <trkpt lat="43.56396" lon="5.5447">
        <ele>481.20001220703</ele>
        <time>2013-02-23T11:00:17.000Z</time>
      </trkpt>
      <trkpt lat="43.56431" lon="5.54471">
        <ele>483.20001220703</ele>
        <time>2013-02-23T11:00:29.000Z</time>
      </trkpt>
      <trkpt lat="43.56469" lon="5.54466">
        <ele>485.60000610352</ele>
        <time>2013-02-23T11:00:41.000Z</time>
      </trkpt>
      <trkpt lat="43.56519" lon="5.54469">
        <ele>486.79998779297</ele>
        <time>2013-02-23T11:00:56.000Z</time>
      </trkpt>
      <trkpt lat="43.56549" lon="5.5447">
        <ele>485.79998779297</ele>
        <time>2013-02-23T11:01:04.000Z</time>
      </trkpt>
      <trkpt lat="43.56554" lon="5.54472">
        <ele>485.60000610352</ele>
        <time>2013-02-23T11:01:05.000Z</time>
      </trkpt>
      <trkpt lat="43.56558" lon="5.54473">
        <ele>485.39999389648</ele>
        <time>2013-02-23T11:01:06.000Z</time>
      </trkpt>
      <trkpt lat="43.56615" lon="5.54478">
        <ele>486.79998779297</ele>
        <time>2013-02-23T11:01:16.000Z</time>
      </trkpt>
      <trkpt lat="43.56667" lon="5.54472">
        <ele>491</ele>
        <time>2013-02-23T11:01:25.000Z</time>
      </trkpt>
      <trkpt lat="43.56687" lon="5.54465">
        <ele>492.39999389648</ele>
        <time>2013-02-23T11:01:29.000Z</time>
      </trkpt>
      <trkpt lat="43.56714" lon="5.54458">
        <ele>494.60000610352</ele>
        <time>2013-02-23T11:01:35.000Z</time>
      </trkpt>
      <trkpt lat="43.56739" lon="5.54444">
        <ele>496.79998779297</ele>
        <time>2013-02-23T11:01:43.000Z</time>
      </trkpt>
      <trkpt lat="43.56758" lon="5.54429">
        <ele>498.20001220703</ele>
        <time>2013-02-23T11:01:51.000Z</time>
      </trkpt>
      <trkpt lat="43.56774" lon="5.54406">
        <ele>499.20001220703</ele>
        <time>2013-02-23T11:02:00.000Z</time>
      </trkpt>
      <trkpt lat="43.56794" lon="5.54386">
        <ele>500.20001220703</ele>
        <time>2013-02-23T11:02:09.000Z</time>
      </trkpt>
      <trkpt lat="43.56821" lon="5.54372">
        <ele>502</ele>
        <time>2013-02-23T11:02:20.000Z</time>
      </trkpt>
      <trkpt lat="43.56849" lon="5.54362">
        <ele>503.79998779297</ele>
        <time>2013-02-23T11:02:30.000Z</time>
      </trkpt>
      <trkpt lat="43.56884" lon="5.54359">
        <ele>506.20001220703</ele>
        <time>2013-02-23T11:02:41.000Z</time>
      </trkpt>
      <trkpt lat="43.56919" lon="5.54355">
        <ele>508.20001220703</ele>
        <time>2013-02-23T11:02:51.000Z</time>
      </trkpt>
      <trkpt lat="43.56971" lon="5.54338">
        <ele>507.79998779297</ele>
        <time>2013-02-23T11:03:05.000Z</time>
      </trkpt>
      <trkpt lat="43.56983" lon="5.54332">
        <ele>507.79998779297</ele>
        <time>2013-02-23T11:03:08.000Z</time>
      </trkpt>
      <trkpt lat="43.56986" lon="5.54329">
        <ele>507.79998779297</ele>
        <time>2013-02-23T11:03:09.000Z</time>
      </trkpt>
      <trkpt lat="43.56993" lon="5.5432">
        <ele>507.79998779297</ele>
        <time>2013-02-23T11:03:11.000Z</time>
      </trkpt>
      <trkpt lat="43.57003" lon="5.54307">
        <ele>507.39999389648</ele>
        <time>2013-02-23T11:03:14.000Z</time>
      </trkpt>
      <trkpt lat="43.57006" lon="5.54301">
        <ele>507</ele>
        <time>2013-02-23T11:03:15.000Z</time>
      </trkpt>
      <trkpt lat="43.57009" lon="5.54295">
        <ele>506.79998779297</ele>
        <time>2013-02-23T11:03:16.000Z</time>
      </trkpt>
      <trkpt lat="43.57011" lon="5.54289">
        <ele>506.60000610352</ele>
        <time>2013-02-23T11:03:17.000Z</time>
      </trkpt>
      <trkpt lat="43.57015" lon="5.54283">
        <ele>506.39999389648</ele>
        <time>2013-02-23T11:03:18.000Z</time>
      </trkpt>
      <trkpt lat="43.57048" lon="5.54208">
        <ele>506</ele>
        <time>2013-02-23T11:03:30.000Z</time>
      </trkpt>
      <trkpt lat="43.5705" lon="5.54201">
        <ele>506</ele>
        <time>2013-02-23T11:03:31.000Z</time>
      </trkpt>
      <trkpt lat="43.57061" lon="5.54107">
        <ele>504.20001220703</ele>
        <time>2013-02-23T11:03:42.000Z</time>
      </trkpt>
      <trkpt lat="43.57072" lon="5.53994">
        <ele>498.60000610352</ele>
        <time>2013-02-23T11:03:53.000Z</time>
      </trkpt>
      <trkpt lat="43.57092" lon="5.53922">
        <ele>497.20001220703</ele>
        <time>2013-02-23T11:04:00.000Z</time>
      </trkpt>
      <trkpt lat="43.57144" lon="5.53816">
        <ele>494.79998779297</ele>
        <time>2013-02-23T11:04:12.000Z</time>
      </trkpt>
      <trkpt lat="43.57188" lon="5.53718">
        <ele>492</ele>
        <time>2013-02-23T11:04:23.000Z</time>
      </trkpt>
      <trkpt lat="43.57205" lon="5.53675">
        <ele>491.39999389648</ele>
        <time>2013-02-23T11:04:28.000Z</time>
      </trkpt>
      <trkpt lat="43.57209" lon="5.53667">
        <ele>491.39999389648</ele>
        <time>2013-02-23T11:04:29.000Z</time>
      </trkpt>
      <trkpt lat="43.57218" lon="5.53653">
        <ele>490.79998779297</ele>
        <time>2013-02-23T11:04:31.000Z</time>
      </trkpt>
      <trkpt lat="43.57223" lon="5.53647">
        <ele>490.39999389648</ele>
        <time>2013-02-23T11:04:32.000Z</time>
      </trkpt>
      <trkpt lat="43.57239" lon="5.53626">
        <ele>489.60000610352</ele>
        <time>2013-02-23T11:04:35.000Z</time>
      </trkpt>
      <trkpt lat="43.57243" lon="5.53618">
        <ele>489.39999389648</ele>
        <time>2013-02-23T11:04:36.000Z</time>
      </trkpt>
      <trkpt lat="43.57247" lon="5.5361">
        <ele>489.20001220703</ele>
        <time>2013-02-23T11:04:37.000Z</time>
      </trkpt>
      <trkpt lat="43.57251" lon="5.536">
        <ele>489</ele>
        <time>2013-02-23T11:04:38.000Z</time>
      </trkpt>
      <trkpt lat="43.57261" lon="5.53576">
        <ele>486.79998779297</ele>
        <time>2013-02-23T11:04:41.000Z</time>
      </trkpt>
      <trkpt lat="43.57265" lon="5.53569">
        <ele>485.79998779297</ele>
        <time>2013-02-23T11:04:42.000Z</time>
      </trkpt>
      <trkpt lat="43.5727" lon="5.53562">
        <ele>484.79998779297</ele>
        <time>2013-02-23T11:04:43.000Z</time>
      </trkpt>
      <trkpt lat="43.57274" lon="5.53555">
        <ele>484.20001220703</ele>
        <time>2013-02-23T11:04:44.000Z</time>
      </trkpt>
      <trkpt lat="43.57278" lon="5.53548">
        <ele>483.39999389648</ele>
        <time>2013-02-23T11:04:45.000Z</time>
      </trkpt>
      <trkpt lat="43.5731" lon="5.53489">
        <ele>480.79998779297</ele>
        <time>2013-02-23T11:04:53.000Z</time>
      </trkpt>
      <trkpt lat="43.57332" lon="5.5344">
        <ele>479.20001220703</ele>
        <time>2013-02-23T11:05:00.000Z</time>
      </trkpt>
      <trkpt lat="43.57363" lon="5.5338">
        <ele>478.60000610352</ele>
        <time>2013-02-23T11:05:11.000Z</time>
      </trkpt>
      <trkpt lat="43.57385" lon="5.53303">
        <ele>478.60000610352</ele>
        <time>2013-02-23T11:05:23.000Z</time>
      </trkpt>
      <trkpt lat="43.57388" lon="5.53289">
        <ele>478.20001220703</ele>
        <time>2013-02-23T11:05:25.000Z</time>
      </trkpt>
      <trkpt lat="43.57388" lon="5.53282">
        <ele>478</ele>
        <time>2013-02-23T11:05:26.000Z</time>
      </trkpt>
      <trkpt lat="43.57388" lon="5.53274">
        <ele>477.79998779297</ele>
        <time>2013-02-23T11:05:27.000Z</time>
      </trkpt>
      <trkpt lat="43.57379" lon="5.53167">
        <ele>477</ele>
        <time>2013-02-23T11:05:40.000Z</time>
      </trkpt>
      <trkpt lat="43.57375" lon="5.53073">
        <ele>477</ele>
        <time>2013-02-23T11:05:51.000Z</time>
      </trkpt>
      <trkpt lat="43.57373" lon="5.53037">
        <ele>475</ele>
        <time>2013-02-23T11:05:55.000Z</time>
      </trkpt>
      <trkpt lat="43.57374" lon="5.53027">
        <ele>474.60000610352</ele>
        <time>2013-02-23T11:05:56.000Z</time>
      </trkpt>
      <trkpt lat="43.57375" lon="5.53008">
        <ele>473.79998779297</ele>
        <time>2013-02-23T11:05:58.000Z</time>
      </trkpt>
      <trkpt lat="43.57374" lon="5.52978">
        <ele>472</ele>
        <time>2013-02-23T11:06:01.000Z</time>
      </trkpt>
      <trkpt lat="43.57371" lon="5.52915">
        <ele>467.60000610352</ele>
        <time>2013-02-23T11:06:07.000Z</time>
      </trkpt>
      <trkpt lat="43.57374" lon="5.52853">
        <ele>463.79998779297</ele>
        <time>2013-02-23T11:06:13.000Z</time>
      </trkpt>
      <trkpt lat="43.57375" lon="5.52842">
        <ele>463</ele>
        <time>2013-02-23T11:06:14.000Z</time>
      </trkpt>
      <trkpt lat="43.57375" lon="5.52808">
        <ele>461.39999389648</ele>
        <time>2013-02-23T11:06:17.000Z</time>
      </trkpt>
      <trkpt lat="43.57389" lon="5.52719">
        <ele>460.20001220703</ele>
        <time>2013-02-23T11:06:26.000Z</time>
      </trkpt>
      <trkpt lat="43.57397" lon="5.52641">
        <ele>461.39999389648</ele>
        <time>2013-02-23T11:06:36.000Z</time>
      </trkpt>
      <trkpt lat="43.57408" lon="5.52519">
        <ele>459.39999389648</ele>
        <time>2013-02-23T11:06:50.000Z</time>
      </trkpt>
      <trkpt lat="43.57418" lon="5.52429">
        <ele>462.39999389648</ele>
        <time>2013-02-23T11:07:01.000Z</time>
      </trkpt>
      <trkpt lat="43.57425" lon="5.52393">
        <ele>461.39999389648</ele>
        <time>2013-02-23T11:07:05.000Z</time>
      </trkpt>
      <trkpt lat="43.57434" lon="5.52356">
        <ele>460.20001220703</ele>
        <time>2013-02-23T11:07:09.000Z</time>
      </trkpt>
      <trkpt lat="43.57438" lon="5.52348">
        <ele>460.20001220703</ele>
        <time>2013-02-23T11:07:10.000Z</time>
      </trkpt>
      <trkpt lat="43.57457" lon="5.52308">
        <ele>459.79998779297</ele>
        <time>2013-02-23T11:07:15.000Z</time>
      </trkpt>
      <trkpt lat="43.57463" lon="5.5229">
        <ele>459.79998779297</ele>
        <time>2013-02-23T11:07:17.000Z</time>
      </trkpt>
      <trkpt lat="43.57471" lon="5.52188">
        <ele>458.60000610352</ele>
        <time>2013-02-23T11:07:28.000Z</time>
      </trkpt>
      <trkpt lat="43.5747" lon="5.5216">
        <ele>458</ele>
        <time>2013-02-23T11:07:31.000Z</time>
      </trkpt>
      <trkpt lat="43.57469" lon="5.52143">
        <ele>457.60000610352</ele>
        <time>2013-02-23T11:07:33.000Z</time>
      </trkpt>
      <trkpt lat="43.5747" lon="5.52135">
        <ele>457.60000610352</ele>
        <time>2013-02-23T11:07:34.000Z</time>
      </trkpt>
      <trkpt lat="43.57472" lon="5.52128">
        <ele>457.60000610352</ele>
        <time>2013-02-23T11:07:35.000Z</time>
      </trkpt>
      <trkpt lat="43.57475" lon="5.52121">
        <ele>457.79998779297</ele>
        <time>2013-02-23T11:07:36.000Z</time>
      </trkpt>
      <trkpt lat="43.57478" lon="5.52114">
        <ele>457.79998779297</ele>
        <time>2013-02-23T11:07:37.000Z</time>
      </trkpt>
      <trkpt lat="43.57487" lon="5.52093">
        <ele>458.20001220703</ele>
        <time>2013-02-23T11:07:40.000Z</time>
      </trkpt>
      <trkpt lat="43.57493" lon="5.52079">
        <ele>458.39999389648</ele>
        <time>2013-02-23T11:07:42.000Z</time>
      </trkpt>
      <trkpt lat="43.57496" lon="5.52058">
        <ele>458.39999389648</ele>
        <time>2013-02-23T11:07:45.000Z</time>
      </trkpt>
      <trkpt lat="43.57495" lon="5.52041">
        <ele>458.20001220703</ele>
        <time>2013-02-23T11:07:47.000Z</time>
      </trkpt>
      <trkpt lat="43.57495" lon="5.52022">
        <ele>458</ele>
        <time>2013-02-23T11:07:49.000Z</time>
      </trkpt>
      <trkpt lat="43.57496" lon="5.52013">
        <ele>457.79998779297</ele>
        <time>2013-02-23T11:07:50.000Z</time>
      </trkpt>
      <trkpt lat="43.57497" lon="5.52004">
        <ele>457.79998779297</ele>
        <time>2013-02-23T11:07:51.000Z</time>
      </trkpt>
      <trkpt lat="43.575" lon="5.51996">
        <ele>457.79998779297</ele>
        <time>2013-02-23T11:07:52.000Z</time>
      </trkpt>
      <trkpt lat="43.57503" lon="5.51989">
        <ele>457.20001220703</ele>
        <time>2013-02-23T11:07:53.000Z</time>
      </trkpt>
      <trkpt lat="43.57508" lon="5.51982">
        <ele>456.60000610352</ele>
        <time>2013-02-23T11:07:54.000Z</time>
      </trkpt>
      <trkpt lat="43.57512" lon="5.51975">
        <ele>456.20001220703</ele>
        <time>2013-02-23T11:07:55.000Z</time>
      </trkpt>
      <trkpt lat="43.57526" lon="5.51957">
        <ele>454.60000610352</ele>
        <time>2013-02-23T11:07:58.000Z</time>
      </trkpt>
      <trkpt lat="43.57535" lon="5.51942">
        <ele>453.79998779297</ele>
        <time>2013-02-23T11:08:00.000Z</time>
      </trkpt>
      <trkpt lat="43.57541" lon="5.51936">
        <ele>453.39999389648</ele>
        <time>2013-02-23T11:08:01.000Z</time>
      </trkpt>
      <trkpt lat="43.57546" lon="5.5193">
        <ele>452.79998779297</ele>
        <time>2013-02-23T11:08:02.000Z</time>
      </trkpt>
      <trkpt lat="43.57552" lon="5.51924">
        <ele>452.60000610352</ele>
        <time>2013-02-23T11:08:03.000Z</time>
      </trkpt>
      <trkpt lat="43.57557" lon="5.51918">
        <ele>452.20001220703</ele>
        <time>2013-02-23T11:08:04.000Z</time>
      </trkpt>
      <trkpt lat="43.5757" lon="5.51901">
        <ele>450.60000610352</ele>
        <time>2013-02-23T11:08:07.000Z</time>
      </trkpt>
      <trkpt lat="43.57576" lon="5.51897">
        <ele>450</ele>
        <time>2013-02-23T11:08:08.000Z</time>
      </trkpt>
      <trkpt lat="43.57582" lon="5.51894">
        <ele>449.60000610352</ele>
        <time>2013-02-23T11:08:09.000Z</time>
      </trkpt>
      <trkpt lat="43.57592" lon="5.51886">
        <ele>448.60000610352</ele>
        <time>2013-02-23T11:08:11.000Z</time>
      </trkpt>
      <trkpt lat="43.57595" lon="5.51879">
        <ele>448.20001220703</ele>
        <time>2013-02-23T11:08:12.000Z</time>
      </trkpt>
      <trkpt lat="43.57597" lon="5.51871">
        <ele>447.60000610352</ele>
        <time>2013-02-23T11:08:13.000Z</time>
      </trkpt>
      <trkpt lat="43.57598" lon="5.51861">
        <ele>447.20001220703</ele>
        <time>2013-02-23T11:08:14.000Z</time>
      </trkpt>
      <trkpt lat="43.57597" lon="5.51852">
        <ele>446.60000610352</ele>
        <time>2013-02-23T11:08:15.000Z</time>
      </trkpt>
      <trkpt lat="43.57596" lon="5.51843">
        <ele>446.20001220703</ele>
        <time>2013-02-23T11:08:16.000Z</time>
      </trkpt>
      <trkpt lat="43.57599" lon="5.51838">
        <ele>446</ele>
        <time>2013-02-23T11:08:17.000Z</time>
      </trkpt>
      <trkpt lat="43.57603" lon="5.51833">
        <ele>445.60000610352</ele>
        <time>2013-02-23T11:08:18.000Z</time>
      </trkpt>
      <trkpt lat="43.57609" lon="5.51826">
        <ele>445</ele>
        <time>2013-02-23T11:08:19.000Z</time>
      </trkpt>
      <trkpt lat="43.57615" lon="5.5182">
        <ele>444.39999389648</ele>
        <time>2013-02-23T11:08:20.000Z</time>
      </trkpt>
      <trkpt lat="43.57621" lon="5.51814">
        <ele>443.79998779297</ele>
        <time>2013-02-23T11:08:21.000Z</time>
      </trkpt>
      <trkpt lat="43.57627" lon="5.51808">
        <ele>443.20001220703</ele>
        <time>2013-02-23T11:08:22.000Z</time>
      </trkpt>
      <trkpt lat="43.57633" lon="5.51802">
        <ele>442.60000610352</ele>
        <time>2013-02-23T11:08:23.000Z</time>
      </trkpt>
      <trkpt lat="43.57636" lon="5.51795">
        <ele>442</ele>
        <time>2013-02-23T11:08:24.000Z</time>
      </trkpt>
      <trkpt lat="43.57638" lon="5.51786">
        <ele>441.20001220703</ele>
        <time>2013-02-23T11:08:25.000Z</time>
      </trkpt>
      <trkpt lat="43.57638" lon="5.51776">
        <ele>440.39999389648</ele>
        <time>2013-02-23T11:08:26.000Z</time>
      </trkpt>
      <trkpt lat="43.57638" lon="5.51766">
        <ele>439.60000610352</ele>
        <time>2013-02-23T11:08:27.000Z</time>
      </trkpt>
      <trkpt lat="43.57636" lon="5.51755">
        <ele>438.79998779297</ele>
        <time>2013-02-23T11:08:28.000Z</time>
      </trkpt>
      <trkpt lat="43.57634" lon="5.51746">
        <ele>438</ele>
        <time>2013-02-23T11:08:29.000Z</time>
      </trkpt>
      <trkpt lat="43.5763" lon="5.51726">
        <ele>436.20001220703</ele>
        <time>2013-02-23T11:08:31.000Z</time>
      </trkpt>
      <trkpt lat="43.57629" lon="5.51715">
        <ele>435.39999389648</ele>
        <time>2013-02-23T11:08:32.000Z</time>
      </trkpt>
      <trkpt lat="43.57629" lon="5.51704">
        <ele>434.39999389648</ele>
        <time>2013-02-23T11:08:33.000Z</time>
      </trkpt>
      <trkpt lat="43.57628" lon="5.51694">
        <ele>433.60000610352</ele>
        <time>2013-02-23T11:08:34.000Z</time>
      </trkpt>
      <trkpt lat="43.57628" lon="5.51684">
        <ele>432.60000610352</ele>
        <time>2013-02-23T11:08:35.000Z</time>
      </trkpt>
      <trkpt lat="43.57628" lon="5.51673">
        <ele>431.79998779297</ele>
        <time>2013-02-23T11:08:36.000Z</time>
      </trkpt>
      <trkpt lat="43.5763" lon="5.51662">
        <ele>430.79998779297</ele>
        <time>2013-02-23T11:08:37.000Z</time>
      </trkpt>
      <trkpt lat="43.57633" lon="5.51652">
        <ele>429.79998779297</ele>
        <time>2013-02-23T11:08:38.000Z</time>
      </trkpt>
      <trkpt lat="43.57644" lon="5.51622">
        <ele>427.20001220703</ele>
        <time>2013-02-23T11:08:41.000Z</time>
      </trkpt>
      <trkpt lat="43.57651" lon="5.51603">
        <ele>425.60000610352</ele>
        <time>2013-02-23T11:08:43.000Z</time>
      </trkpt>
      <trkpt lat="43.57655" lon="5.51593">
        <ele>425</ele>
        <time>2013-02-23T11:08:44.000Z</time>
      </trkpt>
      <trkpt lat="43.57664" lon="5.51566">
        <ele>422.60000610352</ele>
        <time>2013-02-23T11:08:47.000Z</time>
      </trkpt>
      <trkpt lat="43.57667" lon="5.51556">
        <ele>422</ele>
        <time>2013-02-23T11:08:48.000Z</time>
      </trkpt>
      <trkpt lat="43.57671" lon="5.51524">
        <ele>419.60000610352</ele>
        <time>2013-02-23T11:08:51.000Z</time>
      </trkpt>
      <trkpt lat="43.57679" lon="5.51495">
        <ele>417.60000610352</ele>
        <time>2013-02-23T11:08:54.000Z</time>
      </trkpt>
      <trkpt lat="43.57682" lon="5.51486">
        <ele>417.39999389648</ele>
        <time>2013-02-23T11:08:55.000Z</time>
      </trkpt>
      <trkpt lat="43.57692" lon="5.51468">
        <ele>416.39999389648</ele>
        <time>2013-02-23T11:08:57.000Z</time>
      </trkpt>
      <trkpt lat="43.5771" lon="5.51444">
        <ele>414.39999389648</ele>
        <time>2013-02-23T11:09:00.000Z</time>
      </trkpt>
      <trkpt lat="43.57716" lon="5.51438">
        <ele>413.60000610352</ele>
        <time>2013-02-23T11:09:01.000Z</time>
      </trkpt>
      <trkpt lat="43.57721" lon="5.51432">
        <ele>412.79998779297</ele>
        <time>2013-02-23T11:09:02.000Z</time>
      </trkpt>
      <trkpt lat="43.57725" lon="5.51425">
        <ele>412</ele>
        <time>2013-02-23T11:09:03.000Z</time>
      </trkpt>
      <trkpt lat="43.57728" lon="5.51417">
        <ele>411</ele>
        <time>2013-02-23T11:09:04.000Z</time>
      </trkpt>
      <trkpt lat="43.57731" lon="5.51408">
        <ele>410.20001220703</ele>
        <time>2013-02-23T11:09:05.000Z</time>
      </trkpt>
      <trkpt lat="43.57735" lon="5.51393">
        <ele>408.79998779297</ele>
        <time>2013-02-23T11:09:07.000Z</time>
      </trkpt>
      <trkpt lat="43.57737" lon="5.51385">
        <ele>408</ele>
        <time>2013-02-23T11:09:08.000Z</time>
      </trkpt>
      <trkpt lat="43.5774" lon="5.51372">
        <ele>407</ele>
        <time>2013-02-23T11:09:10.000Z</time>
      </trkpt>
      <trkpt lat="43.57743" lon="5.51369">
        <ele>406.60000610352</ele>
        <time>2013-02-23T11:09:11.000Z</time>
      </trkpt>
      <trkpt lat="43.57752" lon="5.51368">
        <ele>405.60000610352</ele>
        <time>2013-02-23T11:09:13.000Z</time>
      </trkpt>
      <trkpt lat="43.57756" lon="5.51363">
        <ele>405</ele>
        <time>2013-02-23T11:09:14.000Z</time>
      </trkpt>
      <trkpt lat="43.57759" lon="5.51357">
        <ele>404.20001220703</ele>
        <time>2013-02-23T11:09:15.000Z</time>
      </trkpt>
      <trkpt lat="43.57762" lon="5.51352">
        <ele>403.20001220703</ele>
        <time>2013-02-23T11:09:16.000Z</time>
      </trkpt>
      <trkpt lat="43.57765" lon="5.51346">
        <ele>402.39999389648</ele>
        <time>2013-02-23T11:09:17.000Z</time>
      </trkpt>
      <trkpt lat="43.57769" lon="5.5134">
        <ele>401.39999389648</ele>
        <time>2013-02-23T11:09:18.000Z</time>
      </trkpt>
      <trkpt lat="43.57773" lon="5.51334">
        <ele>400.39999389648</ele>
        <time>2013-02-23T11:09:19.000Z</time>
      </trkpt>
      <trkpt lat="43.57776" lon="5.51328">
        <ele>399.60000610352</ele>
        <time>2013-02-23T11:09:20.000Z</time>
      </trkpt>
      <trkpt lat="43.57783" lon="5.51305">
        <ele>396.79998779297</ele>
        <time>2013-02-23T11:09:23.000Z</time>
      </trkpt>
      <trkpt lat="43.57786" lon="5.51297">
        <ele>395.79998779297</ele>
        <time>2013-02-23T11:09:24.000Z</time>
      </trkpt>
      <trkpt lat="43.57788" lon="5.51288">
        <ele>395</ele>
        <time>2013-02-23T11:09:25.000Z</time>
      </trkpt>
      <trkpt lat="43.57791" lon="5.5128">
        <ele>394.39999389648</ele>
        <time>2013-02-23T11:09:26.000Z</time>
      </trkpt>
      <trkpt lat="43.57794" lon="5.51272">
        <ele>393.60000610352</ele>
        <time>2013-02-23T11:09:27.000Z</time>
      </trkpt>
      <trkpt lat="43.57797" lon="5.51267">
        <ele>393</ele>
        <time>2013-02-23T11:09:28.000Z</time>
      </trkpt>
      <trkpt lat="43.57801" lon="5.51263">
        <ele>392.60000610352</ele>
        <time>2013-02-23T11:09:29.000Z</time>
      </trkpt>
      <trkpt lat="43.57803" lon="5.51261">
        <ele>392.20001220703</ele>
        <time>2013-02-23T11:09:30.000Z</time>
      </trkpt>
      <trkpt lat="43.57801" lon="5.51259">
        <ele>392.20001220703</ele>
        <time>2013-02-23T11:09:33.000Z</time>
      </trkpt>
      <trkpt lat="43.578" lon="5.51257">
        <ele>392.20001220703</ele>
        <time>2013-02-23T11:09:35.000Z</time>
      </trkpt>
      <trkpt lat="43.57801" lon="5.51253">
        <ele>392</ele>
        <time>2013-02-23T11:09:37.000Z</time>
      </trkpt>
      <trkpt lat="43.57802" lon="5.51251">
        <ele>391.79998779297</ele>
        <time>2013-02-23T11:09:38.000Z</time>
      </trkpt>
      <trkpt lat="43.57804" lon="5.5125">
        <ele>391.60000610352</ele>
        <time>2013-02-23T11:09:39.000Z</time>
      </trkpt>
      <trkpt lat="43.57806" lon="5.51249">
        <ele>391.60000610352</ele>
        <time>2013-02-23T11:09:40.000Z</time>
      </trkpt>
      <trkpt lat="43.57808" lon="5.5125">
        <ele>391.39999389648</ele>
        <time>2013-02-23T11:09:41.000Z</time>
      </trkpt>
      <trkpt lat="43.5781" lon="5.51251">
        <ele>391.39999389648</ele>
        <time>2013-02-23T11:09:42.000Z</time>
      </trkpt>
      <trkpt lat="43.57811" lon="5.51252">
        <ele>391.39999389648</ele>
        <time>2013-02-23T11:09:43.000Z</time>
      </trkpt>
      <trkpt lat="43.57813" lon="5.51252">
        <ele>391.20001220703</ele>
        <time>2013-02-23T11:09:44.000Z</time>
      </trkpt>
      <trkpt lat="43.57814" lon="5.51252">
        <ele>391.20001220703</ele>
        <time>2013-02-23T11:09:45.000Z</time>
      </trkpt>
      <trkpt lat="43.57815" lon="5.51251">
        <ele>391</ele>
        <time>2013-02-23T11:09:46.000Z</time>
      </trkpt>
      <trkpt lat="43.57816" lon="5.51249">
        <ele>391</ele>
        <time>2013-02-23T11:09:47.000Z</time>
      </trkpt>
      <trkpt lat="43.57817" lon="5.51247">
        <ele>391</ele>
        <time>2013-02-23T11:09:48.000Z</time>
      </trkpt>
      <trkpt lat="43.57819" lon="5.51245">
        <ele>391</ele>
        <time>2013-02-23T11:09:49.000Z</time>
      </trkpt>
      <trkpt lat="43.5782" lon="5.51243">
        <ele>391</ele>
        <time>2013-02-23T11:09:50.000Z</time>
      </trkpt>
      <trkpt lat="43.57831" lon="5.51222">
        <ele>391.60000610352</ele>
        <time>2013-02-23T11:09:56.000Z</time>
      </trkpt>
      <trkpt lat="43.57841" lon="5.5119">
        <ele>393</ele>
        <time>2013-02-23T11:10:06.000Z</time>
      </trkpt>
      <trkpt lat="43.57855" lon="5.51146">
        <ele>394</ele>
        <time>2013-02-23T11:10:17.000Z</time>
      </trkpt>
      <trkpt lat="43.57869" lon="5.51116">
        <ele>395</ele>
        <time>2013-02-23T11:10:27.000Z</time>
      </trkpt>
      <trkpt lat="43.57876" lon="5.51104">
        <ele>395.60000610352</ele>
        <time>2013-02-23T11:10:37.000Z</time>
      </trkpt>
      <trkpt lat="43.57877" lon="5.51103">
        <ele>395.79998779297</ele>
        <time>2013-02-23T11:10:52.000Z</time>
      </trkpt>
      <trkpt lat="43.57875" lon="5.51102">
        <ele>395.79998779297</ele>
        <time>2013-02-23T11:11:11.000Z</time>
      </trkpt>
      <trkpt lat="43.57875" lon="5.51103">
        <ele>395.79998779297</ele>
        <time>2013-02-23T11:11:31.000Z</time>
      </trkpt>
      <trkpt lat="43.57876" lon="5.51104">
        <ele>395.60000610352</ele>
        <time>2013-02-23T11:11:51.000Z</time>
      </trkpt>
      <trkpt lat="43.57876" lon="5.51105">
        <ele>395.60000610352</ele>
        <time>2013-02-23T11:12:05.000Z</time>
      </trkpt>
      <trkpt lat="43.57877" lon="5.51104">
        <ele>395.60000610352</ele>
        <time>2013-02-23T11:12:29.000Z</time>
      </trkpt>
      <trkpt lat="43.57876" lon="5.51104">
        <ele>395.79998779297</ele>
        <time>2013-02-23T11:12:46.000Z</time>
      </trkpt>
      <trkpt lat="43.57877" lon="5.51104">
        <ele>395.79998779297</ele>
        <time>2013-02-23T11:13:07.000Z</time>
      </trkpt>
      <trkpt lat="43.57877" lon="5.51104">
        <ele>395.60000610352</ele>
        <time>2013-02-23T11:13:22.000Z</time>
      </trkpt>
      <trkpt lat="43.57876" lon="5.511">
        <ele>396</ele>
        <time>2013-02-23T11:13:40.000Z</time>
      </trkpt>
      <trkpt lat="43.57878" lon="5.511">
        <ele>396</ele>
        <time>2013-02-23T11:13:41.000Z</time>
      </trkpt>
      <trkpt lat="43.57894" lon="5.51081">
        <ele>397.60000610352</ele>
        <time>2013-02-23T11:13:50.000Z</time>
      </trkpt>
      <trkpt lat="43.57924" lon="5.51056">
        <ele>396.20001220703</ele>
        <time>2013-02-23T11:14:00.000Z</time>
      </trkpt>
      <trkpt lat="43.57953" lon="5.5103">
        <ele>391.79998779297</ele>
        <time>2013-02-23T11:14:07.000Z</time>
      </trkpt>
      <trkpt lat="43.5797" lon="5.51011">
        <ele>390</ele>
        <time>2013-02-23T11:14:10.000Z</time>
      </trkpt>
      <trkpt lat="43.5799" lon="5.50994">
        <ele>388.20001220703</ele>
        <time>2013-02-23T11:14:13.000Z</time>
      </trkpt>
      <trkpt lat="43.58013" lon="5.50975">
        <ele>385.20001220703</ele>
        <time>2013-02-23T11:14:16.000Z</time>
      </trkpt>
      <trkpt lat="43.58021" lon="5.50971">
        <ele>384</ele>
        <time>2013-02-23T11:14:17.000Z</time>
      </trkpt>
      <trkpt lat="43.58046" lon="5.50959">
        <ele>381.20001220703</ele>
        <time>2013-02-23T11:14:20.000Z</time>
      </trkpt>
      <trkpt lat="43.58052" lon="5.50954">
        <ele>380.60000610352</ele>
        <time>2013-02-23T11:14:21.000Z</time>
      </trkpt>
      <trkpt lat="43.58057" lon="5.50948">
        <ele>380.20001220703</ele>
        <time>2013-02-23T11:14:22.000Z</time>
      </trkpt>
      <trkpt lat="43.58061" lon="5.50941">
        <ele>380</ele>
        <time>2013-02-23T11:14:23.000Z</time>
      </trkpt>
      <trkpt lat="43.58063" lon="5.50934">
        <ele>379.79998779297</ele>
        <time>2013-02-23T11:14:24.000Z</time>
      </trkpt>
      <trkpt lat="43.58065" lon="5.50925">
        <ele>379.79998779297</ele>
        <time>2013-02-23T11:14:25.000Z</time>
      </trkpt>
      <trkpt lat="43.5807" lon="5.5091">
        <ele>379.20001220703</ele>
        <time>2013-02-23T11:14:27.000Z</time>
      </trkpt>
      <trkpt lat="43.58077" lon="5.50884">
        <ele>377.20001220703</ele>
        <time>2013-02-23T11:14:30.000Z</time>
      </trkpt>
      <trkpt lat="43.58094" lon="5.50837">
        <ele>373.79998779297</ele>
        <time>2013-02-23T11:14:35.000Z</time>
      </trkpt>
      <trkpt lat="43.58109" lon="5.50795">
        <ele>370.60000610352</ele>
        <time>2013-02-23T11:14:39.000Z</time>
      </trkpt>
      <trkpt lat="43.58116" lon="5.50776">
        <ele>369.20001220703</ele>
        <time>2013-02-23T11:14:41.000Z</time>
      </trkpt>
      <trkpt lat="43.58131" lon="5.50738">
        <ele>366.60000610352</ele>
        <time>2013-02-23T11:14:45.000Z</time>
      </trkpt>
      <trkpt lat="43.58172" lon="5.50652">
        <ele>362.60000610352</ele>
        <time>2013-02-23T11:14:55.000Z</time>
      </trkpt>
      <trkpt lat="43.58216" lon="5.5058">
        <ele>360.60000610352</ele>
        <time>2013-02-23T11:15:05.000Z</time>
      </trkpt>
      <trkpt lat="43.58278" lon="5.50507">
        <ele>358.79998779297</ele>
        <time>2013-02-23T11:15:18.000Z</time>
      </trkpt>
      <trkpt lat="43.58282" lon="5.50503">
        <ele>358.60000610352</ele>
        <time>2013-02-23T11:15:19.000Z</time>
      </trkpt>
      <trkpt lat="43.58287" lon="5.505">
        <ele>358.39999389648</ele>
        <time>2013-02-23T11:15:20.000Z</time>
      </trkpt>
      <trkpt lat="43.58296" lon="5.50496">
        <ele>358</ele>
        <time>2013-02-23T11:15:22.000Z</time>
      </trkpt>
      <trkpt lat="43.583" lon="5.50498">
        <ele>358.20001220703</ele>
        <time>2013-02-23T11:15:23.000Z</time>
      </trkpt>
      <trkpt lat="43.58304" lon="5.50502">
        <ele>358.20001220703</ele>
        <time>2013-02-23T11:15:24.000Z</time>
      </trkpt>
      <trkpt lat="43.58306" lon="5.50507">
        <ele>358.20001220703</ele>
        <time>2013-02-23T11:15:25.000Z</time>
      </trkpt>
      <trkpt lat="43.58308" lon="5.50515">
        <ele>358.20001220703</ele>
        <time>2013-02-23T11:15:26.000Z</time>
      </trkpt>
      <trkpt lat="43.5831" lon="5.50522">
        <ele>358</ele>
        <time>2013-02-23T11:15:27.000Z</time>
      </trkpt>
      <trkpt lat="43.58311" lon="5.50531">
        <ele>358</ele>
        <time>2013-02-23T11:15:28.000Z</time>
      </trkpt>
      <trkpt lat="43.58313" lon="5.5054">
        <ele>357.79998779297</ele>
        <time>2013-02-23T11:15:29.000Z</time>
      </trkpt>
      <trkpt lat="43.58315" lon="5.50548">
        <ele>357.79998779297</ele>
        <time>2013-02-23T11:15:30.000Z</time>
      </trkpt>
      <trkpt lat="43.58318" lon="5.50555">
        <ele>357.39999389648</ele>
        <time>2013-02-23T11:15:31.000Z</time>
      </trkpt>
      <trkpt lat="43.58321" lon="5.50559">
        <ele>357.20001220703</ele>
        <time>2013-02-23T11:15:32.000Z</time>
      </trkpt>
      <trkpt lat="43.58325" lon="5.50562">
        <ele>357</ele>
        <time>2013-02-23T11:15:33.000Z</time>
      </trkpt>
      <trkpt lat="43.5833" lon="5.50561">
        <ele>356.60000610352</ele>
        <time>2013-02-23T11:15:34.000Z</time>
      </trkpt>
      <trkpt lat="43.58336" lon="5.50558">
        <ele>356.20001220703</ele>
        <time>2013-02-23T11:15:35.000Z</time>
      </trkpt>
      <trkpt lat="43.58342" lon="5.50555">
        <ele>355.39999389648</ele>
        <time>2013-02-23T11:15:36.000Z</time>
      </trkpt>
      <trkpt lat="43.58382" lon="5.50535">
        <ele>350.60000610352</ele>
        <time>2013-02-23T11:15:42.000Z</time>
      </trkpt>
      <trkpt lat="43.58389" lon="5.50532">
        <ele>349.79998779297</ele>
        <time>2013-02-23T11:15:43.000Z</time>
      </trkpt>
      <trkpt lat="43.58423" lon="5.50518">
        <ele>345.79998779297</ele>
        <time>2013-02-23T11:15:48.000Z</time>
      </trkpt>
      <trkpt lat="43.58456" lon="5.50504">
        <ele>343</ele>
        <time>2013-02-23T11:15:53.000Z</time>
      </trkpt>
      <trkpt lat="43.58462" lon="5.505">
        <ele>342.60000610352</ele>
        <time>2013-02-23T11:15:54.000Z</time>
      </trkpt>
      <trkpt lat="43.5847" lon="5.50493">
        <ele>341.79998779297</ele>
        <time>2013-02-23T11:15:56.000Z</time>
      </trkpt>
      <trkpt lat="43.58472" lon="5.50488">
        <ele>341.79998779297</ele>
        <time>2013-02-23T11:15:57.000Z</time>
      </trkpt>
      <trkpt lat="43.58474" lon="5.50483">
        <ele>341.60000610352</ele>
        <time>2013-02-23T11:15:58.000Z</time>
      </trkpt>
      <trkpt lat="43.58475" lon="5.50477">
        <ele>341.60000610352</ele>
        <time>2013-02-23T11:15:59.000Z</time>
      </trkpt>
      <trkpt lat="43.58477" lon="5.50471">
        <ele>341.60000610352</ele>
        <time>2013-02-23T11:16:00.000Z</time>
      </trkpt>
      <trkpt lat="43.58478" lon="5.50466">
        <ele>341.60000610352</ele>
        <time>2013-02-23T11:16:01.000Z</time>
      </trkpt>
      <trkpt lat="43.58479" lon="5.5046">
        <ele>341.60000610352</ele>
        <time>2013-02-23T11:16:02.000Z</time>
      </trkpt>
      <trkpt lat="43.58479" lon="5.50454">
        <ele>341.79998779297</ele>
        <time>2013-02-23T11:16:03.000Z</time>
      </trkpt>
      <trkpt lat="43.58479" lon="5.50448">
        <ele>341.79998779297</ele>
        <time>2013-02-23T11:16:04.000Z</time>
      </trkpt>
      <trkpt lat="43.58477" lon="5.5039">
        <ele>342</ele>
        <time>2013-02-23T11:16:15.000Z</time>
      </trkpt>
      <trkpt lat="43.58477" lon="5.50355">
        <ele>341.20001220703</ele>
        <time>2013-02-23T11:16:22.000Z</time>
      </trkpt>
      <trkpt lat="43.58475" lon="5.5035">
        <ele>341.20001220703</ele>
        <time>2013-02-23T11:16:23.000Z</time>
      </trkpt>
      <trkpt lat="43.58473" lon="5.50345">
        <ele>341.20001220703</ele>
        <time>2013-02-23T11:16:24.000Z</time>
      </trkpt>
      <trkpt lat="43.58469" lon="5.50341">
        <ele>341.20001220703</ele>
        <time>2013-02-23T11:16:25.000Z</time>
      </trkpt>
      <trkpt lat="43.58465" lon="5.50338">
        <ele>341.20001220703</ele>
        <time>2013-02-23T11:16:26.000Z</time>
      </trkpt>
      <trkpt lat="43.5846" lon="5.50335">
        <ele>341.39999389648</ele>
        <time>2013-02-23T11:16:27.000Z</time>
      </trkpt>
      <trkpt lat="43.58456" lon="5.50333">
        <ele>341.60000610352</ele>
        <time>2013-02-23T11:16:28.000Z</time>
      </trkpt>
      <trkpt lat="43.58392" lon="5.50298">
        <ele>342.79998779297</ele>
        <time>2013-02-23T11:16:42.000Z</time>
      </trkpt>
      <trkpt lat="43.58362" lon="5.50274">
        <ele>342.79998779297</ele>
        <time>2013-02-23T11:16:52.000Z</time>
      </trkpt>
      <trkpt lat="43.58344" lon="5.50256">
        <ele>342.79998779297</ele>
        <time>2013-02-23T11:17:02.000Z</time>
      </trkpt>
      <trkpt lat="43.58343" lon="5.50248">
        <ele>343</ele>
        <time>2013-02-23T11:17:11.000Z</time>
      </trkpt>
      <trkpt lat="43.58345" lon="5.50246">
        <ele>343</ele>
        <time>2013-02-23T11:17:33.000Z</time>
      </trkpt>
      <trkpt lat="43.58345" lon="5.50244">
        <ele>343</ele>
        <time>2013-02-23T11:17:38.000Z</time>
      </trkpt>
      <trkpt lat="43.58347" lon="5.50244">
        <ele>343</ele>
        <time>2013-02-23T11:17:39.000Z</time>
      </trkpt>
      <trkpt lat="43.58349" lon="5.50244">
        <ele>343</ele>
        <time>2013-02-23T11:17:40.000Z</time>
      </trkpt>
      <trkpt lat="43.58378" lon="5.5025">
        <ele>343</ele>
        <time>2013-02-23T11:17:49.000Z</time>
      </trkpt>
      <trkpt lat="43.58414" lon="5.50234">
        <ele>343.39999389648</ele>
        <time>2013-02-23T11:17:59.000Z</time>
      </trkpt>
      <trkpt lat="43.58424" lon="5.50224">
        <ele>343.79998779297</ele>
        <time>2013-02-23T11:18:02.000Z</time>
      </trkpt>
      <trkpt lat="43.58428" lon="5.50222">
        <ele>343.79998779297</ele>
        <time>2013-02-23T11:18:03.000Z</time>
      </trkpt>
      <trkpt lat="43.58431" lon="5.5022">
        <ele>343.79998779297</ele>
        <time>2013-02-23T11:18:04.000Z</time>
      </trkpt>
      <trkpt lat="43.58459" lon="5.50212">
        <ele>343.79998779297</ele>
        <time>2013-02-23T11:18:10.000Z</time>
      </trkpt>
      <trkpt lat="43.58464" lon="5.50209">
        <ele>343.79998779297</ele>
        <time>2013-02-23T11:18:11.000Z</time>
      </trkpt>
      <trkpt lat="43.58468" lon="5.50205">
        <ele>344</ele>
        <time>2013-02-23T11:18:12.000Z</time>
      </trkpt>
      <trkpt lat="43.58472" lon="5.502">
        <ele>344.20001220703</ele>
        <time>2013-02-23T11:18:13.000Z</time>
      </trkpt>
      <trkpt lat="43.58477" lon="5.50193">
        <ele>344.39999389648</ele>
        <time>2013-02-23T11:18:14.000Z</time>
      </trkpt>
      <trkpt lat="43.58481" lon="5.50186">
        <ele>344.79998779297</ele>
        <time>2013-02-23T11:18:15.000Z</time>
      </trkpt>
      <trkpt lat="43.58485" lon="5.5018">
        <ele>345.20001220703</ele>
        <time>2013-02-23T11:18:16.000Z</time>
      </trkpt>
      <trkpt lat="43.58512" lon="5.50134">
        <ele>344.60000610352</ele>
        <time>2013-02-23T11:18:24.000Z</time>
      </trkpt>
      <trkpt lat="43.58519" lon="5.50114">
        <ele>343.79998779297</ele>
        <time>2013-02-23T11:18:27.000Z</time>
      </trkpt>
      <trkpt lat="43.58521" lon="5.50106">
        <ele>343.60000610352</ele>
        <time>2013-02-23T11:18:28.000Z</time>
      </trkpt>
      <trkpt lat="43.58523" lon="5.50097">
        <ele>343.39999389648</ele>
        <time>2013-02-23T11:18:29.000Z</time>
      </trkpt>
      <trkpt lat="43.58524" lon="5.50088">
        <ele>343.20001220703</ele>
        <time>2013-02-23T11:18:30.000Z</time>
      </trkpt>
      <trkpt lat="43.58525" lon="5.50078">
        <ele>342.79998779297</ele>
        <time>2013-02-23T11:18:31.000Z</time>
      </trkpt>
      <trkpt lat="43.58533" lon="5.50035">
        <ele>339.60000610352</ele>
        <time>2013-02-23T11:18:36.000Z</time>
      </trkpt>
      <trkpt lat="43.58535" lon="5.50028">
        <ele>339.20001220703</ele>
        <time>2013-02-23T11:18:37.000Z</time>
      </trkpt>
      <trkpt lat="43.58538" lon="5.50022">
        <ele>338.60000610352</ele>
        <time>2013-02-23T11:18:38.000Z</time>
      </trkpt>
      <trkpt lat="43.58542" lon="5.50017">
        <ele>338.39999389648</ele>
        <time>2013-02-23T11:18:39.000Z</time>
      </trkpt>
      <trkpt lat="43.58547" lon="5.50014">
        <ele>338</ele>
        <time>2013-02-23T11:18:40.000Z</time>
      </trkpt>
      <trkpt lat="43.58553" lon="5.50012">
        <ele>337.79998779297</ele>
        <time>2013-02-23T11:18:41.000Z</time>
      </trkpt>
      <trkpt lat="43.58575" lon="5.5">
        <ele>337</ele>
        <time>2013-02-23T11:18:45.000Z</time>
      </trkpt>
      <trkpt lat="43.58581" lon="5.5">
        <ele>337</ele>
        <time>2013-02-23T11:18:46.000Z</time>
      </trkpt>
      <trkpt lat="43.58593" lon="5.49997">
        <ele>337.79998779297</ele>
        <time>2013-02-23T11:18:48.000Z</time>
      </trkpt>
      <trkpt lat="43.58598" lon="5.49993">
        <ele>338.20001220703</ele>
        <time>2013-02-23T11:18:49.000Z</time>
      </trkpt>
      <trkpt lat="43.58601" lon="5.49988">
        <ele>338.20001220703</ele>
        <time>2013-02-23T11:18:50.000Z</time>
      </trkpt>
      <trkpt lat="43.58602" lon="5.49981">
        <ele>338.20001220703</ele>
        <time>2013-02-23T11:18:51.000Z</time>
      </trkpt>
      <trkpt lat="43.58602" lon="5.49975">
        <ele>338</ele>
        <time>2013-02-23T11:18:52.000Z</time>
      </trkpt>
      <trkpt lat="43.58603" lon="5.49961">
        <ele>337.60000610352</ele>
        <time>2013-02-23T11:18:54.000Z</time>
      </trkpt>
      <trkpt lat="43.58605" lon="5.49956">
        <ele>337.60000610352</ele>
        <time>2013-02-23T11:18:55.000Z</time>
      </trkpt>
      <trkpt lat="43.58608" lon="5.49953">
        <ele>337.79998779297</ele>
        <time>2013-02-23T11:18:56.000Z</time>
      </trkpt>
      <trkpt lat="43.58611" lon="5.49953">
        <ele>338.20001220703</ele>
        <time>2013-02-23T11:18:57.000Z</time>
      </trkpt>
      <trkpt lat="43.58616" lon="5.49954">
        <ele>338.39999389648</ele>
        <time>2013-02-23T11:18:58.000Z</time>
      </trkpt>
      <trkpt lat="43.58625" lon="5.49953">
        <ele>339.20001220703</ele>
        <time>2013-02-23T11:19:00.000Z</time>
      </trkpt>
      <trkpt lat="43.58631" lon="5.49952">
        <ele>339.60000610352</ele>
        <time>2013-02-23T11:19:01.000Z</time>
      </trkpt>
      <trkpt lat="43.58636" lon="5.49949">
        <ele>340</ele>
        <time>2013-02-23T11:19:02.000Z</time>
      </trkpt>
      <trkpt lat="43.58679" lon="5.49931">
        <ele>342.79998779297</ele>
        <time>2013-02-23T11:19:11.000Z</time>
      </trkpt>
      <trkpt lat="43.58717" lon="5.49912">
        <ele>344.79998779297</ele>
        <time>2013-02-23T11:19:21.000Z</time>
      </trkpt>
      <trkpt lat="43.58771" lon="5.49882">
        <ele>346</ele>
        <time>2013-02-23T11:19:35.000Z</time>
      </trkpt>
      <trkpt lat="43.58793" lon="5.49873">
        <ele>346</ele>
        <time>2013-02-23T11:19:40.000Z</time>
      </trkpt>
      <trkpt lat="43.58798" lon="5.49873">
        <ele>346.20001220703</ele>
        <time>2013-02-23T11:19:41.000Z</time>
      </trkpt>
      <trkpt lat="43.58802" lon="5.49874">
        <ele>346.39999389648</ele>
        <time>2013-02-23T11:19:42.000Z</time>
      </trkpt>
      <trkpt lat="43.58807" lon="5.49876">
        <ele>346.60000610352</ele>
        <time>2013-02-23T11:19:43.000Z</time>
      </trkpt>
      <trkpt lat="43.58812" lon="5.49879">
        <ele>347</ele>
        <time>2013-02-23T11:19:44.000Z</time>
      </trkpt>
      <trkpt lat="43.58816" lon="5.49883">
        <ele>347.60000610352</ele>
        <time>2013-02-23T11:19:45.000Z</time>
      </trkpt>
      <trkpt lat="43.5882" lon="5.49888">
        <ele>348</ele>
        <time>2013-02-23T11:19:46.000Z</time>
      </trkpt>
      <trkpt lat="43.58823" lon="5.49893">
        <ele>348.60000610352</ele>
        <time>2013-02-23T11:19:47.000Z</time>
      </trkpt>
      <trkpt lat="43.58864" lon="5.49934">
        <ele>352.39999389648</ele>
        <time>2013-02-23T11:19:58.000Z</time>
      </trkpt>
      <trkpt lat="43.58889" lon="5.49961">
        <ele>354.60000610352</ele>
        <time>2013-02-23T11:20:07.000Z</time>
      </trkpt>
      <trkpt lat="43.58925" lon="5.49978">
        <ele>356.79998779297</ele>
        <time>2013-02-23T11:20:18.000Z</time>
      </trkpt>
      <trkpt lat="43.58971" lon="5.49971">
        <ele>358.39999389648</ele>
        <time>2013-02-23T11:20:31.000Z</time>
      </trkpt>
      <trkpt lat="43.59006" lon="5.4997">
        <ele>359.60000610352</ele>
        <time>2013-02-23T11:20:41.000Z</time>
      </trkpt>
      <trkpt lat="43.59041" lon="5.49995">
        <ele>361.39999389648</ele>
        <time>2013-02-23T11:20:51.000Z</time>
      </trkpt>
      <trkpt lat="43.59079" lon="5.50013">
        <ele>362</ele>
        <time>2013-02-23T11:21:01.000Z</time>
      </trkpt>
      <trkpt lat="43.59121" lon="5.50025">
        <ele>362.79998779297</ele>
        <time>2013-02-23T11:21:11.000Z</time>
      </trkpt>
      <trkpt lat="43.59193" lon="5.50027">
        <ele>364.60000610352</ele>
        <time>2013-02-23T11:21:25.000Z</time>
      </trkpt>
      <trkpt lat="43.59215" lon="5.50027">
        <ele>366.20001220703</ele>
        <time>2013-02-23T11:21:30.000Z</time>
      </trkpt>
      <trkpt lat="43.59255" lon="5.5003">
        <ele>369</ele>
        <time>2013-02-23T11:21:40.000Z</time>
      </trkpt>
      <trkpt lat="43.59265" lon="5.50029">
        <ele>370.39999389648</ele>
        <time>2013-02-23T11:21:43.000Z</time>
      </trkpt>
      <trkpt lat="43.59267" lon="5.50026">
        <ele>370.60000610352</ele>
        <time>2013-02-23T11:21:44.000Z</time>
      </trkpt>
      <trkpt lat="43.59268" lon="5.50021">
        <ele>370.79998779297</ele>
        <time>2013-02-23T11:21:45.000Z</time>
      </trkpt>
      <trkpt lat="43.59269" lon="5.50015">
        <ele>370.79998779297</ele>
        <time>2013-02-23T11:21:46.000Z</time>
      </trkpt>
      <trkpt lat="43.59269" lon="5.50009">
        <ele>371</ele>
        <time>2013-02-23T11:21:47.000Z</time>
      </trkpt>
      <trkpt lat="43.59269" lon="5.49998">
        <ele>371.20001220703</ele>
        <time>2013-02-23T11:21:49.000Z</time>
      </trkpt>
      <trkpt lat="43.59272" lon="5.49911">
        <ele>370</ele>
        <time>2013-02-23T11:22:03.000Z</time>
      </trkpt>
      <trkpt lat="43.59271" lon="5.49883">
        <ele>370.20001220703</ele>
        <time>2013-02-23T11:22:07.000Z</time>
      </trkpt>
      <trkpt lat="43.59268" lon="5.4987">
        <ele>370</ele>
        <time>2013-02-23T11:22:09.000Z</time>
      </trkpt>
      <trkpt lat="43.59266" lon="5.49863">
        <ele>369.79998779297</ele>
        <time>2013-02-23T11:22:10.000Z</time>
      </trkpt>
      <trkpt lat="43.59259" lon="5.49838">
        <ele>369.20001220703</ele>
        <time>2013-02-23T11:22:14.000Z</time>
      </trkpt>
      <trkpt lat="43.59258" lon="5.49831">
        <ele>369.20001220703</ele>
        <time>2013-02-23T11:22:15.000Z</time>
      </trkpt>
      <trkpt lat="43.59258" lon="5.49823">
        <ele>369.20001220703</ele>
        <time>2013-02-23T11:22:16.000Z</time>
      </trkpt>
      <trkpt lat="43.59258" lon="5.49816">
        <ele>369.39999389648</ele>
        <time>2013-02-23T11:22:17.000Z</time>
      </trkpt>
      <trkpt lat="43.59258" lon="5.49808">
        <ele>369.60000610352</ele>
        <time>2013-02-23T11:22:18.000Z</time>
      </trkpt>
      <trkpt lat="43.59259" lon="5.498">
        <ele>370</ele>
        <time>2013-02-23T11:22:19.000Z</time>
      </trkpt>
      <trkpt lat="43.59261" lon="5.49792">
        <ele>370.39999389648</ele>
        <time>2013-02-23T11:22:20.000Z</time>
      </trkpt>
      <trkpt lat="43.59263" lon="5.49785">
        <ele>370.79998779297</ele>
        <time>2013-02-23T11:22:21.000Z</time>
      </trkpt>
      <trkpt lat="43.59269" lon="5.49766">
        <ele>372.20001220703</ele>
        <time>2013-02-23T11:22:24.000Z</time>
      </trkpt>
      <trkpt lat="43.59276" lon="5.49751">
        <ele>373.39999389648</ele>
        <time>2013-02-23T11:22:27.000Z</time>
      </trkpt>
      <trkpt lat="43.59278" lon="5.49746">
        <ele>373.79998779297</ele>
        <time>2013-02-23T11:22:28.000Z</time>
      </trkpt>
      <trkpt lat="43.5928" lon="5.49741">
        <ele>374.20001220703</ele>
        <time>2013-02-23T11:22:29.000Z</time>
      </trkpt>
      <trkpt lat="43.59281" lon="5.49735">
        <ele>374.39999389648</ele>
        <time>2013-02-23T11:22:30.000Z</time>
      </trkpt>
      <trkpt lat="43.59281" lon="5.49729">
        <ele>374.79998779297</ele>
        <time>2013-02-23T11:22:31.000Z</time>
      </trkpt>
      <trkpt lat="43.59281" lon="5.49723">
        <ele>374.79998779297</ele>
        <time>2013-02-23T11:22:32.000Z</time>
      </trkpt>
      <trkpt lat="43.5928" lon="5.49717">
        <ele>374.79998779297</ele>
        <time>2013-02-23T11:22:33.000Z</time>
      </trkpt>
      <trkpt lat="43.59278" lon="5.49711">
        <ele>374.79998779297</ele>
        <time>2013-02-23T11:22:34.000Z</time>
      </trkpt>
      <trkpt lat="43.59277" lon="5.49705">
        <ele>375</ele>
        <time>2013-02-23T11:22:35.000Z</time>
      </trkpt>
      <trkpt lat="43.59277" lon="5.49699">
        <ele>375.20001220703</ele>
        <time>2013-02-23T11:22:36.000Z</time>
      </trkpt>
      <trkpt lat="43.59278" lon="5.49693">
        <ele>375.39999389648</ele>
        <time>2013-02-23T11:22:37.000Z</time>
      </trkpt>
      <trkpt lat="43.59279" lon="5.49687">
        <ele>375.60000610352</ele>
        <time>2013-02-23T11:22:38.000Z</time>
      </trkpt>
      <trkpt lat="43.5928" lon="5.49681">
        <ele>376</ele>
        <time>2013-02-23T11:22:39.000Z</time>
      </trkpt>
      <trkpt lat="43.59282" lon="5.49675">
        <ele>376.39999389648</ele>
        <time>2013-02-23T11:22:40.000Z</time>
      </trkpt>
      <trkpt lat="43.59283" lon="5.4967">
        <ele>376.79998779297</ele>
        <time>2013-02-23T11:22:41.000Z</time>
      </trkpt>
      <trkpt lat="43.59286" lon="5.49665">
        <ele>377.20001220703</ele>
        <time>2013-02-23T11:22:42.000Z</time>
      </trkpt>
      <trkpt lat="43.59302" lon="5.49629">
        <ele>378.79998779297</ele>
        <time>2013-02-23T11:22:50.000Z</time>
      </trkpt>
      <trkpt lat="43.59309" lon="5.49614">
        <ele>379.60000610352</ele>
        <time>2013-02-23T11:22:53.000Z</time>
      </trkpt>
      <trkpt lat="43.59336" lon="5.49574">
        <ele>382</ele>
        <time>2013-02-23T11:23:04.000Z</time>
      </trkpt>
      <trkpt lat="43.59364" lon="5.49537">
        <ele>384.39999389648</ele>
        <time>2013-02-23T11:23:15.000Z</time>
      </trkpt>
      <trkpt lat="43.59381" lon="5.49516">
        <ele>385.60000610352</ele>
        <time>2013-02-23T11:23:20.000Z</time>
      </trkpt>
      <trkpt lat="43.59383" lon="5.49511">
        <ele>385.79998779297</ele>
        <time>2013-02-23T11:23:21.000Z</time>
      </trkpt>
      <trkpt lat="43.59386" lon="5.49507">
        <ele>386</ele>
        <time>2013-02-23T11:23:22.000Z</time>
      </trkpt>
      <trkpt lat="43.59397" lon="5.49485">
        <ele>386.60000610352</ele>
        <time>2013-02-23T11:23:26.000Z</time>
      </trkpt>
      <trkpt lat="43.5942" lon="5.49413">
        <ele>385.79998779297</ele>
        <time>2013-02-23T11:23:37.000Z</time>
      </trkpt>
      <trkpt lat="43.59442" lon="5.49328">
        <ele>383.60000610352</ele>
        <time>2013-02-23T11:23:47.000Z</time>
      </trkpt>
      <trkpt lat="43.5948" lon="5.49233">
        <ele>385.39999389648</ele>
        <time>2013-02-23T11:23:57.000Z</time>
      </trkpt>
      <trkpt lat="43.59484" lon="5.49226">
        <ele>385.60000610352</ele>
        <time>2013-02-23T11:23:58.000Z</time>
      </trkpt>
      <trkpt lat="43.59488" lon="5.49221">
        <ele>385.79998779297</ele>
        <time>2013-02-23T11:23:59.000Z</time>
      </trkpt>
      <trkpt lat="43.59493" lon="5.49216">
        <ele>386</ele>
        <time>2013-02-23T11:24:00.000Z</time>
      </trkpt>
      <trkpt lat="43.59497" lon="5.49212">
        <ele>386.20001220703</ele>
        <time>2013-02-23T11:24:01.000Z</time>
      </trkpt>
      <trkpt lat="43.59509" lon="5.49203">
        <ele>386.39999389648</ele>
        <time>2013-02-23T11:24:04.000Z</time>
      </trkpt>
      <trkpt lat="43.59531" lon="5.49184">
        <ele>386.20001220703</ele>
        <time>2013-02-23T11:24:11.000Z</time>
      </trkpt>
      <trkpt lat="43.59534" lon="5.4918">
        <ele>386</ele>
        <time>2013-02-23T11:24:12.000Z</time>
      </trkpt>
      <trkpt lat="43.59564" lon="5.49132">
        <ele>382.20001220703</ele>
        <time>2013-02-23T11:24:21.000Z</time>
      </trkpt>
      <trkpt lat="43.59567" lon="5.49126">
        <ele>381.79998779297</ele>
        <time>2013-02-23T11:24:22.000Z</time>
      </trkpt>
      <trkpt lat="43.59572" lon="5.49114">
        <ele>380.79998779297</ele>
        <time>2013-02-23T11:24:24.000Z</time>
      </trkpt>
      <trkpt lat="43.59588" lon="5.49079">
        <ele>377.60000610352</ele>
        <time>2013-02-23T11:24:31.000Z</time>
      </trkpt>
      <trkpt lat="43.596" lon="5.49057">
        <ele>375.79998779297</ele>
        <time>2013-02-23T11:24:39.000Z</time>
      </trkpt>
      <trkpt lat="43.59602" lon="5.49057">
        <ele>375.79998779297</ele>
        <time>2013-02-23T11:24:40.000Z</time>
      </trkpt>
      <trkpt lat="43.59604" lon="5.49057">
        <ele>375.79998779297</ele>
        <time>2013-02-23T11:24:41.000Z</time>
      </trkpt>
      <trkpt lat="43.59606" lon="5.49057">
        <ele>375.79998779297</ele>
        <time>2013-02-23T11:24:42.000Z</time>
      </trkpt>
      <trkpt lat="43.59608" lon="5.49056">
        <ele>375.60000610352</ele>
        <time>2013-02-23T11:24:43.000Z</time>
      </trkpt>
      <trkpt lat="43.5961" lon="5.49052">
        <ele>375.20001220703</ele>
        <time>2013-02-23T11:24:44.000Z</time>
      </trkpt>
      <trkpt lat="43.59612" lon="5.49048">
        <ele>374.79998779297</ele>
        <time>2013-02-23T11:24:45.000Z</time>
      </trkpt>
      <trkpt lat="43.59619" lon="5.49032">
        <ele>373.20001220703</ele>
        <time>2013-02-23T11:24:48.000Z</time>
      </trkpt>
      <trkpt lat="43.59635" lon="5.49004">
        <ele>370</ele>
        <time>2013-02-23T11:24:53.000Z</time>
      </trkpt>
      <trkpt lat="43.59638" lon="5.49">
        <ele>369.60000610352</ele>
        <time>2013-02-23T11:24:54.000Z</time>
      </trkpt>
      <trkpt lat="43.59641" lon="5.48997">
        <ele>369.39999389648</ele>
        <time>2013-02-23T11:24:55.000Z</time>
      </trkpt>
      <trkpt lat="43.59645" lon="5.48995">
        <ele>369.20001220703</ele>
        <time>2013-02-23T11:24:56.000Z</time>
      </trkpt>
      <trkpt lat="43.59648" lon="5.48993">
        <ele>369.20001220703</ele>
        <time>2013-02-23T11:24:57.000Z</time>
      </trkpt>
      <trkpt lat="43.59672" lon="5.48982">
        <ele>368.79998779297</ele>
        <time>2013-02-23T11:25:06.000Z</time>
      </trkpt>
      <trkpt lat="43.59687" lon="5.48961">
        <ele>369</ele>
        <time>2013-02-23T11:25:15.000Z</time>
      </trkpt>
      <trkpt lat="43.597" lon="5.48949">
        <ele>369</ele>
        <time>2013-02-23T11:25:23.000Z</time>
      </trkpt>
      <trkpt lat="43.59701" lon="5.48948">
        <ele>369.20001220703</ele>
        <time>2013-02-23T11:25:38.000Z</time>
      </trkpt>
      <trkpt lat="43.59708" lon="5.4894">
        <ele>369.20001220703</ele>
        <time>2013-02-23T11:25:42.000Z</time>
      </trkpt>
      <trkpt lat="43.5971" lon="5.48941">
        <ele>369.20001220703</ele>
        <time>2013-02-23T11:25:43.000Z</time>
      </trkpt>
      <trkpt lat="43.59712" lon="5.48942">
        <ele>369.20001220703</ele>
        <time>2013-02-23T11:25:44.000Z</time>
      </trkpt>
      <trkpt lat="43.59714" lon="5.48944">
        <ele>369.39999389648</ele>
        <time>2013-02-23T11:25:45.000Z</time>
      </trkpt>
      <trkpt lat="43.59717" lon="5.48945">
        <ele>369.39999389648</ele>
        <time>2013-02-23T11:25:46.000Z</time>
      </trkpt>
      <trkpt lat="43.5972" lon="5.48946">
        <ele>369.60000610352</ele>
        <time>2013-02-23T11:25:47.000Z</time>
      </trkpt>
      <trkpt lat="43.59723" lon="5.48944">
        <ele>369.60000610352</ele>
        <time>2013-02-23T11:25:48.000Z</time>
      </trkpt>
      <trkpt lat="43.59725" lon="5.48941">
        <ele>369.60000610352</ele>
        <time>2013-02-23T11:25:49.000Z</time>
      </trkpt>
      <trkpt lat="43.59726" lon="5.48938">
        <ele>369.60000610352</ele>
        <time>2013-02-23T11:25:50.000Z</time>
      </trkpt>
      <trkpt lat="43.59727" lon="5.48936">
        <ele>369.60000610352</ele>
        <time>2013-02-23T11:25:51.000Z</time>
      </trkpt>
      <trkpt lat="43.59727" lon="5.48931">
        <ele>369.60000610352</ele>
        <time>2013-02-23T11:25:54.000Z</time>
      </trkpt>
      <trkpt lat="43.59726" lon="5.48929">
        <ele>369.39999389648</ele>
        <time>2013-02-23T11:25:55.000Z</time>
      </trkpt>
      <trkpt lat="43.59725" lon="5.48928">
        <ele>369.39999389648</ele>
        <time>2013-02-23T11:25:56.000Z</time>
      </trkpt>
      <trkpt lat="43.59724" lon="5.48927">
        <ele>369.39999389648</ele>
        <time>2013-02-23T11:25:57.000Z</time>
      </trkpt>
      <trkpt lat="43.59723" lon="5.48925">
        <ele>369.39999389648</ele>
        <time>2013-02-23T11:25:58.000Z</time>
      </trkpt>
      <trkpt lat="43.59724" lon="5.48923">
        <ele>369.39999389648</ele>
        <time>2013-02-23T11:26:00.000Z</time>
      </trkpt>
      <trkpt lat="43.59725" lon="5.48925">
        <ele>369.39999389648</ele>
        <time>2013-02-23T11:26:01.000Z</time>
      </trkpt>
      <trkpt lat="43.59726" lon="5.48927">
        <ele>369.39999389648</ele>
        <time>2013-02-23T11:26:02.000Z</time>
      </trkpt>
      <trkpt lat="43.5973" lon="5.48933">
        <ele>369.60000610352</ele>
        <time>2013-02-23T11:26:07.000Z</time>
      </trkpt>
      <trkpt lat="43.5973" lon="5.48935">
        <ele>369.60000610352</ele>
        <time>2013-02-23T11:26:10.000Z</time>
      </trkpt>
      <trkpt lat="43.59728" lon="5.48934">
        <ele>369.60000610352</ele>
        <time>2013-02-23T11:26:11.000Z</time>
      </trkpt>
      <trkpt lat="43.59728" lon="5.48932">
        <ele>369.60000610352</ele>
        <time>2013-02-23T11:26:19.000Z</time>
      </trkpt>
    </trkseg>
  </trk>
</gpx>